<?xml version="1.0" encoding="UTF-8" standalone="no" ?>
<gpx xmlns="http://www.topografix.com/GPX/1/1" xmlns:xsi="http://www.w3.org/2001/XMLSchema-instance" xsi:schemaLocation="http://www.topografix.com/GPX/1/1 http://www.topografix.com/GPX/1/1/gpx.xsd" version="1.1" creator="VisuGPX - https://www.visugpx.com">
  <metadata>
    <name>Rando vtt smarves, Ligugé, St benoit</name>
  </metadata>
  <trk>
    <name><![CDATA[Rando vtt smarves, Ligugé, St benoit_1]]></name>
    <trkseg>
      <trkpt lat="46.50632" lon="0.36841">
        <ele>136.4</ele>
        <time>2021-04-25T12:21:26Z</time>
      </trkpt>
      <trkpt lat="46.50623" lon="0.36835">
        <ele>136.6</ele>
        <time>2021-04-25T12:21:47Z</time>
      </trkpt>
      <trkpt lat="46.50619" lon="0.36831">
        <ele>136.2</ele>
        <time>2021-04-25T12:22:04Z</time>
      </trkpt>
      <trkpt lat="46.50619" lon="0.36831">
        <ele>136</ele>
        <time>2021-04-25T12:22:13Z</time>
      </trkpt>
      <trkpt lat="46.50619" lon="0.36831">
        <ele>136</ele>
        <time>2021-04-25T12:22:16Z</time>
      </trkpt>
      <trkpt lat="46.50618" lon="0.36836">
        <ele>136</ele>
        <time>2021-04-25T12:22:20Z</time>
      </trkpt>
      <trkpt lat="46.50613" lon="0.36837">
        <ele>136.4</ele>
        <time>2021-04-25T12:22:24Z</time>
      </trkpt>
      <trkpt lat="46.50612" lon="0.36837">
        <ele>136.6</ele>
        <time>2021-04-25T12:22:25Z</time>
      </trkpt>
      <trkpt lat="46.50605" lon="0.36835">
        <ele>136.8</ele>
        <time>2021-04-25T12:22:29Z</time>
      </trkpt>
      <trkpt lat="46.50602" lon="0.36833">
        <ele>136.6</ele>
        <time>2021-04-25T12:22:31Z</time>
      </trkpt>
      <trkpt lat="46.50592" lon="0.36822">
        <ele>136</ele>
        <time>2021-04-25T12:22:36Z</time>
      </trkpt>
      <trkpt lat="46.5059" lon="0.3682">
        <ele>136</ele>
        <time>2021-04-25T12:22:37Z</time>
      </trkpt>
      <trkpt lat="46.50586" lon="0.36812">
        <ele>135.8</ele>
        <time>2021-04-25T12:22:41Z</time>
      </trkpt>
      <trkpt lat="46.50586" lon="0.36805">
        <ele>135.6</ele>
        <time>2021-04-25T12:22:44Z</time>
      </trkpt>
      <trkpt lat="46.50584" lon="0.36802">
        <ele>135.6</ele>
        <time>2021-04-25T12:22:46Z</time>
      </trkpt>
      <trkpt lat="46.50574" lon="0.36796">
        <ele>135.6</ele>
        <time>2021-04-25T12:22:50Z</time>
      </trkpt>
      <trkpt lat="46.50563" lon="0.36784">
        <ele>135.6</ele>
        <time>2021-04-25T12:22:53Z</time>
      </trkpt>
      <trkpt lat="46.50556" lon="0.3678">
        <ele>135.4</ele>
        <time>2021-04-25T12:22:55Z</time>
      </trkpt>
      <trkpt lat="46.50552" lon="0.36776">
        <ele>135.4</ele>
        <time>2021-04-25T12:22:56Z</time>
      </trkpt>
      <trkpt lat="46.50549" lon="0.36773">
        <ele>135</ele>
        <time>2021-04-25T12:22:57Z</time>
      </trkpt>
      <trkpt lat="46.50545" lon="0.3677">
        <ele>135</ele>
        <time>2021-04-25T12:22:58Z</time>
      </trkpt>
      <trkpt lat="46.50536" lon="0.36768">
        <ele>134.8</ele>
        <time>2021-04-25T12:23:00Z</time>
      </trkpt>
      <trkpt lat="46.50523" lon="0.36763">
        <ele>135</ele>
        <time>2021-04-25T12:23:02Z</time>
      </trkpt>
      <trkpt lat="46.50519" lon="0.3676">
        <ele>135</ele>
        <time>2021-04-25T12:23:04Z</time>
      </trkpt>
      <trkpt lat="46.5051" lon="0.36755">
        <ele>134.6</ele>
        <time>2021-04-25T12:23:06Z</time>
      </trkpt>
      <trkpt lat="46.50503" lon="0.36751">
        <ele>134.2</ele>
        <time>2021-04-25T12:23:09Z</time>
      </trkpt>
      <trkpt lat="46.50501" lon="0.36749">
        <ele>133.6</ele>
        <time>2021-04-25T12:23:10Z</time>
      </trkpt>
      <trkpt lat="46.50492" lon="0.3674">
        <ele>133.2</ele>
        <time>2021-04-25T12:23:13Z</time>
      </trkpt>
      <trkpt lat="46.50481" lon="0.36732">
        <ele>133</ele>
        <time>2021-04-25T12:23:16Z</time>
      </trkpt>
      <trkpt lat="46.50475" lon="0.36729">
        <ele>133</ele>
        <time>2021-04-25T12:23:18Z</time>
      </trkpt>
      <trkpt lat="46.50463" lon="0.36723">
        <ele>133.2</ele>
        <time>2021-04-25T12:23:21Z</time>
      </trkpt>
      <trkpt lat="46.50452" lon="0.36721">
        <ele>133.6</ele>
        <time>2021-04-25T12:23:23Z</time>
      </trkpt>
      <trkpt lat="46.50448" lon="0.3672">
        <ele>133.8</ele>
        <time>2021-04-25T12:23:24Z</time>
      </trkpt>
      <trkpt lat="46.50448" lon="0.3672">
        <ele>133.8</ele>
        <time>2021-04-25T12:23:25Z</time>
      </trkpt>
      <trkpt lat="46.50422" lon="0.36715">
        <ele>134</ele>
        <time>2021-04-25T12:23:29Z</time>
      </trkpt>
      <trkpt lat="46.50395" lon="0.36707">
        <ele>134.4</ele>
        <time>2021-04-25T12:23:34Z</time>
      </trkpt>
      <trkpt lat="46.50376" lon="0.36698">
        <ele>134.6</ele>
        <time>2021-04-25T12:23:38Z</time>
      </trkpt>
      <trkpt lat="46.50373" lon="0.36695">
        <ele>134.6</ele>
        <time>2021-04-25T12:23:39Z</time>
      </trkpt>
      <trkpt lat="46.50371" lon="0.36691">
        <ele>134.8</ele>
        <time>2021-04-25T12:23:40Z</time>
      </trkpt>
      <trkpt lat="46.50362" lon="0.36689">
        <ele>134.4</ele>
        <time>2021-04-25T12:23:42Z</time>
      </trkpt>
      <trkpt lat="46.50359" lon="0.36688">
        <ele>134.4</ele>
        <time>2021-04-25T12:23:43Z</time>
      </trkpt>
      <trkpt lat="46.50351" lon="0.36688">
        <ele>134.4</ele>
        <time>2021-04-25T12:23:47Z</time>
      </trkpt>
      <trkpt lat="46.50343" lon="0.36695">
        <ele>134.8</ele>
        <time>2021-04-25T12:23:52Z</time>
      </trkpt>
      <trkpt lat="46.50341" lon="0.36696">
        <ele>135</ele>
        <time>2021-04-25T12:23:53Z</time>
      </trkpt>
      <trkpt lat="46.50338" lon="0.36698">
        <ele>135.4</ele>
        <time>2021-04-25T12:23:54Z</time>
      </trkpt>
      <trkpt lat="46.50332" lon="0.36702">
        <ele>135.6</ele>
        <time>2021-04-25T12:23:56Z</time>
      </trkpt>
      <trkpt lat="46.50331" lon="0.36704">
        <ele>135.8</ele>
        <time>2021-04-25T12:23:57Z</time>
      </trkpt>
      <trkpt lat="46.5033" lon="0.36706">
        <ele>135.8</ele>
        <time>2021-04-25T12:23:58Z</time>
      </trkpt>
      <trkpt lat="46.50327" lon="0.36711">
        <ele>136.2</ele>
        <time>2021-04-25T12:24:00Z</time>
      </trkpt>
      <trkpt lat="46.50324" lon="0.36717">
        <ele>136.4</ele>
        <time>2021-04-25T12:24:02Z</time>
      </trkpt>
      <trkpt lat="46.50323" lon="0.3672">
        <ele>136.4</ele>
        <time>2021-04-25T12:24:03Z</time>
      </trkpt>
      <trkpt lat="46.50322" lon="0.36723">
        <ele>136.4</ele>
        <time>2021-04-25T12:24:04Z</time>
      </trkpt>
      <trkpt lat="46.50321" lon="0.36731">
        <ele>136.4</ele>
        <time>2021-04-25T12:24:06Z</time>
      </trkpt>
      <trkpt lat="46.5032" lon="0.36742">
        <ele>136.8</ele>
        <time>2021-04-25T12:24:08Z</time>
      </trkpt>
      <trkpt lat="46.50317" lon="0.36752">
        <ele>137</ele>
        <time>2021-04-25T12:24:10Z</time>
      </trkpt>
      <trkpt lat="46.50314" lon="0.36762">
        <ele>137.2</ele>
        <time>2021-04-25T12:24:12Z</time>
      </trkpt>
      <trkpt lat="46.50312" lon="0.36772">
        <ele>137.2</ele>
        <time>2021-04-25T12:24:14Z</time>
      </trkpt>
      <trkpt lat="46.50308" lon="0.36784">
        <ele>137</ele>
        <time>2021-04-25T12:24:16Z</time>
      </trkpt>
      <trkpt lat="46.50299" lon="0.36795">
        <ele>137</ele>
        <time>2021-04-25T12:24:18Z</time>
      </trkpt>
      <trkpt lat="46.50288" lon="0.368">
        <ele>137</ele>
        <time>2021-04-25T12:24:20Z</time>
      </trkpt>
      <trkpt lat="46.50283" lon="0.36801">
        <ele>137.2</ele>
        <time>2021-04-25T12:24:21Z</time>
      </trkpt>
      <trkpt lat="46.50278" lon="0.36802">
        <ele>137.2</ele>
        <time>2021-04-25T12:24:22Z</time>
      </trkpt>
      <trkpt lat="46.5027" lon="0.36804">
        <ele>137.4</ele>
        <time>2021-04-25T12:24:24Z</time>
      </trkpt>
      <trkpt lat="46.50256" lon="0.36814">
        <ele>137.4</ele>
        <time>2021-04-25T12:24:27Z</time>
      </trkpt>
      <trkpt lat="46.50245" lon="0.36821">
        <ele>137.4</ele>
        <time>2021-04-25T12:24:29Z</time>
      </trkpt>
      <trkpt lat="46.50226" lon="0.36833">
        <ele>137.4</ele>
        <time>2021-04-25T12:24:33Z</time>
      </trkpt>
      <trkpt lat="46.50216" lon="0.36837">
        <ele>137.6</ele>
        <time>2021-04-25T12:24:35Z</time>
      </trkpt>
      <trkpt lat="46.50205" lon="0.36842">
        <ele>137.4</ele>
        <time>2021-04-25T12:24:37Z</time>
      </trkpt>
      <trkpt lat="46.50182" lon="0.36853">
        <ele>137.2</ele>
        <time>2021-04-25T12:24:42Z</time>
      </trkpt>
      <trkpt lat="46.50177" lon="0.36856">
        <ele>137.2</ele>
        <time>2021-04-25T12:24:43Z</time>
      </trkpt>
      <trkpt lat="46.50171" lon="0.36862">
        <ele>137</ele>
        <time>2021-04-25T12:24:45Z</time>
      </trkpt>
      <trkpt lat="46.50171" lon="0.36867">
        <ele>137</ele>
        <time>2021-04-25T12:24:46Z</time>
      </trkpt>
      <trkpt lat="46.50171" lon="0.36892">
        <ele>136.8</ele>
        <time>2021-04-25T12:24:50Z</time>
      </trkpt>
      <trkpt lat="46.50172" lon="0.36899">
        <ele>136.8</ele>
        <time>2021-04-25T12:24:51Z</time>
      </trkpt>
      <trkpt lat="46.50177" lon="0.36945">
        <ele>136.8</ele>
        <time>2021-04-25T12:24:58Z</time>
      </trkpt>
      <trkpt lat="46.50179" lon="0.36952">
        <ele>136.8</ele>
        <time>2021-04-25T12:24:59Z</time>
      </trkpt>
      <trkpt lat="46.50181" lon="0.36967">
        <ele>136.8</ele>
        <time>2021-04-25T12:25:01Z</time>
      </trkpt>
      <trkpt lat="46.50184" lon="0.36981">
        <ele>136.8</ele>
        <time>2021-04-25T12:25:03Z</time>
      </trkpt>
      <trkpt lat="46.5019" lon="0.37006">
        <ele>136.6</ele>
        <time>2021-04-25T12:25:07Z</time>
      </trkpt>
      <trkpt lat="46.50193" lon="0.37021">
        <ele>136.4</ele>
        <time>2021-04-25T12:25:09Z</time>
      </trkpt>
      <trkpt lat="46.50195" lon="0.37045">
        <ele>136.2</ele>
        <time>2021-04-25T12:25:12Z</time>
      </trkpt>
      <trkpt lat="46.50193" lon="0.37058">
        <ele>136</ele>
        <time>2021-04-25T12:25:14Z</time>
      </trkpt>
      <trkpt lat="46.5019" lon="0.37062">
        <ele>135.6</ele>
        <time>2021-04-25T12:25:15Z</time>
      </trkpt>
      <trkpt lat="46.50184" lon="0.37064">
        <ele>135.6</ele>
        <time>2021-04-25T12:25:17Z</time>
      </trkpt>
      <trkpt lat="46.50169" lon="0.37062">
        <ele>135.4</ele>
        <time>2021-04-25T12:25:22Z</time>
      </trkpt>
      <trkpt lat="46.50151" lon="0.37057">
        <ele>135.6</ele>
        <time>2021-04-25T12:25:27Z</time>
      </trkpt>
      <trkpt lat="46.50131" lon="0.37051">
        <ele>135.6</ele>
        <time>2021-04-25T12:25:33Z</time>
      </trkpt>
      <trkpt lat="46.50126" lon="0.3705">
        <ele>136</ele>
        <time>2021-04-25T12:25:35Z</time>
      </trkpt>
      <trkpt lat="46.50124" lon="0.37052">
        <ele>136</ele>
        <time>2021-04-25T12:25:36Z</time>
      </trkpt>
      <trkpt lat="46.50122" lon="0.37056">
        <ele>136</ele>
        <time>2021-04-25T12:25:37Z</time>
      </trkpt>
      <trkpt lat="46.50116" lon="0.37074">
        <ele>136.2</ele>
        <time>2021-04-25T12:25:42Z</time>
      </trkpt>
      <trkpt lat="46.50115" lon="0.37078">
        <ele>136</ele>
        <time>2021-04-25T12:25:43Z</time>
      </trkpt>
      <trkpt lat="46.50112" lon="0.3709">
        <ele>136</ele>
        <time>2021-04-25T12:25:46Z</time>
      </trkpt>
      <trkpt lat="46.50105" lon="0.37096">
        <ele>136.2</ele>
        <time>2021-04-25T12:25:48Z</time>
      </trkpt>
      <trkpt lat="46.50099" lon="0.37099">
        <ele>136.2</ele>
        <time>2021-04-25T12:25:50Z</time>
      </trkpt>
      <trkpt lat="46.50091" lon="0.37098">
        <ele>135.8</ele>
        <time>2021-04-25T12:25:52Z</time>
      </trkpt>
      <trkpt lat="46.50089" lon="0.37097">
        <ele>135.8</ele>
        <time>2021-04-25T12:25:53Z</time>
      </trkpt>
      <trkpt lat="46.50088" lon="0.37096">
        <ele>135.6</ele>
        <time>2021-04-25T12:25:54Z</time>
      </trkpt>
      <trkpt lat="46.50083" lon="0.37092">
        <ele>136.2</ele>
        <time>2021-04-25T12:25:56Z</time>
      </trkpt>
      <trkpt lat="46.50079" lon="0.37089">
        <ele>136.4</ele>
        <time>2021-04-25T12:25:57Z</time>
      </trkpt>
      <trkpt lat="46.50074" lon="0.37087">
        <ele>136.4</ele>
        <time>2021-04-25T12:25:58Z</time>
      </trkpt>
      <trkpt lat="46.50062" lon="0.3708">
        <ele>136.6</ele>
        <time>2021-04-25T12:26:01Z</time>
      </trkpt>
      <trkpt lat="46.50059" lon="0.37078">
        <ele>136.6</ele>
        <time>2021-04-25T12:26:02Z</time>
      </trkpt>
      <trkpt lat="46.50057" lon="0.37075">
        <ele>136.6</ele>
        <time>2021-04-25T12:26:03Z</time>
      </trkpt>
      <trkpt lat="46.50048" lon="0.37065">
        <ele>136.4</ele>
        <time>2021-04-25T12:26:07Z</time>
      </trkpt>
      <trkpt lat="46.50045" lon="0.37061">
        <ele>136.6</ele>
        <time>2021-04-25T12:26:09Z</time>
      </trkpt>
      <trkpt lat="46.50043" lon="0.37059">
        <ele>136.8</ele>
        <time>2021-04-25T12:26:10Z</time>
      </trkpt>
      <trkpt lat="46.50037" lon="0.37056">
        <ele>136.8</ele>
        <time>2021-04-25T12:26:12Z</time>
      </trkpt>
      <trkpt lat="46.50032" lon="0.37055">
        <ele>137</ele>
        <time>2021-04-25T12:26:15Z</time>
      </trkpt>
      <trkpt lat="46.5003" lon="0.37055">
        <ele>136.8</ele>
        <time>2021-04-25T12:26:16Z</time>
      </trkpt>
      <trkpt lat="46.50028" lon="0.37056">
        <ele>136.8</ele>
        <time>2021-04-25T12:26:17Z</time>
      </trkpt>
      <trkpt lat="46.50023" lon="0.37061">
        <ele>136.6</ele>
        <time>2021-04-25T12:26:21Z</time>
      </trkpt>
      <trkpt lat="46.50007" lon="0.37058">
        <ele>136.4</ele>
        <time>2021-04-25T12:26:27Z</time>
      </trkpt>
      <trkpt lat="46.49995" lon="0.37053">
        <ele>136.4</ele>
        <time>2021-04-25T12:26:32Z</time>
      </trkpt>
      <trkpt lat="46.49992" lon="0.37053">
        <ele>136.6</ele>
        <time>2021-04-25T12:26:34Z</time>
      </trkpt>
      <trkpt lat="46.49984" lon="0.37054">
        <ele>137.2</ele>
        <time>2021-04-25T12:26:37Z</time>
      </trkpt>
      <trkpt lat="46.49976" lon="0.37059">
        <ele>137.2</ele>
        <time>2021-04-25T12:26:42Z</time>
      </trkpt>
      <trkpt lat="46.49966" lon="0.37064">
        <ele>137</ele>
        <time>2021-04-25T12:26:47Z</time>
      </trkpt>
      <trkpt lat="46.4996" lon="0.37065">
        <ele>137.2</ele>
        <time>2021-04-25T12:26:50Z</time>
      </trkpt>
      <trkpt lat="46.49959" lon="0.37065">
        <ele>137.2</ele>
        <time>2021-04-25T12:26:51Z</time>
      </trkpt>
      <trkpt lat="46.49953" lon="0.37068">
        <ele>137.2</ele>
        <time>2021-04-25T12:26:54Z</time>
      </trkpt>
      <trkpt lat="46.4995" lon="0.37072">
        <ele>137.4</ele>
        <time>2021-04-25T12:26:56Z</time>
      </trkpt>
      <trkpt lat="46.49945" lon="0.37078">
        <ele>137.6</ele>
        <time>2021-04-25T12:26:59Z</time>
      </trkpt>
      <trkpt lat="46.4994" lon="0.37084">
        <ele>137.2</ele>
        <time>2021-04-25T12:27:01Z</time>
      </trkpt>
      <trkpt lat="46.49936" lon="0.37086">
        <ele>137</ele>
        <time>2021-04-25T12:27:02Z</time>
      </trkpt>
      <trkpt lat="46.49929" lon="0.3709">
        <ele>137</ele>
        <time>2021-04-25T12:27:04Z</time>
      </trkpt>
      <trkpt lat="46.49924" lon="0.37096">
        <ele>137.2</ele>
        <time>2021-04-25T12:27:06Z</time>
      </trkpt>
      <trkpt lat="46.49919" lon="0.37104">
        <ele>137.8</ele>
        <time>2021-04-25T12:27:09Z</time>
      </trkpt>
      <trkpt lat="46.49919" lon="0.37109">
        <ele>138</ele>
        <time>2021-04-25T12:27:11Z</time>
      </trkpt>
      <trkpt lat="46.49918" lon="0.37118">
        <ele>138.2</ele>
        <time>2021-04-25T12:27:13Z</time>
      </trkpt>
      <trkpt lat="46.49912" lon="0.37126">
        <ele>138.2</ele>
        <time>2021-04-25T12:27:15Z</time>
      </trkpt>
      <trkpt lat="46.49906" lon="0.37136">
        <ele>138.2</ele>
        <time>2021-04-25T12:27:18Z</time>
      </trkpt>
      <trkpt lat="46.49904" lon="0.3714">
        <ele>138.2</ele>
        <time>2021-04-25T12:27:19Z</time>
      </trkpt>
      <trkpt lat="46.49902" lon="0.37144">
        <ele>138.4</ele>
        <time>2021-04-25T12:27:20Z</time>
      </trkpt>
      <trkpt lat="46.49897" lon="0.37149">
        <ele>138.2</ele>
        <time>2021-04-25T12:27:22Z</time>
      </trkpt>
      <trkpt lat="46.49895" lon="0.37152">
        <ele>138.4</ele>
        <time>2021-04-25T12:27:23Z</time>
      </trkpt>
      <trkpt lat="46.49888" lon="0.37159">
        <ele>138.4</ele>
        <time>2021-04-25T12:27:24Z</time>
      </trkpt>
      <trkpt lat="46.49878" lon="0.37169">
        <ele>138.4</ele>
        <time>2021-04-25T12:27:27Z</time>
      </trkpt>
      <trkpt lat="46.49878" lon="0.37182">
        <ele>138.2</ele>
        <time>2021-04-25T12:27:30Z</time>
      </trkpt>
      <trkpt lat="46.49879" lon="0.37193">
        <ele>138.4</ele>
        <time>2021-04-25T12:27:32Z</time>
      </trkpt>
      <trkpt lat="46.49888" lon="0.37205">
        <ele>138.2</ele>
        <time>2021-04-25T12:27:35Z</time>
      </trkpt>
      <trkpt lat="46.4991" lon="0.37243">
        <ele>138.2</ele>
        <time>2021-04-25T12:27:43Z</time>
      </trkpt>
      <trkpt lat="46.49924" lon="0.37264">
        <ele>137.6</ele>
        <time>2021-04-25T12:27:49Z</time>
      </trkpt>
      <trkpt lat="46.49937" lon="0.3728">
        <ele>137.2</ele>
        <time>2021-04-25T12:27:56Z</time>
      </trkpt>
      <trkpt lat="46.49952" lon="0.37297">
        <ele>137.2</ele>
        <time>2021-04-25T12:28:03Z</time>
      </trkpt>
      <trkpt lat="46.49962" lon="0.37308">
        <ele>137</ele>
        <time>2021-04-25T12:28:08Z</time>
      </trkpt>
      <trkpt lat="46.49963" lon="0.37309">
        <ele>137</ele>
        <time>2021-04-25T12:28:09Z</time>
      </trkpt>
      <trkpt lat="46.49962" lon="0.37309">
        <ele>137</ele>
        <time>2021-04-25T12:28:11Z</time>
      </trkpt>
      <trkpt lat="46.49959" lon="0.37307">
        <ele>137</ele>
        <time>2021-04-25T12:28:15Z</time>
      </trkpt>
      <trkpt lat="46.49957" lon="0.37305">
        <ele>137.2</ele>
        <time>2021-04-25T12:28:16Z</time>
      </trkpt>
      <trkpt lat="46.49949" lon="0.37298">
        <ele>137.4</ele>
        <time>2021-04-25T12:28:21Z</time>
      </trkpt>
      <trkpt lat="46.49937" lon="0.37287">
        <ele>137.4</ele>
        <time>2021-04-25T12:28:26Z</time>
      </trkpt>
      <trkpt lat="46.49922" lon="0.37273">
        <ele>137.8</ele>
        <time>2021-04-25T12:28:31Z</time>
      </trkpt>
      <trkpt lat="46.49914" lon="0.37279">
        <ele>138</ele>
        <time>2021-04-25T12:28:35Z</time>
      </trkpt>
      <trkpt lat="46.4991" lon="0.37284">
        <ele>138.2</ele>
        <time>2021-04-25T12:28:37Z</time>
      </trkpt>
      <trkpt lat="46.49898" lon="0.37293">
        <ele>138</ele>
        <time>2021-04-25T12:28:41Z</time>
      </trkpt>
      <trkpt lat="46.49887" lon="0.37301">
        <ele>138.2</ele>
        <time>2021-04-25T12:28:44Z</time>
      </trkpt>
      <trkpt lat="46.49876" lon="0.3731">
        <ele>138.8</ele>
        <time>2021-04-25T12:28:47Z</time>
      </trkpt>
      <trkpt lat="46.49873" lon="0.37312">
        <ele>138.8</ele>
        <time>2021-04-25T12:28:48Z</time>
      </trkpt>
      <trkpt lat="46.4987" lon="0.37316">
        <ele>138.8</ele>
        <time>2021-04-25T12:28:49Z</time>
      </trkpt>
      <trkpt lat="46.49866" lon="0.37321">
        <ele>138.8</ele>
        <time>2021-04-25T12:28:50Z</time>
      </trkpt>
      <trkpt lat="46.49859" lon="0.37323">
        <ele>139</ele>
        <time>2021-04-25T12:28:52Z</time>
      </trkpt>
      <trkpt lat="46.49842" lon="0.37324">
        <ele>138.8</ele>
        <time>2021-04-25T12:28:56Z</time>
      </trkpt>
      <trkpt lat="46.49825" lon="0.37317">
        <ele>138.8</ele>
        <time>2021-04-25T12:29:00Z</time>
      </trkpt>
      <trkpt lat="46.49818" lon="0.37312">
        <ele>139.2</ele>
        <time>2021-04-25T12:29:02Z</time>
      </trkpt>
      <trkpt lat="46.49814" lon="0.37309">
        <ele>139.2</ele>
        <time>2021-04-25T12:29:03Z</time>
      </trkpt>
      <trkpt lat="46.49809" lon="0.37308">
        <ele>139</ele>
        <time>2021-04-25T12:29:05Z</time>
      </trkpt>
      <trkpt lat="46.49793" lon="0.37313">
        <ele>139.4</ele>
        <time>2021-04-25T12:29:09Z</time>
      </trkpt>
      <trkpt lat="46.49782" lon="0.37319">
        <ele>139.4</ele>
        <time>2021-04-25T12:29:12Z</time>
      </trkpt>
      <trkpt lat="46.49779" lon="0.37323">
        <ele>139.2</ele>
        <time>2021-04-25T12:29:13Z</time>
      </trkpt>
      <trkpt lat="46.49775" lon="0.3733">
        <ele>139</ele>
        <time>2021-04-25T12:29:15Z</time>
      </trkpt>
      <trkpt lat="46.49769" lon="0.37348">
        <ele>138.8</ele>
        <time>2021-04-25T12:29:19Z</time>
      </trkpt>
      <trkpt lat="46.49766" lon="0.37364">
        <ele>139.2</ele>
        <time>2021-04-25T12:29:22Z</time>
      </trkpt>
      <trkpt lat="46.49763" lon="0.3738">
        <ele>139.6</ele>
        <time>2021-04-25T12:29:24Z</time>
      </trkpt>
      <trkpt lat="46.49761" lon="0.37387">
        <ele>139.6</ele>
        <time>2021-04-25T12:29:25Z</time>
      </trkpt>
      <trkpt lat="46.49757" lon="0.37401">
        <ele>139.8</ele>
        <time>2021-04-25T12:29:27Z</time>
      </trkpt>
      <trkpt lat="46.49753" lon="0.37417">
        <ele>139.4</ele>
        <time>2021-04-25T12:29:30Z</time>
      </trkpt>
      <trkpt lat="46.49752" lon="0.37422">
        <ele>139.4</ele>
        <time>2021-04-25T12:29:31Z</time>
      </trkpt>
      <trkpt lat="46.49749" lon="0.3743">
        <ele>139.4</ele>
        <time>2021-04-25T12:29:33Z</time>
      </trkpt>
      <trkpt lat="46.49744" lon="0.37442">
        <ele>139.6</ele>
        <time>2021-04-25T12:29:36Z</time>
      </trkpt>
      <trkpt lat="46.4974" lon="0.37452">
        <ele>139.8</ele>
        <time>2021-04-25T12:29:38Z</time>
      </trkpt>
      <trkpt lat="46.49738" lon="0.37457">
        <ele>139.8</ele>
        <time>2021-04-25T12:29:39Z</time>
      </trkpt>
      <trkpt lat="46.49732" lon="0.37468">
        <ele>139.8</ele>
        <time>2021-04-25T12:29:42Z</time>
      </trkpt>
      <trkpt lat="46.49727" lon="0.37477">
        <ele>139.8</ele>
        <time>2021-04-25T12:29:44Z</time>
      </trkpt>
      <trkpt lat="46.49725" lon="0.37482">
        <ele>139.8</ele>
        <time>2021-04-25T12:29:45Z</time>
      </trkpt>
      <trkpt lat="46.49721" lon="0.37494">
        <ele>139.6</ele>
        <time>2021-04-25T12:29:47Z</time>
      </trkpt>
      <trkpt lat="46.49718" lon="0.37505">
        <ele>139.4</ele>
        <time>2021-04-25T12:29:49Z</time>
      </trkpt>
      <trkpt lat="46.49717" lon="0.37511">
        <ele>139.2</ele>
        <time>2021-04-25T12:29:50Z</time>
      </trkpt>
      <trkpt lat="46.49715" lon="0.37516">
        <ele>139.2</ele>
        <time>2021-04-25T12:29:51Z</time>
      </trkpt>
      <trkpt lat="46.49711" lon="0.37527">
        <ele>139.4</ele>
        <time>2021-04-25T12:29:53Z</time>
      </trkpt>
      <trkpt lat="46.49708" lon="0.37541">
        <ele>139.2</ele>
        <time>2021-04-25T12:29:56Z</time>
      </trkpt>
      <trkpt lat="46.49698" lon="0.37564">
        <ele>139</ele>
        <time>2021-04-25T12:30:01Z</time>
      </trkpt>
      <trkpt lat="46.49697" lon="0.37589">
        <ele>139.2</ele>
        <time>2021-04-25T12:30:05Z</time>
      </trkpt>
      <trkpt lat="46.497" lon="0.37615">
        <ele>139</ele>
        <time>2021-04-25T12:30:12Z</time>
      </trkpt>
      <trkpt lat="46.49712" lon="0.37631">
        <ele>139</ele>
        <time>2021-04-25T12:30:18Z</time>
      </trkpt>
      <trkpt lat="46.49725" lon="0.37645">
        <ele>139.2</ele>
        <time>2021-04-25T12:30:25Z</time>
      </trkpt>
      <trkpt lat="46.49734" lon="0.37656">
        <ele>139</ele>
        <time>2021-04-25T12:30:30Z</time>
      </trkpt>
      <trkpt lat="46.49739" lon="0.37659">
        <ele>138.8</ele>
        <time>2021-04-25T12:30:32Z</time>
      </trkpt>
      <trkpt lat="46.49753" lon="0.37665">
        <ele>139.2</ele>
        <time>2021-04-25T12:30:37Z</time>
      </trkpt>
      <trkpt lat="46.4976" lon="0.37668">
        <ele>139.4</ele>
        <time>2021-04-25T12:30:39Z</time>
      </trkpt>
      <trkpt lat="46.49766" lon="0.37671">
        <ele>139.6</ele>
        <time>2021-04-25T12:30:41Z</time>
      </trkpt>
      <trkpt lat="46.49778" lon="0.3768">
        <ele>139.4</ele>
        <time>2021-04-25T12:30:44Z</time>
      </trkpt>
      <trkpt lat="46.49799" lon="0.37701">
        <ele>139.4</ele>
        <time>2021-04-25T12:30:49Z</time>
      </trkpt>
      <trkpt lat="46.49805" lon="0.37706">
        <ele>139.6</ele>
        <time>2021-04-25T12:30:51Z</time>
      </trkpt>
      <trkpt lat="46.49809" lon="0.3771">
        <ele>139.6</ele>
        <time>2021-04-25T12:30:52Z</time>
      </trkpt>
      <trkpt lat="46.49815" lon="0.37715">
        <ele>139.2</ele>
        <time>2021-04-25T12:30:54Z</time>
      </trkpt>
      <trkpt lat="46.49817" lon="0.37716">
        <ele>139</ele>
        <time>2021-04-25T12:30:55Z</time>
      </trkpt>
      <trkpt lat="46.4982" lon="0.37715">
        <ele>138.8</ele>
        <time>2021-04-25T12:30:56Z</time>
      </trkpt>
      <trkpt lat="46.4983" lon="0.37706">
        <ele>138.6</ele>
        <time>2021-04-25T12:31:00Z</time>
      </trkpt>
      <trkpt lat="46.49847" lon="0.37687">
        <ele>138.6</ele>
        <time>2021-04-25T12:31:07Z</time>
      </trkpt>
      <trkpt lat="46.49861" lon="0.37666">
        <ele>138.8</ele>
        <time>2021-04-25T12:31:14Z</time>
      </trkpt>
      <trkpt lat="46.49876" lon="0.37645">
        <ele>139.2</ele>
        <time>2021-04-25T12:31:21Z</time>
      </trkpt>
      <trkpt lat="46.4989" lon="0.37623">
        <ele>139.2</ele>
        <time>2021-04-25T12:31:29Z</time>
      </trkpt>
      <trkpt lat="46.49902" lon="0.37603">
        <ele>138.8</ele>
        <time>2021-04-25T12:31:36Z</time>
      </trkpt>
      <trkpt lat="46.49907" lon="0.37594">
        <ele>138.6</ele>
        <time>2021-04-25T12:31:42Z</time>
      </trkpt>
      <trkpt lat="46.49908" lon="0.37594">
        <ele>138.6</ele>
        <time>2021-04-25T12:31:43Z</time>
      </trkpt>
      <trkpt lat="46.4991" lon="0.37591">
        <ele>138.8</ele>
        <time>2021-04-25T12:31:46Z</time>
      </trkpt>
      <trkpt lat="46.4991" lon="0.3759">
        <ele>138.8</ele>
        <time>2021-04-25T12:31:48Z</time>
      </trkpt>
      <trkpt lat="46.4991" lon="0.37591">
        <ele>138.8</ele>
        <time>2021-04-25T12:31:49Z</time>
      </trkpt>
      <trkpt lat="46.49905" lon="0.37591">
        <ele>138.8</ele>
        <time>2021-04-25T12:31:54Z</time>
      </trkpt>
      <trkpt lat="46.49905" lon="0.3759">
        <ele>138.8</ele>
        <time>2021-04-25T12:31:56Z</time>
      </trkpt>
      <trkpt lat="46.49906" lon="0.3759">
        <ele>138.6</ele>
        <time>2021-04-25T12:31:58Z</time>
      </trkpt>
      <trkpt lat="46.49907" lon="0.37591">
        <ele>138.6</ele>
        <time>2021-04-25T12:32:00Z</time>
      </trkpt>
      <trkpt lat="46.49907" lon="0.37592">
        <ele>138.6</ele>
        <time>2021-04-25T12:32:01Z</time>
      </trkpt>
      <trkpt lat="46.49905" lon="0.3759">
        <ele>138.8</ele>
        <time>2021-04-25T12:32:05Z</time>
      </trkpt>
      <trkpt lat="46.49912" lon="0.37579">
        <ele>138.6</ele>
        <time>2021-04-25T12:32:09Z</time>
      </trkpt>
      <trkpt lat="46.49927" lon="0.37556">
        <ele>138.6</ele>
        <time>2021-04-25T12:32:16Z</time>
      </trkpt>
      <trkpt lat="46.49939" lon="0.37532">
        <ele>138.4</ele>
        <time>2021-04-25T12:32:23Z</time>
      </trkpt>
      <trkpt lat="46.49954" lon="0.37508">
        <ele>138</ele>
        <time>2021-04-25T12:32:30Z</time>
      </trkpt>
      <trkpt lat="46.49959" lon="0.37502">
        <ele>137.8</ele>
        <time>2021-04-25T12:32:32Z</time>
      </trkpt>
      <trkpt lat="46.49967" lon="0.37484">
        <ele>137.8</ele>
        <time>2021-04-25T12:32:37Z</time>
      </trkpt>
      <trkpt lat="46.49972" lon="0.37467">
        <ele>137.8</ele>
        <time>2021-04-25T12:32:42Z</time>
      </trkpt>
      <trkpt lat="46.49988" lon="0.37444">
        <ele>137.6</ele>
        <time>2021-04-25T12:32:49Z</time>
      </trkpt>
      <trkpt lat="46.5" lon="0.37417">
        <ele>137.4</ele>
        <time>2021-04-25T12:32:55Z</time>
      </trkpt>
      <trkpt lat="46.50023" lon="0.3739">
        <ele>137.4</ele>
        <time>2021-04-25T12:33:03Z</time>
      </trkpt>
      <trkpt lat="46.50024" lon="0.37389">
        <ele>137.2</ele>
        <time>2021-04-25T12:33:04Z</time>
      </trkpt>
      <trkpt lat="46.5003" lon="0.37382">
        <ele>136.8</ele>
        <time>2021-04-25T12:33:07Z</time>
      </trkpt>
      <trkpt lat="46.50031" lon="0.37381">
        <ele>136.6</ele>
        <time>2021-04-25T12:33:09Z</time>
      </trkpt>
      <trkpt lat="46.50031" lon="0.37382">
        <ele>136.6</ele>
        <time>2021-04-25T12:33:10Z</time>
      </trkpt>
      <trkpt lat="46.50031" lon="0.37385">
        <ele>136.6</ele>
        <time>2021-04-25T12:33:12Z</time>
      </trkpt>
      <trkpt lat="46.50034" lon="0.37389">
        <ele>136.8</ele>
        <time>2021-04-25T12:33:14Z</time>
      </trkpt>
      <trkpt lat="46.50043" lon="0.37399">
        <ele>136.8</ele>
        <time>2021-04-25T12:33:17Z</time>
      </trkpt>
      <trkpt lat="46.50047" lon="0.37402">
        <ele>136.8</ele>
        <time>2021-04-25T12:33:18Z</time>
      </trkpt>
      <trkpt lat="46.50072" lon="0.37423">
        <ele>136.8</ele>
        <time>2021-04-25T12:33:24Z</time>
      </trkpt>
      <trkpt lat="46.50098" lon="0.37448">
        <ele>136.2</ele>
        <time>2021-04-25T12:33:30Z</time>
      </trkpt>
      <trkpt lat="46.50116" lon="0.37463">
        <ele>136.4</ele>
        <time>2021-04-25T12:33:34Z</time>
      </trkpt>
      <trkpt lat="46.50123" lon="0.3747">
        <ele>136.6</ele>
        <time>2021-04-25T12:33:36Z</time>
      </trkpt>
      <trkpt lat="46.50131" lon="0.37479">
        <ele>136.2</ele>
        <time>2021-04-25T12:33:38Z</time>
      </trkpt>
      <trkpt lat="46.50139" lon="0.37488">
        <ele>136</ele>
        <time>2021-04-25T12:33:40Z</time>
      </trkpt>
      <trkpt lat="46.50145" lon="0.37492">
        <ele>135.8</ele>
        <time>2021-04-25T12:33:41Z</time>
      </trkpt>
      <trkpt lat="46.50169" lon="0.37517">
        <ele>135.8</ele>
        <time>2021-04-25T12:33:46Z</time>
      </trkpt>
      <trkpt lat="46.50192" lon="0.37541">
        <ele>135.6</ele>
        <time>2021-04-25T12:33:51Z</time>
      </trkpt>
      <trkpt lat="46.50201" lon="0.37549">
        <ele>135.6</ele>
        <time>2021-04-25T12:33:53Z</time>
      </trkpt>
      <trkpt lat="46.5022" lon="0.37565">
        <ele>135.6</ele>
        <time>2021-04-25T12:33:57Z</time>
      </trkpt>
      <trkpt lat="46.50229" lon="0.37573">
        <ele>135.6</ele>
        <time>2021-04-25T12:34:00Z</time>
      </trkpt>
      <trkpt lat="46.50231" lon="0.37576">
        <ele>135.4</ele>
        <time>2021-04-25T12:34:02Z</time>
      </trkpt>
      <trkpt lat="46.50232" lon="0.37578">
        <ele>135</ele>
        <time>2021-04-25T12:34:04Z</time>
      </trkpt>
      <trkpt lat="46.50234" lon="0.3758">
        <ele>134.8</ele>
        <time>2021-04-25T12:34:06Z</time>
      </trkpt>
      <trkpt lat="46.50236" lon="0.37581">
        <ele>134.6</ele>
        <time>2021-04-25T12:34:07Z</time>
      </trkpt>
      <trkpt lat="46.50245" lon="0.37592">
        <ele>134.8</ele>
        <time>2021-04-25T12:34:12Z</time>
      </trkpt>
      <trkpt lat="46.50263" lon="0.37609">
        <ele>135.2</ele>
        <time>2021-04-25T12:34:18Z</time>
      </trkpt>
      <trkpt lat="46.50286" lon="0.3763">
        <ele>135.4</ele>
        <time>2021-04-25T12:34:25Z</time>
      </trkpt>
      <trkpt lat="46.50288" lon="0.37631">
        <ele>135.2</ele>
        <time>2021-04-25T12:34:26Z</time>
      </trkpt>
      <trkpt lat="46.50292" lon="0.37629">
        <ele>135</ele>
        <time>2021-04-25T12:34:29Z</time>
      </trkpt>
      <trkpt lat="46.50302" lon="0.37619">
        <ele>134.6</ele>
        <time>2021-04-25T12:34:35Z</time>
      </trkpt>
      <trkpt lat="46.50313" lon="0.37607">
        <ele>134.2</ele>
        <time>2021-04-25T12:34:41Z</time>
      </trkpt>
      <trkpt lat="46.50325" lon="0.37594">
        <ele>133.6</ele>
        <time>2021-04-25T12:34:47Z</time>
      </trkpt>
      <trkpt lat="46.50328" lon="0.37592">
        <ele>133.6</ele>
        <time>2021-04-25T12:34:48Z</time>
      </trkpt>
      <trkpt lat="46.50338" lon="0.37582">
        <ele>132.8</ele>
        <time>2021-04-25T12:34:52Z</time>
      </trkpt>
      <trkpt lat="46.50339" lon="0.37578">
        <ele>132.4</ele>
        <time>2021-04-25T12:34:53Z</time>
      </trkpt>
      <trkpt lat="46.50344" lon="0.37565">
        <ele>131.6</ele>
        <time>2021-04-25T12:34:56Z</time>
      </trkpt>
      <trkpt lat="46.50345" lon="0.3756">
        <ele>131.4</ele>
        <time>2021-04-25T12:34:57Z</time>
      </trkpt>
      <trkpt lat="46.50347" lon="0.37557">
        <ele>131.4</ele>
        <time>2021-04-25T12:34:58Z</time>
      </trkpt>
      <trkpt lat="46.50351" lon="0.37549">
        <ele>131</ele>
        <time>2021-04-25T12:35:00Z</time>
      </trkpt>
      <trkpt lat="46.50356" lon="0.37536">
        <ele>130.8</ele>
        <time>2021-04-25T12:35:03Z</time>
      </trkpt>
      <trkpt lat="46.50362" lon="0.37522">
        <ele>131.2</ele>
        <time>2021-04-25T12:35:06Z</time>
      </trkpt>
      <trkpt lat="46.50365" lon="0.37514">
        <ele>131.4</ele>
        <time>2021-04-25T12:35:08Z</time>
      </trkpt>
      <trkpt lat="46.50376" lon="0.37488">
        <ele>132.6</ele>
        <time>2021-04-25T12:35:14Z</time>
      </trkpt>
      <trkpt lat="46.50388" lon="0.37462">
        <ele>133.4</ele>
        <time>2021-04-25T12:35:20Z</time>
      </trkpt>
      <trkpt lat="46.50392" lon="0.37453">
        <ele>133.6</ele>
        <time>2021-04-25T12:35:22Z</time>
      </trkpt>
      <trkpt lat="46.50405" lon="0.37426">
        <ele>134.6</ele>
        <time>2021-04-25T12:35:28Z</time>
      </trkpt>
      <trkpt lat="46.50406" lon="0.37421">
        <ele>134.8</ele>
        <time>2021-04-25T12:35:29Z</time>
      </trkpt>
      <trkpt lat="46.50411" lon="0.3741">
        <ele>135</ele>
        <time>2021-04-25T12:35:31Z</time>
      </trkpt>
      <trkpt lat="46.50416" lon="0.374">
        <ele>135</ele>
        <time>2021-04-25T12:35:33Z</time>
      </trkpt>
      <trkpt lat="46.50415" lon="0.37394">
        <ele>135.2</ele>
        <time>2021-04-25T12:35:34Z</time>
      </trkpt>
      <trkpt lat="46.50417" lon="0.37387">
        <ele>135.2</ele>
        <time>2021-04-25T12:35:35Z</time>
      </trkpt>
      <trkpt lat="46.50423" lon="0.37364">
        <ele>135.2</ele>
        <time>2021-04-25T12:35:39Z</time>
      </trkpt>
      <trkpt lat="46.5043" lon="0.37342">
        <ele>135.2</ele>
        <time>2021-04-25T12:35:43Z</time>
      </trkpt>
      <trkpt lat="46.50433" lon="0.37336">
        <ele>135.2</ele>
        <time>2021-04-25T12:35:44Z</time>
      </trkpt>
      <trkpt lat="46.50437" lon="0.37326">
        <ele>135.2</ele>
        <time>2021-04-25T12:35:46Z</time>
      </trkpt>
      <trkpt lat="46.50444" lon="0.37303">
        <ele>135.4</ele>
        <time>2021-04-25T12:35:50Z</time>
      </trkpt>
      <trkpt lat="46.50448" lon="0.3729">
        <ele>135.4</ele>
        <time>2021-04-25T12:35:52Z</time>
      </trkpt>
      <trkpt lat="46.50454" lon="0.37277">
        <ele>135.2</ele>
        <time>2021-04-25T12:35:55Z</time>
      </trkpt>
      <trkpt lat="46.50458" lon="0.37262">
        <ele>135.2</ele>
        <time>2021-04-25T12:35:58Z</time>
      </trkpt>
      <trkpt lat="46.50464" lon="0.37248">
        <ele>134.8</ele>
        <time>2021-04-25T12:36:01Z</time>
      </trkpt>
      <trkpt lat="46.50469" lon="0.37239">
        <ele>134.4</ele>
        <time>2021-04-25T12:36:03Z</time>
      </trkpt>
      <trkpt lat="46.50474" lon="0.3723">
        <ele>133.4</ele>
        <time>2021-04-25T12:36:05Z</time>
      </trkpt>
      <trkpt lat="46.5048" lon="0.37221">
        <ele>133.2</ele>
        <time>2021-04-25T12:36:07Z</time>
      </trkpt>
      <trkpt lat="46.50494" lon="0.37213">
        <ele>132.4</ele>
        <time>2021-04-25T12:36:10Z</time>
      </trkpt>
      <trkpt lat="46.50499" lon="0.37206">
        <ele>132</ele>
        <time>2021-04-25T12:36:11Z</time>
      </trkpt>
      <trkpt lat="46.50508" lon="0.37194">
        <ele>131.4</ele>
        <time>2021-04-25T12:36:13Z</time>
      </trkpt>
      <trkpt lat="46.50512" lon="0.37189">
        <ele>131.2</ele>
        <time>2021-04-25T12:36:14Z</time>
      </trkpt>
      <trkpt lat="46.50523" lon="0.3718">
        <ele>130.8</ele>
        <time>2021-04-25T12:36:16Z</time>
      </trkpt>
      <trkpt lat="46.50525" lon="0.37179">
        <ele>130.2</ele>
        <time>2021-04-25T12:36:18Z</time>
      </trkpt>
      <trkpt lat="46.50528" lon="0.3718">
        <ele>130</ele>
        <time>2021-04-25T12:36:19Z</time>
      </trkpt>
      <trkpt lat="46.50535" lon="0.37181">
        <ele>129.4</ele>
        <time>2021-04-25T12:36:21Z</time>
      </trkpt>
      <trkpt lat="46.50539" lon="0.37183">
        <ele>129</ele>
        <time>2021-04-25T12:36:22Z</time>
      </trkpt>
      <trkpt lat="46.50542" lon="0.37186">
        <ele>128.8</ele>
        <time>2021-04-25T12:36:23Z</time>
      </trkpt>
      <trkpt lat="46.50547" lon="0.37193">
        <ele>128.8</ele>
        <time>2021-04-25T12:36:25Z</time>
      </trkpt>
      <trkpt lat="46.50547" lon="0.37212">
        <ele>129.2</ele>
        <time>2021-04-25T12:36:29Z</time>
      </trkpt>
      <trkpt lat="46.50548" lon="0.37216">
        <ele>129.4</ele>
        <time>2021-04-25T12:36:30Z</time>
      </trkpt>
      <trkpt lat="46.5055" lon="0.3722">
        <ele>130</ele>
        <time>2021-04-25T12:36:31Z</time>
      </trkpt>
      <trkpt lat="46.50554" lon="0.37231">
        <ele>131.2</ele>
        <time>2021-04-25T12:36:34Z</time>
      </trkpt>
      <trkpt lat="46.50557" lon="0.37242">
        <ele>131.4</ele>
        <time>2021-04-25T12:36:36Z</time>
      </trkpt>
      <trkpt lat="46.5056" lon="0.37247">
        <ele>131.4</ele>
        <time>2021-04-25T12:36:37Z</time>
      </trkpt>
      <trkpt lat="46.50563" lon="0.37256">
        <ele>131.8</ele>
        <time>2021-04-25T12:36:39Z</time>
      </trkpt>
      <trkpt lat="46.50564" lon="0.37267">
        <ele>131.8</ele>
        <time>2021-04-25T12:36:41Z</time>
      </trkpt>
      <trkpt lat="46.50563" lon="0.37275">
        <ele>132</ele>
        <time>2021-04-25T12:36:43Z</time>
      </trkpt>
      <trkpt lat="46.50564" lon="0.37282">
        <ele>132</ele>
        <time>2021-04-25T12:36:45Z</time>
      </trkpt>
      <trkpt lat="46.50563" lon="0.37286">
        <ele>132</ele>
        <time>2021-04-25T12:36:47Z</time>
      </trkpt>
      <trkpt lat="46.50561" lon="0.3729">
        <ele>131.8</ele>
        <time>2021-04-25T12:36:49Z</time>
      </trkpt>
      <trkpt lat="46.50562" lon="0.37291">
        <ele>131.8</ele>
        <time>2021-04-25T12:36:51Z</time>
      </trkpt>
      <trkpt lat="46.50569" lon="0.37295">
        <ele>132.2</ele>
        <time>2021-04-25T12:36:57Z</time>
      </trkpt>
      <trkpt lat="46.50576" lon="0.37294">
        <ele>132</ele>
        <time>2021-04-25T12:37:00Z</time>
      </trkpt>
      <trkpt lat="46.50586" lon="0.37297">
        <ele>131.4</ele>
        <time>2021-04-25T12:37:02Z</time>
      </trkpt>
      <trkpt lat="46.50602" lon="0.37308">
        <ele>130.2</ele>
        <time>2021-04-25T12:37:05Z</time>
      </trkpt>
      <trkpt lat="46.50608" lon="0.37313">
        <ele>129.8</ele>
        <time>2021-04-25T12:37:06Z</time>
      </trkpt>
      <trkpt lat="46.50622" lon="0.37322">
        <ele>129.2</ele>
        <time>2021-04-25T12:37:08Z</time>
      </trkpt>
      <trkpt lat="46.50639" lon="0.37332">
        <ele>128</ele>
        <time>2021-04-25T12:37:10Z</time>
      </trkpt>
      <trkpt lat="46.50648" lon="0.37338">
        <ele>127.2</ele>
        <time>2021-04-25T12:37:11Z</time>
      </trkpt>
      <trkpt lat="46.50656" lon="0.37343">
        <ele>126.6</ele>
        <time>2021-04-25T12:37:12Z</time>
      </trkpt>
      <trkpt lat="46.50691" lon="0.37368">
        <ele>126</ele>
        <time>2021-04-25T12:37:17Z</time>
      </trkpt>
      <trkpt lat="46.50725" lon="0.37391">
        <ele>126.6</ele>
        <time>2021-04-25T12:37:23Z</time>
      </trkpt>
      <trkpt lat="46.50741" lon="0.37401">
        <ele>127</ele>
        <time>2021-04-25T12:37:28Z</time>
      </trkpt>
      <trkpt lat="46.50748" lon="0.37403">
        <ele>127.8</ele>
        <time>2021-04-25T12:37:32Z</time>
      </trkpt>
      <trkpt lat="46.5075" lon="0.37404">
        <ele>128</ele>
        <time>2021-04-25T12:37:33Z</time>
      </trkpt>
      <trkpt lat="46.5076" lon="0.37413">
        <ele>128.8</ele>
        <time>2021-04-25T12:37:38Z</time>
      </trkpt>
      <trkpt lat="46.50772" lon="0.37426">
        <ele>130</ele>
        <time>2021-04-25T12:37:44Z</time>
      </trkpt>
      <trkpt lat="46.50781" lon="0.37433">
        <ele>130.4</ele>
        <time>2021-04-25T12:37:47Z</time>
      </trkpt>
      <trkpt lat="46.50788" lon="0.37438">
        <ele>130.6</ele>
        <time>2021-04-25T12:37:49Z</time>
      </trkpt>
      <trkpt lat="46.50794" lon="0.37442">
        <ele>130.6</ele>
        <time>2021-04-25T12:37:51Z</time>
      </trkpt>
      <trkpt lat="46.50805" lon="0.37447">
        <ele>130.8</ele>
        <time>2021-04-25T12:37:55Z</time>
      </trkpt>
      <trkpt lat="46.50809" lon="0.37446">
        <ele>131</ele>
        <time>2021-04-25T12:37:57Z</time>
      </trkpt>
      <trkpt lat="46.50817" lon="0.37443">
        <ele>132</ele>
        <time>2021-04-25T12:38:01Z</time>
      </trkpt>
      <trkpt lat="46.50818" lon="0.37442">
        <ele>132</ele>
        <time>2021-04-25T12:38:02Z</time>
      </trkpt>
      <trkpt lat="46.50823" lon="0.37439">
        <ele>132.6</ele>
        <time>2021-04-25T12:38:05Z</time>
      </trkpt>
      <trkpt lat="46.50829" lon="0.37436">
        <ele>133</ele>
        <time>2021-04-25T12:38:08Z</time>
      </trkpt>
      <trkpt lat="46.50833" lon="0.37436">
        <ele>133</ele>
        <time>2021-04-25T12:38:09Z</time>
      </trkpt>
      <trkpt lat="46.50838" lon="0.37438">
        <ele>133.2</ele>
        <time>2021-04-25T12:38:11Z</time>
      </trkpt>
      <trkpt lat="46.5084" lon="0.3744">
        <ele>133.2</ele>
        <time>2021-04-25T12:38:12Z</time>
      </trkpt>
      <trkpt lat="46.50854" lon="0.37457">
        <ele>133.2</ele>
        <time>2021-04-25T12:38:18Z</time>
      </trkpt>
      <trkpt lat="46.50869" lon="0.37488">
        <ele>132.8</ele>
        <time>2021-04-25T12:38:25Z</time>
      </trkpt>
      <trkpt lat="46.50871" lon="0.37496">
        <ele>132</ele>
        <time>2021-04-25T12:38:27Z</time>
      </trkpt>
      <trkpt lat="46.50877" lon="0.37509">
        <ele>131.6</ele>
        <time>2021-04-25T12:38:30Z</time>
      </trkpt>
      <trkpt lat="46.5088" lon="0.37513">
        <ele>131.8</ele>
        <time>2021-04-25T12:38:31Z</time>
      </trkpt>
      <trkpt lat="46.50885" lon="0.37521">
        <ele>132</ele>
        <time>2021-04-25T12:38:33Z</time>
      </trkpt>
      <trkpt lat="46.50893" lon="0.37528">
        <ele>132.4</ele>
        <time>2021-04-25T12:38:35Z</time>
      </trkpt>
      <trkpt lat="46.50897" lon="0.37529">
        <ele>132.6</ele>
        <time>2021-04-25T12:38:36Z</time>
      </trkpt>
      <trkpt lat="46.50901" lon="0.37529">
        <ele>132.6</ele>
        <time>2021-04-25T12:38:37Z</time>
      </trkpt>
      <trkpt lat="46.50909" lon="0.37524">
        <ele>133</ele>
        <time>2021-04-25T12:38:40Z</time>
      </trkpt>
      <trkpt lat="46.50911" lon="0.37522">
        <ele>133</ele>
        <time>2021-04-25T12:38:41Z</time>
      </trkpt>
      <trkpt lat="46.50919" lon="0.37522">
        <ele>133.6</ele>
        <time>2021-04-25T12:38:44Z</time>
      </trkpt>
      <trkpt lat="46.50922" lon="0.37524">
        <ele>133.8</ele>
        <time>2021-04-25T12:38:45Z</time>
      </trkpt>
      <trkpt lat="46.50935" lon="0.37536">
        <ele>134</ele>
        <time>2021-04-25T12:38:50Z</time>
      </trkpt>
      <trkpt lat="46.5094" lon="0.37541">
        <ele>134.2</ele>
        <time>2021-04-25T12:38:51Z</time>
      </trkpt>
      <trkpt lat="46.50948" lon="0.37546">
        <ele>134.2</ele>
        <time>2021-04-25T12:38:53Z</time>
      </trkpt>
      <trkpt lat="46.50954" lon="0.3755">
        <ele>134.4</ele>
        <time>2021-04-25T12:38:55Z</time>
      </trkpt>
      <trkpt lat="46.50958" lon="0.37552">
        <ele>134.4</ele>
        <time>2021-04-25T12:38:56Z</time>
      </trkpt>
      <trkpt lat="46.50975" lon="0.37564">
        <ele>134.6</ele>
        <time>2021-04-25T12:39:01Z</time>
      </trkpt>
      <trkpt lat="46.50979" lon="0.37566">
        <ele>134.8</ele>
        <time>2021-04-25T12:39:02Z</time>
      </trkpt>
      <trkpt lat="46.5099" lon="0.37572">
        <ele>134.6</ele>
        <time>2021-04-25T12:39:05Z</time>
      </trkpt>
      <trkpt lat="46.50999" lon="0.37575">
        <ele>134.8</ele>
        <time>2021-04-25T12:39:07Z</time>
      </trkpt>
      <trkpt lat="46.51002" lon="0.37577">
        <ele>134.8</ele>
        <time>2021-04-25T12:39:08Z</time>
      </trkpt>
      <trkpt lat="46.51011" lon="0.37585">
        <ele>135</ele>
        <time>2021-04-25T12:39:10Z</time>
      </trkpt>
      <trkpt lat="46.51017" lon="0.3759">
        <ele>135</ele>
        <time>2021-04-25T12:39:11Z</time>
      </trkpt>
      <trkpt lat="46.51028" lon="0.376">
        <ele>135</ele>
        <time>2021-04-25T12:39:13Z</time>
      </trkpt>
      <trkpt lat="46.51044" lon="0.37612">
        <ele>135</ele>
        <time>2021-04-25T12:39:16Z</time>
      </trkpt>
      <trkpt lat="46.51072" lon="0.3763">
        <ele>134.8</ele>
        <time>2021-04-25T12:39:22Z</time>
      </trkpt>
      <trkpt lat="46.51081" lon="0.37637">
        <ele>134.8</ele>
        <time>2021-04-25T12:39:24Z</time>
      </trkpt>
      <trkpt lat="46.51102" lon="0.37651">
        <ele>134.4</ele>
        <time>2021-04-25T12:39:28Z</time>
      </trkpt>
      <trkpt lat="46.51117" lon="0.37661">
        <ele>134.2</ele>
        <time>2021-04-25T12:39:31Z</time>
      </trkpt>
      <trkpt lat="46.51134" lon="0.37672">
        <ele>134</ele>
        <time>2021-04-25T12:39:34Z</time>
      </trkpt>
      <trkpt lat="46.51145" lon="0.37679">
        <ele>134</ele>
        <time>2021-04-25T12:39:36Z</time>
      </trkpt>
      <trkpt lat="46.51162" lon="0.37691">
        <ele>133.8</ele>
        <time>2021-04-25T12:39:39Z</time>
      </trkpt>
      <trkpt lat="46.51173" lon="0.37697">
        <ele>133.8</ele>
        <time>2021-04-25T12:39:40Z</time>
      </trkpt>
      <trkpt lat="46.51198" lon="0.37713">
        <ele>133.2</ele>
        <time>2021-04-25T12:39:46Z</time>
      </trkpt>
      <trkpt lat="46.51208" lon="0.3772">
        <ele>133</ele>
        <time>2021-04-25T12:39:48Z</time>
      </trkpt>
      <trkpt lat="46.5122" lon="0.37727">
        <ele>132.8</ele>
        <time>2021-04-25T12:39:50Z</time>
      </trkpt>
      <trkpt lat="46.51224" lon="0.3773">
        <ele>132.8</ele>
        <time>2021-04-25T12:39:51Z</time>
      </trkpt>
      <trkpt lat="46.51228" lon="0.37732">
        <ele>132.8</ele>
        <time>2021-04-25T12:39:52Z</time>
      </trkpt>
      <trkpt lat="46.51236" lon="0.37737">
        <ele>132.6</ele>
        <time>2021-04-25T12:39:54Z</time>
      </trkpt>
      <trkpt lat="46.51244" lon="0.37743">
        <ele>132</ele>
        <time>2021-04-25T12:39:56Z</time>
      </trkpt>
      <trkpt lat="46.51248" lon="0.37746">
        <ele>131.8</ele>
        <time>2021-04-25T12:39:57Z</time>
      </trkpt>
      <trkpt lat="46.51263" lon="0.37755">
        <ele>131.6</ele>
        <time>2021-04-25T12:40:00Z</time>
      </trkpt>
      <trkpt lat="46.51274" lon="0.37764">
        <ele>131.2</ele>
        <time>2021-04-25T12:40:02Z</time>
      </trkpt>
      <trkpt lat="46.51286" lon="0.37773">
        <ele>130.8</ele>
        <time>2021-04-25T12:40:04Z</time>
      </trkpt>
      <trkpt lat="46.51301" lon="0.37783">
        <ele>130.2</ele>
        <time>2021-04-25T12:40:06Z</time>
      </trkpt>
      <trkpt lat="46.51308" lon="0.37788">
        <ele>129.8</ele>
        <time>2021-04-25T12:40:07Z</time>
      </trkpt>
      <trkpt lat="46.51316" lon="0.37793">
        <ele>129.6</ele>
        <time>2021-04-25T12:40:08Z</time>
      </trkpt>
      <trkpt lat="46.51333" lon="0.37804">
        <ele>128.8</ele>
        <time>2021-04-25T12:40:11Z</time>
      </trkpt>
      <trkpt lat="46.5134" lon="0.37809">
        <ele>128.6</ele>
        <time>2021-04-25T12:40:12Z</time>
      </trkpt>
      <trkpt lat="46.5136" lon="0.37822">
        <ele>127.2</ele>
        <time>2021-04-25T12:40:15Z</time>
      </trkpt>
      <trkpt lat="46.5137" lon="0.37828">
        <ele>126.8</ele>
        <time>2021-04-25T12:40:17Z</time>
      </trkpt>
      <trkpt lat="46.51378" lon="0.37834">
        <ele>126.2</ele>
        <time>2021-04-25T12:40:19Z</time>
      </trkpt>
      <trkpt lat="46.51395" lon="0.37848">
        <ele>125.4</ele>
        <time>2021-04-25T12:40:23Z</time>
      </trkpt>
      <trkpt lat="46.51398" lon="0.37851">
        <ele>125</ele>
        <time>2021-04-25T12:40:24Z</time>
      </trkpt>
      <trkpt lat="46.5141" lon="0.37856">
        <ele>124.2</ele>
        <time>2021-04-25T12:40:27Z</time>
      </trkpt>
      <trkpt lat="46.51412" lon="0.37857">
        <ele>124</ele>
        <time>2021-04-25T12:40:28Z</time>
      </trkpt>
      <trkpt lat="46.51414" lon="0.3786">
        <ele>123.8</ele>
        <time>2021-04-25T12:40:29Z</time>
      </trkpt>
      <trkpt lat="46.5142" lon="0.37867">
        <ele>123.4</ele>
        <time>2021-04-25T12:40:32Z</time>
      </trkpt>
      <trkpt lat="46.51423" lon="0.37887">
        <ele>123.2</ele>
        <time>2021-04-25T12:40:37Z</time>
      </trkpt>
      <trkpt lat="46.51423" lon="0.37892">
        <ele>122.6</ele>
        <time>2021-04-25T12:40:38Z</time>
      </trkpt>
      <trkpt lat="46.51423" lon="0.37899">
        <ele>122.4</ele>
        <time>2021-04-25T12:40:39Z</time>
      </trkpt>
      <trkpt lat="46.51425" lon="0.37911">
        <ele>121.6</ele>
        <time>2021-04-25T12:40:42Z</time>
      </trkpt>
      <trkpt lat="46.51426" lon="0.37917">
        <ele>120.8</ele>
        <time>2021-04-25T12:40:43Z</time>
      </trkpt>
      <trkpt lat="46.51426" lon="0.37921">
        <ele>120.4</ele>
        <time>2021-04-25T12:40:44Z</time>
      </trkpt>
      <trkpt lat="46.51428" lon="0.37925">
        <ele>119.8</ele>
        <time>2021-04-25T12:40:46Z</time>
      </trkpt>
      <trkpt lat="46.5143" lon="0.3793">
        <ele>119.4</ele>
        <time>2021-04-25T12:40:48Z</time>
      </trkpt>
      <trkpt lat="46.51434" lon="0.37934">
        <ele>119.4</ele>
        <time>2021-04-25T12:40:50Z</time>
      </trkpt>
      <trkpt lat="46.51443" lon="0.37939">
        <ele>119</ele>
        <time>2021-04-25T12:40:53Z</time>
      </trkpt>
      <trkpt lat="46.51461" lon="0.3794">
        <ele>118.4</ele>
        <time>2021-04-25T12:40:58Z</time>
      </trkpt>
      <trkpt lat="46.51464" lon="0.3794">
        <ele>118.4</ele>
        <time>2021-04-25T12:40:59Z</time>
      </trkpt>
      <trkpt lat="46.5148" lon="0.37939">
        <ele>118.2</ele>
        <time>2021-04-25T12:41:03Z</time>
      </trkpt>
      <trkpt lat="46.51487" lon="0.37939">
        <ele>118.2</ele>
        <time>2021-04-25T12:41:05Z</time>
      </trkpt>
      <trkpt lat="46.5149" lon="0.37939">
        <ele>118</ele>
        <time>2021-04-25T12:41:06Z</time>
      </trkpt>
      <trkpt lat="46.51502" lon="0.37942">
        <ele>117.4</ele>
        <time>2021-04-25T12:41:10Z</time>
      </trkpt>
      <trkpt lat="46.51504" lon="0.3794">
        <ele>117.4</ele>
        <time>2021-04-25T12:41:12Z</time>
      </trkpt>
      <trkpt lat="46.51504" lon="0.3794">
        <ele>117.4</ele>
        <time>2021-04-25T12:41:13Z</time>
      </trkpt>
      <trkpt lat="46.51505" lon="0.37941">
        <ele>117.6</ele>
        <time>2021-04-25T12:41:14Z</time>
      </trkpt>
      <trkpt lat="46.51508" lon="0.37945">
        <ele>117.6</ele>
        <time>2021-04-25T12:41:16Z</time>
      </trkpt>
      <trkpt lat="46.51514" lon="0.37959">
        <ele>117</ele>
        <time>2021-04-25T12:41:21Z</time>
      </trkpt>
      <trkpt lat="46.51516" lon="0.37971">
        <ele>115.8</ele>
        <time>2021-04-25T12:41:25Z</time>
      </trkpt>
      <trkpt lat="46.51516" lon="0.37979">
        <ele>115.4</ele>
        <time>2021-04-25T12:41:27Z</time>
      </trkpt>
      <trkpt lat="46.51515" lon="0.37991">
        <ele>114.8</ele>
        <time>2021-04-25T12:41:29Z</time>
      </trkpt>
      <trkpt lat="46.51514" lon="0.37997">
        <ele>114.4</ele>
        <time>2021-04-25T12:41:30Z</time>
      </trkpt>
      <trkpt lat="46.51512" lon="0.38005">
        <ele>113.4</ele>
        <time>2021-04-25T12:41:31Z</time>
      </trkpt>
      <trkpt lat="46.5151" lon="0.38012">
        <ele>112.6</ele>
        <time>2021-04-25T12:41:32Z</time>
      </trkpt>
      <trkpt lat="46.51509" lon="0.38019">
        <ele>111.8</ele>
        <time>2021-04-25T12:41:33Z</time>
      </trkpt>
      <trkpt lat="46.51506" lon="0.38032">
        <ele>110.4</ele>
        <time>2021-04-25T12:41:35Z</time>
      </trkpt>
      <trkpt lat="46.51505" lon="0.38039">
        <ele>108.6</ele>
        <time>2021-04-25T12:41:36Z</time>
      </trkpt>
      <trkpt lat="46.51501" lon="0.38057">
        <ele>107.2</ele>
        <time>2021-04-25T12:41:38Z</time>
      </trkpt>
      <trkpt lat="46.51497" lon="0.38071">
        <ele>104.8</ele>
        <time>2021-04-25T12:41:40Z</time>
      </trkpt>
      <trkpt lat="46.51495" lon="0.38075">
        <ele>104</ele>
        <time>2021-04-25T12:41:41Z</time>
      </trkpt>
      <trkpt lat="46.51493" lon="0.38077">
        <ele>103</ele>
        <time>2021-04-25T12:41:42Z</time>
      </trkpt>
      <trkpt lat="46.51485" lon="0.38084">
        <ele>102</ele>
        <time>2021-04-25T12:41:44Z</time>
      </trkpt>
      <trkpt lat="46.51482" lon="0.38086">
        <ele>101.4</ele>
        <time>2021-04-25T12:41:45Z</time>
      </trkpt>
      <trkpt lat="46.51472" lon="0.3809">
        <ele>100.8</ele>
        <time>2021-04-25T12:41:49Z</time>
      </trkpt>
      <trkpt lat="46.51471" lon="0.38091">
        <ele>100.8</ele>
        <time>2021-04-25T12:41:51Z</time>
      </trkpt>
      <trkpt lat="46.51466" lon="0.38093">
        <ele>101</ele>
        <time>2021-04-25T12:42:02Z</time>
      </trkpt>
      <trkpt lat="46.5146" lon="0.38098">
        <ele>100.8</ele>
        <time>2021-04-25T12:42:15Z</time>
      </trkpt>
      <trkpt lat="46.51452" lon="0.381">
        <ele>101</ele>
        <time>2021-04-25T12:42:22Z</time>
      </trkpt>
      <trkpt lat="46.51448" lon="0.381">
        <ele>100.8</ele>
        <time>2021-04-25T12:42:25Z</time>
      </trkpt>
      <trkpt lat="46.51433" lon="0.38097">
        <ele>100.8</ele>
        <time>2021-04-25T12:42:31Z</time>
      </trkpt>
      <trkpt lat="46.51415" lon="0.38094">
        <ele>100.4</ele>
        <time>2021-04-25T12:42:38Z</time>
      </trkpt>
      <trkpt lat="46.51402" lon="0.38098">
        <ele>99.8</ele>
        <time>2021-04-25T12:42:43Z</time>
      </trkpt>
      <trkpt lat="46.51393" lon="0.38102">
        <ele>99.2</ele>
        <time>2021-04-25T12:42:47Z</time>
      </trkpt>
      <trkpt lat="46.51389" lon="0.38101">
        <ele>99.2</ele>
        <time>2021-04-25T12:42:49Z</time>
      </trkpt>
      <trkpt lat="46.51388" lon="0.38104">
        <ele>98.8</ele>
        <time>2021-04-25T12:42:52Z</time>
      </trkpt>
      <trkpt lat="46.51389" lon="0.38104">
        <ele>98.8</ele>
        <time>2021-04-25T12:42:53Z</time>
      </trkpt>
      <trkpt lat="46.51396" lon="0.38099">
        <ele>99.2</ele>
        <time>2021-04-25T12:42:57Z</time>
      </trkpt>
      <trkpt lat="46.5141" lon="0.38094">
        <ele>99.8</ele>
        <time>2021-04-25T12:43:03Z</time>
      </trkpt>
      <trkpt lat="46.51414" lon="0.38095">
        <ele>100</ele>
        <time>2021-04-25T12:43:05Z</time>
      </trkpt>
      <trkpt lat="46.51416" lon="0.38093">
        <ele>100.4</ele>
        <time>2021-04-25T12:43:06Z</time>
      </trkpt>
      <trkpt lat="46.51416" lon="0.38092">
        <ele>100.6</ele>
        <time>2021-04-25T12:43:07Z</time>
      </trkpt>
      <trkpt lat="46.51418" lon="0.38085">
        <ele>101.2</ele>
        <time>2021-04-25T12:43:11Z</time>
      </trkpt>
      <trkpt lat="46.51417" lon="0.38079">
        <ele>102</ele>
        <time>2021-04-25T12:43:13Z</time>
      </trkpt>
      <trkpt lat="46.51415" lon="0.38077">
        <ele>102.4</ele>
        <time>2021-04-25T12:43:14Z</time>
      </trkpt>
      <trkpt lat="46.51407" lon="0.3807">
        <ele>103.4</ele>
        <time>2021-04-25T12:43:18Z</time>
      </trkpt>
      <trkpt lat="46.51405" lon="0.3807">
        <ele>103.8</ele>
        <time>2021-04-25T12:43:19Z</time>
      </trkpt>
      <trkpt lat="46.514" lon="0.38065">
        <ele>104.8</ele>
        <time>2021-04-25T12:43:23Z</time>
      </trkpt>
      <trkpt lat="46.51399" lon="0.38064">
        <ele>105</ele>
        <time>2021-04-25T12:43:24Z</time>
      </trkpt>
      <trkpt lat="46.51396" lon="0.38061">
        <ele>105.8</ele>
        <time>2021-04-25T12:43:31Z</time>
      </trkpt>
      <trkpt lat="46.51396" lon="0.3806">
        <ele>106</ele>
        <time>2021-04-25T12:43:32Z</time>
      </trkpt>
      <trkpt lat="46.51394" lon="0.38058">
        <ele>107</ele>
        <time>2021-04-25T12:43:35Z</time>
      </trkpt>
      <trkpt lat="46.51394" lon="0.38057">
        <ele>107.2</ele>
        <time>2021-04-25T12:43:36Z</time>
      </trkpt>
      <trkpt lat="46.51392" lon="0.38056">
        <ele>107.6</ele>
        <time>2021-04-25T12:43:39Z</time>
      </trkpt>
      <trkpt lat="46.51391" lon="0.38054">
        <ele>108.4</ele>
        <time>2021-04-25T12:43:42Z</time>
      </trkpt>
      <trkpt lat="46.51389" lon="0.38054">
        <ele>108.8</ele>
        <time>2021-04-25T12:43:47Z</time>
      </trkpt>
      <trkpt lat="46.51387" lon="0.38052">
        <ele>109.2</ele>
        <time>2021-04-25T12:43:49Z</time>
      </trkpt>
      <trkpt lat="46.51386" lon="0.38052">
        <ele>109.4</ele>
        <time>2021-04-25T12:43:50Z</time>
      </trkpt>
      <trkpt lat="46.51384" lon="0.38051">
        <ele>109.6</ele>
        <time>2021-04-25T12:43:51Z</time>
      </trkpt>
      <trkpt lat="46.51377" lon="0.38051">
        <ele>110</ele>
        <time>2021-04-25T12:43:55Z</time>
      </trkpt>
      <trkpt lat="46.51366" lon="0.38053">
        <ele>110</ele>
        <time>2021-04-25T12:44:00Z</time>
      </trkpt>
      <trkpt lat="46.51344" lon="0.38055">
        <ele>109.6</ele>
        <time>2021-04-25T12:44:07Z</time>
      </trkpt>
      <trkpt lat="46.5134" lon="0.38054">
        <ele>109.6</ele>
        <time>2021-04-25T12:44:08Z</time>
      </trkpt>
      <trkpt lat="46.51324" lon="0.3805">
        <ele>109.2</ele>
        <time>2021-04-25T12:44:12Z</time>
      </trkpt>
      <trkpt lat="46.51306" lon="0.38041">
        <ele>109</ele>
        <time>2021-04-25T12:44:18Z</time>
      </trkpt>
      <trkpt lat="46.51295" lon="0.38029">
        <ele>109.4</ele>
        <time>2021-04-25T12:44:24Z</time>
      </trkpt>
      <trkpt lat="46.51286" lon="0.38021">
        <ele>110.2</ele>
        <time>2021-04-25T12:44:30Z</time>
      </trkpt>
      <trkpt lat="46.51277" lon="0.38014">
        <ele>110.4</ele>
        <time>2021-04-25T12:44:34Z</time>
      </trkpt>
      <trkpt lat="46.51274" lon="0.3801">
        <ele>110.6</ele>
        <time>2021-04-25T12:44:36Z</time>
      </trkpt>
      <trkpt lat="46.51261" lon="0.38002">
        <ele>110.6</ele>
        <time>2021-04-25T12:44:42Z</time>
      </trkpt>
      <trkpt lat="46.51239" lon="0.37994">
        <ele>110.4</ele>
        <time>2021-04-25T12:44:47Z</time>
      </trkpt>
      <trkpt lat="46.51235" lon="0.37992">
        <ele>110.4</ele>
        <time>2021-04-25T12:44:48Z</time>
      </trkpt>
      <trkpt lat="46.51224" lon="0.37987">
        <ele>110.6</ele>
        <time>2021-04-25T12:44:51Z</time>
      </trkpt>
      <trkpt lat="46.5122" lon="0.37985">
        <ele>110.6</ele>
        <time>2021-04-25T12:44:52Z</time>
      </trkpt>
      <trkpt lat="46.51216" lon="0.37983">
        <ele>110.6</ele>
        <time>2021-04-25T12:44:53Z</time>
      </trkpt>
      <trkpt lat="46.51192" lon="0.37972">
        <ele>110.8</ele>
        <time>2021-04-25T12:44:58Z</time>
      </trkpt>
      <trkpt lat="46.51174" lon="0.37965">
        <ele>110.8</ele>
        <time>2021-04-25T12:45:02Z</time>
      </trkpt>
      <trkpt lat="46.51161" lon="0.37964">
        <ele>110.2</ele>
        <time>2021-04-25T12:45:04Z</time>
      </trkpt>
      <trkpt lat="46.51134" lon="0.3796">
        <ele>109.6</ele>
        <time>2021-04-25T12:45:08Z</time>
      </trkpt>
      <trkpt lat="46.5113" lon="0.37958">
        <ele>109.6</ele>
        <time>2021-04-25T12:45:09Z</time>
      </trkpt>
      <trkpt lat="46.51122" lon="0.37951">
        <ele>110</ele>
        <time>2021-04-25T12:45:12Z</time>
      </trkpt>
      <trkpt lat="46.51121" lon="0.37947">
        <ele>111</ele>
        <time>2021-04-25T12:45:15Z</time>
      </trkpt>
      <trkpt lat="46.51121" lon="0.37944">
        <ele>111.4</ele>
        <time>2021-04-25T12:45:16Z</time>
      </trkpt>
      <trkpt lat="46.51121" lon="0.37942">
        <ele>111.4</ele>
        <time>2021-04-25T12:45:17Z</time>
      </trkpt>
      <trkpt lat="46.51121" lon="0.37938">
        <ele>112.6</ele>
        <time>2021-04-25T12:45:19Z</time>
      </trkpt>
      <trkpt lat="46.51122" lon="0.37935">
        <ele>113.6</ele>
        <time>2021-04-25T12:45:22Z</time>
      </trkpt>
      <trkpt lat="46.51122" lon="0.37934">
        <ele>115.2</ele>
        <time>2021-04-25T12:45:24Z</time>
      </trkpt>
      <trkpt lat="46.51121" lon="0.37933">
        <ele>115.6</ele>
        <time>2021-04-25T12:45:25Z</time>
      </trkpt>
      <trkpt lat="46.51121" lon="0.3793">
        <ele>116.4</ele>
        <time>2021-04-25T12:45:27Z</time>
      </trkpt>
      <trkpt lat="46.51121" lon="0.37925">
        <ele>117.6</ele>
        <time>2021-04-25T12:45:29Z</time>
      </trkpt>
      <trkpt lat="46.51122" lon="0.37918">
        <ele>118.8</ele>
        <time>2021-04-25T12:45:32Z</time>
      </trkpt>
      <trkpt lat="46.51123" lon="0.37914">
        <ele>119.6</ele>
        <time>2021-04-25T12:45:34Z</time>
      </trkpt>
      <trkpt lat="46.51123" lon="0.37913">
        <ele>119.8</ele>
        <time>2021-04-25T12:45:35Z</time>
      </trkpt>
      <trkpt lat="46.51125" lon="0.37906">
        <ele>120.8</ele>
        <time>2021-04-25T12:45:38Z</time>
      </trkpt>
      <trkpt lat="46.51125" lon="0.37904">
        <ele>121</ele>
        <time>2021-04-25T12:45:39Z</time>
      </trkpt>
      <trkpt lat="46.51127" lon="0.37895">
        <ele>122</ele>
        <time>2021-04-25T12:45:43Z</time>
      </trkpt>
      <trkpt lat="46.51128" lon="0.3789">
        <ele>122.6</ele>
        <time>2021-04-25T12:45:45Z</time>
      </trkpt>
      <trkpt lat="46.5113" lon="0.37885">
        <ele>123.2</ele>
        <time>2021-04-25T12:45:48Z</time>
      </trkpt>
      <trkpt lat="46.51132" lon="0.37876">
        <ele>124.2</ele>
        <time>2021-04-25T12:45:53Z</time>
      </trkpt>
      <trkpt lat="46.51133" lon="0.37875">
        <ele>124.4</ele>
        <time>2021-04-25T12:45:54Z</time>
      </trkpt>
      <trkpt lat="46.51135" lon="0.37868">
        <ele>125.4</ele>
        <time>2021-04-25T12:45:58Z</time>
      </trkpt>
      <trkpt lat="46.51138" lon="0.37861">
        <ele>126.4</ele>
        <time>2021-04-25T12:46:03Z</time>
      </trkpt>
      <trkpt lat="46.51138" lon="0.37857">
        <ele>126.8</ele>
        <time>2021-04-25T12:46:06Z</time>
      </trkpt>
      <trkpt lat="46.51139" lon="0.37854">
        <ele>127.6</ele>
        <time>2021-04-25T12:46:08Z</time>
      </trkpt>
      <trkpt lat="46.5114" lon="0.37848">
        <ele>128.6</ele>
        <time>2021-04-25T12:46:12Z</time>
      </trkpt>
      <trkpt lat="46.51144" lon="0.37834">
        <ele>129.6</ele>
        <time>2021-04-25T12:46:19Z</time>
      </trkpt>
      <trkpt lat="46.51144" lon="0.37831">
        <ele>129.6</ele>
        <time>2021-04-25T12:46:20Z</time>
      </trkpt>
      <trkpt lat="46.51148" lon="0.3782">
        <ele>130.4</ele>
        <time>2021-04-25T12:46:27Z</time>
      </trkpt>
      <trkpt lat="46.51152" lon="0.37818">
        <ele>130.4</ele>
        <time>2021-04-25T12:46:30Z</time>
      </trkpt>
      <trkpt lat="46.51155" lon="0.37818">
        <ele>130.4</ele>
        <time>2021-04-25T12:46:32Z</time>
      </trkpt>
      <trkpt lat="46.51173" lon="0.3782">
        <ele>130.6</ele>
        <time>2021-04-25T12:46:40Z</time>
      </trkpt>
      <trkpt lat="46.51176" lon="0.3782">
        <ele>130.6</ele>
        <time>2021-04-25T12:46:41Z</time>
      </trkpt>
      <trkpt lat="46.51195" lon="0.37825">
        <ele>130.8</ele>
        <time>2021-04-25T12:46:48Z</time>
      </trkpt>
      <trkpt lat="46.51215" lon="0.37833">
        <ele>130.6</ele>
        <time>2021-04-25T12:46:54Z</time>
      </trkpt>
      <trkpt lat="46.51237" lon="0.37846">
        <ele>130</ele>
        <time>2021-04-25T12:47:00Z</time>
      </trkpt>
      <trkpt lat="46.51261" lon="0.37861">
        <ele>129.4</ele>
        <time>2021-04-25T12:47:07Z</time>
      </trkpt>
      <trkpt lat="46.51271" lon="0.37868">
        <ele>128.6</ele>
        <time>2021-04-25T12:47:12Z</time>
      </trkpt>
      <trkpt lat="46.51287" lon="0.37876">
        <ele>128.4</ele>
        <time>2021-04-25T12:47:17Z</time>
      </trkpt>
      <trkpt lat="46.51295" lon="0.37879">
        <ele>128.4</ele>
        <time>2021-04-25T12:47:19Z</time>
      </trkpt>
      <trkpt lat="46.513" lon="0.37884">
        <ele>127.6</ele>
        <time>2021-04-25T12:47:21Z</time>
      </trkpt>
      <trkpt lat="46.51301" lon="0.37887">
        <ele>127.4</ele>
        <time>2021-04-25T12:47:22Z</time>
      </trkpt>
      <trkpt lat="46.51303" lon="0.3789">
        <ele>127.2</ele>
        <time>2021-04-25T12:47:23Z</time>
      </trkpt>
      <trkpt lat="46.51304" lon="0.37896">
        <ele>127</ele>
        <time>2021-04-25T12:47:25Z</time>
      </trkpt>
      <trkpt lat="46.51303" lon="0.37906">
        <ele>126.8</ele>
        <time>2021-04-25T12:47:27Z</time>
      </trkpt>
      <trkpt lat="46.51301" lon="0.37925">
        <ele>125.6</ele>
        <time>2021-04-25T12:47:30Z</time>
      </trkpt>
      <trkpt lat="46.51298" lon="0.37941">
        <ele>124.6</ele>
        <time>2021-04-25T12:47:32Z</time>
      </trkpt>
      <trkpt lat="46.51296" lon="0.37948">
        <ele>123.4</ele>
        <time>2021-04-25T12:47:33Z</time>
      </trkpt>
      <trkpt lat="46.51294" lon="0.37955">
        <ele>122.4</ele>
        <time>2021-04-25T12:47:34Z</time>
      </trkpt>
      <trkpt lat="46.51292" lon="0.37961">
        <ele>121.4</ele>
        <time>2021-04-25T12:47:35Z</time>
      </trkpt>
      <trkpt lat="46.51289" lon="0.37967">
        <ele>120</ele>
        <time>2021-04-25T12:47:36Z</time>
      </trkpt>
      <trkpt lat="46.51288" lon="0.37973">
        <ele>118.4</ele>
        <time>2021-04-25T12:47:37Z</time>
      </trkpt>
      <trkpt lat="46.51286" lon="0.37979">
        <ele>115.4</ele>
        <time>2021-04-25T12:47:38Z</time>
      </trkpt>
      <trkpt lat="46.51284" lon="0.37983">
        <ele>113.6</ele>
        <time>2021-04-25T12:47:39Z</time>
      </trkpt>
      <trkpt lat="46.51283" lon="0.37987">
        <ele>112.6</ele>
        <time>2021-04-25T12:47:40Z</time>
      </trkpt>
      <trkpt lat="46.51282" lon="0.37991">
        <ele>110.2</ele>
        <time>2021-04-25T12:47:41Z</time>
      </trkpt>
      <trkpt lat="46.5128" lon="0.37996">
        <ele>108.4</ele>
        <time>2021-04-25T12:47:42Z</time>
      </trkpt>
      <trkpt lat="46.51277" lon="0.38002">
        <ele>107</ele>
        <time>2021-04-25T12:47:43Z</time>
      </trkpt>
      <trkpt lat="46.51273" lon="0.38007">
        <ele>105.6</ele>
        <time>2021-04-25T12:47:44Z</time>
      </trkpt>
      <trkpt lat="46.51269" lon="0.38012">
        <ele>104.6</ele>
        <time>2021-04-25T12:47:45Z</time>
      </trkpt>
      <trkpt lat="46.51266" lon="0.38015">
        <ele>103.4</ele>
        <time>2021-04-25T12:47:46Z</time>
      </trkpt>
      <trkpt lat="46.51264" lon="0.38016">
        <ele>102.4</ele>
        <time>2021-04-25T12:47:47Z</time>
      </trkpt>
      <trkpt lat="46.51261" lon="0.38017">
        <ele>101.8</ele>
        <time>2021-04-25T12:47:48Z</time>
      </trkpt>
      <trkpt lat="46.51243" lon="0.38025">
        <ele>101.8</ele>
        <time>2021-04-25T12:47:54Z</time>
      </trkpt>
      <trkpt lat="46.51222" lon="0.38022">
        <ele>103.4</ele>
        <time>2021-04-25T12:48:00Z</time>
      </trkpt>
      <trkpt lat="46.51211" lon="0.38017">
        <ele>104.4</ele>
        <time>2021-04-25T12:48:04Z</time>
      </trkpt>
      <trkpt lat="46.51203" lon="0.38015">
        <ele>105.4</ele>
        <time>2021-04-25T12:48:07Z</time>
      </trkpt>
      <trkpt lat="46.512" lon="0.38013">
        <ele>105.6</ele>
        <time>2021-04-25T12:48:08Z</time>
      </trkpt>
      <trkpt lat="46.51188" lon="0.38008">
        <ele>106.6</ele>
        <time>2021-04-25T12:48:12Z</time>
      </trkpt>
      <trkpt lat="46.51186" lon="0.38006">
        <ele>106.8</ele>
        <time>2021-04-25T12:48:13Z</time>
      </trkpt>
      <trkpt lat="46.51168" lon="0.37997">
        <ele>107.6</ele>
        <time>2021-04-25T12:48:19Z</time>
      </trkpt>
      <trkpt lat="46.51165" lon="0.37996">
        <ele>107.8</ele>
        <time>2021-04-25T12:48:20Z</time>
      </trkpt>
      <trkpt lat="46.51152" lon="0.37993">
        <ele>109.2</ele>
        <time>2021-04-25T12:48:24Z</time>
      </trkpt>
      <trkpt lat="46.51146" lon="0.37992">
        <ele>109.6</ele>
        <time>2021-04-25T12:48:26Z</time>
      </trkpt>
      <trkpt lat="46.51132" lon="0.3799">
        <ele>110.4</ele>
        <time>2021-04-25T12:48:31Z</time>
      </trkpt>
      <trkpt lat="46.51126" lon="0.37989">
        <ele>110.8</ele>
        <time>2021-04-25T12:48:34Z</time>
      </trkpt>
      <trkpt lat="46.51115" lon="0.37984">
        <ele>111.4</ele>
        <time>2021-04-25T12:48:40Z</time>
      </trkpt>
      <trkpt lat="46.51101" lon="0.3798">
        <ele>111.6</ele>
        <time>2021-04-25T12:48:46Z</time>
      </trkpt>
      <trkpt lat="46.51087" lon="0.37977">
        <ele>112.4</ele>
        <time>2021-04-25T12:48:51Z</time>
      </trkpt>
      <trkpt lat="46.51083" lon="0.37976">
        <ele>112.6</ele>
        <time>2021-04-25T12:48:52Z</time>
      </trkpt>
      <trkpt lat="46.51065" lon="0.37975">
        <ele>113</ele>
        <time>2021-04-25T12:48:57Z</time>
      </trkpt>
      <trkpt lat="46.51044" lon="0.37974">
        <ele>113.2</ele>
        <time>2021-04-25T12:49:02Z</time>
      </trkpt>
      <trkpt lat="46.51039" lon="0.37974">
        <ele>113.2</ele>
        <time>2021-04-25T12:49:03Z</time>
      </trkpt>
      <trkpt lat="46.51028" lon="0.37975">
        <ele>113.6</ele>
        <time>2021-04-25T12:49:06Z</time>
      </trkpt>
      <trkpt lat="46.51018" lon="0.37975">
        <ele>114</ele>
        <time>2021-04-25T12:49:09Z</time>
      </trkpt>
      <trkpt lat="46.51004" lon="0.37975">
        <ele>114.6</ele>
        <time>2021-04-25T12:49:13Z</time>
      </trkpt>
      <trkpt lat="46.50991" lon="0.37974">
        <ele>114.8</ele>
        <time>2021-04-25T12:49:16Z</time>
      </trkpt>
      <trkpt lat="46.50956" lon="0.3797">
        <ele>115.8</ele>
        <time>2021-04-25T12:49:24Z</time>
      </trkpt>
      <trkpt lat="46.50936" lon="0.37962">
        <ele>116.2</ele>
        <time>2021-04-25T12:49:30Z</time>
      </trkpt>
      <trkpt lat="46.50918" lon="0.37957">
        <ele>116.8</ele>
        <time>2021-04-25T12:49:36Z</time>
      </trkpt>
      <trkpt lat="46.50916" lon="0.37958">
        <ele>117</ele>
        <time>2021-04-25T12:49:37Z</time>
      </trkpt>
      <trkpt lat="46.50916" lon="0.37964">
        <ele>117.4</ele>
        <time>2021-04-25T12:49:39Z</time>
      </trkpt>
      <trkpt lat="46.50916" lon="0.37968">
        <ele>117.6</ele>
        <time>2021-04-25T12:49:40Z</time>
      </trkpt>
      <trkpt lat="46.50917" lon="0.37971">
        <ele>117.8</ele>
        <time>2021-04-25T12:49:41Z</time>
      </trkpt>
      <trkpt lat="46.50921" lon="0.37984">
        <ele>119.4</ele>
        <time>2021-04-25T12:49:45Z</time>
      </trkpt>
      <trkpt lat="46.50923" lon="0.37987">
        <ele>120</ele>
        <time>2021-04-25T12:49:46Z</time>
      </trkpt>
      <trkpt lat="46.50928" lon="0.37998">
        <ele>121</ele>
        <time>2021-04-25T12:49:49Z</time>
      </trkpt>
      <trkpt lat="46.50933" lon="0.38009">
        <ele>122.2</ele>
        <time>2021-04-25T12:49:52Z</time>
      </trkpt>
      <trkpt lat="46.50937" lon="0.38022">
        <ele>123.4</ele>
        <time>2021-04-25T12:49:56Z</time>
      </trkpt>
      <trkpt lat="46.50941" lon="0.38029">
        <ele>124.2</ele>
        <time>2021-04-25T12:49:58Z</time>
      </trkpt>
      <trkpt lat="46.50942" lon="0.38032">
        <ele>124.6</ele>
        <time>2021-04-25T12:49:59Z</time>
      </trkpt>
      <trkpt lat="46.50947" lon="0.3805">
        <ele>125.6</ele>
        <time>2021-04-25T12:50:04Z</time>
      </trkpt>
      <trkpt lat="46.5095" lon="0.38064">
        <ele>126.8</ele>
        <time>2021-04-25T12:50:07Z</time>
      </trkpt>
      <trkpt lat="46.50953" lon="0.3807">
        <ele>127.2</ele>
        <time>2021-04-25T12:50:09Z</time>
      </trkpt>
      <trkpt lat="46.50957" lon="0.38086">
        <ele>128</ele>
        <time>2021-04-25T12:50:13Z</time>
      </trkpt>
      <trkpt lat="46.50961" lon="0.38096">
        <ele>128.4</ele>
        <time>2021-04-25T12:50:16Z</time>
      </trkpt>
      <trkpt lat="46.50968" lon="0.38118">
        <ele>128.6</ele>
        <time>2021-04-25T12:50:22Z</time>
      </trkpt>
      <trkpt lat="46.50971" lon="0.38142">
        <ele>128.4</ele>
        <time>2021-04-25T12:50:28Z</time>
      </trkpt>
      <trkpt lat="46.50974" lon="0.3816">
        <ele>127.8</ele>
        <time>2021-04-25T12:50:33Z</time>
      </trkpt>
      <trkpt lat="46.50976" lon="0.38168">
        <ele>127.4</ele>
        <time>2021-04-25T12:50:35Z</time>
      </trkpt>
      <trkpt lat="46.50977" lon="0.38174">
        <ele>127.4</ele>
        <time>2021-04-25T12:50:36Z</time>
      </trkpt>
      <trkpt lat="46.50977" lon="0.38184">
        <ele>126.8</ele>
        <time>2021-04-25T12:50:38Z</time>
      </trkpt>
      <trkpt lat="46.50977" lon="0.38195">
        <ele>126.6</ele>
        <time>2021-04-25T12:50:40Z</time>
      </trkpt>
      <trkpt lat="46.50977" lon="0.38206">
        <ele>126.2</ele>
        <time>2021-04-25T12:50:42Z</time>
      </trkpt>
      <trkpt lat="46.50975" lon="0.38232">
        <ele>126.2</ele>
        <time>2021-04-25T12:50:45Z</time>
      </trkpt>
      <trkpt lat="46.50973" lon="0.3824">
        <ele>125.2</ele>
        <time>2021-04-25T12:50:46Z</time>
      </trkpt>
      <trkpt lat="46.50973" lon="0.38249">
        <ele>124.8</ele>
        <time>2021-04-25T12:50:47Z</time>
      </trkpt>
      <trkpt lat="46.50971" lon="0.38259">
        <ele>123.8</ele>
        <time>2021-04-25T12:50:48Z</time>
      </trkpt>
      <trkpt lat="46.5097" lon="0.38268">
        <ele>123.2</ele>
        <time>2021-04-25T12:50:49Z</time>
      </trkpt>
      <trkpt lat="46.50971" lon="0.38276">
        <ele>122.8</ele>
        <time>2021-04-25T12:50:51Z</time>
      </trkpt>
      <trkpt lat="46.50971" lon="0.38276">
        <ele>122.6</ele>
        <time>2021-04-25T12:50:52Z</time>
      </trkpt>
      <trkpt lat="46.50976" lon="0.38268">
        <ele>122.2</ele>
        <time>2021-04-25T12:50:57Z</time>
      </trkpt>
      <trkpt lat="46.50977" lon="0.38266">
        <ele>122.6</ele>
        <time>2021-04-25T12:50:59Z</time>
      </trkpt>
      <trkpt lat="46.50979" lon="0.38253">
        <ele>123.6</ele>
        <time>2021-04-25T12:51:03Z</time>
      </trkpt>
      <trkpt lat="46.5098" lon="0.38246">
        <ele>123.8</ele>
        <time>2021-04-25T12:51:05Z</time>
      </trkpt>
      <trkpt lat="46.50988" lon="0.38234">
        <ele>123.8</ele>
        <time>2021-04-25T12:51:09Z</time>
      </trkpt>
      <trkpt lat="46.50992" lon="0.38227">
        <ele>123.8</ele>
        <time>2021-04-25T12:51:11Z</time>
      </trkpt>
      <trkpt lat="46.50998" lon="0.3822">
        <ele>123.6</ele>
        <time>2021-04-25T12:51:14Z</time>
      </trkpt>
      <trkpt lat="46.51006" lon="0.38205">
        <ele>123.8</ele>
        <time>2021-04-25T12:51:19Z</time>
      </trkpt>
      <trkpt lat="46.51011" lon="0.38194">
        <ele>124</ele>
        <time>2021-04-25T12:51:22Z</time>
      </trkpt>
      <trkpt lat="46.51013" lon="0.38186">
        <ele>124</ele>
        <time>2021-04-25T12:51:24Z</time>
      </trkpt>
      <trkpt lat="46.51015" lon="0.38182">
        <ele>124</ele>
        <time>2021-04-25T12:51:25Z</time>
      </trkpt>
      <trkpt lat="46.51017" lon="0.38179">
        <ele>124</ele>
        <time>2021-04-25T12:51:26Z</time>
      </trkpt>
      <trkpt lat="46.51022" lon="0.38175">
        <ele>124.2</ele>
        <time>2021-04-25T12:51:28Z</time>
      </trkpt>
      <trkpt lat="46.51025" lon="0.38169">
        <ele>124.4</ele>
        <time>2021-04-25T12:51:30Z</time>
      </trkpt>
      <trkpt lat="46.51029" lon="0.38158">
        <ele>124.6</ele>
        <time>2021-04-25T12:51:34Z</time>
      </trkpt>
      <trkpt lat="46.51036" lon="0.38145">
        <ele>125.2</ele>
        <time>2021-04-25T12:51:39Z</time>
      </trkpt>
      <trkpt lat="46.51045" lon="0.38128">
        <ele>125.6</ele>
        <time>2021-04-25T12:51:45Z</time>
      </trkpt>
      <trkpt lat="46.51046" lon="0.38126">
        <ele>125.6</ele>
        <time>2021-04-25T12:51:46Z</time>
      </trkpt>
      <trkpt lat="46.51051" lon="0.38124">
        <ele>125.4</ele>
        <time>2021-04-25T12:51:48Z</time>
      </trkpt>
      <trkpt lat="46.51055" lon="0.38124">
        <ele>125.4</ele>
        <time>2021-04-25T12:51:49Z</time>
      </trkpt>
      <trkpt lat="46.51064" lon="0.38129">
        <ele>124.2</ele>
        <time>2021-04-25T12:51:53Z</time>
      </trkpt>
      <trkpt lat="46.51067" lon="0.38132">
        <ele>123.4</ele>
        <time>2021-04-25T12:51:55Z</time>
      </trkpt>
      <trkpt lat="46.51068" lon="0.38132">
        <ele>122.6</ele>
        <time>2021-04-25T12:51:56Z</time>
      </trkpt>
      <trkpt lat="46.51069" lon="0.38133">
        <ele>121.6</ele>
        <time>2021-04-25T12:51:57Z</time>
      </trkpt>
      <trkpt lat="46.5107" lon="0.38133">
        <ele>120.8</ele>
        <time>2021-04-25T12:51:58Z</time>
      </trkpt>
      <trkpt lat="46.51072" lon="0.38132">
        <ele>120.2</ele>
        <time>2021-04-25T12:51:59Z</time>
      </trkpt>
      <trkpt lat="46.51078" lon="0.38131">
        <ele>118.4</ele>
        <time>2021-04-25T12:52:02Z</time>
      </trkpt>
      <trkpt lat="46.51079" lon="0.38131">
        <ele>117.4</ele>
        <time>2021-04-25T12:52:03Z</time>
      </trkpt>
      <trkpt lat="46.51085" lon="0.3813">
        <ele>116.4</ele>
        <time>2021-04-25T12:52:05Z</time>
      </trkpt>
      <trkpt lat="46.5109" lon="0.38129">
        <ele>114.6</ele>
        <time>2021-04-25T12:52:07Z</time>
      </trkpt>
      <trkpt lat="46.51097" lon="0.38127">
        <ele>113.2</ele>
        <time>2021-04-25T12:52:09Z</time>
      </trkpt>
      <trkpt lat="46.511" lon="0.38126">
        <ele>112.6</ele>
        <time>2021-04-25T12:52:10Z</time>
      </trkpt>
      <trkpt lat="46.51104" lon="0.38122">
        <ele>112</ele>
        <time>2021-04-25T12:52:12Z</time>
      </trkpt>
      <trkpt lat="46.5111" lon="0.38119">
        <ele>112.2</ele>
        <time>2021-04-25T12:52:15Z</time>
      </trkpt>
      <trkpt lat="46.51128" lon="0.3811">
        <ele>113</ele>
        <time>2021-04-25T12:52:23Z</time>
      </trkpt>
      <trkpt lat="46.5113" lon="0.38109">
        <ele>113.2</ele>
        <time>2021-04-25T12:52:24Z</time>
      </trkpt>
      <trkpt lat="46.51134" lon="0.38106">
        <ele>113.4</ele>
        <time>2021-04-25T12:52:27Z</time>
      </trkpt>
      <trkpt lat="46.51139" lon="0.38102">
        <ele>113.2</ele>
        <time>2021-04-25T12:52:30Z</time>
      </trkpt>
      <trkpt lat="46.51152" lon="0.38096">
        <ele>113.4</ele>
        <time>2021-04-25T12:52:36Z</time>
      </trkpt>
      <trkpt lat="46.51155" lon="0.38095">
        <ele>113.4</ele>
        <time>2021-04-25T12:52:37Z</time>
      </trkpt>
      <trkpt lat="46.51168" lon="0.38093">
        <ele>112.8</ele>
        <time>2021-04-25T12:52:42Z</time>
      </trkpt>
      <trkpt lat="46.51174" lon="0.38092">
        <ele>111.6</ele>
        <time>2021-04-25T12:52:45Z</time>
      </trkpt>
      <trkpt lat="46.51178" lon="0.38092">
        <ele>109.6</ele>
        <time>2021-04-25T12:52:47Z</time>
      </trkpt>
      <trkpt lat="46.51181" lon="0.38093">
        <ele>108.8</ele>
        <time>2021-04-25T12:52:48Z</time>
      </trkpt>
      <trkpt lat="46.51183" lon="0.38094">
        <ele>108.4</ele>
        <time>2021-04-25T12:52:49Z</time>
      </trkpt>
      <trkpt lat="46.51188" lon="0.38094">
        <ele>106.4</ele>
        <time>2021-04-25T12:52:51Z</time>
      </trkpt>
      <trkpt lat="46.51193" lon="0.38093">
        <ele>105.2</ele>
        <time>2021-04-25T12:52:53Z</time>
      </trkpt>
      <trkpt lat="46.51194" lon="0.38092">
        <ele>105</ele>
        <time>2021-04-25T12:52:54Z</time>
      </trkpt>
      <trkpt lat="46.51196" lon="0.38091">
        <ele>105</ele>
        <time>2021-04-25T12:52:55Z</time>
      </trkpt>
      <trkpt lat="46.51211" lon="0.38086">
        <ele>104.8</ele>
        <time>2021-04-25T12:53:01Z</time>
      </trkpt>
      <trkpt lat="46.51226" lon="0.38081">
        <ele>104.8</ele>
        <time>2021-04-25T12:53:08Z</time>
      </trkpt>
      <trkpt lat="46.51228" lon="0.3808">
        <ele>104.6</ele>
        <time>2021-04-25T12:53:09Z</time>
      </trkpt>
      <trkpt lat="46.51235" lon="0.38073">
        <ele>103.2</ele>
        <time>2021-04-25T12:53:13Z</time>
      </trkpt>
      <trkpt lat="46.51237" lon="0.38072">
        <ele>102.4</ele>
        <time>2021-04-25T12:53:14Z</time>
      </trkpt>
      <trkpt lat="46.51239" lon="0.38072">
        <ele>102</ele>
        <time>2021-04-25T12:53:15Z</time>
      </trkpt>
      <trkpt lat="46.51242" lon="0.38072">
        <ele>101.6</ele>
        <time>2021-04-25T12:53:17Z</time>
      </trkpt>
      <trkpt lat="46.51248" lon="0.38073">
        <ele>101.4</ele>
        <time>2021-04-25T12:53:20Z</time>
      </trkpt>
      <trkpt lat="46.51258" lon="0.38073">
        <ele>101</ele>
        <time>2021-04-25T12:53:27Z</time>
      </trkpt>
      <trkpt lat="46.51264" lon="0.38076">
        <ele>101</ele>
        <time>2021-04-25T12:53:31Z</time>
      </trkpt>
      <trkpt lat="46.51268" lon="0.38078">
        <ele>100.8</ele>
        <time>2021-04-25T12:53:33Z</time>
      </trkpt>
      <trkpt lat="46.51271" lon="0.3808">
        <ele>100.8</ele>
        <time>2021-04-25T12:53:34Z</time>
      </trkpt>
      <trkpt lat="46.51294" lon="0.38089">
        <ele>100.4</ele>
        <time>2021-04-25T12:53:40Z</time>
      </trkpt>
      <trkpt lat="46.51318" lon="0.38097">
        <ele>100.8</ele>
        <time>2021-04-25T12:53:47Z</time>
      </trkpt>
      <trkpt lat="46.51345" lon="0.38103">
        <ele>101.2</ele>
        <time>2021-04-25T12:53:55Z</time>
      </trkpt>
      <trkpt lat="46.51369" lon="0.38104">
        <ele>100.8</ele>
        <time>2021-04-25T12:54:02Z</time>
      </trkpt>
      <trkpt lat="46.51387" lon="0.381">
        <ele>101</ele>
        <time>2021-04-25T12:54:08Z</time>
      </trkpt>
      <trkpt lat="46.51405" lon="0.38097">
        <ele>101.4</ele>
        <time>2021-04-25T12:54:13Z</time>
      </trkpt>
      <trkpt lat="46.51418" lon="0.38094">
        <ele>101.8</ele>
        <time>2021-04-25T12:54:19Z</time>
      </trkpt>
      <trkpt lat="46.51419" lon="0.38092">
        <ele>101.8</ele>
        <time>2021-04-25T12:54:20Z</time>
      </trkpt>
      <trkpt lat="46.5142" lon="0.38091">
        <ele>102.2</ele>
        <time>2021-04-25T12:54:21Z</time>
      </trkpt>
      <trkpt lat="46.51419" lon="0.38086">
        <ele>103</ele>
        <time>2021-04-25T12:54:23Z</time>
      </trkpt>
      <trkpt lat="46.51418" lon="0.38082">
        <ele>103.6</ele>
        <time>2021-04-25T12:54:25Z</time>
      </trkpt>
      <trkpt lat="46.51418" lon="0.38078">
        <ele>104</ele>
        <time>2021-04-25T12:54:27Z</time>
      </trkpt>
      <trkpt lat="46.51416" lon="0.38077">
        <ele>104</ele>
        <time>2021-04-25T12:54:28Z</time>
      </trkpt>
      <trkpt lat="46.51413" lon="0.38075">
        <ele>104.2</ele>
        <time>2021-04-25T12:54:30Z</time>
      </trkpt>
      <trkpt lat="46.51402" lon="0.38071">
        <ele>105</ele>
        <time>2021-04-25T12:54:36Z</time>
      </trkpt>
      <trkpt lat="46.51399" lon="0.38065">
        <ele>106.4</ele>
        <time>2021-04-25T12:54:40Z</time>
      </trkpt>
      <trkpt lat="46.51398" lon="0.38064">
        <ele>106.6</ele>
        <time>2021-04-25T12:54:41Z</time>
      </trkpt>
      <trkpt lat="46.51396" lon="0.38061">
        <ele>107.6</ele>
        <time>2021-04-25T12:54:43Z</time>
      </trkpt>
      <trkpt lat="46.51395" lon="0.38059">
        <ele>108.2</ele>
        <time>2021-04-25T12:54:44Z</time>
      </trkpt>
      <trkpt lat="46.51393" lon="0.38057">
        <ele>108.8</ele>
        <time>2021-04-25T12:54:46Z</time>
      </trkpt>
      <trkpt lat="46.5139" lon="0.38056">
        <ele>109.4</ele>
        <time>2021-04-25T12:54:48Z</time>
      </trkpt>
      <trkpt lat="46.51387" lon="0.38054">
        <ele>110.2</ele>
        <time>2021-04-25T12:54:50Z</time>
      </trkpt>
      <trkpt lat="46.51377" lon="0.38053">
        <ele>110.8</ele>
        <time>2021-04-25T12:54:55Z</time>
      </trkpt>
      <trkpt lat="46.51361" lon="0.38053">
        <ele>110.4</ele>
        <time>2021-04-25T12:55:01Z</time>
      </trkpt>
      <trkpt lat="46.51349" lon="0.38053">
        <ele>110.6</ele>
        <time>2021-04-25T12:55:06Z</time>
      </trkpt>
      <trkpt lat="46.51331" lon="0.38052">
        <ele>109.6</ele>
        <time>2021-04-25T12:55:13Z</time>
      </trkpt>
      <trkpt lat="46.5131" lon="0.38045">
        <ele>109.4</ele>
        <time>2021-04-25T12:55:19Z</time>
      </trkpt>
      <trkpt lat="46.51302" lon="0.38038">
        <ele>109.8</ele>
        <time>2021-04-25T12:55:22Z</time>
      </trkpt>
      <trkpt lat="46.51298" lon="0.38033">
        <ele>110.8</ele>
        <time>2021-04-25T12:55:24Z</time>
      </trkpt>
      <trkpt lat="46.51293" lon="0.38028">
        <ele>111.2</ele>
        <time>2021-04-25T12:55:26Z</time>
      </trkpt>
      <trkpt lat="46.51281" lon="0.38017">
        <ele>111.8</ele>
        <time>2021-04-25T12:55:30Z</time>
      </trkpt>
      <trkpt lat="46.51263" lon="0.38007">
        <ele>111.8</ele>
        <time>2021-04-25T12:55:35Z</time>
      </trkpt>
      <trkpt lat="46.51234" lon="0.37994">
        <ele>111.4</ele>
        <time>2021-04-25T12:55:41Z</time>
      </trkpt>
      <trkpt lat="46.51217" lon="0.37983">
        <ele>111.6</ele>
        <time>2021-04-25T12:55:45Z</time>
      </trkpt>
      <trkpt lat="46.51212" lon="0.3798">
        <ele>111.6</ele>
        <time>2021-04-25T12:55:46Z</time>
      </trkpt>
      <trkpt lat="46.51183" lon="0.37967">
        <ele>111.6</ele>
        <time>2021-04-25T12:55:52Z</time>
      </trkpt>
      <trkpt lat="46.51178" lon="0.37966">
        <ele>111.6</ele>
        <time>2021-04-25T12:55:53Z</time>
      </trkpt>
      <trkpt lat="46.51163" lon="0.37963">
        <ele>110.8</ele>
        <time>2021-04-25T12:55:56Z</time>
      </trkpt>
      <trkpt lat="46.51156" lon="0.37961">
        <ele>110.8</ele>
        <time>2021-04-25T12:55:57Z</time>
      </trkpt>
      <trkpt lat="46.51136" lon="0.37958">
        <ele>110.6</ele>
        <time>2021-04-25T12:56:00Z</time>
      </trkpt>
      <trkpt lat="46.51131" lon="0.37956">
        <ele>110.6</ele>
        <time>2021-04-25T12:56:01Z</time>
      </trkpt>
      <trkpt lat="46.51123" lon="0.37952">
        <ele>110.6</ele>
        <time>2021-04-25T12:56:03Z</time>
      </trkpt>
      <trkpt lat="46.5112" lon="0.37948">
        <ele>110.8</ele>
        <time>2021-04-25T12:56:05Z</time>
      </trkpt>
      <trkpt lat="46.5112" lon="0.37945">
        <ele>111</ele>
        <time>2021-04-25T12:56:07Z</time>
      </trkpt>
      <trkpt lat="46.51119" lon="0.3794">
        <ele>112.8</ele>
        <time>2021-04-25T12:56:10Z</time>
      </trkpt>
      <trkpt lat="46.51119" lon="0.37934">
        <ele>114.6</ele>
        <time>2021-04-25T12:56:13Z</time>
      </trkpt>
      <trkpt lat="46.51118" lon="0.37931">
        <ele>115.6</ele>
        <time>2021-04-25T12:56:15Z</time>
      </trkpt>
      <trkpt lat="46.51118" lon="0.3793">
        <ele>116</ele>
        <time>2021-04-25T12:56:16Z</time>
      </trkpt>
      <trkpt lat="46.51118" lon="0.37928">
        <ele>116.6</ele>
        <time>2021-04-25T12:56:18Z</time>
      </trkpt>
      <trkpt lat="46.51119" lon="0.37928">
        <ele>116.6</ele>
        <time>2021-04-25T12:56:19Z</time>
      </trkpt>
      <trkpt lat="46.51119" lon="0.37924">
        <ele>117.6</ele>
        <time>2021-04-25T12:56:26Z</time>
      </trkpt>
      <trkpt lat="46.5112" lon="0.37918">
        <ele>118.2</ele>
        <time>2021-04-25T12:56:32Z</time>
      </trkpt>
      <trkpt lat="46.51124" lon="0.37909">
        <ele>118.6</ele>
        <time>2021-04-25T12:56:38Z</time>
      </trkpt>
      <trkpt lat="46.51124" lon="0.37907">
        <ele>119</ele>
        <time>2021-04-25T12:56:39Z</time>
      </trkpt>
      <trkpt lat="46.51125" lon="0.37904">
        <ele>120.2</ele>
        <time>2021-04-25T12:56:41Z</time>
      </trkpt>
      <trkpt lat="46.51127" lon="0.37898">
        <ele>121.2</ele>
        <time>2021-04-25T12:56:45Z</time>
      </trkpt>
      <trkpt lat="46.51128" lon="0.37893">
        <ele>122.2</ele>
        <time>2021-04-25T12:56:48Z</time>
      </trkpt>
      <trkpt lat="46.51129" lon="0.37889">
        <ele>122.8</ele>
        <time>2021-04-25T12:56:50Z</time>
      </trkpt>
      <trkpt lat="46.5113" lon="0.37885">
        <ele>123.4</ele>
        <time>2021-04-25T12:56:53Z</time>
      </trkpt>
      <trkpt lat="46.51132" lon="0.37877">
        <ele>124.4</ele>
        <time>2021-04-25T12:56:58Z</time>
      </trkpt>
      <trkpt lat="46.51134" lon="0.37872">
        <ele>125.2</ele>
        <time>2021-04-25T12:57:02Z</time>
      </trkpt>
      <trkpt lat="46.51134" lon="0.3787">
        <ele>125.4</ele>
        <time>2021-04-25T12:57:03Z</time>
      </trkpt>
      <trkpt lat="46.51136" lon="0.37865">
        <ele>126.6</ele>
        <time>2021-04-25T12:57:07Z</time>
      </trkpt>
      <trkpt lat="46.51138" lon="0.37855">
        <ele>127.6</ele>
        <time>2021-04-25T12:57:14Z</time>
      </trkpt>
      <trkpt lat="46.51139" lon="0.37853">
        <ele>127.6</ele>
        <time>2021-04-25T12:57:15Z</time>
      </trkpt>
      <trkpt lat="46.51147" lon="0.37826">
        <ele>128.8</ele>
        <time>2021-04-25T12:57:28Z</time>
      </trkpt>
      <trkpt lat="46.51156" lon="0.37818">
        <ele>129.6</ele>
        <time>2021-04-25T12:57:37Z</time>
      </trkpt>
      <trkpt lat="46.51157" lon="0.37819">
        <ele>129.6</ele>
        <time>2021-04-25T12:57:38Z</time>
      </trkpt>
      <trkpt lat="46.51172" lon="0.37822">
        <ele>129.4</ele>
        <time>2021-04-25T12:57:47Z</time>
      </trkpt>
      <trkpt lat="46.51185" lon="0.37824">
        <ele>129.6</ele>
        <time>2021-04-25T12:57:54Z</time>
      </trkpt>
      <trkpt lat="46.51201" lon="0.37826">
        <ele>129.6</ele>
        <time>2021-04-25T12:58:00Z</time>
      </trkpt>
      <trkpt lat="46.51218" lon="0.37836">
        <ele>129</ele>
        <time>2021-04-25T12:58:06Z</time>
      </trkpt>
      <trkpt lat="46.51243" lon="0.37851">
        <ele>128.6</ele>
        <time>2021-04-25T12:58:14Z</time>
      </trkpt>
      <trkpt lat="46.51264" lon="0.37863">
        <ele>127.6</ele>
        <time>2021-04-25T12:58:22Z</time>
      </trkpt>
      <trkpt lat="46.51284" lon="0.37873">
        <ele>127</ele>
        <time>2021-04-25T12:58:28Z</time>
      </trkpt>
      <trkpt lat="46.51298" lon="0.37884">
        <ele>126.6</ele>
        <time>2021-04-25T12:58:32Z</time>
      </trkpt>
      <trkpt lat="46.51301" lon="0.37886">
        <ele>126.4</ele>
        <time>2021-04-25T12:58:33Z</time>
      </trkpt>
      <trkpt lat="46.51304" lon="0.37888">
        <ele>126.4</ele>
        <time>2021-04-25T12:58:34Z</time>
      </trkpt>
      <trkpt lat="46.51317" lon="0.37895">
        <ele>125.6</ele>
        <time>2021-04-25T12:58:37Z</time>
      </trkpt>
      <trkpt lat="46.51328" lon="0.37899">
        <ele>125.2</ele>
        <time>2021-04-25T12:58:40Z</time>
      </trkpt>
      <trkpt lat="46.51341" lon="0.37906">
        <ele>124.4</ele>
        <time>2021-04-25T12:58:44Z</time>
      </trkpt>
      <trkpt lat="46.51352" lon="0.37914">
        <ele>124</ele>
        <time>2021-04-25T12:58:47Z</time>
      </trkpt>
      <trkpt lat="46.51365" lon="0.37924">
        <ele>122.8</ele>
        <time>2021-04-25T12:58:51Z</time>
      </trkpt>
      <trkpt lat="46.51372" lon="0.37929">
        <ele>122.2</ele>
        <time>2021-04-25T12:58:53Z</time>
      </trkpt>
      <trkpt lat="46.51384" lon="0.37934">
        <ele>121.8</ele>
        <time>2021-04-25T12:58:56Z</time>
      </trkpt>
      <trkpt lat="46.51395" lon="0.37938">
        <ele>121.8</ele>
        <time>2021-04-25T12:58:59Z</time>
      </trkpt>
      <trkpt lat="46.51407" lon="0.37942">
        <ele>121.4</ele>
        <time>2021-04-25T12:59:01Z</time>
      </trkpt>
      <trkpt lat="46.51418" lon="0.37944">
        <ele>121</ele>
        <time>2021-04-25T12:59:03Z</time>
      </trkpt>
      <trkpt lat="46.51424" lon="0.37946">
        <ele>120.8</ele>
        <time>2021-04-25T12:59:04Z</time>
      </trkpt>
      <trkpt lat="46.5143" lon="0.37946">
        <ele>120.6</ele>
        <time>2021-04-25T12:59:05Z</time>
      </trkpt>
      <trkpt lat="46.51453" lon="0.37945">
        <ele>120</ele>
        <time>2021-04-25T12:59:09Z</time>
      </trkpt>
      <trkpt lat="46.51464" lon="0.37944">
        <ele>119.8</ele>
        <time>2021-04-25T12:59:11Z</time>
      </trkpt>
      <trkpt lat="46.51476" lon="0.37944">
        <ele>119.4</ele>
        <time>2021-04-25T12:59:13Z</time>
      </trkpt>
      <trkpt lat="46.51485" lon="0.37945">
        <ele>119.6</ele>
        <time>2021-04-25T12:59:14Z</time>
      </trkpt>
      <trkpt lat="46.51519" lon="0.37949">
        <ele>119</ele>
        <time>2021-04-25T12:59:19Z</time>
      </trkpt>
      <trkpt lat="46.51524" lon="0.37949">
        <ele>119</ele>
        <time>2021-04-25T12:59:20Z</time>
      </trkpt>
      <trkpt lat="46.51541" lon="0.37951">
        <ele>118.4</ele>
        <time>2021-04-25T12:59:23Z</time>
      </trkpt>
      <trkpt lat="46.51546" lon="0.37953">
        <ele>118.4</ele>
        <time>2021-04-25T12:59:24Z</time>
      </trkpt>
      <trkpt lat="46.51551" lon="0.37954">
        <ele>118.2</ele>
        <time>2021-04-25T12:59:25Z</time>
      </trkpt>
      <trkpt lat="46.51573" lon="0.37965">
        <ele>117.8</ele>
        <time>2021-04-25T12:59:30Z</time>
      </trkpt>
      <trkpt lat="46.51585" lon="0.37973">
        <ele>117</ele>
        <time>2021-04-25T12:59:33Z</time>
      </trkpt>
      <trkpt lat="46.51591" lon="0.37977">
        <ele>115.8</ele>
        <time>2021-04-25T12:59:35Z</time>
      </trkpt>
      <trkpt lat="46.51593" lon="0.37978">
        <ele>115.4</ele>
        <time>2021-04-25T12:59:36Z</time>
      </trkpt>
      <trkpt lat="46.51601" lon="0.37976">
        <ele>114.6</ele>
        <time>2021-04-25T12:59:39Z</time>
      </trkpt>
      <trkpt lat="46.51606" lon="0.37972">
        <ele>114.4</ele>
        <time>2021-04-25T12:59:41Z</time>
      </trkpt>
      <trkpt lat="46.5161" lon="0.37964">
        <ele>114.8</ele>
        <time>2021-04-25T12:59:44Z</time>
      </trkpt>
      <trkpt lat="46.51613" lon="0.37952">
        <ele>115.2</ele>
        <time>2021-04-25T12:59:46Z</time>
      </trkpt>
      <trkpt lat="46.5162" lon="0.37929">
        <ele>114.8</ele>
        <time>2021-04-25T12:59:50Z</time>
      </trkpt>
      <trkpt lat="46.51625" lon="0.37921">
        <ele>114.8</ele>
        <time>2021-04-25T12:59:51Z</time>
      </trkpt>
      <trkpt lat="46.51641" lon="0.37882">
        <ele>114.6</ele>
        <time>2021-04-25T12:59:56Z</time>
      </trkpt>
      <trkpt lat="46.51647" lon="0.37861">
        <ele>115.8</ele>
        <time>2021-04-25T12:59:59Z</time>
      </trkpt>
      <trkpt lat="46.51648" lon="0.37855">
        <ele>116</ele>
        <time>2021-04-25T13:00:00Z</time>
      </trkpt>
      <trkpt lat="46.51655" lon="0.37836">
        <ele>116.8</ele>
        <time>2021-04-25T13:00:04Z</time>
      </trkpt>
      <trkpt lat="46.51658" lon="0.37818">
        <ele>118</ele>
        <time>2021-04-25T13:00:07Z</time>
      </trkpt>
      <trkpt lat="46.51661" lon="0.37812">
        <ele>118.2</ele>
        <time>2021-04-25T13:00:08Z</time>
      </trkpt>
      <trkpt lat="46.51665" lon="0.37799">
        <ele>118.4</ele>
        <time>2021-04-25T13:00:10Z</time>
      </trkpt>
      <trkpt lat="46.5167" lon="0.37787">
        <ele>118.4</ele>
        <time>2021-04-25T13:00:12Z</time>
      </trkpt>
      <trkpt lat="46.51684" lon="0.37754">
        <ele>118.6</ele>
        <time>2021-04-25T13:00:18Z</time>
      </trkpt>
      <trkpt lat="46.51686" lon="0.37748">
        <ele>118.6</ele>
        <time>2021-04-25T13:00:19Z</time>
      </trkpt>
      <trkpt lat="46.51698" lon="0.37713">
        <ele>118.2</ele>
        <time>2021-04-25T13:00:24Z</time>
      </trkpt>
      <trkpt lat="46.51713" lon="0.37671">
        <ele>117.2</ele>
        <time>2021-04-25T13:00:30Z</time>
      </trkpt>
      <trkpt lat="46.51715" lon="0.37665">
        <ele>117.2</ele>
        <time>2021-04-25T13:00:31Z</time>
      </trkpt>
      <trkpt lat="46.51715" lon="0.37665">
        <ele>117</ele>
        <time>2021-04-25T13:00:32Z</time>
      </trkpt>
      <trkpt lat="46.51733" lon="0.37619">
        <ele>116.2</ele>
        <time>2021-04-25T13:00:36Z</time>
      </trkpt>
      <trkpt lat="46.51737" lon="0.3761">
        <ele>115.8</ele>
        <time>2021-04-25T13:00:37Z</time>
      </trkpt>
      <trkpt lat="46.5174" lon="0.37602">
        <ele>114.4</ele>
        <time>2021-04-25T13:00:38Z</time>
      </trkpt>
      <trkpt lat="46.51745" lon="0.37589">
        <ele>112.8</ele>
        <time>2021-04-25T13:00:40Z</time>
      </trkpt>
      <trkpt lat="46.51749" lon="0.37574">
        <ele>110.6</ele>
        <time>2021-04-25T13:00:42Z</time>
      </trkpt>
      <trkpt lat="46.51752" lon="0.3757">
        <ele>108.2</ele>
        <time>2021-04-25T13:00:43Z</time>
      </trkpt>
      <trkpt lat="46.51753" lon="0.37568">
        <ele>106.6</ele>
        <time>2021-04-25T13:00:44Z</time>
      </trkpt>
      <trkpt lat="46.51751" lon="0.37562">
        <ele>104</ele>
        <time>2021-04-25T13:00:46Z</time>
      </trkpt>
      <trkpt lat="46.51749" lon="0.37558">
        <ele>103</ele>
        <time>2021-04-25T13:00:47Z</time>
      </trkpt>
      <trkpt lat="46.51746" lon="0.37547">
        <ele>101</ele>
        <time>2021-04-25T13:00:49Z</time>
      </trkpt>
      <trkpt lat="46.51734" lon="0.3753">
        <ele>100</ele>
        <time>2021-04-25T13:00:52Z</time>
      </trkpt>
      <trkpt lat="46.51714" lon="0.37509">
        <ele>99.6</ele>
        <time>2021-04-25T13:00:57Z</time>
      </trkpt>
      <trkpt lat="46.51705" lon="0.375">
        <ele>99.4</ele>
        <time>2021-04-25T13:00:59Z</time>
      </trkpt>
      <trkpt lat="46.51677" lon="0.37473">
        <ele>99.6</ele>
        <time>2021-04-25T13:01:06Z</time>
      </trkpt>
      <trkpt lat="46.5165" lon="0.37449">
        <ele>99.2</ele>
        <time>2021-04-25T13:01:12Z</time>
      </trkpt>
      <trkpt lat="46.51645" lon="0.37443">
        <ele>99.2</ele>
        <time>2021-04-25T13:01:13Z</time>
      </trkpt>
      <trkpt lat="46.51636" lon="0.37433">
        <ele>99</ele>
        <time>2021-04-25T13:01:16Z</time>
      </trkpt>
      <trkpt lat="46.51634" lon="0.3743">
        <ele>99</ele>
        <time>2021-04-25T13:01:17Z</time>
      </trkpt>
      <trkpt lat="46.51632" lon="0.37427">
        <ele>99</ele>
        <time>2021-04-25T13:01:18Z</time>
      </trkpt>
      <trkpt lat="46.51625" lon="0.37418">
        <ele>98.8</ele>
        <time>2021-04-25T13:01:21Z</time>
      </trkpt>
      <trkpt lat="46.5162" lon="0.37411">
        <ele>98.8</ele>
        <time>2021-04-25T13:01:23Z</time>
      </trkpt>
      <trkpt lat="46.51603" lon="0.37389">
        <ele>98.6</ele>
        <time>2021-04-25T13:01:29Z</time>
      </trkpt>
      <trkpt lat="46.51595" lon="0.37378">
        <ele>98.8</ele>
        <time>2021-04-25T13:01:32Z</time>
      </trkpt>
      <trkpt lat="46.51587" lon="0.37364">
        <ele>98.8</ele>
        <time>2021-04-25T13:01:35Z</time>
      </trkpt>
      <trkpt lat="46.51583" lon="0.37355">
        <ele>98.6</ele>
        <time>2021-04-25T13:01:37Z</time>
      </trkpt>
      <trkpt lat="46.51577" lon="0.37342">
        <ele>97.8</ele>
        <time>2021-04-25T13:01:40Z</time>
      </trkpt>
      <trkpt lat="46.51575" lon="0.37339">
        <ele>97.8</ele>
        <time>2021-04-25T13:01:41Z</time>
      </trkpt>
      <trkpt lat="46.51562" lon="0.37328">
        <ele>98.6</ele>
        <time>2021-04-25T13:01:46Z</time>
      </trkpt>
      <trkpt lat="46.5156" lon="0.37326">
        <ele>98.8</ele>
        <time>2021-04-25T13:01:47Z</time>
      </trkpt>
      <trkpt lat="46.51555" lon="0.37324">
        <ele>100.2</ele>
        <time>2021-04-25T13:01:51Z</time>
      </trkpt>
      <trkpt lat="46.51554" lon="0.37323">
        <ele>100.6</ele>
        <time>2021-04-25T13:01:52Z</time>
      </trkpt>
      <trkpt lat="46.51553" lon="0.37323">
        <ele>101.2</ele>
        <time>2021-04-25T13:01:53Z</time>
      </trkpt>
      <trkpt lat="46.51551" lon="0.37323">
        <ele>102.2</ele>
        <time>2021-04-25T13:01:55Z</time>
      </trkpt>
      <trkpt lat="46.5155" lon="0.37323">
        <ele>102.6</ele>
        <time>2021-04-25T13:01:56Z</time>
      </trkpt>
      <trkpt lat="46.51549" lon="0.37323">
        <ele>103</ele>
        <time>2021-04-25T13:01:57Z</time>
      </trkpt>
      <trkpt lat="46.51548" lon="0.37323">
        <ele>103.8</ele>
        <time>2021-04-25T13:01:58Z</time>
      </trkpt>
      <trkpt lat="46.51545" lon="0.37324">
        <ele>104.4</ele>
        <time>2021-04-25T13:02:00Z</time>
      </trkpt>
      <trkpt lat="46.51545" lon="0.37325">
        <ele>105</ele>
        <time>2021-04-25T13:02:01Z</time>
      </trkpt>
      <trkpt lat="46.51544" lon="0.37325">
        <ele>105.4</ele>
        <time>2021-04-25T13:02:02Z</time>
      </trkpt>
      <trkpt lat="46.5154" lon="0.37328">
        <ele>106.4</ele>
        <time>2021-04-25T13:02:05Z</time>
      </trkpt>
      <trkpt lat="46.51538" lon="0.3733">
        <ele>106.4</ele>
        <time>2021-04-25T13:02:06Z</time>
      </trkpt>
      <trkpt lat="46.51535" lon="0.37332">
        <ele>107.6</ele>
        <time>2021-04-25T13:02:09Z</time>
      </trkpt>
      <trkpt lat="46.51531" lon="0.37333">
        <ele>108.2</ele>
        <time>2021-04-25T13:02:13Z</time>
      </trkpt>
      <trkpt lat="46.5153" lon="0.37334">
        <ele>108.6</ele>
        <time>2021-04-25T13:02:14Z</time>
      </trkpt>
      <trkpt lat="46.51527" lon="0.37335">
        <ele>109.2</ele>
        <time>2021-04-25T13:02:16Z</time>
      </trkpt>
      <trkpt lat="46.51526" lon="0.37336">
        <ele>110</ele>
        <time>2021-04-25T13:02:18Z</time>
      </trkpt>
      <trkpt lat="46.51524" lon="0.37338">
        <ele>110.4</ele>
        <time>2021-04-25T13:02:20Z</time>
      </trkpt>
      <trkpt lat="46.51523" lon="0.3734">
        <ele>110.6</ele>
        <time>2021-04-25T13:02:21Z</time>
      </trkpt>
      <trkpt lat="46.51521" lon="0.3734">
        <ele>111.4</ele>
        <time>2021-04-25T13:02:23Z</time>
      </trkpt>
      <trkpt lat="46.51516" lon="0.37342">
        <ele>112.6</ele>
        <time>2021-04-25T13:02:28Z</time>
      </trkpt>
      <trkpt lat="46.51515" lon="0.37343">
        <ele>113</ele>
        <time>2021-04-25T13:02:29Z</time>
      </trkpt>
      <trkpt lat="46.51513" lon="0.37345">
        <ele>113.4</ele>
        <time>2021-04-25T13:02:31Z</time>
      </trkpt>
      <trkpt lat="46.51511" lon="0.37346">
        <ele>113.8</ele>
        <time>2021-04-25T13:02:33Z</time>
      </trkpt>
      <trkpt lat="46.5151" lon="0.37346">
        <ele>114.2</ele>
        <time>2021-04-25T13:02:34Z</time>
      </trkpt>
      <trkpt lat="46.51506" lon="0.37348">
        <ele>115</ele>
        <time>2021-04-25T13:02:37Z</time>
      </trkpt>
      <trkpt lat="46.515" lon="0.37347">
        <ele>115.8</ele>
        <time>2021-04-25T13:02:41Z</time>
      </trkpt>
      <trkpt lat="46.51499" lon="0.37347">
        <ele>116.2</ele>
        <time>2021-04-25T13:02:42Z</time>
      </trkpt>
      <trkpt lat="46.51494" lon="0.37348">
        <ele>117.4</ele>
        <time>2021-04-25T13:02:46Z</time>
      </trkpt>
      <trkpt lat="46.51493" lon="0.37348">
        <ele>117.6</ele>
        <time>2021-04-25T13:02:47Z</time>
      </trkpt>
      <trkpt lat="46.51492" lon="0.37347">
        <ele>117.8</ele>
        <time>2021-04-25T13:02:49Z</time>
      </trkpt>
      <trkpt lat="46.51491" lon="0.37347">
        <ele>118.4</ele>
        <time>2021-04-25T13:02:51Z</time>
      </trkpt>
      <trkpt lat="46.51489" lon="0.37346">
        <ele>118.6</ele>
        <time>2021-04-25T13:02:53Z</time>
      </trkpt>
      <trkpt lat="46.51485" lon="0.37344">
        <ele>119.4</ele>
        <time>2021-04-25T13:02:57Z</time>
      </trkpt>
      <trkpt lat="46.51483" lon="0.37343">
        <ele>120</ele>
        <time>2021-04-25T13:02:59Z</time>
      </trkpt>
      <trkpt lat="46.51481" lon="0.37343">
        <ele>120.4</ele>
        <time>2021-04-25T13:03:00Z</time>
      </trkpt>
      <trkpt lat="46.5148" lon="0.37343">
        <ele>120.8</ele>
        <time>2021-04-25T13:03:01Z</time>
      </trkpt>
      <trkpt lat="46.51473" lon="0.37344">
        <ele>121.8</ele>
        <time>2021-04-25T13:03:06Z</time>
      </trkpt>
      <trkpt lat="46.51469" lon="0.37345">
        <ele>122.4</ele>
        <time>2021-04-25T13:03:11Z</time>
      </trkpt>
      <trkpt lat="46.51468" lon="0.37345">
        <ele>122.6</ele>
        <time>2021-04-25T13:03:12Z</time>
      </trkpt>
      <trkpt lat="46.51467" lon="0.37348">
        <ele>122.6</ele>
        <time>2021-04-25T13:03:15Z</time>
      </trkpt>
      <trkpt lat="46.51466" lon="0.37349">
        <ele>122.4</ele>
        <time>2021-04-25T13:03:17Z</time>
      </trkpt>
      <trkpt lat="46.51464" lon="0.37359">
        <ele>122</ele>
        <time>2021-04-25T13:03:24Z</time>
      </trkpt>
      <trkpt lat="46.51464" lon="0.37361">
        <ele>122.2</ele>
        <time>2021-04-25T13:03:25Z</time>
      </trkpt>
      <trkpt lat="46.51461" lon="0.37369">
        <ele>122.6</ele>
        <time>2021-04-25T13:03:31Z</time>
      </trkpt>
      <trkpt lat="46.5146" lon="0.37371">
        <ele>122.8</ele>
        <time>2021-04-25T13:03:33Z</time>
      </trkpt>
      <trkpt lat="46.5146" lon="0.37372">
        <ele>123</ele>
        <time>2021-04-25T13:03:34Z</time>
      </trkpt>
      <trkpt lat="46.51459" lon="0.37374">
        <ele>123</ele>
        <time>2021-04-25T13:03:35Z</time>
      </trkpt>
      <trkpt lat="46.51458" lon="0.37376">
        <ele>123.2</ele>
        <time>2021-04-25T13:03:37Z</time>
      </trkpt>
      <trkpt lat="46.51457" lon="0.37378">
        <ele>123.2</ele>
        <time>2021-04-25T13:03:38Z</time>
      </trkpt>
      <trkpt lat="46.51452" lon="0.37391">
        <ele>123.2</ele>
        <time>2021-04-25T13:03:47Z</time>
      </trkpt>
      <trkpt lat="46.51449" lon="0.37399">
        <ele>124.2</ele>
        <time>2021-04-25T13:03:53Z</time>
      </trkpt>
      <trkpt lat="46.51447" lon="0.37404">
        <ele>124.6</ele>
        <time>2021-04-25T13:03:57Z</time>
      </trkpt>
      <trkpt lat="46.51443" lon="0.37412">
        <ele>125.2</ele>
        <time>2021-04-25T13:04:02Z</time>
      </trkpt>
      <trkpt lat="46.51441" lon="0.37424">
        <ele>125.8</ele>
        <time>2021-04-25T13:04:09Z</time>
      </trkpt>
      <trkpt lat="46.51439" lon="0.37434">
        <ele>126.2</ele>
        <time>2021-04-25T13:04:14Z</time>
      </trkpt>
      <trkpt lat="46.51431" lon="0.37455">
        <ele>127.2</ele>
        <time>2021-04-25T13:04:23Z</time>
      </trkpt>
      <trkpt lat="46.51429" lon="0.3746">
        <ele>127.4</ele>
        <time>2021-04-25T13:04:26Z</time>
      </trkpt>
      <trkpt lat="46.51426" lon="0.37467">
        <ele>128</ele>
        <time>2021-04-25T13:04:31Z</time>
      </trkpt>
      <trkpt lat="46.51426" lon="0.37467">
        <ele>128</ele>
        <time>2021-04-25T13:04:32Z</time>
      </trkpt>
      <trkpt lat="46.51426" lon="0.37466">
        <ele>128.2</ele>
        <time>2021-04-25T13:04:34Z</time>
      </trkpt>
      <trkpt lat="46.51428" lon="0.37462">
        <ele>128</ele>
        <time>2021-04-25T13:04:38Z</time>
      </trkpt>
      <trkpt lat="46.51428" lon="0.37459">
        <ele>128</ele>
        <time>2021-04-25T13:04:40Z</time>
      </trkpt>
      <trkpt lat="46.51429" lon="0.37457">
        <ele>128</ele>
        <time>2021-04-25T13:04:43Z</time>
      </trkpt>
      <trkpt lat="46.51431" lon="0.37454">
        <ele>127.8</ele>
        <time>2021-04-25T13:04:46Z</time>
      </trkpt>
      <trkpt lat="46.51432" lon="0.37452">
        <ele>127.6</ele>
        <time>2021-04-25T13:04:48Z</time>
      </trkpt>
      <trkpt lat="46.51436" lon="0.37448">
        <ele>127.2</ele>
        <time>2021-04-25T13:04:51Z</time>
      </trkpt>
      <trkpt lat="46.5144" lon="0.37446">
        <ele>126</ele>
        <time>2021-04-25T13:04:54Z</time>
      </trkpt>
      <trkpt lat="46.51449" lon="0.37445">
        <ele>125</ele>
        <time>2021-04-25T13:04:59Z</time>
      </trkpt>
      <trkpt lat="46.51451" lon="0.37444">
        <ele>124.8</ele>
        <time>2021-04-25T13:05:00Z</time>
      </trkpt>
      <trkpt lat="46.51454" lon="0.37443">
        <ele>124.4</ele>
        <time>2021-04-25T13:05:01Z</time>
      </trkpt>
      <trkpt lat="46.5146" lon="0.37441">
        <ele>123.2</ele>
        <time>2021-04-25T13:05:03Z</time>
      </trkpt>
      <trkpt lat="46.51464" lon="0.37443">
        <ele>122.6</ele>
        <time>2021-04-25T13:05:05Z</time>
      </trkpt>
      <trkpt lat="46.51468" lon="0.37445">
        <ele>122.4</ele>
        <time>2021-04-25T13:05:07Z</time>
      </trkpt>
      <trkpt lat="46.51474" lon="0.37453">
        <ele>123</ele>
        <time>2021-04-25T13:05:12Z</time>
      </trkpt>
      <trkpt lat="46.51476" lon="0.37454">
        <ele>123.2</ele>
        <time>2021-04-25T13:05:13Z</time>
      </trkpt>
      <trkpt lat="46.51482" lon="0.37453">
        <ele>123.4</ele>
        <time>2021-04-25T13:05:16Z</time>
      </trkpt>
      <trkpt lat="46.51486" lon="0.37458">
        <ele>123.4</ele>
        <time>2021-04-25T13:05:19Z</time>
      </trkpt>
      <trkpt lat="46.51487" lon="0.37461">
        <ele>123.6</ele>
        <time>2021-04-25T13:05:20Z</time>
      </trkpt>
      <trkpt lat="46.5149" lon="0.37469">
        <ele>123.8</ele>
        <time>2021-04-25T13:05:23Z</time>
      </trkpt>
      <trkpt lat="46.51494" lon="0.37474">
        <ele>124.2</ele>
        <time>2021-04-25T13:05:25Z</time>
      </trkpt>
      <trkpt lat="46.51496" lon="0.37476">
        <ele>124.4</ele>
        <time>2021-04-25T13:05:26Z</time>
      </trkpt>
      <trkpt lat="46.51502" lon="0.37485">
        <ele>125</ele>
        <time>2021-04-25T13:05:30Z</time>
      </trkpt>
      <trkpt lat="46.51503" lon="0.37485">
        <ele>125</ele>
        <time>2021-04-25T13:05:31Z</time>
      </trkpt>
      <trkpt lat="46.51504" lon="0.37483">
        <ele>124.8</ele>
        <time>2021-04-25T13:05:34Z</time>
      </trkpt>
      <trkpt lat="46.51504" lon="0.37481">
        <ele>124.4</ele>
        <time>2021-04-25T13:05:36Z</time>
      </trkpt>
      <trkpt lat="46.51506" lon="0.3748">
        <ele>124.2</ele>
        <time>2021-04-25T13:05:38Z</time>
      </trkpt>
      <trkpt lat="46.51509" lon="0.37478">
        <ele>123.8</ele>
        <time>2021-04-25T13:05:41Z</time>
      </trkpt>
      <trkpt lat="46.51511" lon="0.37473">
        <ele>123.6</ele>
        <time>2021-04-25T13:05:43Z</time>
      </trkpt>
      <trkpt lat="46.51515" lon="0.37471">
        <ele>123.2</ele>
        <time>2021-04-25T13:05:45Z</time>
      </trkpt>
      <trkpt lat="46.51518" lon="0.37473">
        <ele>122.8</ele>
        <time>2021-04-25T13:05:47Z</time>
      </trkpt>
      <trkpt lat="46.51522" lon="0.37475">
        <ele>122.4</ele>
        <time>2021-04-25T13:05:49Z</time>
      </trkpt>
      <trkpt lat="46.51525" lon="0.37474">
        <ele>122.2</ele>
        <time>2021-04-25T13:05:50Z</time>
      </trkpt>
      <trkpt lat="46.51529" lon="0.37469">
        <ele>122</ele>
        <time>2021-04-25T13:05:53Z</time>
      </trkpt>
      <trkpt lat="46.51528" lon="0.37467">
        <ele>122</ele>
        <time>2021-04-25T13:05:54Z</time>
      </trkpt>
      <trkpt lat="46.51527" lon="0.37464">
        <ele>122.2</ele>
        <time>2021-04-25T13:05:56Z</time>
      </trkpt>
      <trkpt lat="46.51528" lon="0.37457">
        <ele>122</ele>
        <time>2021-04-25T13:05:58Z</time>
      </trkpt>
      <trkpt lat="46.51528" lon="0.37453">
        <ele>122</ele>
        <time>2021-04-25T13:05:59Z</time>
      </trkpt>
      <trkpt lat="46.51526" lon="0.37446">
        <ele>120.6</ele>
        <time>2021-04-25T13:06:01Z</time>
      </trkpt>
      <trkpt lat="46.51524" lon="0.37442">
        <ele>120</ele>
        <time>2021-04-25T13:06:02Z</time>
      </trkpt>
      <trkpt lat="46.51522" lon="0.3744">
        <ele>119.6</ele>
        <time>2021-04-25T13:06:03Z</time>
      </trkpt>
      <trkpt lat="46.5152" lon="0.37438">
        <ele>119.2</ele>
        <time>2021-04-25T13:06:04Z</time>
      </trkpt>
      <trkpt lat="46.51517" lon="0.37432">
        <ele>119</ele>
        <time>2021-04-25T13:06:06Z</time>
      </trkpt>
      <trkpt lat="46.51517" lon="0.3743">
        <ele>118.6</ele>
        <time>2021-04-25T13:06:07Z</time>
      </trkpt>
      <trkpt lat="46.51518" lon="0.37427">
        <ele>118.2</ele>
        <time>2021-04-25T13:06:08Z</time>
      </trkpt>
      <trkpt lat="46.51515" lon="0.37419">
        <ele>117</ele>
        <time>2021-04-25T13:06:11Z</time>
      </trkpt>
      <trkpt lat="46.51514" lon="0.37419">
        <ele>116.8</ele>
        <time>2021-04-25T13:06:12Z</time>
      </trkpt>
      <trkpt lat="46.51508" lon="0.37416">
        <ele>117.2</ele>
        <time>2021-04-25T13:06:18Z</time>
      </trkpt>
      <trkpt lat="46.51505" lon="0.37409">
        <ele>117.2</ele>
        <time>2021-04-25T13:06:21Z</time>
      </trkpt>
      <trkpt lat="46.51504" lon="0.37405">
        <ele>117</ele>
        <time>2021-04-25T13:06:22Z</time>
      </trkpt>
      <trkpt lat="46.51503" lon="0.37402">
        <ele>116.8</ele>
        <time>2021-04-25T13:06:23Z</time>
      </trkpt>
      <trkpt lat="46.51501" lon="0.37399">
        <ele>116.6</ele>
        <time>2021-04-25T13:06:25Z</time>
      </trkpt>
      <trkpt lat="46.51499" lon="0.37398">
        <ele>116.4</ele>
        <time>2021-04-25T13:06:26Z</time>
      </trkpt>
      <trkpt lat="46.51487" lon="0.37397">
        <ele>117</ele>
        <time>2021-04-25T13:06:31Z</time>
      </trkpt>
      <trkpt lat="46.51484" lon="0.37398">
        <ele>118</ele>
        <time>2021-04-25T13:06:33Z</time>
      </trkpt>
      <trkpt lat="46.51482" lon="0.374">
        <ele>118.4</ele>
        <time>2021-04-25T13:06:34Z</time>
      </trkpt>
      <trkpt lat="46.51482" lon="0.37403">
        <ele>119</ele>
        <time>2021-04-25T13:06:36Z</time>
      </trkpt>
      <trkpt lat="46.5148" lon="0.37409">
        <ele>119.6</ele>
        <time>2021-04-25T13:06:39Z</time>
      </trkpt>
      <trkpt lat="46.51479" lon="0.37411">
        <ele>120.2</ele>
        <time>2021-04-25T13:06:41Z</time>
      </trkpt>
      <trkpt lat="46.51475" lon="0.37411">
        <ele>121.4</ele>
        <time>2021-04-25T13:06:44Z</time>
      </trkpt>
      <trkpt lat="46.51473" lon="0.37412">
        <ele>122.2</ele>
        <time>2021-04-25T13:06:46Z</time>
      </trkpt>
      <trkpt lat="46.51472" lon="0.37411">
        <ele>122.8</ele>
        <time>2021-04-25T13:06:47Z</time>
      </trkpt>
      <trkpt lat="46.51464" lon="0.37414">
        <ele>123.8</ele>
        <time>2021-04-25T13:06:53Z</time>
      </trkpt>
      <trkpt lat="46.51461" lon="0.37414">
        <ele>124</ele>
        <time>2021-04-25T13:06:55Z</time>
      </trkpt>
      <trkpt lat="46.51452" lon="0.37409">
        <ele>124.4</ele>
        <time>2021-04-25T13:07:02Z</time>
      </trkpt>
      <trkpt lat="46.51444" lon="0.37409">
        <ele>125</ele>
        <time>2021-04-25T13:07:06Z</time>
      </trkpt>
      <trkpt lat="46.51437" lon="0.37409">
        <ele>125.8</ele>
        <time>2021-04-25T13:07:10Z</time>
      </trkpt>
      <trkpt lat="46.51435" lon="0.37408">
        <ele>126</ele>
        <time>2021-04-25T13:07:12Z</time>
      </trkpt>
      <trkpt lat="46.51425" lon="0.37406">
        <ele>127.4</ele>
        <time>2021-04-25T13:07:17Z</time>
      </trkpt>
      <trkpt lat="46.51419" lon="0.37405">
        <ele>128.8</ele>
        <time>2021-04-25T13:07:22Z</time>
      </trkpt>
      <trkpt lat="46.51415" lon="0.37405">
        <ele>129.2</ele>
        <time>2021-04-25T13:07:24Z</time>
      </trkpt>
      <trkpt lat="46.51408" lon="0.37403">
        <ele>129.8</ele>
        <time>2021-04-25T13:07:28Z</time>
      </trkpt>
      <trkpt lat="46.51404" lon="0.37401">
        <ele>130.2</ele>
        <time>2021-04-25T13:07:30Z</time>
      </trkpt>
      <trkpt lat="46.51392" lon="0.37391">
        <ele>131</ele>
        <time>2021-04-25T13:07:37Z</time>
      </trkpt>
      <trkpt lat="46.51377" lon="0.37385">
        <ele>132</ele>
        <time>2021-04-25T13:07:44Z</time>
      </trkpt>
      <trkpt lat="46.5136" lon="0.37378">
        <ele>133</ele>
        <time>2021-04-25T13:07:51Z</time>
      </trkpt>
      <trkpt lat="46.51347" lon="0.37371">
        <ele>133.2</ele>
        <time>2021-04-25T13:07:56Z</time>
      </trkpt>
      <trkpt lat="46.51344" lon="0.3737">
        <ele>133.4</ele>
        <time>2021-04-25T13:07:57Z</time>
      </trkpt>
      <trkpt lat="46.5134" lon="0.37363">
        <ele>133.8</ele>
        <time>2021-04-25T13:08:01Z</time>
      </trkpt>
      <trkpt lat="46.51348" lon="0.37355">
        <ele>133.8</ele>
        <time>2021-04-25T13:08:06Z</time>
      </trkpt>
      <trkpt lat="46.51359" lon="0.37343">
        <ele>133.2</ele>
        <time>2021-04-25T13:08:12Z</time>
      </trkpt>
      <trkpt lat="46.51373" lon="0.37336">
        <ele>132</ele>
        <time>2021-04-25T13:08:16Z</time>
      </trkpt>
      <trkpt lat="46.51377" lon="0.37332">
        <ele>131.8</ele>
        <time>2021-04-25T13:08:17Z</time>
      </trkpt>
      <trkpt lat="46.51385" lon="0.37325">
        <ele>131</ele>
        <time>2021-04-25T13:08:19Z</time>
      </trkpt>
      <trkpt lat="46.51392" lon="0.37317">
        <ele>130</ele>
        <time>2021-04-25T13:08:21Z</time>
      </trkpt>
      <trkpt lat="46.51393" lon="0.37314">
        <ele>129.4</ele>
        <time>2021-04-25T13:08:22Z</time>
      </trkpt>
      <trkpt lat="46.51395" lon="0.37311">
        <ele>129</ele>
        <time>2021-04-25T13:08:23Z</time>
      </trkpt>
      <trkpt lat="46.51397" lon="0.37304">
        <ele>128.2</ele>
        <time>2021-04-25T13:08:25Z</time>
      </trkpt>
      <trkpt lat="46.51399" lon="0.37301">
        <ele>128.2</ele>
        <time>2021-04-25T13:08:26Z</time>
      </trkpt>
      <trkpt lat="46.51408" lon="0.37297">
        <ele>127.6</ele>
        <time>2021-04-25T13:08:29Z</time>
      </trkpt>
      <trkpt lat="46.51418" lon="0.37294">
        <ele>126.8</ele>
        <time>2021-04-25T13:08:31Z</time>
      </trkpt>
      <trkpt lat="46.51428" lon="0.37288">
        <ele>125.8</ele>
        <time>2021-04-25T13:08:33Z</time>
      </trkpt>
      <trkpt lat="46.51432" lon="0.37287">
        <ele>125.4</ele>
        <time>2021-04-25T13:08:34Z</time>
      </trkpt>
      <trkpt lat="46.51436" lon="0.37285">
        <ele>124.2</ele>
        <time>2021-04-25T13:08:35Z</time>
      </trkpt>
      <trkpt lat="46.5144" lon="0.37283">
        <ele>122.8</ele>
        <time>2021-04-25T13:08:36Z</time>
      </trkpt>
      <trkpt lat="46.51446" lon="0.37276">
        <ele>121.6</ele>
        <time>2021-04-25T13:08:38Z</time>
      </trkpt>
      <trkpt lat="46.51451" lon="0.37267">
        <ele>120.8</ele>
        <time>2021-04-25T13:08:41Z</time>
      </trkpt>
      <trkpt lat="46.51454" lon="0.37265">
        <ele>120.8</ele>
        <time>2021-04-25T13:08:42Z</time>
      </trkpt>
      <trkpt lat="46.51455" lon="0.37262">
        <ele>120.4</ele>
        <time>2021-04-25T13:08:43Z</time>
      </trkpt>
      <trkpt lat="46.51458" lon="0.37256">
        <ele>119</ele>
        <time>2021-04-25T13:08:45Z</time>
      </trkpt>
      <trkpt lat="46.51461" lon="0.37252">
        <ele>118.6</ele>
        <time>2021-04-25T13:08:46Z</time>
      </trkpt>
      <trkpt lat="46.51465" lon="0.37245">
        <ele>117.8</ele>
        <time>2021-04-25T13:08:48Z</time>
      </trkpt>
      <trkpt lat="46.51471" lon="0.37236">
        <ele>116.2</ele>
        <time>2021-04-25T13:08:51Z</time>
      </trkpt>
      <trkpt lat="46.51474" lon="0.37232">
        <ele>114.6</ele>
        <time>2021-04-25T13:08:53Z</time>
      </trkpt>
      <trkpt lat="46.51474" lon="0.37229">
        <ele>113.4</ele>
        <time>2021-04-25T13:08:56Z</time>
      </trkpt>
      <trkpt lat="46.51484" lon="0.3722">
        <ele>113</ele>
        <time>2021-04-25T13:09:10Z</time>
      </trkpt>
      <trkpt lat="46.51494" lon="0.3721">
        <ele>113</ele>
        <time>2021-04-25T13:09:20Z</time>
      </trkpt>
      <trkpt lat="46.51499" lon="0.37207">
        <ele>113</ele>
        <time>2021-04-25T13:09:23Z</time>
      </trkpt>
      <trkpt lat="46.51504" lon="0.37204">
        <ele>111.2</ele>
        <time>2021-04-25T13:09:25Z</time>
      </trkpt>
      <trkpt lat="46.51506" lon="0.37202">
        <ele>109.4</ele>
        <time>2021-04-25T13:09:26Z</time>
      </trkpt>
      <trkpt lat="46.51508" lon="0.372">
        <ele>108.4</ele>
        <time>2021-04-25T13:09:27Z</time>
      </trkpt>
      <trkpt lat="46.51513" lon="0.37196">
        <ele>107</ele>
        <time>2021-04-25T13:09:29Z</time>
      </trkpt>
      <trkpt lat="46.51515" lon="0.37195">
        <ele>106.6</ele>
        <time>2021-04-25T13:09:30Z</time>
      </trkpt>
      <trkpt lat="46.51519" lon="0.37193">
        <ele>106.6</ele>
        <time>2021-04-25T13:09:32Z</time>
      </trkpt>
      <trkpt lat="46.51522" lon="0.3718">
        <ele>106.8</ele>
        <time>2021-04-25T13:09:37Z</time>
      </trkpt>
      <trkpt lat="46.51522" lon="0.37157">
        <ele>108</ele>
        <time>2021-04-25T13:09:48Z</time>
      </trkpt>
      <trkpt lat="46.51521" lon="0.37152">
        <ele>108.2</ele>
        <time>2021-04-25T13:09:50Z</time>
      </trkpt>
      <trkpt lat="46.51519" lon="0.37139">
        <ele>109.2</ele>
        <time>2021-04-25T13:09:56Z</time>
      </trkpt>
      <trkpt lat="46.51516" lon="0.37129">
        <ele>110.4</ele>
        <time>2021-04-25T13:10:00Z</time>
      </trkpt>
      <trkpt lat="46.51508" lon="0.37114">
        <ele>111.6</ele>
        <time>2021-04-25T13:10:07Z</time>
      </trkpt>
      <trkpt lat="46.51504" lon="0.37106">
        <ele>112.2</ele>
        <time>2021-04-25T13:10:12Z</time>
      </trkpt>
      <trkpt lat="46.51502" lon="0.37105">
        <ele>112.4</ele>
        <time>2021-04-25T13:10:13Z</time>
      </trkpt>
      <trkpt lat="46.51501" lon="0.37103">
        <ele>112.4</ele>
        <time>2021-04-25T13:10:14Z</time>
      </trkpt>
      <trkpt lat="46.515" lon="0.37103">
        <ele>113</ele>
        <time>2021-04-25T13:10:16Z</time>
      </trkpt>
      <trkpt lat="46.51499" lon="0.37104">
        <ele>113.2</ele>
        <time>2021-04-25T13:10:17Z</time>
      </trkpt>
      <trkpt lat="46.51493" lon="0.37103">
        <ele>114.2</ele>
        <time>2021-04-25T13:10:21Z</time>
      </trkpt>
      <trkpt lat="46.51489" lon="0.37102">
        <ele>114.6</ele>
        <time>2021-04-25T13:10:23Z</time>
      </trkpt>
      <trkpt lat="46.51485" lon="0.37102">
        <ele>115.4</ele>
        <time>2021-04-25T13:10:25Z</time>
      </trkpt>
      <trkpt lat="46.51478" lon="0.37102">
        <ele>116.6</ele>
        <time>2021-04-25T13:10:29Z</time>
      </trkpt>
      <trkpt lat="46.51475" lon="0.37102">
        <ele>117.8</ele>
        <time>2021-04-25T13:10:31Z</time>
      </trkpt>
      <trkpt lat="46.51471" lon="0.37101">
        <ele>118.4</ele>
        <time>2021-04-25T13:10:34Z</time>
      </trkpt>
      <trkpt lat="46.5147" lon="0.37101">
        <ele>118.8</ele>
        <time>2021-04-25T13:10:35Z</time>
      </trkpt>
      <trkpt lat="46.51468" lon="0.37102">
        <ele>120</ele>
        <time>2021-04-25T13:10:38Z</time>
      </trkpt>
      <trkpt lat="46.51464" lon="0.37106">
        <ele>121</ele>
        <time>2021-04-25T13:10:42Z</time>
      </trkpt>
      <trkpt lat="46.51463" lon="0.37107">
        <ele>121.2</ele>
        <time>2021-04-25T13:10:43Z</time>
      </trkpt>
      <trkpt lat="46.51459" lon="0.37109">
        <ele>121.8</ele>
        <time>2021-04-25T13:10:46Z</time>
      </trkpt>
      <trkpt lat="46.51457" lon="0.37111">
        <ele>122.4</ele>
        <time>2021-04-25T13:10:48Z</time>
      </trkpt>
      <trkpt lat="46.51455" lon="0.37115">
        <ele>123</ele>
        <time>2021-04-25T13:10:50Z</time>
      </trkpt>
      <trkpt lat="46.51453" lon="0.37118">
        <ele>123.4</ele>
        <time>2021-04-25T13:10:52Z</time>
      </trkpt>
      <trkpt lat="46.51449" lon="0.37124">
        <ele>124.6</ele>
        <time>2021-04-25T13:10:56Z</time>
      </trkpt>
      <trkpt lat="46.51444" lon="0.37133">
        <ele>125.6</ele>
        <time>2021-04-25T13:11:01Z</time>
      </trkpt>
      <trkpt lat="46.51443" lon="0.37137">
        <ele>126.4</ele>
        <time>2021-04-25T13:11:03Z</time>
      </trkpt>
      <trkpt lat="46.51443" lon="0.37139">
        <ele>126.6</ele>
        <time>2021-04-25T13:11:04Z</time>
      </trkpt>
      <trkpt lat="46.51443" lon="0.37141">
        <ele>126.8</ele>
        <time>2021-04-25T13:11:05Z</time>
      </trkpt>
      <trkpt lat="46.5144" lon="0.37149">
        <ele>127.8</ele>
        <time>2021-04-25T13:11:11Z</time>
      </trkpt>
      <trkpt lat="46.51439" lon="0.37149">
        <ele>128</ele>
        <time>2021-04-25T13:11:12Z</time>
      </trkpt>
      <trkpt lat="46.51439" lon="0.3715">
        <ele>128.2</ele>
        <time>2021-04-25T13:11:13Z</time>
      </trkpt>
      <trkpt lat="46.51437" lon="0.37151">
        <ele>128.4</ele>
        <time>2021-04-25T13:11:14Z</time>
      </trkpt>
      <trkpt lat="46.51435" lon="0.37152">
        <ele>128.8</ele>
        <time>2021-04-25T13:11:16Z</time>
      </trkpt>
      <trkpt lat="46.51432" lon="0.37152">
        <ele>129</ele>
        <time>2021-04-25T13:11:18Z</time>
      </trkpt>
      <trkpt lat="46.51432" lon="0.37151">
        <ele>129</ele>
        <time>2021-04-25T13:11:20Z</time>
      </trkpt>
      <trkpt lat="46.51431" lon="0.37151">
        <ele>129</ele>
        <time>2021-04-25T13:11:21Z</time>
      </trkpt>
      <trkpt lat="46.51431" lon="0.37148">
        <ele>128.6</ele>
        <time>2021-04-25T13:11:23Z</time>
      </trkpt>
      <trkpt lat="46.51429" lon="0.37147">
        <ele>128.2</ele>
        <time>2021-04-25T13:11:24Z</time>
      </trkpt>
      <trkpt lat="46.51428" lon="0.37145">
        <ele>128</ele>
        <time>2021-04-25T13:11:26Z</time>
      </trkpt>
      <trkpt lat="46.51426" lon="0.37142">
        <ele>127.4</ele>
        <time>2021-04-25T13:11:29Z</time>
      </trkpt>
      <trkpt lat="46.51424" lon="0.37139">
        <ele>126.8</ele>
        <time>2021-04-25T13:11:32Z</time>
      </trkpt>
      <trkpt lat="46.51423" lon="0.37135">
        <ele>126.4</ele>
        <time>2021-04-25T13:11:35Z</time>
      </trkpt>
      <trkpt lat="46.51421" lon="0.37132">
        <ele>126.2</ele>
        <time>2021-04-25T13:11:37Z</time>
      </trkpt>
      <trkpt lat="46.51419" lon="0.37129">
        <ele>125.6</ele>
        <time>2021-04-25T13:11:39Z</time>
      </trkpt>
      <trkpt lat="46.51412" lon="0.37118">
        <ele>124.8</ele>
        <time>2021-04-25T13:11:45Z</time>
      </trkpt>
      <trkpt lat="46.5141" lon="0.37116">
        <ele>124.4</ele>
        <time>2021-04-25T13:11:46Z</time>
      </trkpt>
      <trkpt lat="46.51404" lon="0.37103">
        <ele>123.4</ele>
        <time>2021-04-25T13:11:52Z</time>
      </trkpt>
      <trkpt lat="46.51404" lon="0.37096">
        <ele>123</ele>
        <time>2021-04-25T13:11:54Z</time>
      </trkpt>
      <trkpt lat="46.51405" lon="0.37091">
        <ele>122.6</ele>
        <time>2021-04-25T13:11:55Z</time>
      </trkpt>
      <trkpt lat="46.51408" lon="0.37082">
        <ele>122.2</ele>
        <time>2021-04-25T13:11:56Z</time>
      </trkpt>
      <trkpt lat="46.51416" lon="0.37066">
        <ele>121.8</ele>
        <time>2021-04-25T13:12:01Z</time>
      </trkpt>
      <trkpt lat="46.51414" lon="0.37059">
        <ele>121.8</ele>
        <time>2021-04-25T13:12:04Z</time>
      </trkpt>
      <trkpt lat="46.51412" lon="0.37057">
        <ele>122.4</ele>
        <time>2021-04-25T13:12:05Z</time>
      </trkpt>
      <trkpt lat="46.51408" lon="0.3705">
        <ele>123.2</ele>
        <time>2021-04-25T13:12:08Z</time>
      </trkpt>
      <trkpt lat="46.51404" lon="0.37042">
        <ele>124.8</ele>
        <time>2021-04-25T13:12:12Z</time>
      </trkpt>
      <trkpt lat="46.51397" lon="0.37035">
        <ele>126</ele>
        <time>2021-04-25T13:12:16Z</time>
      </trkpt>
      <trkpt lat="46.51396" lon="0.37033">
        <ele>127</ele>
        <time>2021-04-25T13:12:18Z</time>
      </trkpt>
      <trkpt lat="46.51396" lon="0.37032">
        <ele>127.2</ele>
        <time>2021-04-25T13:12:19Z</time>
      </trkpt>
      <trkpt lat="46.51395" lon="0.37031">
        <ele>127.4</ele>
        <time>2021-04-25T13:12:20Z</time>
      </trkpt>
      <trkpt lat="46.51392" lon="0.37028">
        <ele>128.4</ele>
        <time>2021-04-25T13:12:23Z</time>
      </trkpt>
      <trkpt lat="46.51389" lon="0.37024">
        <ele>129.2</ele>
        <time>2021-04-25T13:12:25Z</time>
      </trkpt>
      <trkpt lat="46.51388" lon="0.37023">
        <ele>129.4</ele>
        <time>2021-04-25T13:12:26Z</time>
      </trkpt>
      <trkpt lat="46.51381" lon="0.37019">
        <ele>130.6</ele>
        <time>2021-04-25T13:12:31Z</time>
      </trkpt>
      <trkpt lat="46.5137" lon="0.37015">
        <ele>131.4</ele>
        <time>2021-04-25T13:12:38Z</time>
      </trkpt>
      <trkpt lat="46.51368" lon="0.37015">
        <ele>131.6</ele>
        <time>2021-04-25T13:12:39Z</time>
      </trkpt>
      <trkpt lat="46.51359" lon="0.37009">
        <ele>132.6</ele>
        <time>2021-04-25T13:12:46Z</time>
      </trkpt>
      <trkpt lat="46.51355" lon="0.37007">
        <ele>133.4</ele>
        <time>2021-04-25T13:12:49Z</time>
      </trkpt>
      <trkpt lat="46.51354" lon="0.37006">
        <ele>133.8</ele>
        <time>2021-04-25T13:12:50Z</time>
      </trkpt>
      <trkpt lat="46.51345" lon="0.36997">
        <ele>135</ele>
        <time>2021-04-25T13:12:58Z</time>
      </trkpt>
      <trkpt lat="46.51344" lon="0.36996">
        <ele>135</ele>
        <time>2021-04-25T13:12:59Z</time>
      </trkpt>
      <trkpt lat="46.51337" lon="0.36991">
        <ele>136</ele>
        <time>2021-04-25T13:13:03Z</time>
      </trkpt>
      <trkpt lat="46.51327" lon="0.36986">
        <ele>137</ele>
        <time>2021-04-25T13:13:09Z</time>
      </trkpt>
      <trkpt lat="46.51322" lon="0.36985">
        <ele>138</ele>
        <time>2021-04-25T13:13:13Z</time>
      </trkpt>
      <trkpt lat="46.51309" lon="0.36974">
        <ele>138.8</ele>
        <time>2021-04-25T13:13:20Z</time>
      </trkpt>
      <trkpt lat="46.51307" lon="0.36971">
        <ele>139.2</ele>
        <time>2021-04-25T13:13:22Z</time>
      </trkpt>
      <trkpt lat="46.51301" lon="0.36967">
        <ele>139.8</ele>
        <time>2021-04-25T13:13:25Z</time>
      </trkpt>
      <trkpt lat="46.51299" lon="0.36967">
        <ele>139.8</ele>
        <time>2021-04-25T13:13:26Z</time>
      </trkpt>
      <trkpt lat="46.51296" lon="0.36967">
        <ele>140.4</ele>
        <time>2021-04-25T13:13:28Z</time>
      </trkpt>
      <trkpt lat="46.51288" lon="0.36967">
        <ele>141</ele>
        <time>2021-04-25T13:13:32Z</time>
      </trkpt>
      <trkpt lat="46.51276" lon="0.36968">
        <ele>141.4</ele>
        <time>2021-04-25T13:13:38Z</time>
      </trkpt>
      <trkpt lat="46.51265" lon="0.36972">
        <ele>141.4</ele>
        <time>2021-04-25T13:13:43Z</time>
      </trkpt>
      <trkpt lat="46.5125" lon="0.36979">
        <ele>141.8</ele>
        <time>2021-04-25T13:13:49Z</time>
      </trkpt>
      <trkpt lat="46.51234" lon="0.36987">
        <ele>142.2</ele>
        <time>2021-04-25T13:13:55Z</time>
      </trkpt>
      <trkpt lat="46.51231" lon="0.36989">
        <ele>142.4</ele>
        <time>2021-04-25T13:13:56Z</time>
      </trkpt>
      <trkpt lat="46.51219" lon="0.36997">
        <ele>142.8</ele>
        <time>2021-04-25T13:14:01Z</time>
      </trkpt>
      <trkpt lat="46.51215" lon="0.37001">
        <ele>143</ele>
        <time>2021-04-25T13:14:03Z</time>
      </trkpt>
      <trkpt lat="46.51206" lon="0.37006">
        <ele>143.2</ele>
        <time>2021-04-25T13:14:06Z</time>
      </trkpt>
      <trkpt lat="46.51199" lon="0.37009">
        <ele>143.6</ele>
        <time>2021-04-25T13:14:08Z</time>
      </trkpt>
      <trkpt lat="46.51187" lon="0.37013">
        <ele>144.4</ele>
        <time>2021-04-25T13:14:11Z</time>
      </trkpt>
      <trkpt lat="46.51184" lon="0.37014">
        <ele>144.6</ele>
        <time>2021-04-25T13:14:12Z</time>
      </trkpt>
      <trkpt lat="46.5116" lon="0.37019">
        <ele>145.2</ele>
        <time>2021-04-25T13:14:18Z</time>
      </trkpt>
      <trkpt lat="46.51143" lon="0.37019">
        <ele>145.6</ele>
        <time>2021-04-25T13:14:24Z</time>
      </trkpt>
      <trkpt lat="46.51142" lon="0.37017">
        <ele>145.6</ele>
        <time>2021-04-25T13:14:25Z</time>
      </trkpt>
      <trkpt lat="46.51136" lon="0.37009">
        <ele>146.2</ele>
        <time>2021-04-25T13:14:29Z</time>
      </trkpt>
      <trkpt lat="46.51134" lon="0.36989">
        <ele>146.4</ele>
        <time>2021-04-25T13:14:35Z</time>
      </trkpt>
      <trkpt lat="46.51132" lon="0.36971">
        <ele>146.6</ele>
        <time>2021-04-25T13:14:40Z</time>
      </trkpt>
      <trkpt lat="46.5113" lon="0.36962">
        <ele>146.6</ele>
        <time>2021-04-25T13:14:42Z</time>
      </trkpt>
      <trkpt lat="46.51127" lon="0.36946">
        <ele>146.6</ele>
        <time>2021-04-25T13:14:45Z</time>
      </trkpt>
      <trkpt lat="46.51126" lon="0.36941">
        <ele>146.4</ele>
        <time>2021-04-25T13:14:46Z</time>
      </trkpt>
      <trkpt lat="46.51125" lon="0.36931">
        <ele>146.4</ele>
        <time>2021-04-25T13:14:48Z</time>
      </trkpt>
      <trkpt lat="46.51125" lon="0.36919">
        <ele>146.2</ele>
        <time>2021-04-25T13:14:50Z</time>
      </trkpt>
      <trkpt lat="46.51124" lon="0.36903">
        <ele>146</ele>
        <time>2021-04-25T13:14:53Z</time>
      </trkpt>
      <trkpt lat="46.51123" lon="0.36887">
        <ele>145.8</ele>
        <time>2021-04-25T13:14:55Z</time>
      </trkpt>
      <trkpt lat="46.51124" lon="0.36882">
        <ele>145.8</ele>
        <time>2021-04-25T13:14:56Z</time>
      </trkpt>
      <trkpt lat="46.51124" lon="0.36876">
        <ele>145.8</ele>
        <time>2021-04-25T13:14:57Z</time>
      </trkpt>
      <trkpt lat="46.51126" lon="0.36864">
        <ele>145.2</ele>
        <time>2021-04-25T13:14:59Z</time>
      </trkpt>
      <trkpt lat="46.51128" lon="0.36859">
        <ele>145.2</ele>
        <time>2021-04-25T13:15:00Z</time>
      </trkpt>
      <trkpt lat="46.5113" lon="0.36854">
        <ele>144.8</ele>
        <time>2021-04-25T13:15:01Z</time>
      </trkpt>
      <trkpt lat="46.51132" lon="0.36851">
        <ele>144.2</ele>
        <time>2021-04-25T13:15:02Z</time>
      </trkpt>
      <trkpt lat="46.51142" lon="0.36836">
        <ele>144</ele>
        <time>2021-04-25T13:15:07Z</time>
      </trkpt>
      <trkpt lat="46.51146" lon="0.36828">
        <ele>144.4</ele>
        <time>2021-04-25T13:15:09Z</time>
      </trkpt>
      <trkpt lat="46.51152" lon="0.36824">
        <ele>144.2</ele>
        <time>2021-04-25T13:15:11Z</time>
      </trkpt>
      <trkpt lat="46.51156" lon="0.36821">
        <ele>144</ele>
        <time>2021-04-25T13:15:13Z</time>
      </trkpt>
      <trkpt lat="46.51161" lon="0.36819">
        <ele>143.6</ele>
        <time>2021-04-25T13:15:15Z</time>
      </trkpt>
      <trkpt lat="46.51164" lon="0.36819">
        <ele>143.2</ele>
        <time>2021-04-25T13:15:16Z</time>
      </trkpt>
      <trkpt lat="46.51167" lon="0.36817">
        <ele>143</ele>
        <time>2021-04-25T13:15:18Z</time>
      </trkpt>
      <trkpt lat="46.51181" lon="0.36809">
        <ele>143</ele>
        <time>2021-04-25T13:15:25Z</time>
      </trkpt>
      <trkpt lat="46.51194" lon="0.36809">
        <ele>142.8</ele>
        <time>2021-04-25T13:15:31Z</time>
      </trkpt>
      <trkpt lat="46.51196" lon="0.36809">
        <ele>142.8</ele>
        <time>2021-04-25T13:15:32Z</time>
      </trkpt>
      <trkpt lat="46.51213" lon="0.36809">
        <ele>143</ele>
        <time>2021-04-25T13:15:38Z</time>
      </trkpt>
      <trkpt lat="46.51216" lon="0.36809">
        <ele>143</ele>
        <time>2021-04-25T13:15:39Z</time>
      </trkpt>
      <trkpt lat="46.51222" lon="0.36807">
        <ele>142.6</ele>
        <time>2021-04-25T13:15:42Z</time>
      </trkpt>
      <trkpt lat="46.51228" lon="0.36808">
        <ele>142.2</ele>
        <time>2021-04-25T13:15:45Z</time>
      </trkpt>
      <trkpt lat="46.51237" lon="0.36808">
        <ele>141.6</ele>
        <time>2021-04-25T13:15:48Z</time>
      </trkpt>
      <trkpt lat="46.51243" lon="0.36809">
        <ele>141.2</ele>
        <time>2021-04-25T13:15:50Z</time>
      </trkpt>
      <trkpt lat="46.51245" lon="0.36809">
        <ele>141</ele>
        <time>2021-04-25T13:15:51Z</time>
      </trkpt>
      <trkpt lat="46.51248" lon="0.3681">
        <ele>141</ele>
        <time>2021-04-25T13:15:52Z</time>
      </trkpt>
      <trkpt lat="46.51252" lon="0.36809">
        <ele>140.8</ele>
        <time>2021-04-25T13:15:53Z</time>
      </trkpt>
      <trkpt lat="46.51259" lon="0.36808">
        <ele>140</ele>
        <time>2021-04-25T13:15:55Z</time>
      </trkpt>
      <trkpt lat="46.51262" lon="0.36809">
        <ele>139.6</ele>
        <time>2021-04-25T13:15:56Z</time>
      </trkpt>
      <trkpt lat="46.51269" lon="0.3681">
        <ele>139.2</ele>
        <time>2021-04-25T13:15:58Z</time>
      </trkpt>
      <trkpt lat="46.51277" lon="0.36812">
        <ele>138.8</ele>
        <time>2021-04-25T13:16:01Z</time>
      </trkpt>
      <trkpt lat="46.51283" lon="0.36815">
        <ele>137.8</ele>
        <time>2021-04-25T13:16:03Z</time>
      </trkpt>
      <trkpt lat="46.51286" lon="0.36816">
        <ele>137.6</ele>
        <time>2021-04-25T13:16:04Z</time>
      </trkpt>
      <trkpt lat="46.51289" lon="0.36816">
        <ele>137.4</ele>
        <time>2021-04-25T13:16:05Z</time>
      </trkpt>
      <trkpt lat="46.51301" lon="0.36819">
        <ele>137</ele>
        <time>2021-04-25T13:16:08Z</time>
      </trkpt>
      <trkpt lat="46.51304" lon="0.36821">
        <ele>136.6</ele>
        <time>2021-04-25T13:16:09Z</time>
      </trkpt>
      <trkpt lat="46.51309" lon="0.36823">
        <ele>136</ele>
        <time>2021-04-25T13:16:10Z</time>
      </trkpt>
      <trkpt lat="46.51316" lon="0.36825">
        <ele>135.4</ele>
        <time>2021-04-25T13:16:11Z</time>
      </trkpt>
      <trkpt lat="46.51322" lon="0.36829">
        <ele>134.4</ele>
        <time>2021-04-25T13:16:13Z</time>
      </trkpt>
      <trkpt lat="46.51326" lon="0.36831">
        <ele>134.2</ele>
        <time>2021-04-25T13:16:14Z</time>
      </trkpt>
      <trkpt lat="46.51329" lon="0.3683">
        <ele>133.8</ele>
        <time>2021-04-25T13:16:15Z</time>
      </trkpt>
      <trkpt lat="46.51345" lon="0.36832">
        <ele>133.2</ele>
        <time>2021-04-25T13:16:19Z</time>
      </trkpt>
      <trkpt lat="46.51348" lon="0.36834">
        <ele>132.8</ele>
        <time>2021-04-25T13:16:20Z</time>
      </trkpt>
      <trkpt lat="46.51354" lon="0.36836">
        <ele>132.2</ele>
        <time>2021-04-25T13:16:22Z</time>
      </trkpt>
      <trkpt lat="46.51361" lon="0.36839">
        <ele>130.8</ele>
        <time>2021-04-25T13:16:25Z</time>
      </trkpt>
      <trkpt lat="46.51364" lon="0.3684">
        <ele>130.6</ele>
        <time>2021-04-25T13:16:26Z</time>
      </trkpt>
      <trkpt lat="46.51366" lon="0.36841">
        <ele>129.8</ele>
        <time>2021-04-25T13:16:27Z</time>
      </trkpt>
      <trkpt lat="46.5137" lon="0.36843">
        <ele>128.6</ele>
        <time>2021-04-25T13:16:28Z</time>
      </trkpt>
      <trkpt lat="46.51376" lon="0.36844">
        <ele>127.6</ele>
        <time>2021-04-25T13:16:30Z</time>
      </trkpt>
      <trkpt lat="46.51379" lon="0.36845">
        <ele>127</ele>
        <time>2021-04-25T13:16:31Z</time>
      </trkpt>
      <trkpt lat="46.51383" lon="0.36846">
        <ele>126.4</ele>
        <time>2021-04-25T13:16:32Z</time>
      </trkpt>
      <trkpt lat="46.51387" lon="0.36848">
        <ele>126</ele>
        <time>2021-04-25T13:16:33Z</time>
      </trkpt>
      <trkpt lat="46.51391" lon="0.3685">
        <ele>124.2</ele>
        <time>2021-04-25T13:16:34Z</time>
      </trkpt>
      <trkpt lat="46.51398" lon="0.36854">
        <ele>122.8</ele>
        <time>2021-04-25T13:16:36Z</time>
      </trkpt>
      <trkpt lat="46.51407" lon="0.36858">
        <ele>122</ele>
        <time>2021-04-25T13:16:38Z</time>
      </trkpt>
      <trkpt lat="46.51411" lon="0.36862">
        <ele>121.6</ele>
        <time>2021-04-25T13:16:39Z</time>
      </trkpt>
      <trkpt lat="46.5142" lon="0.36869">
        <ele>120.4</ele>
        <time>2021-04-25T13:16:41Z</time>
      </trkpt>
      <trkpt lat="46.51422" lon="0.36872">
        <ele>119.8</ele>
        <time>2021-04-25T13:16:42Z</time>
      </trkpt>
      <trkpt lat="46.51422" lon="0.36875">
        <ele>119.4</ele>
        <time>2021-04-25T13:16:43Z</time>
      </trkpt>
      <trkpt lat="46.51428" lon="0.36886">
        <ele>118</ele>
        <time>2021-04-25T13:16:46Z</time>
      </trkpt>
      <trkpt lat="46.51431" lon="0.3689">
        <ele>116.8</ele>
        <time>2021-04-25T13:16:47Z</time>
      </trkpt>
      <trkpt lat="46.51437" lon="0.36897">
        <ele>115</ele>
        <time>2021-04-25T13:16:49Z</time>
      </trkpt>
      <trkpt lat="46.5144" lon="0.36899">
        <ele>114.4</ele>
        <time>2021-04-25T13:16:50Z</time>
      </trkpt>
      <trkpt lat="46.51444" lon="0.36898">
        <ele>113.6</ele>
        <time>2021-04-25T13:16:51Z</time>
      </trkpt>
      <trkpt lat="46.51459" lon="0.36895">
        <ele>112.6</ele>
        <time>2021-04-25T13:16:57Z</time>
      </trkpt>
      <trkpt lat="46.51471" lon="0.36879">
        <ele>112.8</ele>
        <time>2021-04-25T13:17:04Z</time>
      </trkpt>
      <trkpt lat="46.51471" lon="0.36867">
        <ele>113.4</ele>
        <time>2021-04-25T13:17:08Z</time>
      </trkpt>
      <trkpt lat="46.5147" lon="0.36866">
        <ele>113.6</ele>
        <time>2021-04-25T13:17:09Z</time>
      </trkpt>
      <trkpt lat="46.51469" lon="0.36863">
        <ele>114</ele>
        <time>2021-04-25T13:17:11Z</time>
      </trkpt>
      <trkpt lat="46.51466" lon="0.36864">
        <ele>114.4</ele>
        <time>2021-04-25T13:17:14Z</time>
      </trkpt>
      <trkpt lat="46.51466" lon="0.36865">
        <ele>115.2</ele>
        <time>2021-04-25T13:17:15Z</time>
      </trkpt>
      <trkpt lat="46.51465" lon="0.36867">
        <ele>116</ele>
        <time>2021-04-25T13:17:19Z</time>
      </trkpt>
      <trkpt lat="46.51465" lon="0.36868">
        <ele>116.2</ele>
        <time>2021-04-25T13:17:20Z</time>
      </trkpt>
      <trkpt lat="46.51463" lon="0.36871">
        <ele>116.6</ele>
        <time>2021-04-25T13:17:22Z</time>
      </trkpt>
      <trkpt lat="46.51459" lon="0.36883">
        <ele>117.4</ele>
        <time>2021-04-25T13:17:27Z</time>
      </trkpt>
      <trkpt lat="46.51455" lon="0.36892">
        <ele>118.4</ele>
        <time>2021-04-25T13:17:32Z</time>
      </trkpt>
      <trkpt lat="46.5145" lon="0.36894">
        <ele>119.8</ele>
        <time>2021-04-25T13:17:35Z</time>
      </trkpt>
      <trkpt lat="46.51445" lon="0.36895">
        <ele>121</ele>
        <time>2021-04-25T13:17:38Z</time>
      </trkpt>
      <trkpt lat="46.51443" lon="0.36894">
        <ele>121.6</ele>
        <time>2021-04-25T13:17:40Z</time>
      </trkpt>
      <trkpt lat="46.51442" lon="0.36893">
        <ele>122.2</ele>
        <time>2021-04-25T13:17:42Z</time>
      </trkpt>
      <trkpt lat="46.51439" lon="0.36887">
        <ele>123.4</ele>
        <time>2021-04-25T13:17:47Z</time>
      </trkpt>
      <trkpt lat="46.51437" lon="0.36884">
        <ele>123.6</ele>
        <time>2021-04-25T13:17:49Z</time>
      </trkpt>
      <trkpt lat="46.51435" lon="0.36882">
        <ele>124</ele>
        <time>2021-04-25T13:17:51Z</time>
      </trkpt>
      <trkpt lat="46.51431" lon="0.36879">
        <ele>124.4</ele>
        <time>2021-04-25T13:17:53Z</time>
      </trkpt>
      <trkpt lat="46.51424" lon="0.36876">
        <ele>125.6</ele>
        <time>2021-04-25T13:17:57Z</time>
      </trkpt>
      <trkpt lat="46.5142" lon="0.36875">
        <ele>126.4</ele>
        <time>2021-04-25T13:17:59Z</time>
      </trkpt>
      <trkpt lat="46.51419" lon="0.36875">
        <ele>126.8</ele>
        <time>2021-04-25T13:18:00Z</time>
      </trkpt>
      <trkpt lat="46.51413" lon="0.36876">
        <ele>127.8</ele>
        <time>2021-04-25T13:18:05Z</time>
      </trkpt>
      <trkpt lat="46.51409" lon="0.36879">
        <ele>128.8</ele>
        <time>2021-04-25T13:18:09Z</time>
      </trkpt>
      <trkpt lat="46.51408" lon="0.3688">
        <ele>129</ele>
        <time>2021-04-25T13:18:10Z</time>
      </trkpt>
      <trkpt lat="46.51404" lon="0.36885">
        <ele>130.4</ele>
        <time>2021-04-25T13:18:15Z</time>
      </trkpt>
      <trkpt lat="46.514" lon="0.36887">
        <ele>131.4</ele>
        <time>2021-04-25T13:18:19Z</time>
      </trkpt>
      <trkpt lat="46.51398" lon="0.36888">
        <ele>131.8</ele>
        <time>2021-04-25T13:18:21Z</time>
      </trkpt>
      <trkpt lat="46.51393" lon="0.36893">
        <ele>132.6</ele>
        <time>2021-04-25T13:18:25Z</time>
      </trkpt>
      <trkpt lat="46.51386" lon="0.36898">
        <ele>133.6</ele>
        <time>2021-04-25T13:18:30Z</time>
      </trkpt>
      <trkpt lat="46.5138" lon="0.369">
        <ele>134.6</ele>
        <time>2021-04-25T13:18:34Z</time>
      </trkpt>
      <trkpt lat="46.5137" lon="0.36897">
        <ele>135.8</ele>
        <time>2021-04-25T13:18:41Z</time>
      </trkpt>
      <trkpt lat="46.51363" lon="0.36894">
        <ele>136.4</ele>
        <time>2021-04-25T13:18:45Z</time>
      </trkpt>
      <trkpt lat="46.51354" lon="0.36889">
        <ele>137</ele>
        <time>2021-04-25T13:18:50Z</time>
      </trkpt>
      <trkpt lat="46.51347" lon="0.36885">
        <ele>137.6</ele>
        <time>2021-04-25T13:18:54Z</time>
      </trkpt>
      <trkpt lat="46.51341" lon="0.36882">
        <ele>138.2</ele>
        <time>2021-04-25T13:18:57Z</time>
      </trkpt>
      <trkpt lat="46.51336" lon="0.36881">
        <ele>138.8</ele>
        <time>2021-04-25T13:19:00Z</time>
      </trkpt>
      <trkpt lat="46.51329" lon="0.36878">
        <ele>139.2</ele>
        <time>2021-04-25T13:19:03Z</time>
      </trkpt>
      <trkpt lat="46.5132" lon="0.36874">
        <ele>139.8</ele>
        <time>2021-04-25T13:19:07Z</time>
      </trkpt>
      <trkpt lat="46.51316" lon="0.36873">
        <ele>140.4</ele>
        <time>2021-04-25T13:19:09Z</time>
      </trkpt>
      <trkpt lat="46.51309" lon="0.36875">
        <ele>141</ele>
        <time>2021-04-25T13:19:12Z</time>
      </trkpt>
      <trkpt lat="46.51301" lon="0.36877">
        <ele>141.6</ele>
        <time>2021-04-25T13:19:16Z</time>
      </trkpt>
      <trkpt lat="46.51296" lon="0.36878">
        <ele>142</ele>
        <time>2021-04-25T13:19:19Z</time>
      </trkpt>
      <trkpt lat="46.51288" lon="0.3688">
        <ele>142.6</ele>
        <time>2021-04-25T13:19:23Z</time>
      </trkpt>
      <trkpt lat="46.51279" lon="0.36882">
        <ele>142.8</ele>
        <time>2021-04-25T13:19:26Z</time>
      </trkpt>
      <trkpt lat="46.51271" lon="0.36881">
        <ele>143</ele>
        <time>2021-04-25T13:19:29Z</time>
      </trkpt>
      <trkpt lat="46.51265" lon="0.36883">
        <ele>143.4</ele>
        <time>2021-04-25T13:19:31Z</time>
      </trkpt>
      <trkpt lat="46.51262" lon="0.36883">
        <ele>143.8</ele>
        <time>2021-04-25T13:19:32Z</time>
      </trkpt>
      <trkpt lat="46.51246" lon="0.36884">
        <ele>144.4</ele>
        <time>2021-04-25T13:19:37Z</time>
      </trkpt>
      <trkpt lat="46.51231" lon="0.36886">
        <ele>145</ele>
        <time>2021-04-25T13:19:42Z</time>
      </trkpt>
      <trkpt lat="46.51228" lon="0.36886">
        <ele>145.2</ele>
        <time>2021-04-25T13:19:43Z</time>
      </trkpt>
      <trkpt lat="46.51212" lon="0.36883">
        <ele>145.8</ele>
        <time>2021-04-25T13:19:48Z</time>
      </trkpt>
      <trkpt lat="46.51209" lon="0.36882">
        <ele>146</ele>
        <time>2021-04-25T13:19:49Z</time>
      </trkpt>
      <trkpt lat="46.51192" lon="0.36872">
        <ele>146.2</ele>
        <time>2021-04-25T13:19:54Z</time>
      </trkpt>
      <trkpt lat="46.51184" lon="0.36867">
        <ele>146.2</ele>
        <time>2021-04-25T13:19:56Z</time>
      </trkpt>
      <trkpt lat="46.51167" lon="0.36859">
        <ele>146.2</ele>
        <time>2021-04-25T13:20:00Z</time>
      </trkpt>
      <trkpt lat="46.51144" lon="0.36851">
        <ele>146.2</ele>
        <time>2021-04-25T13:20:06Z</time>
      </trkpt>
      <trkpt lat="46.51137" lon="0.36847">
        <ele>146</ele>
        <time>2021-04-25T13:20:08Z</time>
      </trkpt>
      <trkpt lat="46.51125" lon="0.36843">
        <ele>145.6</ele>
        <time>2021-04-25T13:20:11Z</time>
      </trkpt>
      <trkpt lat="46.51116" lon="0.36842">
        <ele>145.6</ele>
        <time>2021-04-25T13:20:13Z</time>
      </trkpt>
      <trkpt lat="46.51084" lon="0.36843">
        <ele>145.8</ele>
        <time>2021-04-25T13:20:19Z</time>
      </trkpt>
      <trkpt lat="46.51079" lon="0.36843">
        <ele>145.8</ele>
        <time>2021-04-25T13:20:20Z</time>
      </trkpt>
      <trkpt lat="46.51048" lon="0.36838">
        <ele>146</ele>
        <time>2021-04-25T13:20:26Z</time>
      </trkpt>
      <trkpt lat="46.51029" lon="0.36833">
        <ele>145.8</ele>
        <time>2021-04-25T13:20:30Z</time>
      </trkpt>
      <trkpt lat="46.51015" lon="0.36832">
        <ele>145.6</ele>
        <time>2021-04-25T13:20:33Z</time>
      </trkpt>
      <trkpt lat="46.50989" lon="0.36829">
        <ele>146.2</ele>
        <time>2021-04-25T13:20:39Z</time>
      </trkpt>
      <trkpt lat="46.50986" lon="0.36828">
        <ele>146.2</ele>
        <time>2021-04-25T13:20:40Z</time>
      </trkpt>
      <trkpt lat="46.50958" lon="0.36817">
        <ele>146.2</ele>
        <time>2021-04-25T13:20:47Z</time>
      </trkpt>
      <trkpt lat="46.50954" lon="0.36815">
        <ele>146.2</ele>
        <time>2021-04-25T13:20:48Z</time>
      </trkpt>
      <trkpt lat="46.50922" lon="0.36808">
        <ele>146.4</ele>
        <time>2021-04-25T13:20:56Z</time>
      </trkpt>
      <trkpt lat="46.50909" lon="0.36801">
        <ele>146.4</ele>
        <time>2021-04-25T13:20:59Z</time>
      </trkpt>
      <trkpt lat="46.50895" lon="0.36793">
        <ele>146.2</ele>
        <time>2021-04-25T13:21:02Z</time>
      </trkpt>
      <trkpt lat="46.5089" lon="0.36792">
        <ele>146.2</ele>
        <time>2021-04-25T13:21:03Z</time>
      </trkpt>
      <trkpt lat="46.50864" lon="0.36787">
        <ele>146.2</ele>
        <time>2021-04-25T13:21:09Z</time>
      </trkpt>
      <trkpt lat="46.50835" lon="0.36778">
        <ele>146.4</ele>
        <time>2021-04-25T13:21:15Z</time>
      </trkpt>
      <trkpt lat="46.50809" lon="0.36779">
        <ele>146.4</ele>
        <time>2021-04-25T13:21:21Z</time>
      </trkpt>
      <trkpt lat="46.50787" lon="0.36779">
        <ele>146.4</ele>
        <time>2021-04-25T13:21:26Z</time>
      </trkpt>
      <trkpt lat="46.50778" lon="0.3678">
        <ele>146.4</ele>
        <time>2021-04-25T13:21:28Z</time>
      </trkpt>
      <trkpt lat="46.50766" lon="0.36781">
        <ele>146.8</ele>
        <time>2021-04-25T13:21:31Z</time>
      </trkpt>
      <trkpt lat="46.50763" lon="0.36781">
        <ele>146.8</ele>
        <time>2021-04-25T13:21:32Z</time>
      </trkpt>
      <trkpt lat="46.50743" lon="0.36779">
        <ele>146.8</ele>
        <time>2021-04-25T13:21:37Z</time>
      </trkpt>
      <trkpt lat="46.50725" lon="0.3677">
        <ele>146.6</ele>
        <time>2021-04-25T13:21:42Z</time>
      </trkpt>
      <trkpt lat="46.50701" lon="0.36759">
        <ele>146.2</ele>
        <time>2021-04-25T13:21:48Z</time>
      </trkpt>
      <trkpt lat="46.50681" lon="0.36752">
        <ele>145.8</ele>
        <time>2021-04-25T13:21:54Z</time>
      </trkpt>
      <trkpt lat="46.50662" lon="0.36748">
        <ele>145.8</ele>
        <time>2021-04-25T13:21:59Z</time>
      </trkpt>
      <trkpt lat="46.50652" lon="0.36741">
        <ele>145.8</ele>
        <time>2021-04-25T13:22:02Z</time>
      </trkpt>
      <trkpt lat="46.5065" lon="0.36737">
        <ele>145.6</ele>
        <time>2021-04-25T13:22:03Z</time>
      </trkpt>
      <trkpt lat="46.5065" lon="0.36732">
        <ele>145.4</ele>
        <time>2021-04-25T13:22:04Z</time>
      </trkpt>
      <trkpt lat="46.5065" lon="0.36712">
        <ele>145</ele>
        <time>2021-04-25T13:22:07Z</time>
      </trkpt>
      <trkpt lat="46.50651" lon="0.36679">
        <ele>143.8</ele>
        <time>2021-04-25T13:22:11Z</time>
      </trkpt>
      <trkpt lat="46.50651" lon="0.36662">
        <ele>143.4</ele>
        <time>2021-04-25T13:22:13Z</time>
      </trkpt>
      <trkpt lat="46.50657" lon="0.36645">
        <ele>142.4</ele>
        <time>2021-04-25T13:22:15Z</time>
      </trkpt>
      <trkpt lat="46.50662" lon="0.36638">
        <ele>141.4</ele>
        <time>2021-04-25T13:22:16Z</time>
      </trkpt>
      <trkpt lat="46.50668" lon="0.36631">
        <ele>140.8</ele>
        <time>2021-04-25T13:22:17Z</time>
      </trkpt>
      <trkpt lat="46.50681" lon="0.36618">
        <ele>139.6</ele>
        <time>2021-04-25T13:22:19Z</time>
      </trkpt>
      <trkpt lat="46.50687" lon="0.3661">
        <ele>139.2</ele>
        <time>2021-04-25T13:22:20Z</time>
      </trkpt>
      <trkpt lat="46.50695" lon="0.3659">
        <ele>138.8</ele>
        <time>2021-04-25T13:22:22Z</time>
      </trkpt>
      <trkpt lat="46.50697" lon="0.36579">
        <ele>138.8</ele>
        <time>2021-04-25T13:22:23Z</time>
      </trkpt>
      <trkpt lat="46.50698" lon="0.36568">
        <ele>138.4</ele>
        <time>2021-04-25T13:22:24Z</time>
      </trkpt>
      <trkpt lat="46.50703" lon="0.36527">
        <ele>137.8</ele>
        <time>2021-04-25T13:22:28Z</time>
      </trkpt>
      <trkpt lat="46.50707" lon="0.36489">
        <ele>138</ele>
        <time>2021-04-25T13:22:33Z</time>
      </trkpt>
      <trkpt lat="46.50713" lon="0.36456">
        <ele>138.6</ele>
        <time>2021-04-25T13:22:39Z</time>
      </trkpt>
      <trkpt lat="46.50717" lon="0.36426">
        <ele>139.4</ele>
        <time>2021-04-25T13:22:45Z</time>
      </trkpt>
      <trkpt lat="46.50718" lon="0.36415">
        <ele>140</ele>
        <time>2021-04-25T13:22:47Z</time>
      </trkpt>
      <trkpt lat="46.5072" lon="0.36399">
        <ele>140.6</ele>
        <time>2021-04-25T13:22:50Z</time>
      </trkpt>
      <trkpt lat="46.50722" lon="0.36368">
        <ele>141.6</ele>
        <time>2021-04-25T13:22:55Z</time>
      </trkpt>
      <trkpt lat="46.50723" lon="0.36356">
        <ele>142</ele>
        <time>2021-04-25T13:22:57Z</time>
      </trkpt>
      <trkpt lat="46.50728" lon="0.36314">
        <ele>142.6</ele>
        <time>2021-04-25T13:23:04Z</time>
      </trkpt>
      <trkpt lat="46.50729" lon="0.36308">
        <ele>142.8</ele>
        <time>2021-04-25T13:23:05Z</time>
      </trkpt>
      <trkpt lat="46.50736" lon="0.36254">
        <ele>143.6</ele>
        <time>2021-04-25T13:23:14Z</time>
      </trkpt>
      <trkpt lat="46.50737" lon="0.36248">
        <ele>143.8</ele>
        <time>2021-04-25T13:23:15Z</time>
      </trkpt>
      <trkpt lat="46.50745" lon="0.36199">
        <ele>144.6</ele>
        <time>2021-04-25T13:23:24Z</time>
      </trkpt>
      <trkpt lat="46.50751" lon="0.36161">
        <ele>144.8</ele>
        <time>2021-04-25T13:23:32Z</time>
      </trkpt>
      <trkpt lat="46.50762" lon="0.36131">
        <ele>145.6</ele>
        <time>2021-04-25T13:23:39Z</time>
      </trkpt>
      <trkpt lat="46.50772" lon="0.36118">
        <ele>145.8</ele>
        <time>2021-04-25T13:23:43Z</time>
      </trkpt>
      <trkpt lat="46.50777" lon="0.36108">
        <ele>145.6</ele>
        <time>2021-04-25T13:23:45Z</time>
      </trkpt>
      <trkpt lat="46.50779" lon="0.36101">
        <ele>145.6</ele>
        <time>2021-04-25T13:23:46Z</time>
      </trkpt>
      <trkpt lat="46.5078" lon="0.36088">
        <ele>144.8</ele>
        <time>2021-04-25T13:23:48Z</time>
      </trkpt>
      <trkpt lat="46.5078" lon="0.36081">
        <ele>144.6</ele>
        <time>2021-04-25T13:23:49Z</time>
      </trkpt>
      <trkpt lat="46.50778" lon="0.36054">
        <ele>144</ele>
        <time>2021-04-25T13:23:54Z</time>
      </trkpt>
      <trkpt lat="46.50776" lon="0.36026">
        <ele>145.8</ele>
        <time>2021-04-25T13:23:59Z</time>
      </trkpt>
      <trkpt lat="46.50775" lon="0.36015">
        <ele>147</ele>
        <time>2021-04-25T13:24:01Z</time>
      </trkpt>
      <trkpt lat="46.50773" lon="0.35993">
        <ele>148</ele>
        <time>2021-04-25T13:24:05Z</time>
      </trkpt>
      <trkpt lat="46.50773" lon="0.35983">
        <ele>148.4</ele>
        <time>2021-04-25T13:24:07Z</time>
      </trkpt>
      <trkpt lat="46.50772" lon="0.35968">
        <ele>149.2</ele>
        <time>2021-04-25T13:24:10Z</time>
      </trkpt>
      <trkpt lat="46.50769" lon="0.35947">
        <ele>149.6</ele>
        <time>2021-04-25T13:24:15Z</time>
      </trkpt>
      <trkpt lat="46.50764" lon="0.35916">
        <ele>150.2</ele>
        <time>2021-04-25T13:24:22Z</time>
      </trkpt>
      <trkpt lat="46.50764" lon="0.35916">
        <ele>150.4</ele>
        <time>2021-04-25T13:24:27Z</time>
      </trkpt>
      <trkpt lat="46.50753" lon="0.35877">
        <ele>150.8</ele>
        <time>2021-04-25T13:24:31Z</time>
      </trkpt>
      <trkpt lat="46.50755" lon="0.35852">
        <ele>151.2</ele>
        <time>2021-04-25T13:24:36Z</time>
      </trkpt>
      <trkpt lat="46.50758" lon="0.35841">
        <ele>151.6</ele>
        <time>2021-04-25T13:24:38Z</time>
      </trkpt>
      <trkpt lat="46.50768" lon="0.35812">
        <ele>152</ele>
        <time>2021-04-25T13:24:44Z</time>
      </trkpt>
      <trkpt lat="46.50793" lon="0.35771">
        <ele>151.6</ele>
        <time>2021-04-25T13:24:53Z</time>
      </trkpt>
      <trkpt lat="46.508" lon="0.35764">
        <ele>151.4</ele>
        <time>2021-04-25T13:24:55Z</time>
      </trkpt>
      <trkpt lat="46.50807" lon="0.35752">
        <ele>151.2</ele>
        <time>2021-04-25T13:24:58Z</time>
      </trkpt>
      <trkpt lat="46.5082" lon="0.35737">
        <ele>151.4</ele>
        <time>2021-04-25T13:25:02Z</time>
      </trkpt>
      <trkpt lat="46.50823" lon="0.35733">
        <ele>151.4</ele>
        <time>2021-04-25T13:25:03Z</time>
      </trkpt>
      <trkpt lat="46.50833" lon="0.35712">
        <ele>151.4</ele>
        <time>2021-04-25T13:25:07Z</time>
      </trkpt>
      <trkpt lat="46.50844" lon="0.35692">
        <ele>151</ele>
        <time>2021-04-25T13:25:11Z</time>
      </trkpt>
      <trkpt lat="46.50847" lon="0.35689">
        <ele>150.8</ele>
        <time>2021-04-25T13:25:12Z</time>
      </trkpt>
      <trkpt lat="46.50871" lon="0.35663">
        <ele>151</ele>
        <time>2021-04-25T13:25:19Z</time>
      </trkpt>
      <trkpt lat="46.50881" lon="0.35649">
        <ele>150.8</ele>
        <time>2021-04-25T13:25:22Z</time>
      </trkpt>
      <trkpt lat="46.5089" lon="0.35633">
        <ele>150.4</ele>
        <time>2021-04-25T13:25:25Z</time>
      </trkpt>
      <trkpt lat="46.5091" lon="0.35603">
        <ele>149.8</ele>
        <time>2021-04-25T13:25:31Z</time>
      </trkpt>
      <trkpt lat="46.50916" lon="0.35591">
        <ele>149.4</ele>
        <time>2021-04-25T13:25:33Z</time>
      </trkpt>
      <trkpt lat="46.50929" lon="0.35568">
        <ele>148.6</ele>
        <time>2021-04-25T13:25:37Z</time>
      </trkpt>
      <trkpt lat="46.50938" lon="0.35551">
        <ele>148.4</ele>
        <time>2021-04-25T13:25:40Z</time>
      </trkpt>
      <trkpt lat="46.5095" lon="0.35526">
        <ele>147.8</ele>
        <time>2021-04-25T13:25:44Z</time>
      </trkpt>
      <trkpt lat="46.50957" lon="0.35512">
        <ele>147.6</ele>
        <time>2021-04-25T13:25:46Z</time>
      </trkpt>
      <trkpt lat="46.50968" lon="0.35494">
        <ele>147.4</ele>
        <time>2021-04-25T13:25:49Z</time>
      </trkpt>
      <trkpt lat="46.50979" lon="0.35478">
        <ele>147.2</ele>
        <time>2021-04-25T13:25:52Z</time>
      </trkpt>
      <trkpt lat="46.50991" lon="0.35465">
        <ele>147</ele>
        <time>2021-04-25T13:25:55Z</time>
      </trkpt>
      <trkpt lat="46.51015" lon="0.35437">
        <ele>146.6</ele>
        <time>2021-04-25T13:26:02Z</time>
      </trkpt>
      <trkpt lat="46.51018" lon="0.35434">
        <ele>146.6</ele>
        <time>2021-04-25T13:26:03Z</time>
      </trkpt>
      <trkpt lat="46.51028" lon="0.3543">
        <ele>146.8</ele>
        <time>2021-04-25T13:26:06Z</time>
      </trkpt>
      <trkpt lat="46.51041" lon="0.35421">
        <ele>146.6</ele>
        <time>2021-04-25T13:26:10Z</time>
      </trkpt>
      <trkpt lat="46.51046" lon="0.35404">
        <ele>146.4</ele>
        <time>2021-04-25T13:26:15Z</time>
      </trkpt>
      <trkpt lat="46.51046" lon="0.35398">
        <ele>146.2</ele>
        <time>2021-04-25T13:26:16Z</time>
      </trkpt>
      <trkpt lat="46.51045" lon="0.35394">
        <ele>146.2</ele>
        <time>2021-04-25T13:26:17Z</time>
      </trkpt>
      <trkpt lat="46.51041" lon="0.35385">
        <ele>146</ele>
        <time>2021-04-25T13:26:19Z</time>
      </trkpt>
      <trkpt lat="46.51037" lon="0.35376">
        <ele>146.2</ele>
        <time>2021-04-25T13:26:21Z</time>
      </trkpt>
      <trkpt lat="46.51037" lon="0.35364">
        <ele>146.2</ele>
        <time>2021-04-25T13:26:23Z</time>
      </trkpt>
      <trkpt lat="46.51042" lon="0.35332">
        <ele>145.8</ele>
        <time>2021-04-25T13:26:29Z</time>
      </trkpt>
      <trkpt lat="46.51045" lon="0.35306">
        <ele>145.2</ele>
        <time>2021-04-25T13:26:33Z</time>
      </trkpt>
      <trkpt lat="46.51049" lon="0.35285">
        <ele>145</ele>
        <time>2021-04-25T13:26:36Z</time>
      </trkpt>
      <trkpt lat="46.51056" lon="0.35237">
        <ele>144.2</ele>
        <time>2021-04-25T13:26:42Z</time>
      </trkpt>
      <trkpt lat="46.51057" lon="0.3523">
        <ele>144</ele>
        <time>2021-04-25T13:26:43Z</time>
      </trkpt>
      <trkpt lat="46.51061" lon="0.35199">
        <ele>143</ele>
        <time>2021-04-25T13:26:47Z</time>
      </trkpt>
      <trkpt lat="46.51063" lon="0.35184">
        <ele>142.4</ele>
        <time>2021-04-25T13:26:49Z</time>
      </trkpt>
      <trkpt lat="46.51063" lon="0.35177">
        <ele>142</ele>
        <time>2021-04-25T13:26:50Z</time>
      </trkpt>
      <trkpt lat="46.51066" lon="0.35149">
        <ele>140.8</ele>
        <time>2021-04-25T13:26:54Z</time>
      </trkpt>
      <trkpt lat="46.51068" lon="0.35128">
        <ele>140.6</ele>
        <time>2021-04-25T13:26:57Z</time>
      </trkpt>
      <trkpt lat="46.51071" lon="0.35107">
        <ele>139.6</ele>
        <time>2021-04-25T13:27:00Z</time>
      </trkpt>
      <trkpt lat="46.51075" lon="0.35088">
        <ele>138.4</ele>
        <time>2021-04-25T13:27:03Z</time>
      </trkpt>
      <trkpt lat="46.51077" lon="0.35081">
        <ele>138</ele>
        <time>2021-04-25T13:27:04Z</time>
      </trkpt>
      <trkpt lat="46.51084" lon="0.35058">
        <ele>137</ele>
        <time>2021-04-25T13:27:07Z</time>
      </trkpt>
      <trkpt lat="46.51086" lon="0.3505">
        <ele>136</ele>
        <time>2021-04-25T13:27:09Z</time>
      </trkpt>
      <trkpt lat="46.51087" lon="0.35043">
        <ele>135.2</ele>
        <time>2021-04-25T13:27:12Z</time>
      </trkpt>
      <trkpt lat="46.51088" lon="0.35042">
        <ele>135</ele>
        <time>2021-04-25T13:27:13Z</time>
      </trkpt>
      <trkpt lat="46.5109" lon="0.3504">
        <ele>134.8</ele>
        <time>2021-04-25T13:27:14Z</time>
      </trkpt>
      <trkpt lat="46.51096" lon="0.35032">
        <ele>134.2</ele>
        <time>2021-04-25T13:27:16Z</time>
      </trkpt>
      <trkpt lat="46.51104" lon="0.35019">
        <ele>133.8</ele>
        <time>2021-04-25T13:27:19Z</time>
      </trkpt>
      <trkpt lat="46.51107" lon="0.35017">
        <ele>133.8</ele>
        <time>2021-04-25T13:27:20Z</time>
      </trkpt>
      <trkpt lat="46.51111" lon="0.35013">
        <ele>133.4</ele>
        <time>2021-04-25T13:27:22Z</time>
      </trkpt>
      <trkpt lat="46.51117" lon="0.3501">
        <ele>133.2</ele>
        <time>2021-04-25T13:27:24Z</time>
      </trkpt>
      <trkpt lat="46.51126" lon="0.34999">
        <ele>132.8</ele>
        <time>2021-04-25T13:27:28Z</time>
      </trkpt>
      <trkpt lat="46.51128" lon="0.34995">
        <ele>132.6</ele>
        <time>2021-04-25T13:27:29Z</time>
      </trkpt>
      <trkpt lat="46.51132" lon="0.34977">
        <ele>132.8</ele>
        <time>2021-04-25T13:27:33Z</time>
      </trkpt>
      <trkpt lat="46.51133" lon="0.34961">
        <ele>134.2</ele>
        <time>2021-04-25T13:27:36Z</time>
      </trkpt>
      <trkpt lat="46.51135" lon="0.34944">
        <ele>135.2</ele>
        <time>2021-04-25T13:27:40Z</time>
      </trkpt>
      <trkpt lat="46.51136" lon="0.34939">
        <ele>135.8</ele>
        <time>2021-04-25T13:27:41Z</time>
      </trkpt>
      <trkpt lat="46.51137" lon="0.3493">
        <ele>136.4</ele>
        <time>2021-04-25T13:27:43Z</time>
      </trkpt>
      <trkpt lat="46.51142" lon="0.34906">
        <ele>137.2</ele>
        <time>2021-04-25T13:27:47Z</time>
      </trkpt>
      <trkpt lat="46.51143" lon="0.34901">
        <ele>137.8</ele>
        <time>2021-04-25T13:27:48Z</time>
      </trkpt>
      <trkpt lat="46.5115" lon="0.34886">
        <ele>138.8</ele>
        <time>2021-04-25T13:27:51Z</time>
      </trkpt>
      <trkpt lat="46.51154" lon="0.34884">
        <ele>139.2</ele>
        <time>2021-04-25T13:27:52Z</time>
      </trkpt>
      <trkpt lat="46.51171" lon="0.34875">
        <ele>139.8</ele>
        <time>2021-04-25T13:27:57Z</time>
      </trkpt>
      <trkpt lat="46.51184" lon="0.34865">
        <ele>139.8</ele>
        <time>2021-04-25T13:28:01Z</time>
      </trkpt>
      <trkpt lat="46.51187" lon="0.34865">
        <ele>139.8</ele>
        <time>2021-04-25T13:28:02Z</time>
      </trkpt>
      <trkpt lat="46.51191" lon="0.34867">
        <ele>139.8</ele>
        <time>2021-04-25T13:28:03Z</time>
      </trkpt>
      <trkpt lat="46.51203" lon="0.34874">
        <ele>139.6</ele>
        <time>2021-04-25T13:28:07Z</time>
      </trkpt>
      <trkpt lat="46.51211" lon="0.34877">
        <ele>139.2</ele>
        <time>2021-04-25T13:28:09Z</time>
      </trkpt>
      <trkpt lat="46.51218" lon="0.34884">
        <ele>138.8</ele>
        <time>2021-04-25T13:28:11Z</time>
      </trkpt>
      <trkpt lat="46.51222" lon="0.34886">
        <ele>138.8</ele>
        <time>2021-04-25T13:28:12Z</time>
      </trkpt>
      <trkpt lat="46.51242" lon="0.34901">
        <ele>138</ele>
        <time>2021-04-25T13:28:17Z</time>
      </trkpt>
      <trkpt lat="46.51248" lon="0.34904">
        <ele>138</ele>
        <time>2021-04-25T13:28:18Z</time>
      </trkpt>
      <trkpt lat="46.51267" lon="0.34914">
        <ele>138</ele>
        <time>2021-04-25T13:28:22Z</time>
      </trkpt>
      <trkpt lat="46.5127" lon="0.34917">
        <ele>136.6</ele>
        <time>2021-04-25T13:28:23Z</time>
      </trkpt>
      <trkpt lat="46.51275" lon="0.34918">
        <ele>135.8</ele>
        <time>2021-04-25T13:28:24Z</time>
      </trkpt>
      <trkpt lat="46.51279" lon="0.3492">
        <ele>135.6</ele>
        <time>2021-04-25T13:28:25Z</time>
      </trkpt>
      <trkpt lat="46.51283" lon="0.3492">
        <ele>134</ele>
        <time>2021-04-25T13:28:26Z</time>
      </trkpt>
      <trkpt lat="46.51286" lon="0.34919">
        <ele>133</ele>
        <time>2021-04-25T13:28:27Z</time>
      </trkpt>
      <trkpt lat="46.5129" lon="0.34913">
        <ele>131.8</ele>
        <time>2021-04-25T13:28:30Z</time>
      </trkpt>
      <trkpt lat="46.51291" lon="0.34911">
        <ele>131.8</ele>
        <time>2021-04-25T13:28:31Z</time>
      </trkpt>
      <trkpt lat="46.5129" lon="0.34906">
        <ele>133</ele>
        <time>2021-04-25T13:28:34Z</time>
      </trkpt>
      <trkpt lat="46.51289" lon="0.34901">
        <ele>134.4</ele>
        <time>2021-04-25T13:28:37Z</time>
      </trkpt>
      <trkpt lat="46.51291" lon="0.34889">
        <ele>135.2</ele>
        <time>2021-04-25T13:28:42Z</time>
      </trkpt>
      <trkpt lat="46.51291" lon="0.34887">
        <ele>135.6</ele>
        <time>2021-04-25T13:28:43Z</time>
      </trkpt>
      <trkpt lat="46.51291" lon="0.34884">
        <ele>135.6</ele>
        <time>2021-04-25T13:28:45Z</time>
      </trkpt>
      <trkpt lat="46.51292" lon="0.34878">
        <ele>136</ele>
        <time>2021-04-25T13:28:47Z</time>
      </trkpt>
      <trkpt lat="46.51292" lon="0.34876">
        <ele>136</ele>
        <time>2021-04-25T13:28:48Z</time>
      </trkpt>
      <trkpt lat="46.51292" lon="0.34873">
        <ele>136.8</ele>
        <time>2021-04-25T13:28:49Z</time>
      </trkpt>
      <trkpt lat="46.51293" lon="0.34865">
        <ele>137.4</ele>
        <time>2021-04-25T13:28:52Z</time>
      </trkpt>
      <trkpt lat="46.51293" lon="0.3486">
        <ele>137.8</ele>
        <time>2021-04-25T13:28:54Z</time>
      </trkpt>
      <trkpt lat="46.51293" lon="0.34858">
        <ele>138</ele>
        <time>2021-04-25T13:28:55Z</time>
      </trkpt>
      <trkpt lat="46.51295" lon="0.34851">
        <ele>138.4</ele>
        <time>2021-04-25T13:28:58Z</time>
      </trkpt>
      <trkpt lat="46.51301" lon="0.34843">
        <ele>138.6</ele>
        <time>2021-04-25T13:29:01Z</time>
      </trkpt>
      <trkpt lat="46.51301" lon="0.34843">
        <ele>138.6</ele>
        <time>2021-04-25T13:29:02Z</time>
      </trkpt>
      <trkpt lat="46.51302" lon="0.3484">
        <ele>138.4</ele>
        <time>2021-04-25T13:29:03Z</time>
      </trkpt>
      <trkpt lat="46.51305" lon="0.34839">
        <ele>138.4</ele>
        <time>2021-04-25T13:29:06Z</time>
      </trkpt>
      <trkpt lat="46.51309" lon="0.34843">
        <ele>137.8</ele>
        <time>2021-04-25T13:29:11Z</time>
      </trkpt>
      <trkpt lat="46.51311" lon="0.34842">
        <ele>137.8</ele>
        <time>2021-04-25T13:29:12Z</time>
      </trkpt>
      <trkpt lat="46.51323" lon="0.34837">
        <ele>137.4</ele>
        <time>2021-04-25T13:29:17Z</time>
      </trkpt>
      <trkpt lat="46.51328" lon="0.34833">
        <ele>137</ele>
        <time>2021-04-25T13:29:19Z</time>
      </trkpt>
      <trkpt lat="46.51332" lon="0.34832">
        <ele>137</ele>
        <time>2021-04-25T13:29:21Z</time>
      </trkpt>
      <trkpt lat="46.51333" lon="0.34834">
        <ele>137</ele>
        <time>2021-04-25T13:29:22Z</time>
      </trkpt>
      <trkpt lat="46.51335" lon="0.34835">
        <ele>136.8</ele>
        <time>2021-04-25T13:29:23Z</time>
      </trkpt>
      <trkpt lat="46.51337" lon="0.34836">
        <ele>136.2</ele>
        <time>2021-04-25T13:29:24Z</time>
      </trkpt>
      <trkpt lat="46.5134" lon="0.34836">
        <ele>136</ele>
        <time>2021-04-25T13:29:25Z</time>
      </trkpt>
      <trkpt lat="46.51344" lon="0.34839">
        <ele>135</ele>
        <time>2021-04-25T13:29:27Z</time>
      </trkpt>
      <trkpt lat="46.51348" lon="0.34842">
        <ele>133.6</ele>
        <time>2021-04-25T13:29:29Z</time>
      </trkpt>
      <trkpt lat="46.51351" lon="0.34842">
        <ele>132</ele>
        <time>2021-04-25T13:29:30Z</time>
      </trkpt>
      <trkpt lat="46.51353" lon="0.34842">
        <ele>130.8</ele>
        <time>2021-04-25T13:29:31Z</time>
      </trkpt>
      <trkpt lat="46.51357" lon="0.34842">
        <ele>129.4</ele>
        <time>2021-04-25T13:29:32Z</time>
      </trkpt>
      <trkpt lat="46.51361" lon="0.34841">
        <ele>128.6</ele>
        <time>2021-04-25T13:29:33Z</time>
      </trkpt>
      <trkpt lat="46.51365" lon="0.34841">
        <ele>128.2</ele>
        <time>2021-04-25T13:29:34Z</time>
      </trkpt>
      <trkpt lat="46.5137" lon="0.34838">
        <ele>128</ele>
        <time>2021-04-25T13:29:36Z</time>
      </trkpt>
      <trkpt lat="46.51381" lon="0.34825">
        <ele>128.8</ele>
        <time>2021-04-25T13:29:42Z</time>
      </trkpt>
      <trkpt lat="46.51394" lon="0.34811">
        <ele>128.8</ele>
        <time>2021-04-25T13:29:48Z</time>
      </trkpt>
      <trkpt lat="46.51406" lon="0.34791">
        <ele>128.2</ele>
        <time>2021-04-25T13:29:54Z</time>
      </trkpt>
      <trkpt lat="46.51411" lon="0.34782">
        <ele>127.2</ele>
        <time>2021-04-25T13:29:58Z</time>
      </trkpt>
      <trkpt lat="46.51418" lon="0.34762">
        <ele>127.2</ele>
        <time>2021-04-25T13:30:04Z</time>
      </trkpt>
      <trkpt lat="46.5142" lon="0.34757">
        <ele>126.8</ele>
        <time>2021-04-25T13:30:05Z</time>
      </trkpt>
      <trkpt lat="46.51422" lon="0.34751">
        <ele>126.6</ele>
        <time>2021-04-25T13:30:06Z</time>
      </trkpt>
      <trkpt lat="46.51425" lon="0.34739">
        <ele>125.6</ele>
        <time>2021-04-25T13:30:08Z</time>
      </trkpt>
      <trkpt lat="46.51431" lon="0.34717">
        <ele>125</ele>
        <time>2021-04-25T13:30:13Z</time>
      </trkpt>
      <trkpt lat="46.51435" lon="0.34694">
        <ele>125.6</ele>
        <time>2021-04-25T13:30:19Z</time>
      </trkpt>
      <trkpt lat="46.51437" lon="0.34688">
        <ele>125.2</ele>
        <time>2021-04-25T13:30:21Z</time>
      </trkpt>
      <trkpt lat="46.5144" lon="0.34683">
        <ele>124.4</ele>
        <time>2021-04-25T13:30:23Z</time>
      </trkpt>
      <trkpt lat="46.51442" lon="0.34681">
        <ele>124</ele>
        <time>2021-04-25T13:30:24Z</time>
      </trkpt>
      <trkpt lat="46.51444" lon="0.34679">
        <ele>123</ele>
        <time>2021-04-25T13:30:25Z</time>
      </trkpt>
      <trkpt lat="46.51449" lon="0.3467">
        <ele>121.6</ele>
        <time>2021-04-25T13:30:27Z</time>
      </trkpt>
      <trkpt lat="46.51452" lon="0.3466">
        <ele>120.4</ele>
        <time>2021-04-25T13:30:29Z</time>
      </trkpt>
      <trkpt lat="46.51457" lon="0.34645">
        <ele>119</ele>
        <time>2021-04-25T13:30:32Z</time>
      </trkpt>
      <trkpt lat="46.51467" lon="0.34621">
        <ele>118.6</ele>
        <time>2021-04-25T13:30:38Z</time>
      </trkpt>
      <trkpt lat="46.51473" lon="0.34601">
        <ele>117.8</ele>
        <time>2021-04-25T13:30:42Z</time>
      </trkpt>
      <trkpt lat="46.51475" lon="0.3459">
        <ele>117.2</ele>
        <time>2021-04-25T13:30:44Z</time>
      </trkpt>
      <trkpt lat="46.51485" lon="0.34562">
        <ele>117.2</ele>
        <time>2021-04-25T13:30:50Z</time>
      </trkpt>
      <trkpt lat="46.51494" lon="0.34541">
        <ele>118.2</ele>
        <time>2021-04-25T13:30:55Z</time>
      </trkpt>
      <trkpt lat="46.51495" lon="0.34537">
        <ele>118.4</ele>
        <time>2021-04-25T13:30:56Z</time>
      </trkpt>
      <trkpt lat="46.51495" lon="0.34534">
        <ele>118.4</ele>
        <time>2021-04-25T13:30:57Z</time>
      </trkpt>
      <trkpt lat="46.51491" lon="0.3453">
        <ele>118.4</ele>
        <time>2021-04-25T13:30:59Z</time>
      </trkpt>
      <trkpt lat="46.51489" lon="0.34528">
        <ele>118.8</ele>
        <time>2021-04-25T13:31:00Z</time>
      </trkpt>
      <trkpt lat="46.51483" lon="0.34521">
        <ele>119.8</ele>
        <time>2021-04-25T13:31:03Z</time>
      </trkpt>
      <trkpt lat="46.51477" lon="0.34516">
        <ele>121</ele>
        <time>2021-04-25T13:31:06Z</time>
      </trkpt>
      <trkpt lat="46.5147" lon="0.34511">
        <ele>122.2</ele>
        <time>2021-04-25T13:31:09Z</time>
      </trkpt>
      <trkpt lat="46.51462" lon="0.34507">
        <ele>123.4</ele>
        <time>2021-04-25T13:31:12Z</time>
      </trkpt>
      <trkpt lat="46.51459" lon="0.34507">
        <ele>123.8</ele>
        <time>2021-04-25T13:31:13Z</time>
      </trkpt>
      <trkpt lat="46.51454" lon="0.34506">
        <ele>124.4</ele>
        <time>2021-04-25T13:31:15Z</time>
      </trkpt>
      <trkpt lat="46.51445" lon="0.34508">
        <ele>125.4</ele>
        <time>2021-04-25T13:31:19Z</time>
      </trkpt>
      <trkpt lat="46.51442" lon="0.34508">
        <ele>125.6</ele>
        <time>2021-04-25T13:31:20Z</time>
      </trkpt>
      <trkpt lat="46.51431" lon="0.34508">
        <ele>126.6</ele>
        <time>2021-04-25T13:31:24Z</time>
      </trkpt>
      <trkpt lat="46.51425" lon="0.34509">
        <ele>127</ele>
        <time>2021-04-25T13:31:26Z</time>
      </trkpt>
      <trkpt lat="46.51418" lon="0.34509">
        <ele>127.8</ele>
        <time>2021-04-25T13:31:29Z</time>
      </trkpt>
      <trkpt lat="46.51411" lon="0.3451">
        <ele>128.6</ele>
        <time>2021-04-25T13:31:32Z</time>
      </trkpt>
      <trkpt lat="46.5141" lon="0.34512">
        <ele>128.8</ele>
        <time>2021-04-25T13:31:33Z</time>
      </trkpt>
      <trkpt lat="46.51405" lon="0.34519">
        <ele>130.2</ele>
        <time>2021-04-25T13:31:37Z</time>
      </trkpt>
      <trkpt lat="46.514" lon="0.34523">
        <ele>131.2</ele>
        <time>2021-04-25T13:31:40Z</time>
      </trkpt>
      <trkpt lat="46.51395" lon="0.34529">
        <ele>132.4</ele>
        <time>2021-04-25T13:31:44Z</time>
      </trkpt>
      <trkpt lat="46.51392" lon="0.34532">
        <ele>132.8</ele>
        <time>2021-04-25T13:31:46Z</time>
      </trkpt>
      <trkpt lat="46.51379" lon="0.34542">
        <ele>133.4</ele>
        <time>2021-04-25T13:31:52Z</time>
      </trkpt>
      <trkpt lat="46.51374" lon="0.34546">
        <ele>134.2</ele>
        <time>2021-04-25T13:31:54Z</time>
      </trkpt>
      <trkpt lat="46.51372" lon="0.34547">
        <ele>134.8</ele>
        <time>2021-04-25T13:31:55Z</time>
      </trkpt>
      <trkpt lat="46.51355" lon="0.34555">
        <ele>135.6</ele>
        <time>2021-04-25T13:32:01Z</time>
      </trkpt>
      <trkpt lat="46.51347" lon="0.34559">
        <ele>135.8</ele>
        <time>2021-04-25T13:32:04Z</time>
      </trkpt>
      <trkpt lat="46.51335" lon="0.34564">
        <ele>136.4</ele>
        <time>2021-04-25T13:32:08Z</time>
      </trkpt>
      <trkpt lat="46.51324" lon="0.34571">
        <ele>136.8</ele>
        <time>2021-04-25T13:32:12Z</time>
      </trkpt>
      <trkpt lat="46.51314" lon="0.34579">
        <ele>137.6</ele>
        <time>2021-04-25T13:32:16Z</time>
      </trkpt>
      <trkpt lat="46.51305" lon="0.34587">
        <ele>138</ele>
        <time>2021-04-25T13:32:20Z</time>
      </trkpt>
      <trkpt lat="46.513" lon="0.34592">
        <ele>138.2</ele>
        <time>2021-04-25T13:32:22Z</time>
      </trkpt>
      <trkpt lat="46.51286" lon="0.34603">
        <ele>138.6</ele>
        <time>2021-04-25T13:32:28Z</time>
      </trkpt>
      <trkpt lat="46.51281" lon="0.34607">
        <ele>139.2</ele>
        <time>2021-04-25T13:32:30Z</time>
      </trkpt>
      <trkpt lat="46.51274" lon="0.34611">
        <ele>139.6</ele>
        <time>2021-04-25T13:32:33Z</time>
      </trkpt>
      <trkpt lat="46.51255" lon="0.34607">
        <ele>139.2</ele>
        <time>2021-04-25T13:32:40Z</time>
      </trkpt>
      <trkpt lat="46.51233" lon="0.34603">
        <ele>139.4</ele>
        <time>2021-04-25T13:32:48Z</time>
      </trkpt>
      <trkpt lat="46.51225" lon="0.34604">
        <ele>140.2</ele>
        <time>2021-04-25T13:32:51Z</time>
      </trkpt>
      <trkpt lat="46.51214" lon="0.34605">
        <ele>140.6</ele>
        <time>2021-04-25T13:32:55Z</time>
      </trkpt>
      <trkpt lat="46.51194" lon="0.34608">
        <ele>140.8</ele>
        <time>2021-04-25T13:33:02Z</time>
      </trkpt>
      <trkpt lat="46.51188" lon="0.34604">
        <ele>141</ele>
        <time>2021-04-25T13:33:05Z</time>
      </trkpt>
      <trkpt lat="46.51188" lon="0.346">
        <ele>141</ele>
        <time>2021-04-25T13:33:06Z</time>
      </trkpt>
      <trkpt lat="46.51192" lon="0.34563">
        <ele>141</ele>
        <time>2021-04-25T13:33:14Z</time>
      </trkpt>
      <trkpt lat="46.51193" lon="0.34537">
        <ele>140.6</ele>
        <time>2021-04-25T13:33:19Z</time>
      </trkpt>
      <trkpt lat="46.51192" lon="0.34526">
        <ele>140.4</ele>
        <time>2021-04-25T13:33:21Z</time>
      </trkpt>
      <trkpt lat="46.51185" lon="0.34487">
        <ele>139.8</ele>
        <time>2021-04-25T13:33:28Z</time>
      </trkpt>
      <trkpt lat="46.5118" lon="0.34463">
        <ele>139.8</ele>
        <time>2021-04-25T13:33:32Z</time>
      </trkpt>
      <trkpt lat="46.51176" lon="0.34445">
        <ele>139.8</ele>
        <time>2021-04-25T13:33:35Z</time>
      </trkpt>
      <trkpt lat="46.51162" lon="0.34391">
        <ele>139.8</ele>
        <time>2021-04-25T13:33:44Z</time>
      </trkpt>
      <trkpt lat="46.51158" lon="0.34373">
        <ele>140.6</ele>
        <time>2021-04-25T13:33:47Z</time>
      </trkpt>
      <trkpt lat="46.51154" lon="0.34341">
        <ele>141</ele>
        <time>2021-04-25T13:33:52Z</time>
      </trkpt>
      <trkpt lat="46.51153" lon="0.34329">
        <ele>141</ele>
        <time>2021-04-25T13:33:54Z</time>
      </trkpt>
      <trkpt lat="46.51155" lon="0.34316">
        <ele>140.8</ele>
        <time>2021-04-25T13:33:56Z</time>
      </trkpt>
      <trkpt lat="46.51156" lon="0.3431">
        <ele>141</ele>
        <time>2021-04-25T13:33:57Z</time>
      </trkpt>
      <trkpt lat="46.51158" lon="0.34305">
        <ele>141.2</ele>
        <time>2021-04-25T13:33:58Z</time>
      </trkpt>
      <trkpt lat="46.51171" lon="0.34263">
        <ele>142</ele>
        <time>2021-04-25T13:34:05Z</time>
      </trkpt>
      <trkpt lat="46.51178" lon="0.34239">
        <ele>142.2</ele>
        <time>2021-04-25T13:34:09Z</time>
      </trkpt>
      <trkpt lat="46.5118" lon="0.34229">
        <ele>142.6</ele>
        <time>2021-04-25T13:34:11Z</time>
      </trkpt>
      <trkpt lat="46.51185" lon="0.34192">
        <ele>142</ele>
        <time>2021-04-25T13:34:18Z</time>
      </trkpt>
      <trkpt lat="46.51192" lon="0.34176">
        <ele>141.4</ele>
        <time>2021-04-25T13:34:23Z</time>
      </trkpt>
      <trkpt lat="46.51195" lon="0.34174">
        <ele>141</ele>
        <time>2021-04-25T13:34:24Z</time>
      </trkpt>
      <trkpt lat="46.512" lon="0.34168">
        <ele>140.2</ele>
        <time>2021-04-25T13:34:26Z</time>
      </trkpt>
      <trkpt lat="46.51203" lon="0.34166">
        <ele>139.8</ele>
        <time>2021-04-25T13:34:27Z</time>
      </trkpt>
      <trkpt lat="46.51205" lon="0.34165">
        <ele>139.6</ele>
        <time>2021-04-25T13:34:28Z</time>
      </trkpt>
      <trkpt lat="46.51207" lon="0.3416">
        <ele>138.6</ele>
        <time>2021-04-25T13:34:30Z</time>
      </trkpt>
      <trkpt lat="46.51208" lon="0.34158">
        <ele>137.8</ele>
        <time>2021-04-25T13:34:31Z</time>
      </trkpt>
      <trkpt lat="46.5121" lon="0.34156">
        <ele>137</ele>
        <time>2021-04-25T13:34:32Z</time>
      </trkpt>
      <trkpt lat="46.51211" lon="0.34154">
        <ele>135.8</ele>
        <time>2021-04-25T13:34:34Z</time>
      </trkpt>
      <trkpt lat="46.51213" lon="0.34152">
        <ele>135</ele>
        <time>2021-04-25T13:34:36Z</time>
      </trkpt>
      <trkpt lat="46.51214" lon="0.34151">
        <ele>134</ele>
        <time>2021-04-25T13:34:37Z</time>
      </trkpt>
      <trkpt lat="46.51215" lon="0.3415">
        <ele>132.8</ele>
        <time>2021-04-25T13:34:38Z</time>
      </trkpt>
      <trkpt lat="46.51218" lon="0.34148">
        <ele>131.4</ele>
        <time>2021-04-25T13:34:40Z</time>
      </trkpt>
      <trkpt lat="46.51219" lon="0.34147">
        <ele>130.6</ele>
        <time>2021-04-25T13:34:41Z</time>
      </trkpt>
      <trkpt lat="46.5122" lon="0.34146">
        <ele>129.6</ele>
        <time>2021-04-25T13:34:42Z</time>
      </trkpt>
      <trkpt lat="46.51222" lon="0.34145">
        <ele>129</ele>
        <time>2021-04-25T13:34:43Z</time>
      </trkpt>
      <trkpt lat="46.51224" lon="0.34144">
        <ele>128</ele>
        <time>2021-04-25T13:34:44Z</time>
      </trkpt>
      <trkpt lat="46.51226" lon="0.34143">
        <ele>126.8</ele>
        <time>2021-04-25T13:34:45Z</time>
      </trkpt>
      <trkpt lat="46.5123" lon="0.34141">
        <ele>126</ele>
        <time>2021-04-25T13:34:47Z</time>
      </trkpt>
      <trkpt lat="46.51231" lon="0.34139">
        <ele>125</ele>
        <time>2021-04-25T13:34:48Z</time>
      </trkpt>
      <trkpt lat="46.51232" lon="0.34137">
        <ele>124.6</ele>
        <time>2021-04-25T13:34:49Z</time>
      </trkpt>
      <trkpt lat="46.51233" lon="0.34135">
        <ele>122.6</ele>
        <time>2021-04-25T13:34:50Z</time>
      </trkpt>
      <trkpt lat="46.51234" lon="0.34133">
        <ele>121.4</ele>
        <time>2021-04-25T13:34:51Z</time>
      </trkpt>
      <trkpt lat="46.51235" lon="0.34131">
        <ele>118.8</ele>
        <time>2021-04-25T13:34:52Z</time>
      </trkpt>
      <trkpt lat="46.51236" lon="0.34128">
        <ele>117.2</ele>
        <time>2021-04-25T13:34:53Z</time>
      </trkpt>
      <trkpt lat="46.51238" lon="0.34125">
        <ele>115.6</ele>
        <time>2021-04-25T13:34:54Z</time>
      </trkpt>
      <trkpt lat="46.5124" lon="0.34122">
        <ele>114.2</ele>
        <time>2021-04-25T13:34:55Z</time>
      </trkpt>
      <trkpt lat="46.51243" lon="0.34116">
        <ele>112.4</ele>
        <time>2021-04-25T13:34:57Z</time>
      </trkpt>
      <trkpt lat="46.51246" lon="0.34108">
        <ele>111.2</ele>
        <time>2021-04-25T13:35:00Z</time>
      </trkpt>
      <trkpt lat="46.51246" lon="0.341">
        <ele>110.6</ele>
        <time>2021-04-25T13:35:03Z</time>
      </trkpt>
      <trkpt lat="46.51246" lon="0.34095">
        <ele>110</ele>
        <time>2021-04-25T13:35:05Z</time>
      </trkpt>
      <trkpt lat="46.51247" lon="0.34085">
        <ele>108.2</ele>
        <time>2021-04-25T13:35:07Z</time>
      </trkpt>
      <trkpt lat="46.51247" lon="0.3408">
        <ele>107.2</ele>
        <time>2021-04-25T13:35:08Z</time>
      </trkpt>
      <trkpt lat="46.51247" lon="0.34072">
        <ele>105.8</ele>
        <time>2021-04-25T13:35:10Z</time>
      </trkpt>
      <trkpt lat="46.51247" lon="0.34072">
        <ele>104</ele>
        <time>2021-04-25T13:35:12Z</time>
      </trkpt>
      <trkpt lat="46.51249" lon="0.34059">
        <ele>102.8</ele>
        <time>2021-04-25T13:35:13Z</time>
      </trkpt>
      <trkpt lat="46.5125" lon="0.34055">
        <ele>101.4</ele>
        <time>2021-04-25T13:35:14Z</time>
      </trkpt>
      <trkpt lat="46.51252" lon="0.34044">
        <ele>99</ele>
        <time>2021-04-25T13:35:16Z</time>
      </trkpt>
      <trkpt lat="46.51254" lon="0.34041">
        <ele>97.8</ele>
        <time>2021-04-25T13:35:17Z</time>
      </trkpt>
      <trkpt lat="46.51256" lon="0.34038">
        <ele>96.8</ele>
        <time>2021-04-25T13:35:18Z</time>
      </trkpt>
      <trkpt lat="46.51255" lon="0.34022">
        <ele>95.4</ele>
        <time>2021-04-25T13:35:20Z</time>
      </trkpt>
      <trkpt lat="46.51254" lon="0.34014">
        <ele>95</ele>
        <time>2021-04-25T13:35:22Z</time>
      </trkpt>
      <trkpt lat="46.51257" lon="0.34015">
        <ele>94.8</ele>
        <time>2021-04-25T13:35:29Z</time>
      </trkpt>
      <trkpt lat="46.5126" lon="0.34015">
        <ele>94.8</ele>
        <time>2021-04-25T13:35:31Z</time>
      </trkpt>
      <trkpt lat="46.51266" lon="0.34015">
        <ele>94.8</ele>
        <time>2021-04-25T13:35:36Z</time>
      </trkpt>
      <trkpt lat="46.51282" lon="0.34018">
        <ele>95.4</ele>
        <time>2021-04-25T13:35:44Z</time>
      </trkpt>
      <trkpt lat="46.51296" lon="0.34023">
        <ele>95.2</ele>
        <time>2021-04-25T13:35:52Z</time>
      </trkpt>
      <trkpt lat="46.51302" lon="0.34026">
        <ele>94.8</ele>
        <time>2021-04-25T13:35:55Z</time>
      </trkpt>
      <trkpt lat="46.51306" lon="0.34027">
        <ele>94.8</ele>
        <time>2021-04-25T13:35:57Z</time>
      </trkpt>
      <trkpt lat="46.51306" lon="0.34025">
        <ele>94.6</ele>
        <time>2021-04-25T13:36:00Z</time>
      </trkpt>
      <trkpt lat="46.51305" lon="0.34025">
        <ele>94.6</ele>
        <time>2021-04-25T13:36:01Z</time>
      </trkpt>
      <trkpt lat="46.51303" lon="0.34024">
        <ele>94.4</ele>
        <time>2021-04-25T13:36:03Z</time>
      </trkpt>
      <trkpt lat="46.51298" lon="0.34023">
        <ele>94.6</ele>
        <time>2021-04-25T13:36:08Z</time>
      </trkpt>
      <trkpt lat="46.51297" lon="0.34025">
        <ele>94.8</ele>
        <time>2021-04-25T13:36:10Z</time>
      </trkpt>
      <trkpt lat="46.51296" lon="0.34032">
        <ele>95.2</ele>
        <time>2021-04-25T13:36:14Z</time>
      </trkpt>
      <trkpt lat="46.51296" lon="0.34034">
        <ele>96</ele>
        <time>2021-04-25T13:36:16Z</time>
      </trkpt>
      <trkpt lat="46.51295" lon="0.34037">
        <ele>96.6</ele>
        <time>2021-04-25T13:36:18Z</time>
      </trkpt>
      <trkpt lat="46.51294" lon="0.34038">
        <ele>97.2</ele>
        <time>2021-04-25T13:36:19Z</time>
      </trkpt>
      <trkpt lat="46.51294" lon="0.34038">
        <ele>97.8</ele>
        <time>2021-04-25T13:36:20Z</time>
      </trkpt>
      <trkpt lat="46.51294" lon="0.34039">
        <ele>98.2</ele>
        <time>2021-04-25T13:36:21Z</time>
      </trkpt>
      <trkpt lat="46.51294" lon="0.34042">
        <ele>99.4</ele>
        <time>2021-04-25T13:36:25Z</time>
      </trkpt>
      <trkpt lat="46.51294" lon="0.34045">
        <ele>99.8</ele>
        <time>2021-04-25T13:36:29Z</time>
      </trkpt>
      <trkpt lat="46.51295" lon="0.34048">
        <ele>100.4</ele>
        <time>2021-04-25T13:36:32Z</time>
      </trkpt>
      <trkpt lat="46.51296" lon="0.34052">
        <ele>101.6</ele>
        <time>2021-04-25T13:36:37Z</time>
      </trkpt>
      <trkpt lat="46.51296" lon="0.34053">
        <ele>101.8</ele>
        <time>2021-04-25T13:36:38Z</time>
      </trkpt>
      <trkpt lat="46.51297" lon="0.34055">
        <ele>102.4</ele>
        <time>2021-04-25T13:36:41Z</time>
      </trkpt>
      <trkpt lat="46.51296" lon="0.34055">
        <ele>102.8</ele>
        <time>2021-04-25T13:36:42Z</time>
      </trkpt>
      <trkpt lat="46.51297" lon="0.3406">
        <ele>103.8</ele>
        <time>2021-04-25T13:36:48Z</time>
      </trkpt>
      <trkpt lat="46.51299" lon="0.34064">
        <ele>104.6</ele>
        <time>2021-04-25T13:36:55Z</time>
      </trkpt>
      <trkpt lat="46.51305" lon="0.34074">
        <ele>104.8</ele>
        <time>2021-04-25T13:37:04Z</time>
      </trkpt>
      <trkpt lat="46.51313" lon="0.34086">
        <ele>105.8</ele>
        <time>2021-04-25T13:37:11Z</time>
      </trkpt>
      <trkpt lat="46.51314" lon="0.34088">
        <ele>106.2</ele>
        <time>2021-04-25T13:37:12Z</time>
      </trkpt>
      <trkpt lat="46.51318" lon="0.34094">
        <ele>107</ele>
        <time>2021-04-25T13:37:17Z</time>
      </trkpt>
      <trkpt lat="46.51319" lon="0.34095">
        <ele>107.2</ele>
        <time>2021-04-25T13:37:18Z</time>
      </trkpt>
      <trkpt lat="46.5132" lon="0.34095">
        <ele>107.4</ele>
        <time>2021-04-25T13:37:19Z</time>
      </trkpt>
      <trkpt lat="46.51323" lon="0.34102">
        <ele>107.6</ele>
        <time>2021-04-25T13:37:25Z</time>
      </trkpt>
      <trkpt lat="46.51324" lon="0.34103">
        <ele>107.8</ele>
        <time>2021-04-25T13:37:27Z</time>
      </trkpt>
      <trkpt lat="46.51325" lon="0.34103">
        <ele>108</ele>
        <time>2021-04-25T13:37:28Z</time>
      </trkpt>
      <trkpt lat="46.51331" lon="0.34105">
        <ele>108.2</ele>
        <time>2021-04-25T13:37:30Z</time>
      </trkpt>
      <trkpt lat="46.51335" lon="0.34108">
        <ele>108.6</ele>
        <time>2021-04-25T13:37:32Z</time>
      </trkpt>
      <trkpt lat="46.51344" lon="0.34114">
        <ele>108.8</ele>
        <time>2021-04-25T13:37:37Z</time>
      </trkpt>
      <trkpt lat="46.5135" lon="0.34118">
        <ele>107.8</ele>
        <time>2021-04-25T13:37:41Z</time>
      </trkpt>
      <trkpt lat="46.51355" lon="0.34121">
        <ele>107.6</ele>
        <time>2021-04-25T13:37:43Z</time>
      </trkpt>
      <trkpt lat="46.51364" lon="0.34125">
        <ele>107</ele>
        <time>2021-04-25T13:37:47Z</time>
      </trkpt>
      <trkpt lat="46.51371" lon="0.34129">
        <ele>105.8</ele>
        <time>2021-04-25T13:37:49Z</time>
      </trkpt>
      <trkpt lat="46.51377" lon="0.34128">
        <ele>104.8</ele>
        <time>2021-04-25T13:37:51Z</time>
      </trkpt>
      <trkpt lat="46.51383" lon="0.34128">
        <ele>103.4</ele>
        <time>2021-04-25T13:37:53Z</time>
      </trkpt>
      <trkpt lat="46.51387" lon="0.34129">
        <ele>102.2</ele>
        <time>2021-04-25T13:37:54Z</time>
      </trkpt>
      <trkpt lat="46.51394" lon="0.3413">
        <ele>101.4</ele>
        <time>2021-04-25T13:37:56Z</time>
      </trkpt>
      <trkpt lat="46.51399" lon="0.3413">
        <ele>101</ele>
        <time>2021-04-25T13:37:57Z</time>
      </trkpt>
      <trkpt lat="46.51413" lon="0.3413">
        <ele>100.6</ele>
        <time>2021-04-25T13:38:00Z</time>
      </trkpt>
      <trkpt lat="46.51418" lon="0.3413">
        <ele>100</ele>
        <time>2021-04-25T13:38:02Z</time>
      </trkpt>
      <trkpt lat="46.51421" lon="0.34131">
        <ele>99.6</ele>
        <time>2021-04-25T13:38:04Z</time>
      </trkpt>
      <trkpt lat="46.51422" lon="0.34131">
        <ele>99.4</ele>
        <time>2021-04-25T13:38:05Z</time>
      </trkpt>
      <trkpt lat="46.51434" lon="0.3413">
        <ele>99.2</ele>
        <time>2021-04-25T13:38:12Z</time>
      </trkpt>
      <trkpt lat="46.51445" lon="0.34125">
        <ele>99.2</ele>
        <time>2021-04-25T13:38:16Z</time>
      </trkpt>
      <trkpt lat="46.51446" lon="0.34123">
        <ele>99.2</ele>
        <time>2021-04-25T13:38:17Z</time>
      </trkpt>
      <trkpt lat="46.51447" lon="0.34122">
        <ele>99.2</ele>
        <time>2021-04-25T13:38:18Z</time>
      </trkpt>
      <trkpt lat="46.5145" lon="0.34118">
        <ele>99.2</ele>
        <time>2021-04-25T13:38:20Z</time>
      </trkpt>
      <trkpt lat="46.51454" lon="0.34111">
        <ele>99</ele>
        <time>2021-04-25T13:38:24Z</time>
      </trkpt>
      <trkpt lat="46.51457" lon="0.34109">
        <ele>98.8</ele>
        <time>2021-04-25T13:38:26Z</time>
      </trkpt>
      <trkpt lat="46.5147" lon="0.34102">
        <ele>97.8</ele>
        <time>2021-04-25T13:38:32Z</time>
      </trkpt>
      <trkpt lat="46.51474" lon="0.34101">
        <ele>97.6</ele>
        <time>2021-04-25T13:38:34Z</time>
      </trkpt>
      <trkpt lat="46.51488" lon="0.34104">
        <ele>96.8</ele>
        <time>2021-04-25T13:38:39Z</time>
      </trkpt>
      <trkpt lat="46.51494" lon="0.34106">
        <ele>96.4</ele>
        <time>2021-04-25T13:38:40Z</time>
      </trkpt>
      <trkpt lat="46.5151" lon="0.34114">
        <ele>95.8</ele>
        <time>2021-04-25T13:38:49Z</time>
      </trkpt>
      <trkpt lat="46.51515" lon="0.34116">
        <ele>95.8</ele>
        <time>2021-04-25T13:38:51Z</time>
      </trkpt>
      <trkpt lat="46.51537" lon="0.34123">
        <ele>96.4</ele>
        <time>2021-04-25T13:38:58Z</time>
      </trkpt>
      <trkpt lat="46.51541" lon="0.34124">
        <ele>96.8</ele>
        <time>2021-04-25T13:38:59Z</time>
      </trkpt>
      <trkpt lat="46.51566" lon="0.34128">
        <ele>97.2</ele>
        <time>2021-04-25T13:39:06Z</time>
      </trkpt>
      <trkpt lat="46.516" lon="0.34131">
        <ele>96</ele>
        <time>2021-04-25T13:39:15Z</time>
      </trkpt>
      <trkpt lat="46.51603" lon="0.34131">
        <ele>95.8</ele>
        <time>2021-04-25T13:39:16Z</time>
      </trkpt>
      <trkpt lat="46.51615" lon="0.34138">
        <ele>95.6</ele>
        <time>2021-04-25T13:39:21Z</time>
      </trkpt>
      <trkpt lat="46.51629" lon="0.34148">
        <ele>95.6</ele>
        <time>2021-04-25T13:39:27Z</time>
      </trkpt>
      <trkpt lat="46.51633" lon="0.34169">
        <ele>96</ele>
        <time>2021-04-25T13:39:32Z</time>
      </trkpt>
      <trkpt lat="46.51634" lon="0.3418">
        <ele>96.8</ele>
        <time>2021-04-25T13:39:35Z</time>
      </trkpt>
      <trkpt lat="46.51635" lon="0.34186">
        <ele>97.8</ele>
        <time>2021-04-25T13:39:37Z</time>
      </trkpt>
      <trkpt lat="46.51636" lon="0.34188">
        <ele>98.2</ele>
        <time>2021-04-25T13:39:38Z</time>
      </trkpt>
      <trkpt lat="46.51637" lon="0.34193">
        <ele>100</ele>
        <time>2021-04-25T13:39:40Z</time>
      </trkpt>
      <trkpt lat="46.51639" lon="0.34198">
        <ele>101.6</ele>
        <time>2021-04-25T13:39:42Z</time>
      </trkpt>
      <trkpt lat="46.51642" lon="0.34202">
        <ele>102.4</ele>
        <time>2021-04-25T13:39:44Z</time>
      </trkpt>
      <trkpt lat="46.51657" lon="0.3421">
        <ele>102.2</ele>
        <time>2021-04-25T13:39:49Z</time>
      </trkpt>
      <trkpt lat="46.51676" lon="0.34214">
        <ele>100.6</ele>
        <time>2021-04-25T13:39:55Z</time>
      </trkpt>
      <trkpt lat="46.51681" lon="0.34213">
        <ele>100.2</ele>
        <time>2021-04-25T13:39:57Z</time>
      </trkpt>
      <trkpt lat="46.51687" lon="0.34206">
        <ele>100</ele>
        <time>2021-04-25T13:39:59Z</time>
      </trkpt>
      <trkpt lat="46.51695" lon="0.3419">
        <ele>99.6</ele>
        <time>2021-04-25T13:40:02Z</time>
      </trkpt>
      <trkpt lat="46.51697" lon="0.34184">
        <ele>99.4</ele>
        <time>2021-04-25T13:40:03Z</time>
      </trkpt>
      <trkpt lat="46.517" lon="0.34178">
        <ele>99.2</ele>
        <time>2021-04-25T13:40:04Z</time>
      </trkpt>
      <trkpt lat="46.5172" lon="0.3413">
        <ele>98.8</ele>
        <time>2021-04-25T13:40:11Z</time>
      </trkpt>
      <trkpt lat="46.51722" lon="0.34123">
        <ele>98.4</ele>
        <time>2021-04-25T13:40:12Z</time>
      </trkpt>
      <trkpt lat="46.51728" lon="0.34102">
        <ele>97.8</ele>
        <time>2021-04-25T13:40:15Z</time>
      </trkpt>
      <trkpt lat="46.51728" lon="0.34095">
        <ele>97.8</ele>
        <time>2021-04-25T13:40:16Z</time>
      </trkpt>
      <trkpt lat="46.51731" lon="0.34068">
        <ele>97.6</ele>
        <time>2021-04-25T13:40:20Z</time>
      </trkpt>
      <trkpt lat="46.51732" lon="0.34058">
        <ele>97.6</ele>
        <time>2021-04-25T13:40:22Z</time>
      </trkpt>
      <trkpt lat="46.51733" lon="0.34053">
        <ele>97.4</ele>
        <time>2021-04-25T13:40:23Z</time>
      </trkpt>
      <trkpt lat="46.51736" lon="0.34048">
        <ele>97.2</ele>
        <time>2021-04-25T13:40:24Z</time>
      </trkpt>
      <trkpt lat="46.51742" lon="0.34041">
        <ele>97</ele>
        <time>2021-04-25T13:40:26Z</time>
      </trkpt>
      <trkpt lat="46.51749" lon="0.3404">
        <ele>96.8</ele>
        <time>2021-04-25T13:40:28Z</time>
      </trkpt>
      <trkpt lat="46.51752" lon="0.34042">
        <ele>96.8</ele>
        <time>2021-04-25T13:40:29Z</time>
      </trkpt>
      <trkpt lat="46.51776" lon="0.34052">
        <ele>96.6</ele>
        <time>2021-04-25T13:40:36Z</time>
      </trkpt>
      <trkpt lat="46.51781" lon="0.34054">
        <ele>96.6</ele>
        <time>2021-04-25T13:40:37Z</time>
      </trkpt>
      <trkpt lat="46.51796" lon="0.34055">
        <ele>96.4</ele>
        <time>2021-04-25T13:40:40Z</time>
      </trkpt>
      <trkpt lat="46.51833" lon="0.34048">
        <ele>96.6</ele>
        <time>2021-04-25T13:40:47Z</time>
      </trkpt>
      <trkpt lat="46.51846" lon="0.34051">
        <ele>97</ele>
        <time>2021-04-25T13:40:50Z</time>
      </trkpt>
      <trkpt lat="46.51854" lon="0.34056">
        <ele>96.6</ele>
        <time>2021-04-25T13:40:52Z</time>
      </trkpt>
      <trkpt lat="46.51864" lon="0.34058">
        <ele>96.4</ele>
        <time>2021-04-25T13:40:54Z</time>
      </trkpt>
      <trkpt lat="46.5187" lon="0.34057">
        <ele>96.2</ele>
        <time>2021-04-25T13:40:55Z</time>
      </trkpt>
      <trkpt lat="46.5192" lon="0.34046">
        <ele>96.6</ele>
        <time>2021-04-25T13:41:05Z</time>
      </trkpt>
      <trkpt lat="46.51961" lon="0.34034">
        <ele>96.2</ele>
        <time>2021-04-25T13:41:14Z</time>
      </trkpt>
      <trkpt lat="46.51964" lon="0.34031">
        <ele>96.2</ele>
        <time>2021-04-25T13:41:15Z</time>
      </trkpt>
      <trkpt lat="46.51965" lon="0.34026">
        <ele>96.2</ele>
        <time>2021-04-25T13:41:16Z</time>
      </trkpt>
      <trkpt lat="46.51964" lon="0.34015">
        <ele>96</ele>
        <time>2021-04-25T13:41:18Z</time>
      </trkpt>
      <trkpt lat="46.51957" lon="0.33982">
        <ele>95.8</ele>
        <time>2021-04-25T13:41:24Z</time>
      </trkpt>
      <trkpt lat="46.51955" lon="0.3397">
        <ele>95.8</ele>
        <time>2021-04-25T13:41:26Z</time>
      </trkpt>
      <trkpt lat="46.51953" lon="0.33957">
        <ele>95.8</ele>
        <time>2021-04-25T13:41:28Z</time>
      </trkpt>
      <trkpt lat="46.51954" lon="0.33945">
        <ele>95.8</ele>
        <time>2021-04-25T13:41:30Z</time>
      </trkpt>
      <trkpt lat="46.51956" lon="0.3394">
        <ele>95.8</ele>
        <time>2021-04-25T13:41:31Z</time>
      </trkpt>
      <trkpt lat="46.51958" lon="0.33936">
        <ele>95.8</ele>
        <time>2021-04-25T13:41:32Z</time>
      </trkpt>
      <trkpt lat="46.51966" lon="0.3393">
        <ele>95.8</ele>
        <time>2021-04-25T13:41:34Z</time>
      </trkpt>
      <trkpt lat="46.51972" lon="0.3392">
        <ele>95.6</ele>
        <time>2021-04-25T13:41:36Z</time>
      </trkpt>
      <trkpt lat="46.51973" lon="0.33914">
        <ele>95.4</ele>
        <time>2021-04-25T13:41:37Z</time>
      </trkpt>
      <trkpt lat="46.51975" lon="0.33907">
        <ele>95.2</ele>
        <time>2021-04-25T13:41:38Z</time>
      </trkpt>
      <trkpt lat="46.51982" lon="0.33866">
        <ele>94.4</ele>
        <time>2021-04-25T13:41:44Z</time>
      </trkpt>
      <trkpt lat="46.51988" lon="0.33815">
        <ele>95.4</ele>
        <time>2021-04-25T13:41:52Z</time>
      </trkpt>
      <trkpt lat="46.51994" lon="0.33773">
        <ele>95.6</ele>
        <time>2021-04-25T13:41:59Z</time>
      </trkpt>
      <trkpt lat="46.51999" lon="0.33745">
        <ele>95.4</ele>
        <time>2021-04-25T13:42:04Z</time>
      </trkpt>
      <trkpt lat="46.52001" lon="0.33739">
        <ele>95.6</ele>
        <time>2021-04-25T13:42:06Z</time>
      </trkpt>
      <trkpt lat="46.52003" lon="0.33735">
        <ele>95.8</ele>
        <time>2021-04-25T13:42:09Z</time>
      </trkpt>
      <trkpt lat="46.52007" lon="0.33734">
        <ele>95.8</ele>
        <time>2021-04-25T13:42:11Z</time>
      </trkpt>
      <trkpt lat="46.52019" lon="0.33734">
        <ele>96</ele>
        <time>2021-04-25T13:42:16Z</time>
      </trkpt>
      <trkpt lat="46.52042" lon="0.33732">
        <ele>96.2</ele>
        <time>2021-04-25T13:42:24Z</time>
      </trkpt>
      <trkpt lat="46.52046" lon="0.33733">
        <ele>96.2</ele>
        <time>2021-04-25T13:42:25Z</time>
      </trkpt>
      <trkpt lat="46.52052" lon="0.33736">
        <ele>96.8</ele>
        <time>2021-04-25T13:42:28Z</time>
      </trkpt>
      <trkpt lat="46.52054" lon="0.33739">
        <ele>97</ele>
        <time>2021-04-25T13:42:29Z</time>
      </trkpt>
      <trkpt lat="46.52054" lon="0.33743">
        <ele>97.2</ele>
        <time>2021-04-25T13:42:30Z</time>
      </trkpt>
      <trkpt lat="46.52055" lon="0.33748">
        <ele>97.4</ele>
        <time>2021-04-25T13:42:31Z</time>
      </trkpt>
      <trkpt lat="46.52054" lon="0.33757">
        <ele>97.4</ele>
        <time>2021-04-25T13:42:33Z</time>
      </trkpt>
      <trkpt lat="46.52054" lon="0.33763">
        <ele>97.6</ele>
        <time>2021-04-25T13:42:34Z</time>
      </trkpt>
      <trkpt lat="46.52054" lon="0.33787">
        <ele>97.4</ele>
        <time>2021-04-25T13:42:38Z</time>
      </trkpt>
      <trkpt lat="46.52056" lon="0.33802">
        <ele>97.2</ele>
        <time>2021-04-25T13:42:40Z</time>
      </trkpt>
      <trkpt lat="46.52059" lon="0.33826">
        <ele>97</ele>
        <time>2021-04-25T13:42:43Z</time>
      </trkpt>
      <trkpt lat="46.52065" lon="0.33879">
        <ele>96.4</ele>
        <time>2021-04-25T13:42:50Z</time>
      </trkpt>
      <trkpt lat="46.52075" lon="0.33924">
        <ele>96.6</ele>
        <time>2021-04-25T13:42:57Z</time>
      </trkpt>
      <trkpt lat="46.52077" lon="0.3393">
        <ele>96.4</ele>
        <time>2021-04-25T13:42:58Z</time>
      </trkpt>
      <trkpt lat="46.52084" lon="0.33947">
        <ele>96.6</ele>
        <time>2021-04-25T13:43:01Z</time>
      </trkpt>
      <trkpt lat="46.52087" lon="0.33951">
        <ele>96.6</ele>
        <time>2021-04-25T13:43:02Z</time>
      </trkpt>
      <trkpt lat="46.5209" lon="0.33954">
        <ele>96.6</ele>
        <time>2021-04-25T13:43:03Z</time>
      </trkpt>
      <trkpt lat="46.52105" lon="0.33964">
        <ele>96.2</ele>
        <time>2021-04-25T13:43:07Z</time>
      </trkpt>
      <trkpt lat="46.52128" lon="0.33977">
        <ele>96.4</ele>
        <time>2021-04-25T13:43:12Z</time>
      </trkpt>
      <trkpt lat="46.52149" lon="0.33983">
        <ele>96.2</ele>
        <time>2021-04-25T13:43:16Z</time>
      </trkpt>
      <trkpt lat="46.52153" lon="0.33983">
        <ele>96</ele>
        <time>2021-04-25T13:43:17Z</time>
      </trkpt>
      <trkpt lat="46.52183" lon="0.33981">
        <ele>95.6</ele>
        <time>2021-04-25T13:43:23Z</time>
      </trkpt>
      <trkpt lat="46.52198" lon="0.3398">
        <ele>95.6</ele>
        <time>2021-04-25T13:43:26Z</time>
      </trkpt>
      <trkpt lat="46.52209" lon="0.33974">
        <ele>95.8</ele>
        <time>2021-04-25T13:43:28Z</time>
      </trkpt>
      <trkpt lat="46.52214" lon="0.3397">
        <ele>95.8</ele>
        <time>2021-04-25T13:43:29Z</time>
      </trkpt>
      <trkpt lat="46.52258" lon="0.33934">
        <ele>95.8</ele>
        <time>2021-04-25T13:43:38Z</time>
      </trkpt>
      <trkpt lat="46.52296" lon="0.33908">
        <ele>96.2</ele>
        <time>2021-04-25T13:43:46Z</time>
      </trkpt>
      <trkpt lat="46.5234" lon="0.33875">
        <ele>96.4</ele>
        <time>2021-04-25T13:43:55Z</time>
      </trkpt>
      <trkpt lat="46.52382" lon="0.33848">
        <ele>96.6</ele>
        <time>2021-04-25T13:44:03Z</time>
      </trkpt>
      <trkpt lat="46.52415" lon="0.3382">
        <ele>95.8</ele>
        <time>2021-04-25T13:44:10Z</time>
      </trkpt>
      <trkpt lat="46.52455" lon="0.33777">
        <ele>96.4</ele>
        <time>2021-04-25T13:44:19Z</time>
      </trkpt>
      <trkpt lat="46.52484" lon="0.33741">
        <ele>96</ele>
        <time>2021-04-25T13:44:26Z</time>
      </trkpt>
      <trkpt lat="46.52491" lon="0.3373">
        <ele>96</ele>
        <time>2021-04-25T13:44:28Z</time>
      </trkpt>
      <trkpt lat="46.52502" lon="0.33703">
        <ele>96.2</ele>
        <time>2021-04-25T13:44:32Z</time>
      </trkpt>
      <trkpt lat="46.52502" lon="0.33703">
        <ele>96.2</ele>
        <time>2021-04-25T13:44:33Z</time>
      </trkpt>
      <trkpt lat="46.52503" lon="0.33697">
        <ele>96.4</ele>
        <time>2021-04-25T13:44:34Z</time>
      </trkpt>
      <trkpt lat="46.52503" lon="0.33686">
        <ele>96.8</ele>
        <time>2021-04-25T13:44:36Z</time>
      </trkpt>
      <trkpt lat="46.52503" lon="0.33676">
        <ele>97.2</ele>
        <time>2021-04-25T13:44:38Z</time>
      </trkpt>
      <trkpt lat="46.52503" lon="0.33671">
        <ele>97.4</ele>
        <time>2021-04-25T13:44:39Z</time>
      </trkpt>
      <trkpt lat="46.52509" lon="0.33652">
        <ele>99</ele>
        <time>2021-04-25T13:44:43Z</time>
      </trkpt>
      <trkpt lat="46.52516" lon="0.3364">
        <ele>100.8</ele>
        <time>2021-04-25T13:44:46Z</time>
      </trkpt>
      <trkpt lat="46.52522" lon="0.33627">
        <ele>102</ele>
        <time>2021-04-25T13:44:49Z</time>
      </trkpt>
      <trkpt lat="46.52524" lon="0.33623">
        <ele>102.2</ele>
        <time>2021-04-25T13:44:50Z</time>
      </trkpt>
      <trkpt lat="46.52527" lon="0.33611">
        <ele>103.4</ele>
        <time>2021-04-25T13:44:53Z</time>
      </trkpt>
      <trkpt lat="46.52528" lon="0.33597">
        <ele>104.6</ele>
        <time>2021-04-25T13:44:56Z</time>
      </trkpt>
      <trkpt lat="46.52528" lon="0.33569">
        <ele>105.4</ele>
        <time>2021-04-25T13:45:02Z</time>
      </trkpt>
      <trkpt lat="46.52528" lon="0.33565">
        <ele>105.6</ele>
        <time>2021-04-25T13:45:03Z</time>
      </trkpt>
      <trkpt lat="46.52526" lon="0.33547">
        <ele>107</ele>
        <time>2021-04-25T13:45:07Z</time>
      </trkpt>
      <trkpt lat="46.52526" lon="0.33533">
        <ele>107.8</ele>
        <time>2021-04-25T13:45:10Z</time>
      </trkpt>
      <trkpt lat="46.52526" lon="0.33523">
        <ele>108.2</ele>
        <time>2021-04-25T13:45:12Z</time>
      </trkpt>
      <trkpt lat="46.52526" lon="0.33501">
        <ele>108.6</ele>
        <time>2021-04-25T13:45:17Z</time>
      </trkpt>
      <trkpt lat="46.52527" lon="0.33479">
        <ele>109.2</ele>
        <time>2021-04-25T13:45:22Z</time>
      </trkpt>
      <trkpt lat="46.52528" lon="0.3347">
        <ele>109.6</ele>
        <time>2021-04-25T13:45:24Z</time>
      </trkpt>
      <trkpt lat="46.5253" lon="0.33443">
        <ele>110.2</ele>
        <time>2021-04-25T13:45:30Z</time>
      </trkpt>
      <trkpt lat="46.52531" lon="0.33434">
        <ele>110.4</ele>
        <time>2021-04-25T13:45:32Z</time>
      </trkpt>
      <trkpt lat="46.52539" lon="0.33417">
        <ele>110.8</ele>
        <time>2021-04-25T13:45:37Z</time>
      </trkpt>
      <trkpt lat="46.52543" lon="0.33411">
        <ele>111.2</ele>
        <time>2021-04-25T13:45:39Z</time>
      </trkpt>
      <trkpt lat="46.52553" lon="0.33396">
        <ele>111.8</ele>
        <time>2021-04-25T13:45:43Z</time>
      </trkpt>
      <trkpt lat="46.52565" lon="0.33378">
        <ele>112.4</ele>
        <time>2021-04-25T13:45:48Z</time>
      </trkpt>
      <trkpt lat="46.52569" lon="0.33373">
        <ele>112.8</ele>
        <time>2021-04-25T13:45:50Z</time>
      </trkpt>
      <trkpt lat="46.52574" lon="0.33369">
        <ele>112.8</ele>
        <time>2021-04-25T13:45:53Z</time>
      </trkpt>
      <trkpt lat="46.52576" lon="0.3337">
        <ele>112.6</ele>
        <time>2021-04-25T13:45:54Z</time>
      </trkpt>
      <trkpt lat="46.52582" lon="0.33371">
        <ele>112.6</ele>
        <time>2021-04-25T13:45:56Z</time>
      </trkpt>
      <trkpt lat="46.52587" lon="0.33369">
        <ele>112.2</ele>
        <time>2021-04-25T13:45:58Z</time>
      </trkpt>
      <trkpt lat="46.52589" lon="0.33369">
        <ele>112.2</ele>
        <time>2021-04-25T13:45:59Z</time>
      </trkpt>
      <trkpt lat="46.52595" lon="0.33374">
        <ele>112.4</ele>
        <time>2021-04-25T13:46:02Z</time>
      </trkpt>
      <trkpt lat="46.52611" lon="0.33391">
        <ele>112.8</ele>
        <time>2021-04-25T13:46:08Z</time>
      </trkpt>
      <trkpt lat="46.52621" lon="0.33399">
        <ele>113.2</ele>
        <time>2021-04-25T13:46:13Z</time>
      </trkpt>
      <trkpt lat="46.5263" lon="0.33407">
        <ele>113.4</ele>
        <time>2021-04-25T13:46:17Z</time>
      </trkpt>
      <trkpt lat="46.52635" lon="0.3341">
        <ele>113.8</ele>
        <time>2021-04-25T13:46:19Z</time>
      </trkpt>
      <trkpt lat="46.52645" lon="0.33412">
        <ele>114.4</ele>
        <time>2021-04-25T13:46:24Z</time>
      </trkpt>
      <trkpt lat="46.52648" lon="0.33413">
        <ele>114.6</ele>
        <time>2021-04-25T13:46:25Z</time>
      </trkpt>
      <trkpt lat="46.52661" lon="0.33418">
        <ele>115.8</ele>
        <time>2021-04-25T13:46:31Z</time>
      </trkpt>
      <trkpt lat="46.52682" lon="0.33422">
        <ele>116.8</ele>
        <time>2021-04-25T13:46:38Z</time>
      </trkpt>
      <trkpt lat="46.52685" lon="0.33423">
        <ele>117</ele>
        <time>2021-04-25T13:46:39Z</time>
      </trkpt>
      <trkpt lat="46.52707" lon="0.33424">
        <ele>117.6</ele>
        <time>2021-04-25T13:46:46Z</time>
      </trkpt>
      <trkpt lat="46.5271" lon="0.33425">
        <ele>117.8</ele>
        <time>2021-04-25T13:46:47Z</time>
      </trkpt>
      <trkpt lat="46.52725" lon="0.33429">
        <ele>118.6</ele>
        <time>2021-04-25T13:46:53Z</time>
      </trkpt>
      <trkpt lat="46.52742" lon="0.33435">
        <ele>118.4</ele>
        <time>2021-04-25T13:46:59Z</time>
      </trkpt>
      <trkpt lat="46.52754" lon="0.33437">
        <ele>118.8</ele>
        <time>2021-04-25T13:47:03Z</time>
      </trkpt>
      <trkpt lat="46.52757" lon="0.33436">
        <ele>118.8</ele>
        <time>2021-04-25T13:47:04Z</time>
      </trkpt>
      <trkpt lat="46.52769" lon="0.33427">
        <ele>119.8</ele>
        <time>2021-04-25T13:47:09Z</time>
      </trkpt>
      <trkpt lat="46.52773" lon="0.33425">
        <ele>120.2</ele>
        <time>2021-04-25T13:47:10Z</time>
      </trkpt>
      <trkpt lat="46.52778" lon="0.33418">
        <ele>121.2</ele>
        <time>2021-04-25T13:47:13Z</time>
      </trkpt>
      <trkpt lat="46.52778" lon="0.33416">
        <ele>121.4</ele>
        <time>2021-04-25T13:47:14Z</time>
      </trkpt>
      <trkpt lat="46.52782" lon="0.33406">
        <ele>122.4</ele>
        <time>2021-04-25T13:47:18Z</time>
      </trkpt>
      <trkpt lat="46.52782" lon="0.334">
        <ele>122.6</ele>
        <time>2021-04-25T13:47:20Z</time>
      </trkpt>
      <trkpt lat="46.52785" lon="0.33374">
        <ele>123.4</ele>
        <time>2021-04-25T13:47:27Z</time>
      </trkpt>
      <trkpt lat="46.52785" lon="0.33369">
        <ele>123.4</ele>
        <time>2021-04-25T13:47:28Z</time>
      </trkpt>
      <trkpt lat="46.5279" lon="0.33349">
        <ele>123.8</ele>
        <time>2021-04-25T13:47:32Z</time>
      </trkpt>
      <trkpt lat="46.52795" lon="0.33322">
        <ele>124</ele>
        <time>2021-04-25T13:47:38Z</time>
      </trkpt>
      <trkpt lat="46.52796" lon="0.33307">
        <ele>124.2</ele>
        <time>2021-04-25T13:47:41Z</time>
      </trkpt>
      <trkpt lat="46.52796" lon="0.33297">
        <ele>124.4</ele>
        <time>2021-04-25T13:47:43Z</time>
      </trkpt>
      <trkpt lat="46.52796" lon="0.33292">
        <ele>124.4</ele>
        <time>2021-04-25T13:47:44Z</time>
      </trkpt>
      <trkpt lat="46.52797" lon="0.33279">
        <ele>125.6</ele>
        <time>2021-04-25T13:47:47Z</time>
      </trkpt>
      <trkpt lat="46.52796" lon="0.33262">
        <ele>126.6</ele>
        <time>2021-04-25T13:47:51Z</time>
      </trkpt>
      <trkpt lat="46.52797" lon="0.33247">
        <ele>127.2</ele>
        <time>2021-04-25T13:47:55Z</time>
      </trkpt>
      <trkpt lat="46.52797" lon="0.3324">
        <ele>127.4</ele>
        <time>2021-04-25T13:47:57Z</time>
      </trkpt>
      <trkpt lat="46.52795" lon="0.33231">
        <ele>127.8</ele>
        <time>2021-04-25T13:48:00Z</time>
      </trkpt>
      <trkpt lat="46.52792" lon="0.3322">
        <ele>128.2</ele>
        <time>2021-04-25T13:48:03Z</time>
      </trkpt>
      <trkpt lat="46.5279" lon="0.33216">
        <ele>128.2</ele>
        <time>2021-04-25T13:48:04Z</time>
      </trkpt>
      <trkpt lat="46.5279" lon="0.33216">
        <ele>128.2</ele>
        <time>2021-04-25T13:48:05Z</time>
      </trkpt>
      <trkpt lat="46.52788" lon="0.3321">
        <ele>128.4</ele>
        <time>2021-04-25T13:48:07Z</time>
      </trkpt>
      <trkpt lat="46.52788" lon="0.33207">
        <ele>128</ele>
        <time>2021-04-25T13:48:09Z</time>
      </trkpt>
      <trkpt lat="46.52788" lon="0.33205">
        <ele>128</ele>
        <time>2021-04-25T13:48:10Z</time>
      </trkpt>
      <trkpt lat="46.52796" lon="0.33195">
        <ele>128.2</ele>
        <time>2021-04-25T13:48:14Z</time>
      </trkpt>
      <trkpt lat="46.52811" lon="0.33187">
        <ele>129</ele>
        <time>2021-04-25T13:48:19Z</time>
      </trkpt>
      <trkpt lat="46.52814" lon="0.33185">
        <ele>129.4</ele>
        <time>2021-04-25T13:48:20Z</time>
      </trkpt>
      <trkpt lat="46.52816" lon="0.33183">
        <ele>130</ele>
        <time>2021-04-25T13:48:21Z</time>
      </trkpt>
      <trkpt lat="46.52821" lon="0.33179">
        <ele>131.2</ele>
        <time>2021-04-25T13:48:23Z</time>
      </trkpt>
      <trkpt lat="46.52829" lon="0.33175">
        <ele>132.2</ele>
        <time>2021-04-25T13:48:26Z</time>
      </trkpt>
      <trkpt lat="46.52832" lon="0.33173">
        <ele>132.4</ele>
        <time>2021-04-25T13:48:27Z</time>
      </trkpt>
      <trkpt lat="46.52848" lon="0.33166">
        <ele>133.6</ele>
        <time>2021-04-25T13:48:34Z</time>
      </trkpt>
      <trkpt lat="46.52853" lon="0.33164">
        <ele>134.4</ele>
        <time>2021-04-25T13:48:36Z</time>
      </trkpt>
      <trkpt lat="46.52856" lon="0.33163">
        <ele>134.8</ele>
        <time>2021-04-25T13:48:37Z</time>
      </trkpt>
      <trkpt lat="46.52869" lon="0.33159">
        <ele>135.6</ele>
        <time>2021-04-25T13:48:42Z</time>
      </trkpt>
      <trkpt lat="46.52874" lon="0.33157">
        <ele>135.8</ele>
        <time>2021-04-25T13:48:44Z</time>
      </trkpt>
      <trkpt lat="46.52888" lon="0.33152">
        <ele>137</ele>
        <time>2021-04-25T13:48:50Z</time>
      </trkpt>
      <trkpt lat="46.52905" lon="0.33145">
        <ele>138.2</ele>
        <time>2021-04-25T13:48:55Z</time>
      </trkpt>
      <trkpt lat="46.52908" lon="0.33142">
        <ele>138.2</ele>
        <time>2021-04-25T13:48:56Z</time>
      </trkpt>
      <trkpt lat="46.52926" lon="0.33138">
        <ele>139</ele>
        <time>2021-04-25T13:49:01Z</time>
      </trkpt>
      <trkpt lat="46.52932" lon="0.33137">
        <ele>139.2</ele>
        <time>2021-04-25T13:49:03Z</time>
      </trkpt>
      <trkpt lat="46.52946" lon="0.3313">
        <ele>140</ele>
        <time>2021-04-25T13:49:08Z</time>
      </trkpt>
      <trkpt lat="46.52949" lon="0.33129">
        <ele>140.2</ele>
        <time>2021-04-25T13:49:09Z</time>
      </trkpt>
      <trkpt lat="46.52966" lon="0.33126">
        <ele>140.8</ele>
        <time>2021-04-25T13:49:14Z</time>
      </trkpt>
      <trkpt lat="46.52974" lon="0.33123">
        <ele>141.2</ele>
        <time>2021-04-25T13:49:17Z</time>
      </trkpt>
      <trkpt lat="46.52987" lon="0.33119">
        <ele>142.2</ele>
        <time>2021-04-25T13:49:22Z</time>
      </trkpt>
      <trkpt lat="46.52995" lon="0.33114">
        <ele>142.4</ele>
        <time>2021-04-25T13:49:25Z</time>
      </trkpt>
      <trkpt lat="46.53005" lon="0.33108">
        <ele>142.8</ele>
        <time>2021-04-25T13:49:28Z</time>
      </trkpt>
      <trkpt lat="46.53029" lon="0.33094">
        <ele>143.4</ele>
        <time>2021-04-25T13:49:35Z</time>
      </trkpt>
      <trkpt lat="46.53032" lon="0.33093">
        <ele>143.4</ele>
        <time>2021-04-25T13:49:36Z</time>
      </trkpt>
      <trkpt lat="46.53067" lon="0.33082">
        <ele>144.2</ele>
        <time>2021-04-25T13:49:45Z</time>
      </trkpt>
      <trkpt lat="46.53091" lon="0.33073">
        <ele>144.4</ele>
        <time>2021-04-25T13:49:51Z</time>
      </trkpt>
      <trkpt lat="46.53108" lon="0.33066">
        <ele>144.2</ele>
        <time>2021-04-25T13:49:57Z</time>
      </trkpt>
      <trkpt lat="46.53123" lon="0.33059">
        <ele>143.8</ele>
        <time>2021-04-25T13:50:04Z</time>
      </trkpt>
      <trkpt lat="46.53143" lon="0.33053">
        <ele>143.6</ele>
        <time>2021-04-25T13:50:12Z</time>
      </trkpt>
      <trkpt lat="46.53157" lon="0.3305">
        <ele>143.8</ele>
        <time>2021-04-25T13:50:18Z</time>
      </trkpt>
      <trkpt lat="46.53163" lon="0.33049">
        <ele>144.2</ele>
        <time>2021-04-25T13:50:21Z</time>
      </trkpt>
      <trkpt lat="46.53168" lon="0.33043">
        <ele>144.4</ele>
        <time>2021-04-25T13:50:24Z</time>
      </trkpt>
      <trkpt lat="46.53175" lon="0.33031">
        <ele>144.6</ele>
        <time>2021-04-25T13:50:28Z</time>
      </trkpt>
      <trkpt lat="46.53177" lon="0.33028">
        <ele>144.6</ele>
        <time>2021-04-25T13:50:29Z</time>
      </trkpt>
      <trkpt lat="46.53187" lon="0.33019">
        <ele>144.2</ele>
        <time>2021-04-25T13:50:33Z</time>
      </trkpt>
      <trkpt lat="46.5319" lon="0.33017">
        <ele>144.2</ele>
        <time>2021-04-25T13:50:34Z</time>
      </trkpt>
      <trkpt lat="46.53201" lon="0.33009">
        <ele>144.2</ele>
        <time>2021-04-25T13:50:38Z</time>
      </trkpt>
      <trkpt lat="46.53204" lon="0.33006">
        <ele>144.2</ele>
        <time>2021-04-25T13:50:39Z</time>
      </trkpt>
      <trkpt lat="46.53209" lon="0.33">
        <ele>144.4</ele>
        <time>2021-04-25T13:50:41Z</time>
      </trkpt>
      <trkpt lat="46.53214" lon="0.32999">
        <ele>145.2</ele>
        <time>2021-04-25T13:50:43Z</time>
      </trkpt>
      <trkpt lat="46.53216" lon="0.33001">
        <ele>145</ele>
        <time>2021-04-25T13:50:44Z</time>
      </trkpt>
      <trkpt lat="46.53218" lon="0.33003">
        <ele>144.8</ele>
        <time>2021-04-25T13:50:45Z</time>
      </trkpt>
      <trkpt lat="46.53224" lon="0.33009">
        <ele>144.6</ele>
        <time>2021-04-25T13:50:47Z</time>
      </trkpt>
      <trkpt lat="46.53231" lon="0.33012">
        <ele>144</ele>
        <time>2021-04-25T13:50:49Z</time>
      </trkpt>
      <trkpt lat="46.53244" lon="0.33011">
        <ele>144.2</ele>
        <time>2021-04-25T13:50:52Z</time>
      </trkpt>
      <trkpt lat="46.53248" lon="0.3301">
        <ele>144.2</ele>
        <time>2021-04-25T13:50:53Z</time>
      </trkpt>
      <trkpt lat="46.53252" lon="0.33008">
        <ele>144.4</ele>
        <time>2021-04-25T13:50:54Z</time>
      </trkpt>
      <trkpt lat="46.53262" lon="0.33003">
        <ele>144.8</ele>
        <time>2021-04-25T13:50:56Z</time>
      </trkpt>
      <trkpt lat="46.53267" lon="0.33002">
        <ele>144.8</ele>
        <time>2021-04-25T13:50:57Z</time>
      </trkpt>
      <trkpt lat="46.53271" lon="0.32999">
        <ele>144.8</ele>
        <time>2021-04-25T13:50:58Z</time>
      </trkpt>
      <trkpt lat="46.53275" lon="0.32995">
        <ele>144.8</ele>
        <time>2021-04-25T13:50:59Z</time>
      </trkpt>
      <trkpt lat="46.53278" lon="0.3299">
        <ele>144.8</ele>
        <time>2021-04-25T13:51:00Z</time>
      </trkpt>
      <trkpt lat="46.53285" lon="0.32986">
        <ele>144.8</ele>
        <time>2021-04-25T13:51:01Z</time>
      </trkpt>
      <trkpt lat="46.53309" lon="0.32961">
        <ele>144.8</ele>
        <time>2021-04-25T13:51:07Z</time>
      </trkpt>
      <trkpt lat="46.53315" lon="0.32955">
        <ele>144.8</ele>
        <time>2021-04-25T13:51:09Z</time>
      </trkpt>
      <trkpt lat="46.53321" lon="0.32953">
        <ele>144.6</ele>
        <time>2021-04-25T13:51:11Z</time>
      </trkpt>
      <trkpt lat="46.53323" lon="0.32953">
        <ele>144.4</ele>
        <time>2021-04-25T13:51:12Z</time>
      </trkpt>
      <trkpt lat="46.53329" lon="0.32955">
        <ele>144.4</ele>
        <time>2021-04-25T13:51:14Z</time>
      </trkpt>
      <trkpt lat="46.53331" lon="0.32958">
        <ele>144.4</ele>
        <time>2021-04-25T13:51:15Z</time>
      </trkpt>
      <trkpt lat="46.53333" lon="0.32965">
        <ele>144.4</ele>
        <time>2021-04-25T13:51:17Z</time>
      </trkpt>
      <trkpt lat="46.53335" lon="0.32968">
        <ele>144.6</ele>
        <time>2021-04-25T13:51:18Z</time>
      </trkpt>
      <trkpt lat="46.53341" lon="0.32982">
        <ele>144.6</ele>
        <time>2021-04-25T13:51:21Z</time>
      </trkpt>
      <trkpt lat="46.53343" lon="0.32993">
        <ele>144.2</ele>
        <time>2021-04-25T13:51:23Z</time>
      </trkpt>
      <trkpt lat="46.53345" lon="0.32998">
        <ele>143</ele>
        <time>2021-04-25T13:51:24Z</time>
      </trkpt>
      <trkpt lat="46.53346" lon="0.33002">
        <ele>142.4</ele>
        <time>2021-04-25T13:51:25Z</time>
      </trkpt>
      <trkpt lat="46.53347" lon="0.33007">
        <ele>141.8</ele>
        <time>2021-04-25T13:51:26Z</time>
      </trkpt>
      <trkpt lat="46.53349" lon="0.33017">
        <ele>140.8</ele>
        <time>2021-04-25T13:51:28Z</time>
      </trkpt>
      <trkpt lat="46.53349" lon="0.33023">
        <ele>140.4</ele>
        <time>2021-04-25T13:51:29Z</time>
      </trkpt>
      <trkpt lat="46.53351" lon="0.33033">
        <ele>140</ele>
        <time>2021-04-25T13:51:31Z</time>
      </trkpt>
      <trkpt lat="46.53353" lon="0.33036">
        <ele>139.4</ele>
        <time>2021-04-25T13:51:32Z</time>
      </trkpt>
      <trkpt lat="46.53354" lon="0.33038">
        <ele>139</ele>
        <time>2021-04-25T13:51:33Z</time>
      </trkpt>
      <trkpt lat="46.53357" lon="0.33038">
        <ele>137.8</ele>
        <time>2021-04-25T13:51:34Z</time>
      </trkpt>
      <trkpt lat="46.53361" lon="0.33039">
        <ele>137.2</ele>
        <time>2021-04-25T13:51:35Z</time>
      </trkpt>
      <trkpt lat="46.53367" lon="0.33042">
        <ele>136.6</ele>
        <time>2021-04-25T13:51:37Z</time>
      </trkpt>
      <trkpt lat="46.53372" lon="0.33044">
        <ele>136.2</ele>
        <time>2021-04-25T13:51:39Z</time>
      </trkpt>
      <trkpt lat="46.53378" lon="0.3305">
        <ele>135.6</ele>
        <time>2021-04-25T13:51:41Z</time>
      </trkpt>
      <trkpt lat="46.53379" lon="0.33053">
        <ele>135.2</ele>
        <time>2021-04-25T13:51:42Z</time>
      </trkpt>
      <trkpt lat="46.5338" lon="0.33056">
        <ele>134.8</ele>
        <time>2021-04-25T13:51:43Z</time>
      </trkpt>
      <trkpt lat="46.53384" lon="0.33068">
        <ele>134.2</ele>
        <time>2021-04-25T13:51:46Z</time>
      </trkpt>
      <trkpt lat="46.53385" lon="0.33078">
        <ele>134</ele>
        <time>2021-04-25T13:51:48Z</time>
      </trkpt>
      <trkpt lat="46.5339" lon="0.33088">
        <ele>134</ele>
        <time>2021-04-25T13:51:51Z</time>
      </trkpt>
      <trkpt lat="46.53392" lon="0.33091">
        <ele>134.4</ele>
        <time>2021-04-25T13:51:52Z</time>
      </trkpt>
      <trkpt lat="46.53402" lon="0.33107">
        <ele>134.6</ele>
        <time>2021-04-25T13:51:55Z</time>
      </trkpt>
      <trkpt lat="46.53404" lon="0.33112">
        <ele>135</ele>
        <time>2021-04-25T13:51:56Z</time>
      </trkpt>
      <trkpt lat="46.53407" lon="0.33118">
        <ele>135.4</ele>
        <time>2021-04-25T13:51:57Z</time>
      </trkpt>
      <trkpt lat="46.53419" lon="0.3314">
        <ele>136</ele>
        <time>2021-04-25T13:52:01Z</time>
      </trkpt>
      <trkpt lat="46.53427" lon="0.3314">
        <ele>136.2</ele>
        <time>2021-04-25T13:52:04Z</time>
      </trkpt>
      <trkpt lat="46.53432" lon="0.3314">
        <ele>136.4</ele>
        <time>2021-04-25T13:52:06Z</time>
      </trkpt>
      <trkpt lat="46.53434" lon="0.33138">
        <ele>136.6</ele>
        <time>2021-04-25T13:52:07Z</time>
      </trkpt>
      <trkpt lat="46.53439" lon="0.33134">
        <ele>136.8</ele>
        <time>2021-04-25T13:52:09Z</time>
      </trkpt>
      <trkpt lat="46.53457" lon="0.33121">
        <ele>137.4</ele>
        <time>2021-04-25T13:52:15Z</time>
      </trkpt>
      <trkpt lat="46.53465" lon="0.33117">
        <ele>137.6</ele>
        <time>2021-04-25T13:52:17Z</time>
      </trkpt>
      <trkpt lat="46.53482" lon="0.33099">
        <ele>137.8</ele>
        <time>2021-04-25T13:52:22Z</time>
      </trkpt>
      <trkpt lat="46.53498" lon="0.33081">
        <ele>138.6</ele>
        <time>2021-04-25T13:52:28Z</time>
      </trkpt>
      <trkpt lat="46.535" lon="0.33077">
        <ele>138.6</ele>
        <time>2021-04-25T13:52:29Z</time>
      </trkpt>
      <trkpt lat="46.53506" lon="0.33062">
        <ele>139.8</ele>
        <time>2021-04-25T13:52:32Z</time>
      </trkpt>
      <trkpt lat="46.53507" lon="0.33056">
        <ele>140</ele>
        <time>2021-04-25T13:52:33Z</time>
      </trkpt>
      <trkpt lat="46.5351" lon="0.33045">
        <ele>140.2</ele>
        <time>2021-04-25T13:52:35Z</time>
      </trkpt>
      <trkpt lat="46.53518" lon="0.33028">
        <ele>140.8</ele>
        <time>2021-04-25T13:52:39Z</time>
      </trkpt>
      <trkpt lat="46.53524" lon="0.33008">
        <ele>142</ele>
        <time>2021-04-25T13:52:44Z</time>
      </trkpt>
      <trkpt lat="46.53532" lon="0.32988">
        <ele>142.4</ele>
        <time>2021-04-25T13:52:48Z</time>
      </trkpt>
      <trkpt lat="46.53536" lon="0.32978">
        <ele>142.6</ele>
        <time>2021-04-25T13:52:50Z</time>
      </trkpt>
      <trkpt lat="46.53541" lon="0.32964">
        <ele>143</ele>
        <time>2021-04-25T13:52:53Z</time>
      </trkpt>
      <trkpt lat="46.53542" lon="0.32944">
        <ele>143.2</ele>
        <time>2021-04-25T13:52:56Z</time>
      </trkpt>
      <trkpt lat="46.53549" lon="0.32896">
        <ele>143.2</ele>
        <time>2021-04-25T13:53:05Z</time>
      </trkpt>
      <trkpt lat="46.53551" lon="0.32885">
        <ele>143</ele>
        <time>2021-04-25T13:53:09Z</time>
      </trkpt>
      <trkpt lat="46.53551" lon="0.32883">
        <ele>143</ele>
        <time>2021-04-25T13:53:10Z</time>
      </trkpt>
      <trkpt lat="46.53548" lon="0.3288">
        <ele>143</ele>
        <time>2021-04-25T13:53:13Z</time>
      </trkpt>
      <trkpt lat="46.53548" lon="0.32879">
        <ele>143</ele>
        <time>2021-04-25T13:53:14Z</time>
      </trkpt>
      <trkpt lat="46.53547" lon="0.32877">
        <ele>143</ele>
        <time>2021-04-25T13:53:17Z</time>
      </trkpt>
      <trkpt lat="46.53548" lon="0.32878">
        <ele>143</ele>
        <time>2021-04-25T13:53:19Z</time>
      </trkpt>
      <trkpt lat="46.53548" lon="0.32884">
        <ele>143</ele>
        <time>2021-04-25T13:53:24Z</time>
      </trkpt>
      <trkpt lat="46.53549" lon="0.32903">
        <ele>143.2</ele>
        <time>2021-04-25T13:53:30Z</time>
      </trkpt>
      <trkpt lat="46.53549" lon="0.3292">
        <ele>143.8</ele>
        <time>2021-04-25T13:53:34Z</time>
      </trkpt>
      <trkpt lat="46.53548" lon="0.32929">
        <ele>143.8</ele>
        <time>2021-04-25T13:53:36Z</time>
      </trkpt>
      <trkpt lat="46.53546" lon="0.32943">
        <ele>143.6</ele>
        <time>2021-04-25T13:53:39Z</time>
      </trkpt>
      <trkpt lat="46.53543" lon="0.32952">
        <ele>143.6</ele>
        <time>2021-04-25T13:53:41Z</time>
      </trkpt>
      <trkpt lat="46.53536" lon="0.32963">
        <ele>143</ele>
        <time>2021-04-25T13:53:44Z</time>
      </trkpt>
      <trkpt lat="46.53532" lon="0.32974">
        <ele>142.6</ele>
        <time>2021-04-25T13:53:46Z</time>
      </trkpt>
      <trkpt lat="46.53524" lon="0.33012">
        <ele>142</ele>
        <time>2021-04-25T13:53:51Z</time>
      </trkpt>
      <trkpt lat="46.53522" lon="0.33021">
        <ele>142</ele>
        <time>2021-04-25T13:53:52Z</time>
      </trkpt>
      <trkpt lat="46.53514" lon="0.33055">
        <ele>140.8</ele>
        <time>2021-04-25T13:53:56Z</time>
      </trkpt>
      <trkpt lat="46.53511" lon="0.33069">
        <ele>139.6</ele>
        <time>2021-04-25T13:53:58Z</time>
      </trkpt>
      <trkpt lat="46.53506" lon="0.33088">
        <ele>139</ele>
        <time>2021-04-25T13:54:01Z</time>
      </trkpt>
      <trkpt lat="46.53502" lon="0.33098">
        <ele>138.4</ele>
        <time>2021-04-25T13:54:03Z</time>
      </trkpt>
      <trkpt lat="46.53497" lon="0.33109">
        <ele>138.2</ele>
        <time>2021-04-25T13:54:06Z</time>
      </trkpt>
      <trkpt lat="46.53497" lon="0.33113">
        <ele>138</ele>
        <time>2021-04-25T13:54:08Z</time>
      </trkpt>
      <trkpt lat="46.53499" lon="0.33115">
        <ele>138.2</ele>
        <time>2021-04-25T13:54:10Z</time>
      </trkpt>
      <trkpt lat="46.53504" lon="0.33117">
        <ele>138.2</ele>
        <time>2021-04-25T13:54:12Z</time>
      </trkpt>
      <trkpt lat="46.53511" lon="0.33117">
        <ele>138.4</ele>
        <time>2021-04-25T13:54:14Z</time>
      </trkpt>
      <trkpt lat="46.53514" lon="0.33117">
        <ele>138.4</ele>
        <time>2021-04-25T13:54:15Z</time>
      </trkpt>
      <trkpt lat="46.53517" lon="0.33117">
        <ele>138.4</ele>
        <time>2021-04-25T13:54:16Z</time>
      </trkpt>
      <trkpt lat="46.53534" lon="0.33118">
        <ele>139.2</ele>
        <time>2021-04-25T13:54:21Z</time>
      </trkpt>
      <trkpt lat="46.5356" lon="0.33118">
        <ele>138.2</ele>
        <time>2021-04-25T13:54:27Z</time>
      </trkpt>
      <trkpt lat="46.53567" lon="0.33117">
        <ele>138.4</ele>
        <time>2021-04-25T13:54:29Z</time>
      </trkpt>
      <trkpt lat="46.53577" lon="0.33119">
        <ele>137.6</ele>
        <time>2021-04-25T13:54:32Z</time>
      </trkpt>
      <trkpt lat="46.53579" lon="0.33119">
        <ele>137.4</ele>
        <time>2021-04-25T13:54:33Z</time>
      </trkpt>
      <trkpt lat="46.53597" lon="0.33126">
        <ele>136.8</ele>
        <time>2021-04-25T13:54:39Z</time>
      </trkpt>
      <trkpt lat="46.53608" lon="0.33126">
        <ele>136.8</ele>
        <time>2021-04-25T13:54:52Z</time>
      </trkpt>
      <trkpt lat="46.53608" lon="0.33123">
        <ele>137.2</ele>
        <time>2021-04-25T13:54:54Z</time>
      </trkpt>
      <trkpt lat="46.53614" lon="0.33109">
        <ele>137.8</ele>
        <time>2021-04-25T13:55:00Z</time>
      </trkpt>
      <trkpt lat="46.53618" lon="0.33098">
        <ele>138.6</ele>
        <time>2021-04-25T13:55:03Z</time>
      </trkpt>
      <trkpt lat="46.53621" lon="0.33087">
        <ele>139.4</ele>
        <time>2021-04-25T13:55:06Z</time>
      </trkpt>
      <trkpt lat="46.53622" lon="0.33078">
        <ele>139.8</ele>
        <time>2021-04-25T13:55:08Z</time>
      </trkpt>
      <trkpt lat="46.53624" lon="0.33069">
        <ele>140.8</ele>
        <time>2021-04-25T13:55:10Z</time>
      </trkpt>
      <trkpt lat="46.53625" lon="0.33063">
        <ele>141</ele>
        <time>2021-04-25T13:55:11Z</time>
      </trkpt>
      <trkpt lat="46.53627" lon="0.33057">
        <ele>141.2</ele>
        <time>2021-04-25T13:55:12Z</time>
      </trkpt>
      <trkpt lat="46.53631" lon="0.33048">
        <ele>141.4</ele>
        <time>2021-04-25T13:55:14Z</time>
      </trkpt>
      <trkpt lat="46.53635" lon="0.33031">
        <ele>142</ele>
        <time>2021-04-25T13:55:17Z</time>
      </trkpt>
      <trkpt lat="46.53636" lon="0.33026">
        <ele>142</ele>
        <time>2021-04-25T13:55:18Z</time>
      </trkpt>
      <trkpt lat="46.53641" lon="0.33003">
        <ele>142.8</ele>
        <time>2021-04-25T13:55:22Z</time>
      </trkpt>
      <trkpt lat="46.53643" lon="0.32992">
        <ele>142.8</ele>
        <time>2021-04-25T13:55:24Z</time>
      </trkpt>
      <trkpt lat="46.53644" lon="0.32986">
        <ele>143</ele>
        <time>2021-04-25T13:55:25Z</time>
      </trkpt>
      <trkpt lat="46.53648" lon="0.3295">
        <ele>142.8</ele>
        <time>2021-04-25T13:55:31Z</time>
      </trkpt>
      <trkpt lat="46.53649" lon="0.32945">
        <ele>142.8</ele>
        <time>2021-04-25T13:55:32Z</time>
      </trkpt>
      <trkpt lat="46.53652" lon="0.32939">
        <ele>142.6</ele>
        <time>2021-04-25T13:55:34Z</time>
      </trkpt>
      <trkpt lat="46.53654" lon="0.32935">
        <ele>142.6</ele>
        <time>2021-04-25T13:55:35Z</time>
      </trkpt>
      <trkpt lat="46.5366" lon="0.32931">
        <ele>142.4</ele>
        <time>2021-04-25T13:55:38Z</time>
      </trkpt>
      <trkpt lat="46.53663" lon="0.3293">
        <ele>142.2</ele>
        <time>2021-04-25T13:55:39Z</time>
      </trkpt>
      <trkpt lat="46.53673" lon="0.32925">
        <ele>142</ele>
        <time>2021-04-25T13:55:42Z</time>
      </trkpt>
      <trkpt lat="46.53676" lon="0.32923">
        <ele>141.8</ele>
        <time>2021-04-25T13:55:43Z</time>
      </trkpt>
      <trkpt lat="46.53682" lon="0.32921">
        <ele>141.6</ele>
        <time>2021-04-25T13:55:45Z</time>
      </trkpt>
      <trkpt lat="46.53685" lon="0.3292">
        <ele>141.4</ele>
        <time>2021-04-25T13:55:46Z</time>
      </trkpt>
      <trkpt lat="46.53689" lon="0.32918">
        <ele>141.2</ele>
        <time>2021-04-25T13:55:48Z</time>
      </trkpt>
      <trkpt lat="46.53692" lon="0.32918">
        <ele>141</ele>
        <time>2021-04-25T13:55:49Z</time>
      </trkpt>
      <trkpt lat="46.53696" lon="0.32919">
        <ele>140.8</ele>
        <time>2021-04-25T13:55:50Z</time>
      </trkpt>
      <trkpt lat="46.53699" lon="0.3292">
        <ele>140.8</ele>
        <time>2021-04-25T13:55:51Z</time>
      </trkpt>
      <trkpt lat="46.5371" lon="0.32923">
        <ele>140.6</ele>
        <time>2021-04-25T13:55:54Z</time>
      </trkpt>
      <trkpt lat="46.53719" lon="0.32928">
        <ele>140.4</ele>
        <time>2021-04-25T13:55:57Z</time>
      </trkpt>
      <trkpt lat="46.53725" lon="0.32929">
        <ele>140</ele>
        <time>2021-04-25T13:55:59Z</time>
      </trkpt>
      <trkpt lat="46.53731" lon="0.32929">
        <ele>139.8</ele>
        <time>2021-04-25T13:56:00Z</time>
      </trkpt>
      <trkpt lat="46.53746" lon="0.32931">
        <ele>139.2</ele>
        <time>2021-04-25T13:56:03Z</time>
      </trkpt>
      <trkpt lat="46.53751" lon="0.32932">
        <ele>138.6</ele>
        <time>2021-04-25T13:56:04Z</time>
      </trkpt>
      <trkpt lat="46.53757" lon="0.32934">
        <ele>138.4</ele>
        <time>2021-04-25T13:56:05Z</time>
      </trkpt>
      <trkpt lat="46.53768" lon="0.32938">
        <ele>137.2</ele>
        <time>2021-04-25T13:56:07Z</time>
      </trkpt>
      <trkpt lat="46.53781" lon="0.3294">
        <ele>135.6</ele>
        <time>2021-04-25T13:56:10Z</time>
      </trkpt>
      <trkpt lat="46.53787" lon="0.32944">
        <ele>134.2</ele>
        <time>2021-04-25T13:56:12Z</time>
      </trkpt>
      <trkpt lat="46.53792" lon="0.32948">
        <ele>133</ele>
        <time>2021-04-25T13:56:14Z</time>
      </trkpt>
      <trkpt lat="46.53797" lon="0.32951">
        <ele>131.8</ele>
        <time>2021-04-25T13:56:17Z</time>
      </trkpt>
      <trkpt lat="46.538" lon="0.32952">
        <ele>131.4</ele>
        <time>2021-04-25T13:56:19Z</time>
      </trkpt>
      <trkpt lat="46.53806" lon="0.32953">
        <ele>131.6</ele>
        <time>2021-04-25T13:56:33Z</time>
      </trkpt>
      <trkpt lat="46.53807" lon="0.3296">
        <ele>131.2</ele>
        <time>2021-04-25T13:56:40Z</time>
      </trkpt>
      <trkpt lat="46.53806" lon="0.32964">
        <ele>130.6</ele>
        <time>2021-04-25T13:56:42Z</time>
      </trkpt>
      <trkpt lat="46.53806" lon="0.32967">
        <ele>130.4</ele>
        <time>2021-04-25T13:56:43Z</time>
      </trkpt>
      <trkpt lat="46.53811" lon="0.3298">
        <ele>129.2</ele>
        <time>2021-04-25T13:56:47Z</time>
      </trkpt>
      <trkpt lat="46.53811" lon="0.32987">
        <ele>128.2</ele>
        <time>2021-04-25T13:56:49Z</time>
      </trkpt>
      <trkpt lat="46.53811" lon="0.32991">
        <ele>127.8</ele>
        <time>2021-04-25T13:56:50Z</time>
      </trkpt>
      <trkpt lat="46.5381" lon="0.32996">
        <ele>127.6</ele>
        <time>2021-04-25T13:56:51Z</time>
      </trkpt>
      <trkpt lat="46.53807" lon="0.33009">
        <ele>127.2</ele>
        <time>2021-04-25T13:56:54Z</time>
      </trkpt>
      <trkpt lat="46.53804" lon="0.33028">
        <ele>127.8</ele>
        <time>2021-04-25T13:56:58Z</time>
      </trkpt>
      <trkpt lat="46.53803" lon="0.33033">
        <ele>127.8</ele>
        <time>2021-04-25T13:56:59Z</time>
      </trkpt>
      <trkpt lat="46.53801" lon="0.33044">
        <ele>129.2</ele>
        <time>2021-04-25T13:57:01Z</time>
      </trkpt>
      <trkpt lat="46.53798" lon="0.33053">
        <ele>129.6</ele>
        <time>2021-04-25T13:57:03Z</time>
      </trkpt>
      <trkpt lat="46.53795" lon="0.33063">
        <ele>130</ele>
        <time>2021-04-25T13:57:05Z</time>
      </trkpt>
      <trkpt lat="46.53791" lon="0.33075">
        <ele>130</ele>
        <time>2021-04-25T13:57:07Z</time>
      </trkpt>
      <trkpt lat="46.5378" lon="0.331">
        <ele>130</ele>
        <time>2021-04-25T13:57:11Z</time>
      </trkpt>
      <trkpt lat="46.53777" lon="0.33107">
        <ele>130</ele>
        <time>2021-04-25T13:57:12Z</time>
      </trkpt>
      <trkpt lat="46.5377" lon="0.3312">
        <ele>130</ele>
        <time>2021-04-25T13:57:15Z</time>
      </trkpt>
      <trkpt lat="46.5375" lon="0.33156">
        <ele>129.6</ele>
        <time>2021-04-25T13:57:23Z</time>
      </trkpt>
      <trkpt lat="46.53734" lon="0.33182">
        <ele>130</ele>
        <time>2021-04-25T13:57:30Z</time>
      </trkpt>
      <trkpt lat="46.53734" lon="0.33185">
        <ele>130</ele>
        <time>2021-04-25T13:57:31Z</time>
      </trkpt>
      <trkpt lat="46.53735" lon="0.33186">
        <ele>130.2</ele>
        <time>2021-04-25T13:57:32Z</time>
      </trkpt>
      <trkpt lat="46.53737" lon="0.3319">
        <ele>130.2</ele>
        <time>2021-04-25T13:57:34Z</time>
      </trkpt>
      <trkpt lat="46.5374" lon="0.33195">
        <ele>130.6</ele>
        <time>2021-04-25T13:57:36Z</time>
      </trkpt>
      <trkpt lat="46.53743" lon="0.33204">
        <ele>130.4</ele>
        <time>2021-04-25T13:57:39Z</time>
      </trkpt>
      <trkpt lat="46.53745" lon="0.33206">
        <ele>130.2</ele>
        <time>2021-04-25T13:57:40Z</time>
      </trkpt>
      <trkpt lat="46.5375" lon="0.33207">
        <ele>130</ele>
        <time>2021-04-25T13:57:42Z</time>
      </trkpt>
      <trkpt lat="46.53751" lon="0.33208">
        <ele>128.6</ele>
        <time>2021-04-25T13:57:43Z</time>
      </trkpt>
      <trkpt lat="46.53754" lon="0.33213">
        <ele>127.4</ele>
        <time>2021-04-25T13:57:45Z</time>
      </trkpt>
      <trkpt lat="46.53755" lon="0.33216">
        <ele>127.2</ele>
        <time>2021-04-25T13:57:46Z</time>
      </trkpt>
      <trkpt lat="46.53757" lon="0.33229">
        <ele>126.8</ele>
        <time>2021-04-25T13:57:49Z</time>
      </trkpt>
      <trkpt lat="46.53759" lon="0.33237">
        <ele>126.2</ele>
        <time>2021-04-25T13:57:51Z</time>
      </trkpt>
      <trkpt lat="46.53762" lon="0.33246">
        <ele>125.4</ele>
        <time>2021-04-25T13:57:54Z</time>
      </trkpt>
      <trkpt lat="46.53763" lon="0.33246">
        <ele>125.2</ele>
        <time>2021-04-25T13:57:55Z</time>
      </trkpt>
      <trkpt lat="46.53766" lon="0.33246">
        <ele>123.4</ele>
        <time>2021-04-25T13:57:57Z</time>
      </trkpt>
      <trkpt lat="46.53767" lon="0.33246">
        <ele>122.4</ele>
        <time>2021-04-25T13:57:59Z</time>
      </trkpt>
      <trkpt lat="46.53767" lon="0.33247">
        <ele>122.2</ele>
        <time>2021-04-25T13:58:00Z</time>
      </trkpt>
      <trkpt lat="46.53767" lon="0.33248">
        <ele>122</ele>
        <time>2021-04-25T13:58:01Z</time>
      </trkpt>
      <trkpt lat="46.53768" lon="0.33252">
        <ele>121</ele>
        <time>2021-04-25T13:58:03Z</time>
      </trkpt>
      <trkpt lat="46.53771" lon="0.33258">
        <ele>120.2</ele>
        <time>2021-04-25T13:58:06Z</time>
      </trkpt>
      <trkpt lat="46.53772" lon="0.3326">
        <ele>119</ele>
        <time>2021-04-25T13:58:07Z</time>
      </trkpt>
      <trkpt lat="46.53773" lon="0.33264">
        <ele>117.8</ele>
        <time>2021-04-25T13:58:09Z</time>
      </trkpt>
      <trkpt lat="46.53774" lon="0.33271">
        <ele>116.8</ele>
        <time>2021-04-25T13:58:12Z</time>
      </trkpt>
      <trkpt lat="46.53777" lon="0.33274">
        <ele>115.6</ele>
        <time>2021-04-25T13:58:16Z</time>
      </trkpt>
      <trkpt lat="46.53779" lon="0.33273">
        <ele>115.2</ele>
        <time>2021-04-25T13:58:18Z</time>
      </trkpt>
      <trkpt lat="46.53781" lon="0.33275">
        <ele>114.4</ele>
        <time>2021-04-25T13:58:20Z</time>
      </trkpt>
      <trkpt lat="46.53783" lon="0.33277">
        <ele>113</ele>
        <time>2021-04-25T13:58:23Z</time>
      </trkpt>
      <trkpt lat="46.53784" lon="0.33277">
        <ele>112.6</ele>
        <time>2021-04-25T13:58:24Z</time>
      </trkpt>
      <trkpt lat="46.53786" lon="0.33275">
        <ele>111.8</ele>
        <time>2021-04-25T13:58:26Z</time>
      </trkpt>
      <trkpt lat="46.53797" lon="0.33273">
        <ele>110.4</ele>
        <time>2021-04-25T13:58:30Z</time>
      </trkpt>
      <trkpt lat="46.53802" lon="0.33272">
        <ele>109.2</ele>
        <time>2021-04-25T13:58:31Z</time>
      </trkpt>
      <trkpt lat="46.53805" lon="0.3327">
        <ele>107.6</ele>
        <time>2021-04-25T13:58:32Z</time>
      </trkpt>
      <trkpt lat="46.53809" lon="0.33267">
        <ele>106.2</ele>
        <time>2021-04-25T13:58:33Z</time>
      </trkpt>
      <trkpt lat="46.53813" lon="0.33264">
        <ele>105.4</ele>
        <time>2021-04-25T13:58:34Z</time>
      </trkpt>
      <trkpt lat="46.53813" lon="0.33264">
        <ele>105</ele>
        <time>2021-04-25T13:58:35Z</time>
      </trkpt>
      <trkpt lat="46.53822" lon="0.33255">
        <ele>103.8</ele>
        <time>2021-04-25T13:58:37Z</time>
      </trkpt>
      <trkpt lat="46.53827" lon="0.33251">
        <ele>102.8</ele>
        <time>2021-04-25T13:58:39Z</time>
      </trkpt>
      <trkpt lat="46.53829" lon="0.33249">
        <ele>102.6</ele>
        <time>2021-04-25T13:58:40Z</time>
      </trkpt>
      <trkpt lat="46.53838" lon="0.33241">
        <ele>102</ele>
        <time>2021-04-25T13:58:45Z</time>
      </trkpt>
      <trkpt lat="46.53839" lon="0.33239">
        <ele>102</ele>
        <time>2021-04-25T13:58:46Z</time>
      </trkpt>
      <trkpt lat="46.53841" lon="0.33234">
        <ele>101.6</ele>
        <time>2021-04-25T13:58:49Z</time>
      </trkpt>
      <trkpt lat="46.53844" lon="0.33228">
        <ele>101.4</ele>
        <time>2021-04-25T13:58:52Z</time>
      </trkpt>
      <trkpt lat="46.53845" lon="0.33223">
        <ele>101.2</ele>
        <time>2021-04-25T13:58:55Z</time>
      </trkpt>
      <trkpt lat="46.53846" lon="0.33221">
        <ele>101</ele>
        <time>2021-04-25T13:58:58Z</time>
      </trkpt>
      <trkpt lat="46.53845" lon="0.33223">
        <ele>101.2</ele>
        <time>2021-04-25T13:59:02Z</time>
      </trkpt>
      <trkpt lat="46.53845" lon="0.33225">
        <ele>101.4</ele>
        <time>2021-04-25T13:59:04Z</time>
      </trkpt>
      <trkpt lat="46.53846" lon="0.33227">
        <ele>101.4</ele>
        <time>2021-04-25T13:59:07Z</time>
      </trkpt>
      <trkpt lat="46.53846" lon="0.3323">
        <ele>101.8</ele>
        <time>2021-04-25T13:59:11Z</time>
      </trkpt>
      <trkpt lat="46.53846" lon="0.33232">
        <ele>102.2</ele>
        <time>2021-04-25T13:59:19Z</time>
      </trkpt>
      <trkpt lat="46.53846" lon="0.33232">
        <ele>102.6</ele>
        <time>2021-04-25T13:59:28Z</time>
      </trkpt>
      <trkpt lat="46.53846" lon="0.33232">
        <ele>102.6</ele>
        <time>2021-04-25T13:59:34Z</time>
      </trkpt>
      <trkpt lat="46.53846" lon="0.33232">
        <ele>102.6</ele>
        <time>2021-04-25T13:59:39Z</time>
      </trkpt>
      <trkpt lat="46.53846" lon="0.33234">
        <ele>102.8</ele>
        <time>2021-04-25T13:59:45Z</time>
      </trkpt>
      <trkpt lat="46.53847" lon="0.33232">
        <ele>102.8</ele>
        <time>2021-04-25T13:59:48Z</time>
      </trkpt>
      <trkpt lat="46.53847" lon="0.33232">
        <ele>102.8</ele>
        <time>2021-04-25T13:59:49Z</time>
      </trkpt>
      <trkpt lat="46.53847" lon="0.33233">
        <ele>103</ele>
        <time>2021-04-25T13:59:51Z</time>
      </trkpt>
      <trkpt lat="46.53845" lon="0.33232">
        <ele>103.2</ele>
        <time>2021-04-25T13:59:56Z</time>
      </trkpt>
      <trkpt lat="46.53844" lon="0.3323">
        <ele>103.6</ele>
        <time>2021-04-25T13:59:59Z</time>
      </trkpt>
      <trkpt lat="46.53843" lon="0.33229">
        <ele>103.6</ele>
        <time>2021-04-25T14:00:00Z</time>
      </trkpt>
      <trkpt lat="46.53843" lon="0.33228">
        <ele>104</ele>
        <time>2021-04-25T14:00:01Z</time>
      </trkpt>
      <trkpt lat="46.53841" lon="0.33228">
        <ele>104.6</ele>
        <time>2021-04-25T14:00:03Z</time>
      </trkpt>
      <trkpt lat="46.53839" lon="0.33226">
        <ele>106</ele>
        <time>2021-04-25T14:00:06Z</time>
      </trkpt>
      <trkpt lat="46.53836" lon="0.33224">
        <ele>107</ele>
        <time>2021-04-25T14:00:09Z</time>
      </trkpt>
      <trkpt lat="46.53835" lon="0.33223">
        <ele>107.4</ele>
        <time>2021-04-25T14:00:10Z</time>
      </trkpt>
      <trkpt lat="46.53832" lon="0.33221">
        <ele>108.4</ele>
        <time>2021-04-25T14:00:12Z</time>
      </trkpt>
      <trkpt lat="46.5383" lon="0.3322">
        <ele>109</ele>
        <time>2021-04-25T14:00:13Z</time>
      </trkpt>
      <trkpt lat="46.53827" lon="0.3322">
        <ele>109.4</ele>
        <time>2021-04-25T14:00:14Z</time>
      </trkpt>
      <trkpt lat="46.53823" lon="0.33219">
        <ele>110.6</ele>
        <time>2021-04-25T14:00:16Z</time>
      </trkpt>
      <trkpt lat="46.53813" lon="0.33215">
        <ele>111.8</ele>
        <time>2021-04-25T14:00:20Z</time>
      </trkpt>
      <trkpt lat="46.53804" lon="0.33211">
        <ele>113.4</ele>
        <time>2021-04-25T14:00:24Z</time>
      </trkpt>
      <trkpt lat="46.53799" lon="0.33209">
        <ele>114.6</ele>
        <time>2021-04-25T14:00:27Z</time>
      </trkpt>
      <trkpt lat="46.53794" lon="0.33207">
        <ele>115.6</ele>
        <time>2021-04-25T14:00:30Z</time>
      </trkpt>
      <trkpt lat="46.53789" lon="0.33206">
        <ele>116.8</ele>
        <time>2021-04-25T14:00:34Z</time>
      </trkpt>
      <trkpt lat="46.53784" lon="0.33204">
        <ele>118</ele>
        <time>2021-04-25T14:00:38Z</time>
      </trkpt>
      <trkpt lat="46.53782" lon="0.33204">
        <ele>119.2</ele>
        <time>2021-04-25T14:00:40Z</time>
      </trkpt>
      <trkpt lat="46.53782" lon="0.33203">
        <ele>119.6</ele>
        <time>2021-04-25T14:00:41Z</time>
      </trkpt>
      <trkpt lat="46.5378" lon="0.33202">
        <ele>120.2</ele>
        <time>2021-04-25T14:00:43Z</time>
      </trkpt>
      <trkpt lat="46.5378" lon="0.33201">
        <ele>120.4</ele>
        <time>2021-04-25T14:00:44Z</time>
      </trkpt>
      <trkpt lat="46.53777" lon="0.33196">
        <ele>121.4</ele>
        <time>2021-04-25T14:00:50Z</time>
      </trkpt>
      <trkpt lat="46.53775" lon="0.33195">
        <ele>122.2</ele>
        <time>2021-04-25T14:00:53Z</time>
      </trkpt>
      <trkpt lat="46.53773" lon="0.33193">
        <ele>122.6</ele>
        <time>2021-04-25T14:00:56Z</time>
      </trkpt>
      <trkpt lat="46.53769" lon="0.33195">
        <ele>123.6</ele>
        <time>2021-04-25T14:01:01Z</time>
      </trkpt>
      <trkpt lat="46.53768" lon="0.33196">
        <ele>124</ele>
        <time>2021-04-25T14:01:02Z</time>
      </trkpt>
      <trkpt lat="46.53766" lon="0.33197">
        <ele>124.4</ele>
        <time>2021-04-25T14:01:04Z</time>
      </trkpt>
      <trkpt lat="46.53765" lon="0.33197">
        <ele>124.6</ele>
        <time>2021-04-25T14:01:05Z</time>
      </trkpt>
      <trkpt lat="46.53764" lon="0.33197">
        <ele>124.8</ele>
        <time>2021-04-25T14:01:06Z</time>
      </trkpt>
      <trkpt lat="46.53762" lon="0.33199">
        <ele>125.2</ele>
        <time>2021-04-25T14:01:09Z</time>
      </trkpt>
      <trkpt lat="46.5376" lon="0.332">
        <ele>125.8</ele>
        <time>2021-04-25T14:01:12Z</time>
      </trkpt>
      <trkpt lat="46.53758" lon="0.33199">
        <ele>126.8</ele>
        <time>2021-04-25T14:01:16Z</time>
      </trkpt>
      <trkpt lat="46.53757" lon="0.33199">
        <ele>127</ele>
        <time>2021-04-25T14:01:17Z</time>
      </trkpt>
      <trkpt lat="46.53752" lon="0.33189">
        <ele>127.8</ele>
        <time>2021-04-25T14:01:28Z</time>
      </trkpt>
      <trkpt lat="46.53749" lon="0.33186">
        <ele>129.2</ele>
        <time>2021-04-25T14:01:34Z</time>
      </trkpt>
      <trkpt lat="46.53749" lon="0.33185">
        <ele>129.6</ele>
        <time>2021-04-25T14:01:35Z</time>
      </trkpt>
      <trkpt lat="46.53748" lon="0.33182">
        <ele>130</ele>
        <time>2021-04-25T14:01:38Z</time>
      </trkpt>
      <trkpt lat="46.53748" lon="0.3318">
        <ele>130.2</ele>
        <time>2021-04-25T14:01:39Z</time>
      </trkpt>
      <trkpt lat="46.53748" lon="0.3318">
        <ele>130.2</ele>
        <time>2021-04-25T14:01:41Z</time>
      </trkpt>
      <trkpt lat="46.53748" lon="0.33178">
        <ele>130.4</ele>
        <time>2021-04-25T14:01:42Z</time>
      </trkpt>
      <trkpt lat="46.53749" lon="0.33172">
        <ele>130.4</ele>
        <time>2021-04-25T14:01:46Z</time>
      </trkpt>
      <trkpt lat="46.53749" lon="0.33171">
        <ele>130.4</ele>
        <time>2021-04-25T14:01:47Z</time>
      </trkpt>
      <trkpt lat="46.5375" lon="0.33167">
        <ele>130.6</ele>
        <time>2021-04-25T14:01:50Z</time>
      </trkpt>
      <trkpt lat="46.53752" lon="0.3316">
        <ele>130.6</ele>
        <time>2021-04-25T14:01:53Z</time>
      </trkpt>
      <trkpt lat="46.53762" lon="0.33136">
        <ele>131</ele>
        <time>2021-04-25T14:02:04Z</time>
      </trkpt>
      <trkpt lat="46.53771" lon="0.33118">
        <ele>131</ele>
        <time>2021-04-25T14:02:10Z</time>
      </trkpt>
      <trkpt lat="46.5378" lon="0.331">
        <ele>130.8</ele>
        <time>2021-04-25T14:02:16Z</time>
      </trkpt>
      <trkpt lat="46.53789" lon="0.33079">
        <ele>130</ele>
        <time>2021-04-25T14:02:22Z</time>
      </trkpt>
      <trkpt lat="46.53796" lon="0.33062">
        <ele>129.2</ele>
        <time>2021-04-25T14:02:25Z</time>
      </trkpt>
      <trkpt lat="46.53798" lon="0.33056">
        <ele>129.2</ele>
        <time>2021-04-25T14:02:26Z</time>
      </trkpt>
      <trkpt lat="46.53803" lon="0.33047">
        <ele>128.6</ele>
        <time>2021-04-25T14:02:28Z</time>
      </trkpt>
      <trkpt lat="46.53807" lon="0.33041">
        <ele>128.4</ele>
        <time>2021-04-25T14:02:30Z</time>
      </trkpt>
      <trkpt lat="46.53809" lon="0.33039">
        <ele>128.2</ele>
        <time>2021-04-25T14:02:31Z</time>
      </trkpt>
      <trkpt lat="46.53815" lon="0.33032">
        <ele>127.4</ele>
        <time>2021-04-25T14:02:34Z</time>
      </trkpt>
      <trkpt lat="46.53817" lon="0.3303">
        <ele>127.2</ele>
        <time>2021-04-25T14:02:35Z</time>
      </trkpt>
      <trkpt lat="46.53829" lon="0.33012">
        <ele>127.2</ele>
        <time>2021-04-25T14:02:41Z</time>
      </trkpt>
      <trkpt lat="46.53842" lon="0.32991">
        <ele>128.2</ele>
        <time>2021-04-25T14:02:48Z</time>
      </trkpt>
      <trkpt lat="46.53844" lon="0.32985">
        <ele>129.4</ele>
        <time>2021-04-25T14:02:50Z</time>
      </trkpt>
      <trkpt lat="46.53846" lon="0.32979">
        <ele>129.8</ele>
        <time>2021-04-25T14:02:52Z</time>
      </trkpt>
      <trkpt lat="46.53851" lon="0.32973">
        <ele>130.4</ele>
        <time>2021-04-25T14:02:54Z</time>
      </trkpt>
      <trkpt lat="46.53864" lon="0.32953">
        <ele>131</ele>
        <time>2021-04-25T14:02:59Z</time>
      </trkpt>
      <trkpt lat="46.53876" lon="0.32937">
        <ele>130.8</ele>
        <time>2021-04-25T14:03:04Z</time>
      </trkpt>
      <trkpt lat="46.53877" lon="0.32936">
        <ele>130.8</ele>
        <time>2021-04-25T14:03:05Z</time>
      </trkpt>
      <trkpt lat="46.53877" lon="0.32934">
        <ele>130.8</ele>
        <time>2021-04-25T14:03:07Z</time>
      </trkpt>
      <trkpt lat="46.53878" lon="0.32931">
        <ele>131.4</ele>
        <time>2021-04-25T14:03:09Z</time>
      </trkpt>
      <trkpt lat="46.53879" lon="0.32928">
        <ele>131.6</ele>
        <time>2021-04-25T14:03:10Z</time>
      </trkpt>
      <trkpt lat="46.53884" lon="0.32922">
        <ele>132.8</ele>
        <time>2021-04-25T14:03:13Z</time>
      </trkpt>
      <trkpt lat="46.53885" lon="0.32918">
        <ele>133</ele>
        <time>2021-04-25T14:03:15Z</time>
      </trkpt>
      <trkpt lat="46.53891" lon="0.32899">
        <ele>133.6</ele>
        <time>2021-04-25T14:03:21Z</time>
      </trkpt>
      <trkpt lat="46.53903" lon="0.32881">
        <ele>133.8</ele>
        <time>2021-04-25T14:03:26Z</time>
      </trkpt>
      <trkpt lat="46.53907" lon="0.32877">
        <ele>133.4</ele>
        <time>2021-04-25T14:03:28Z</time>
      </trkpt>
      <trkpt lat="46.53911" lon="0.32874">
        <ele>132.8</ele>
        <time>2021-04-25T14:03:30Z</time>
      </trkpt>
      <trkpt lat="46.53915" lon="0.32873">
        <ele>132</ele>
        <time>2021-04-25T14:03:32Z</time>
      </trkpt>
      <trkpt lat="46.53918" lon="0.32871">
        <ele>131.4</ele>
        <time>2021-04-25T14:03:33Z</time>
      </trkpt>
      <trkpt lat="46.53926" lon="0.32857">
        <ele>130.4</ele>
        <time>2021-04-25T14:03:38Z</time>
      </trkpt>
      <trkpt lat="46.53928" lon="0.32855">
        <ele>130.4</ele>
        <time>2021-04-25T14:03:39Z</time>
      </trkpt>
      <trkpt lat="46.5393" lon="0.32853">
        <ele>130.4</ele>
        <time>2021-04-25T14:03:40Z</time>
      </trkpt>
      <trkpt lat="46.53938" lon="0.3285">
        <ele>130</ele>
        <time>2021-04-25T14:03:43Z</time>
      </trkpt>
      <trkpt lat="46.53942" lon="0.32849">
        <ele>129.4</ele>
        <time>2021-04-25T14:03:45Z</time>
      </trkpt>
      <trkpt lat="46.53944" lon="0.32848">
        <ele>129.2</ele>
        <time>2021-04-25T14:03:46Z</time>
      </trkpt>
      <trkpt lat="46.53949" lon="0.32844">
        <ele>128.8</ele>
        <time>2021-04-25T14:03:48Z</time>
      </trkpt>
      <trkpt lat="46.53961" lon="0.32835">
        <ele>128.2</ele>
        <time>2021-04-25T14:03:52Z</time>
      </trkpt>
      <trkpt lat="46.53964" lon="0.32833">
        <ele>128</ele>
        <time>2021-04-25T14:03:53Z</time>
      </trkpt>
      <trkpt lat="46.53965" lon="0.32831">
        <ele>127.8</ele>
        <time>2021-04-25T14:03:54Z</time>
      </trkpt>
      <trkpt lat="46.53964" lon="0.32828">
        <ele>126.6</ele>
        <time>2021-04-25T14:03:56Z</time>
      </trkpt>
      <trkpt lat="46.53965" lon="0.32825">
        <ele>125.2</ele>
        <time>2021-04-25T14:04:00Z</time>
      </trkpt>
      <trkpt lat="46.53965" lon="0.32824">
        <ele>125</ele>
        <time>2021-04-25T14:04:01Z</time>
      </trkpt>
      <trkpt lat="46.53959" lon="0.3282">
        <ele>125.4</ele>
        <time>2021-04-25T14:04:06Z</time>
      </trkpt>
      <trkpt lat="46.53949" lon="0.32821">
        <ele>126.6</ele>
        <time>2021-04-25T14:04:12Z</time>
      </trkpt>
      <trkpt lat="46.53947" lon="0.32822">
        <ele>127</ele>
        <time>2021-04-25T14:04:13Z</time>
      </trkpt>
      <trkpt lat="46.5394" lon="0.32822">
        <ele>127.8</ele>
        <time>2021-04-25T14:04:16Z</time>
      </trkpt>
      <trkpt lat="46.53935" lon="0.32823">
        <ele>128.6</ele>
        <time>2021-04-25T14:04:19Z</time>
      </trkpt>
      <trkpt lat="46.53933" lon="0.32823">
        <ele>129</ele>
        <time>2021-04-25T14:04:20Z</time>
      </trkpt>
      <trkpt lat="46.53929" lon="0.32824">
        <ele>129.8</ele>
        <time>2021-04-25T14:04:23Z</time>
      </trkpt>
      <trkpt lat="46.53927" lon="0.32824">
        <ele>130</ele>
        <time>2021-04-25T14:04:24Z</time>
      </trkpt>
      <trkpt lat="46.53924" lon="0.32823">
        <ele>130.4</ele>
        <time>2021-04-25T14:04:26Z</time>
      </trkpt>
      <trkpt lat="46.53916" lon="0.32824">
        <ele>131</ele>
        <time>2021-04-25T14:04:30Z</time>
      </trkpt>
      <trkpt lat="46.53905" lon="0.3282">
        <ele>130.8</ele>
        <time>2021-04-25T14:04:34Z</time>
      </trkpt>
      <trkpt lat="46.53891" lon="0.32815">
        <ele>131</ele>
        <time>2021-04-25T14:04:39Z</time>
      </trkpt>
      <trkpt lat="46.53875" lon="0.32809">
        <ele>131.2</ele>
        <time>2021-04-25T14:04:50Z</time>
      </trkpt>
      <trkpt lat="46.53872" lon="0.32808">
        <ele>131</ele>
        <time>2021-04-25T14:05:02Z</time>
      </trkpt>
      <trkpt lat="46.53867" lon="0.32804">
        <ele>130.6</ele>
        <time>2021-04-25T14:05:13Z</time>
      </trkpt>
      <trkpt lat="46.53849" lon="0.32796">
        <ele>131</ele>
        <time>2021-04-25T14:05:22Z</time>
      </trkpt>
      <trkpt lat="46.53829" lon="0.32786">
        <ele>131.4</ele>
        <time>2021-04-25T14:05:28Z</time>
      </trkpt>
      <trkpt lat="46.53805" lon="0.32777">
        <ele>131.8</ele>
        <time>2021-04-25T14:05:34Z</time>
      </trkpt>
      <trkpt lat="46.53791" lon="0.32774">
        <ele>132</ele>
        <time>2021-04-25T14:05:38Z</time>
      </trkpt>
      <trkpt lat="46.53784" lon="0.32772">
        <ele>132.2</ele>
        <time>2021-04-25T14:05:40Z</time>
      </trkpt>
      <trkpt lat="46.53761" lon="0.32768">
        <ele>133.2</ele>
        <time>2021-04-25T14:05:46Z</time>
      </trkpt>
      <trkpt lat="46.53741" lon="0.32764">
        <ele>134</ele>
        <time>2021-04-25T14:05:51Z</time>
      </trkpt>
      <trkpt lat="46.53737" lon="0.32763">
        <ele>134.4</ele>
        <time>2021-04-25T14:05:52Z</time>
      </trkpt>
      <trkpt lat="46.53719" lon="0.3276">
        <ele>135</ele>
        <time>2021-04-25T14:05:56Z</time>
      </trkpt>
      <trkpt lat="46.5371" lon="0.32759">
        <ele>135.4</ele>
        <time>2021-04-25T14:05:58Z</time>
      </trkpt>
      <trkpt lat="46.53697" lon="0.32757">
        <ele>135.8</ele>
        <time>2021-04-25T14:06:02Z</time>
      </trkpt>
      <trkpt lat="46.53693" lon="0.32757">
        <ele>135.8</ele>
        <time>2021-04-25T14:06:03Z</time>
      </trkpt>
      <trkpt lat="46.53683" lon="0.32757">
        <ele>136.6</ele>
        <time>2021-04-25T14:06:06Z</time>
      </trkpt>
      <trkpt lat="46.53671" lon="0.32757">
        <ele>138</ele>
        <time>2021-04-25T14:06:10Z</time>
      </trkpt>
      <trkpt lat="46.53655" lon="0.32759">
        <ele>139</ele>
        <time>2021-04-25T14:06:15Z</time>
      </trkpt>
      <trkpt lat="46.53652" lon="0.32759">
        <ele>139</ele>
        <time>2021-04-25T14:06:16Z</time>
      </trkpt>
      <trkpt lat="46.53622" lon="0.32759">
        <ele>140</ele>
        <time>2021-04-25T14:06:24Z</time>
      </trkpt>
      <trkpt lat="46.53603" lon="0.32757">
        <ele>140.6</ele>
        <time>2021-04-25T14:06:30Z</time>
      </trkpt>
      <trkpt lat="46.53588" lon="0.32752">
        <ele>141.2</ele>
        <time>2021-04-25T14:06:34Z</time>
      </trkpt>
      <trkpt lat="46.5358" lon="0.32749">
        <ele>141.4</ele>
        <time>2021-04-25T14:06:36Z</time>
      </trkpt>
      <trkpt lat="46.53554" lon="0.32738">
        <ele>141.2</ele>
        <time>2021-04-25T14:06:43Z</time>
      </trkpt>
      <trkpt lat="46.53552" lon="0.32736">
        <ele>141.2</ele>
        <time>2021-04-25T14:06:44Z</time>
      </trkpt>
      <trkpt lat="46.53551" lon="0.32722">
        <ele>141</ele>
        <time>2021-04-25T14:06:47Z</time>
      </trkpt>
      <trkpt lat="46.53552" lon="0.32717">
        <ele>141</ele>
        <time>2021-04-25T14:06:48Z</time>
      </trkpt>
      <trkpt lat="46.53558" lon="0.32695">
        <ele>140.2</ele>
        <time>2021-04-25T14:06:51Z</time>
      </trkpt>
      <trkpt lat="46.5356" lon="0.32686">
        <ele>140</ele>
        <time>2021-04-25T14:06:52Z</time>
      </trkpt>
      <trkpt lat="46.53565" lon="0.32666">
        <ele>138.8</ele>
        <time>2021-04-25T14:06:54Z</time>
      </trkpt>
      <trkpt lat="46.53567" lon="0.32657">
        <ele>137.2</ele>
        <time>2021-04-25T14:06:55Z</time>
      </trkpt>
      <trkpt lat="46.53569" lon="0.32648">
        <ele>135.8</ele>
        <time>2021-04-25T14:06:56Z</time>
      </trkpt>
      <trkpt lat="46.53571" lon="0.32642">
        <ele>133.6</ele>
        <time>2021-04-25T14:06:57Z</time>
      </trkpt>
      <trkpt lat="46.53571" lon="0.32637">
        <ele>132</ele>
        <time>2021-04-25T14:06:58Z</time>
      </trkpt>
      <trkpt lat="46.53572" lon="0.32634">
        <ele>131.4</ele>
        <time>2021-04-25T14:06:59Z</time>
      </trkpt>
      <trkpt lat="46.53572" lon="0.32631">
        <ele>130.4</ele>
        <time>2021-04-25T14:07:00Z</time>
      </trkpt>
      <trkpt lat="46.53571" lon="0.32626">
        <ele>129</ele>
        <time>2021-04-25T14:07:02Z</time>
      </trkpt>
      <trkpt lat="46.5357" lon="0.32624">
        <ele>128.8</ele>
        <time>2021-04-25T14:07:03Z</time>
      </trkpt>
      <trkpt lat="46.53563" lon="0.32615">
        <ele>128.4</ele>
        <time>2021-04-25T14:07:14Z</time>
      </trkpt>
      <trkpt lat="46.53558" lon="0.32614">
        <ele>128.8</ele>
        <time>2021-04-25T14:07:18Z</time>
      </trkpt>
      <trkpt lat="46.53557" lon="0.32614">
        <ele>128.8</ele>
        <time>2021-04-25T14:07:19Z</time>
      </trkpt>
      <trkpt lat="46.53557" lon="0.32613">
        <ele>128.8</ele>
        <time>2021-04-25T14:07:21Z</time>
      </trkpt>
      <trkpt lat="46.53555" lon="0.32609">
        <ele>128.6</ele>
        <time>2021-04-25T14:07:23Z</time>
      </trkpt>
      <trkpt lat="46.53555" lon="0.32607">
        <ele>127.4</ele>
        <time>2021-04-25T14:07:24Z</time>
      </trkpt>
      <trkpt lat="46.53554" lon="0.32605">
        <ele>126.2</ele>
        <time>2021-04-25T14:07:25Z</time>
      </trkpt>
      <trkpt lat="46.53553" lon="0.326">
        <ele>125.2</ele>
        <time>2021-04-25T14:07:27Z</time>
      </trkpt>
      <trkpt lat="46.53553" lon="0.32593">
        <ele>123.6</ele>
        <time>2021-04-25T14:07:30Z</time>
      </trkpt>
      <trkpt lat="46.53553" lon="0.32591">
        <ele>122.8</ele>
        <time>2021-04-25T14:07:31Z</time>
      </trkpt>
      <trkpt lat="46.53553" lon="0.32589">
        <ele>122.2</ele>
        <time>2021-04-25T14:07:32Z</time>
      </trkpt>
      <trkpt lat="46.5355" lon="0.32582">
        <ele>120.8</ele>
        <time>2021-04-25T14:07:34Z</time>
      </trkpt>
      <trkpt lat="46.53549" lon="0.32581">
        <ele>119.6</ele>
        <time>2021-04-25T14:07:35Z</time>
      </trkpt>
      <trkpt lat="46.53549" lon="0.3258">
        <ele>119</ele>
        <time>2021-04-25T14:07:36Z</time>
      </trkpt>
      <trkpt lat="46.53546" lon="0.32574">
        <ele>118.4</ele>
        <time>2021-04-25T14:07:38Z</time>
      </trkpt>
      <trkpt lat="46.53542" lon="0.32569">
        <ele>118.2</ele>
        <time>2021-04-25T14:07:41Z</time>
      </trkpt>
      <trkpt lat="46.53538" lon="0.32565">
        <ele>118</ele>
        <time>2021-04-25T14:07:43Z</time>
      </trkpt>
      <trkpt lat="46.53533" lon="0.32559">
        <ele>117.2</ele>
        <time>2021-04-25T14:07:46Z</time>
      </trkpt>
      <trkpt lat="46.53519" lon="0.32549">
        <ele>116</ele>
        <time>2021-04-25T14:07:53Z</time>
      </trkpt>
      <trkpt lat="46.53515" lon="0.32547">
        <ele>115.8</ele>
        <time>2021-04-25T14:07:55Z</time>
      </trkpt>
      <trkpt lat="46.53505" lon="0.32541">
        <ele>115</ele>
        <time>2021-04-25T14:08:01Z</time>
      </trkpt>
      <trkpt lat="46.53504" lon="0.32541">
        <ele>115</ele>
        <time>2021-04-25T14:08:02Z</time>
      </trkpt>
      <trkpt lat="46.53499" lon="0.32537">
        <ele>114.8</ele>
        <time>2021-04-25T14:08:05Z</time>
      </trkpt>
      <trkpt lat="46.53498" lon="0.32536">
        <ele>114.8</ele>
        <time>2021-04-25T14:08:06Z</time>
      </trkpt>
      <trkpt lat="46.5349" lon="0.32535">
        <ele>114.8</ele>
        <time>2021-04-25T14:08:14Z</time>
      </trkpt>
      <trkpt lat="46.53484" lon="0.3253">
        <ele>116.2</ele>
        <time>2021-04-25T14:08:21Z</time>
      </trkpt>
      <trkpt lat="46.53474" lon="0.32524">
        <ele>116.6</ele>
        <time>2021-04-25T14:08:31Z</time>
      </trkpt>
      <trkpt lat="46.53469" lon="0.32522">
        <ele>116.8</ele>
        <time>2021-04-25T14:08:36Z</time>
      </trkpt>
      <trkpt lat="46.53464" lon="0.32519">
        <ele>116.6</ele>
        <time>2021-04-25T14:08:39Z</time>
      </trkpt>
      <trkpt lat="46.53461" lon="0.32517">
        <ele>116.6</ele>
        <time>2021-04-25T14:08:42Z</time>
      </trkpt>
      <trkpt lat="46.53451" lon="0.32508">
        <ele>116.2</ele>
        <time>2021-04-25T14:08:49Z</time>
      </trkpt>
      <trkpt lat="46.5345" lon="0.32508">
        <ele>116</ele>
        <time>2021-04-25T14:08:50Z</time>
      </trkpt>
      <trkpt lat="46.53444" lon="0.32506">
        <ele>116.4</ele>
        <time>2021-04-25T14:08:58Z</time>
      </trkpt>
      <trkpt lat="46.5344" lon="0.32503">
        <ele>117</ele>
        <time>2021-04-25T14:09:03Z</time>
      </trkpt>
      <trkpt lat="46.53439" lon="0.32502">
        <ele>117.2</ele>
        <time>2021-04-25T14:09:04Z</time>
      </trkpt>
      <trkpt lat="46.53438" lon="0.32502">
        <ele>117.4</ele>
        <time>2021-04-25T14:09:05Z</time>
      </trkpt>
      <trkpt lat="46.53435" lon="0.32498">
        <ele>117.6</ele>
        <time>2021-04-25T14:09:08Z</time>
      </trkpt>
      <trkpt lat="46.5343" lon="0.32495">
        <ele>118.4</ele>
        <time>2021-04-25T14:09:11Z</time>
      </trkpt>
      <trkpt lat="46.53428" lon="0.32494">
        <ele>118.8</ele>
        <time>2021-04-25T14:09:12Z</time>
      </trkpt>
      <trkpt lat="46.53426" lon="0.32494">
        <ele>119.2</ele>
        <time>2021-04-25T14:09:14Z</time>
      </trkpt>
      <trkpt lat="46.53425" lon="0.32494">
        <ele>119.6</ele>
        <time>2021-04-25T14:09:15Z</time>
      </trkpt>
      <trkpt lat="46.53424" lon="0.32493">
        <ele>120</ele>
        <time>2021-04-25T14:09:18Z</time>
      </trkpt>
      <trkpt lat="46.53422" lon="0.32492">
        <ele>120.2</ele>
        <time>2021-04-25T14:09:34Z</time>
      </trkpt>
      <trkpt lat="46.53421" lon="0.32491">
        <ele>119.6</ele>
        <time>2021-04-25T14:09:51Z</time>
      </trkpt>
      <trkpt lat="46.53414" lon="0.32486">
        <ele>120.6</ele>
        <time>2021-04-25T14:10:03Z</time>
      </trkpt>
      <trkpt lat="46.53411" lon="0.32485">
        <ele>121</ele>
        <time>2021-04-25T14:10:06Z</time>
      </trkpt>
      <trkpt lat="46.5341" lon="0.32484">
        <ele>121.2</ele>
        <time>2021-04-25T14:10:08Z</time>
      </trkpt>
      <trkpt lat="46.53408" lon="0.32485">
        <ele>121.4</ele>
        <time>2021-04-25T14:10:09Z</time>
      </trkpt>
      <trkpt lat="46.53406" lon="0.32486">
        <ele>121.6</ele>
        <time>2021-04-25T14:10:10Z</time>
      </trkpt>
      <trkpt lat="46.53401" lon="0.32486">
        <ele>122.4</ele>
        <time>2021-04-25T14:10:13Z</time>
      </trkpt>
      <trkpt lat="46.53398" lon="0.32485">
        <ele>122.8</ele>
        <time>2021-04-25T14:10:14Z</time>
      </trkpt>
      <trkpt lat="46.53387" lon="0.32486">
        <ele>124.2</ele>
        <time>2021-04-25T14:10:20Z</time>
      </trkpt>
      <trkpt lat="46.53379" lon="0.32486">
        <ele>124.8</ele>
        <time>2021-04-25T14:10:23Z</time>
      </trkpt>
      <trkpt lat="46.53377" lon="0.32487">
        <ele>125.4</ele>
        <time>2021-04-25T14:10:24Z</time>
      </trkpt>
      <trkpt lat="46.53373" lon="0.32488">
        <ele>126.4</ele>
        <time>2021-04-25T14:10:26Z</time>
      </trkpt>
      <trkpt lat="46.53361" lon="0.3249">
        <ele>127.6</ele>
        <time>2021-04-25T14:10:30Z</time>
      </trkpt>
      <trkpt lat="46.5336" lon="0.32491">
        <ele>128</ele>
        <time>2021-04-25T14:10:31Z</time>
      </trkpt>
      <trkpt lat="46.53356" lon="0.32492">
        <ele>128.6</ele>
        <time>2021-04-25T14:10:33Z</time>
      </trkpt>
      <trkpt lat="46.5335" lon="0.32494">
        <ele>129.6</ele>
        <time>2021-04-25T14:10:36Z</time>
      </trkpt>
      <trkpt lat="46.53348" lon="0.32494">
        <ele>130</ele>
        <time>2021-04-25T14:10:37Z</time>
      </trkpt>
      <trkpt lat="46.53343" lon="0.32497">
        <ele>130.6</ele>
        <time>2021-04-25T14:10:40Z</time>
      </trkpt>
      <trkpt lat="46.53341" lon="0.32498">
        <ele>131</ele>
        <time>2021-04-25T14:10:41Z</time>
      </trkpt>
      <trkpt lat="46.53335" lon="0.325">
        <ele>132.2</ele>
        <time>2021-04-25T14:10:46Z</time>
      </trkpt>
      <trkpt lat="46.53333" lon="0.32501">
        <ele>132.6</ele>
        <time>2021-04-25T14:10:48Z</time>
      </trkpt>
      <trkpt lat="46.5333" lon="0.32503">
        <ele>133.2</ele>
        <time>2021-04-25T14:10:50Z</time>
      </trkpt>
      <trkpt lat="46.53329" lon="0.32504">
        <ele>133.4</ele>
        <time>2021-04-25T14:10:51Z</time>
      </trkpt>
      <trkpt lat="46.53327" lon="0.32507">
        <ele>133.8</ele>
        <time>2021-04-25T14:10:53Z</time>
      </trkpt>
      <trkpt lat="46.53325" lon="0.32512">
        <ele>134.4</ele>
        <time>2021-04-25T14:10:56Z</time>
      </trkpt>
      <trkpt lat="46.53322" lon="0.3252">
        <ele>135.6</ele>
        <time>2021-04-25T14:11:01Z</time>
      </trkpt>
      <trkpt lat="46.53319" lon="0.32527">
        <ele>137</ele>
        <time>2021-04-25T14:11:06Z</time>
      </trkpt>
      <trkpt lat="46.53319" lon="0.32529">
        <ele>137.2</ele>
        <time>2021-04-25T14:11:07Z</time>
      </trkpt>
      <trkpt lat="46.53315" lon="0.32542">
        <ele>138.2</ele>
        <time>2021-04-25T14:11:13Z</time>
      </trkpt>
      <trkpt lat="46.53314" lon="0.32549">
        <ele>139</ele>
        <time>2021-04-25T14:11:18Z</time>
      </trkpt>
      <trkpt lat="46.53313" lon="0.32553">
        <ele>139.2</ele>
        <time>2021-04-25T14:11:20Z</time>
      </trkpt>
      <trkpt lat="46.5331" lon="0.32574">
        <ele>140.4</ele>
        <time>2021-04-25T14:11:28Z</time>
      </trkpt>
      <trkpt lat="46.53311" lon="0.32577">
        <ele>140.6</ele>
        <time>2021-04-25T14:11:29Z</time>
      </trkpt>
      <trkpt lat="46.53311" lon="0.32592">
        <ele>141.6</ele>
        <time>2021-04-25T14:11:35Z</time>
      </trkpt>
      <trkpt lat="46.53311" lon="0.32605">
        <ele>142.6</ele>
        <time>2021-04-25T14:11:42Z</time>
      </trkpt>
      <trkpt lat="46.53311" lon="0.32606">
        <ele>142.6</ele>
        <time>2021-04-25T14:11:43Z</time>
      </trkpt>
      <trkpt lat="46.53313" lon="0.32608">
        <ele>142.6</ele>
        <time>2021-04-25T14:11:54Z</time>
      </trkpt>
      <trkpt lat="46.53314" lon="0.32613">
        <ele>141.8</ele>
        <time>2021-04-25T14:12:09Z</time>
      </trkpt>
      <trkpt lat="46.53313" lon="0.32611">
        <ele>142</ele>
        <time>2021-04-25T14:12:13Z</time>
      </trkpt>
      <trkpt lat="46.5331" lon="0.3261">
        <ele>142</ele>
        <time>2021-04-25T14:12:15Z</time>
      </trkpt>
      <trkpt lat="46.5331" lon="0.32609">
        <ele>142</ele>
        <time>2021-04-25T14:12:16Z</time>
      </trkpt>
      <trkpt lat="46.5331" lon="0.3259">
        <ele>141.4</ele>
        <time>2021-04-25T14:12:23Z</time>
      </trkpt>
      <trkpt lat="46.53311" lon="0.32569">
        <ele>140.6</ele>
        <time>2021-04-25T14:12:27Z</time>
      </trkpt>
      <trkpt lat="46.53313" lon="0.32563">
        <ele>140.2</ele>
        <time>2021-04-25T14:12:28Z</time>
      </trkpt>
      <trkpt lat="46.53315" lon="0.32556">
        <ele>140</ele>
        <time>2021-04-25T14:12:29Z</time>
      </trkpt>
      <trkpt lat="46.53318" lon="0.32543">
        <ele>138.8</ele>
        <time>2021-04-25T14:12:31Z</time>
      </trkpt>
      <trkpt lat="46.5332" lon="0.32539">
        <ele>137.2</ele>
        <time>2021-04-25T14:12:32Z</time>
      </trkpt>
      <trkpt lat="46.53325" lon="0.32531">
        <ele>135.6</ele>
        <time>2021-04-25T14:12:34Z</time>
      </trkpt>
      <trkpt lat="46.53328" lon="0.32526">
        <ele>134.8</ele>
        <time>2021-04-25T14:12:35Z</time>
      </trkpt>
      <trkpt lat="46.5333" lon="0.32521">
        <ele>134</ele>
        <time>2021-04-25T14:12:36Z</time>
      </trkpt>
      <trkpt lat="46.53337" lon="0.3251">
        <ele>131</ele>
        <time>2021-04-25T14:12:38Z</time>
      </trkpt>
      <trkpt lat="46.53341" lon="0.32506">
        <ele>129.6</ele>
        <time>2021-04-25T14:12:39Z</time>
      </trkpt>
      <trkpt lat="46.53344" lon="0.32503">
        <ele>128.2</ele>
        <time>2021-04-25T14:12:40Z</time>
      </trkpt>
      <trkpt lat="46.53347" lon="0.32499">
        <ele>126.8</ele>
        <time>2021-04-25T14:12:41Z</time>
      </trkpt>
      <trkpt lat="46.53349" lon="0.32498">
        <ele>125.6</ele>
        <time>2021-04-25T14:12:42Z</time>
      </trkpt>
      <trkpt lat="46.53351" lon="0.32496">
        <ele>125</ele>
        <time>2021-04-25T14:12:43Z</time>
      </trkpt>
      <trkpt lat="46.53353" lon="0.32493">
        <ele>124.6</ele>
        <time>2021-04-25T14:12:44Z</time>
      </trkpt>
      <trkpt lat="46.53356" lon="0.32491">
        <ele>124</ele>
        <time>2021-04-25T14:12:45Z</time>
      </trkpt>
      <trkpt lat="46.53359" lon="0.3249">
        <ele>123.4</ele>
        <time>2021-04-25T14:12:47Z</time>
      </trkpt>
      <trkpt lat="46.53362" lon="0.32492">
        <ele>122.8</ele>
        <time>2021-04-25T14:12:49Z</time>
      </trkpt>
      <trkpt lat="46.53365" lon="0.32491">
        <ele>122.4</ele>
        <time>2021-04-25T14:12:50Z</time>
      </trkpt>
      <trkpt lat="46.53371" lon="0.32493">
        <ele>121</ele>
        <time>2021-04-25T14:12:53Z</time>
      </trkpt>
      <trkpt lat="46.53374" lon="0.32493">
        <ele>120.4</ele>
        <time>2021-04-25T14:12:54Z</time>
      </trkpt>
      <trkpt lat="46.53382" lon="0.32495">
        <ele>120</ele>
        <time>2021-04-25T14:12:56Z</time>
      </trkpt>
      <trkpt lat="46.53386" lon="0.32498">
        <ele>118.6</ele>
        <time>2021-04-25T14:12:59Z</time>
      </trkpt>
      <trkpt lat="46.53389" lon="0.32499">
        <ele>118</ele>
        <time>2021-04-25T14:13:00Z</time>
      </trkpt>
      <trkpt lat="46.53396" lon="0.32501">
        <ele>117.6</ele>
        <time>2021-04-25T14:13:02Z</time>
      </trkpt>
      <trkpt lat="46.53406" lon="0.32508">
        <ele>117.4</ele>
        <time>2021-04-25T14:13:06Z</time>
      </trkpt>
      <trkpt lat="46.5342" lon="0.32515">
        <ele>118</ele>
        <time>2021-04-25T14:13:13Z</time>
      </trkpt>
      <trkpt lat="46.53431" lon="0.32519">
        <ele>117.8</ele>
        <time>2021-04-25T14:13:18Z</time>
      </trkpt>
      <trkpt lat="46.53437" lon="0.32519">
        <ele>117.4</ele>
        <time>2021-04-25T14:13:20Z</time>
      </trkpt>
      <trkpt lat="46.53449" lon="0.3252">
        <ele>116.6</ele>
        <time>2021-04-25T14:13:25Z</time>
      </trkpt>
      <trkpt lat="46.53452" lon="0.32521">
        <ele>116.6</ele>
        <time>2021-04-25T14:13:26Z</time>
      </trkpt>
      <trkpt lat="46.53464" lon="0.32526">
        <ele>116.8</ele>
        <time>2021-04-25T14:13:32Z</time>
      </trkpt>
      <trkpt lat="46.53482" lon="0.32533">
        <ele>117.8</ele>
        <time>2021-04-25T14:13:40Z</time>
      </trkpt>
      <trkpt lat="46.53494" lon="0.32536">
        <ele>118</ele>
        <time>2021-04-25T14:13:45Z</time>
      </trkpt>
      <trkpt lat="46.53504" lon="0.3254">
        <ele>118.6</ele>
        <time>2021-04-25T14:13:50Z</time>
      </trkpt>
      <trkpt lat="46.53508" lon="0.32542">
        <ele>119.2</ele>
        <time>2021-04-25T14:13:52Z</time>
      </trkpt>
      <trkpt lat="46.53517" lon="0.32546">
        <ele>119.8</ele>
        <time>2021-04-25T14:13:56Z</time>
      </trkpt>
      <trkpt lat="46.53523" lon="0.32549">
        <ele>120.6</ele>
        <time>2021-04-25T14:13:59Z</time>
      </trkpt>
      <trkpt lat="46.53525" lon="0.3255">
        <ele>120.6</ele>
        <time>2021-04-25T14:14:00Z</time>
      </trkpt>
      <trkpt lat="46.5353" lon="0.32553">
        <ele>121</ele>
        <time>2021-04-25T14:14:02Z</time>
      </trkpt>
      <trkpt lat="46.53533" lon="0.32555">
        <ele>121.6</ele>
        <time>2021-04-25T14:14:04Z</time>
      </trkpt>
      <trkpt lat="46.53533" lon="0.32555">
        <ele>122.6</ele>
        <time>2021-04-25T14:14:05Z</time>
      </trkpt>
      <trkpt lat="46.53539" lon="0.3256">
        <ele>123.6</ele>
        <time>2021-04-25T14:14:12Z</time>
      </trkpt>
      <trkpt lat="46.53542" lon="0.32566">
        <ele>124.2</ele>
        <time>2021-04-25T14:14:27Z</time>
      </trkpt>
      <trkpt lat="46.53542" lon="0.32569">
        <ele>124.6</ele>
        <time>2021-04-25T14:14:34Z</time>
      </trkpt>
      <trkpt lat="46.53543" lon="0.32571">
        <ele>125.6</ele>
        <time>2021-04-25T14:14:39Z</time>
      </trkpt>
      <trkpt lat="46.53544" lon="0.32572">
        <ele>125.6</ele>
        <time>2021-04-25T14:14:40Z</time>
      </trkpt>
      <trkpt lat="46.53544" lon="0.32574">
        <ele>126</ele>
        <time>2021-04-25T14:14:42Z</time>
      </trkpt>
      <trkpt lat="46.53547" lon="0.32584">
        <ele>126.8</ele>
        <time>2021-04-25T14:14:51Z</time>
      </trkpt>
      <trkpt lat="46.53548" lon="0.32588">
        <ele>127.8</ele>
        <time>2021-04-25T14:14:54Z</time>
      </trkpt>
      <trkpt lat="46.5355" lon="0.32592">
        <ele>128.6</ele>
        <time>2021-04-25T14:14:58Z</time>
      </trkpt>
      <trkpt lat="46.53552" lon="0.32594">
        <ele>129</ele>
        <time>2021-04-25T14:15:00Z</time>
      </trkpt>
      <trkpt lat="46.53552" lon="0.32594">
        <ele>129.4</ele>
        <time>2021-04-25T14:15:02Z</time>
      </trkpt>
      <trkpt lat="46.53552" lon="0.32599">
        <ele>129.8</ele>
        <time>2021-04-25T14:15:05Z</time>
      </trkpt>
      <trkpt lat="46.53553" lon="0.32602">
        <ele>130</ele>
        <time>2021-04-25T14:15:08Z</time>
      </trkpt>
      <trkpt lat="46.53556" lon="0.32606">
        <ele>131</ele>
        <time>2021-04-25T14:15:20Z</time>
      </trkpt>
      <trkpt lat="46.53558" lon="0.32609">
        <ele>130.8</ele>
        <time>2021-04-25T14:15:32Z</time>
      </trkpt>
      <trkpt lat="46.53562" lon="0.32608">
        <ele>130.6</ele>
        <time>2021-04-25T14:15:35Z</time>
      </trkpt>
      <trkpt lat="46.53569" lon="0.32607">
        <ele>130.2</ele>
        <time>2021-04-25T14:15:38Z</time>
      </trkpt>
      <trkpt lat="46.53575" lon="0.32607">
        <ele>129.2</ele>
        <time>2021-04-25T14:15:41Z</time>
      </trkpt>
      <trkpt lat="46.53578" lon="0.32606">
        <ele>128.8</ele>
        <time>2021-04-25T14:15:42Z</time>
      </trkpt>
      <trkpt lat="46.53581" lon="0.32605">
        <ele>128.4</ele>
        <time>2021-04-25T14:15:43Z</time>
      </trkpt>
      <trkpt lat="46.53584" lon="0.32603">
        <ele>128.2</ele>
        <time>2021-04-25T14:15:44Z</time>
      </trkpt>
      <trkpt lat="46.53588" lon="0.326">
        <ele>127.8</ele>
        <time>2021-04-25T14:15:45Z</time>
      </trkpt>
      <trkpt lat="46.53593" lon="0.32597">
        <ele>126.6</ele>
        <time>2021-04-25T14:15:47Z</time>
      </trkpt>
      <trkpt lat="46.53595" lon="0.32596">
        <ele>125.8</ele>
        <time>2021-04-25T14:15:48Z</time>
      </trkpt>
      <trkpt lat="46.53597" lon="0.32596">
        <ele>125</ele>
        <time>2021-04-25T14:15:49Z</time>
      </trkpt>
      <trkpt lat="46.53603" lon="0.32594">
        <ele>124</ele>
        <time>2021-04-25T14:15:54Z</time>
      </trkpt>
      <trkpt lat="46.53616" lon="0.3259">
        <ele>124</ele>
        <time>2021-04-25T14:16:11Z</time>
      </trkpt>
      <trkpt lat="46.53623" lon="0.32583">
        <ele>124</ele>
        <time>2021-04-25T14:16:25Z</time>
      </trkpt>
      <trkpt lat="46.53624" lon="0.3258">
        <ele>124</ele>
        <time>2021-04-25T14:16:41Z</time>
      </trkpt>
      <trkpt lat="46.53624" lon="0.32582">
        <ele>124.2</ele>
        <time>2021-04-25T14:16:45Z</time>
      </trkpt>
      <trkpt lat="46.53622" lon="0.32581">
        <ele>123</ele>
        <time>2021-04-25T14:16:54Z</time>
      </trkpt>
      <trkpt lat="46.53621" lon="0.32582">
        <ele>123</ele>
        <time>2021-04-25T14:16:55Z</time>
      </trkpt>
      <trkpt lat="46.53618" lon="0.32583">
        <ele>122.6</ele>
        <time>2021-04-25T14:17:09Z</time>
      </trkpt>
      <trkpt lat="46.53618" lon="0.32584">
        <ele>123.2</ele>
        <time>2021-04-25T14:17:25Z</time>
      </trkpt>
      <trkpt lat="46.53618" lon="0.32583">
        <ele>122.8</ele>
        <time>2021-04-25T14:17:42Z</time>
      </trkpt>
      <trkpt lat="46.53618" lon="0.32584">
        <ele>122.8</ele>
        <time>2021-04-25T14:17:51Z</time>
      </trkpt>
      <trkpt lat="46.53618" lon="0.32586">
        <ele>122.8</ele>
        <time>2021-04-25T14:18:01Z</time>
      </trkpt>
      <trkpt lat="46.53619" lon="0.32588">
        <ele>122.8</ele>
        <time>2021-04-25T14:18:17Z</time>
      </trkpt>
      <trkpt lat="46.53619" lon="0.32589">
        <ele>124</ele>
        <time>2021-04-25T14:18:33Z</time>
      </trkpt>
      <trkpt lat="46.53619" lon="0.32589">
        <ele>124</ele>
        <time>2021-04-25T14:18:34Z</time>
      </trkpt>
      <trkpt lat="46.53621" lon="0.32584">
        <ele>124</ele>
        <time>2021-04-25T14:18:42Z</time>
      </trkpt>
      <trkpt lat="46.53621" lon="0.32583">
        <ele>123.8</ele>
        <time>2021-04-25T14:18:43Z</time>
      </trkpt>
      <trkpt lat="46.53619" lon="0.32578">
        <ele>122.6</ele>
        <time>2021-04-25T14:18:47Z</time>
      </trkpt>
      <trkpt lat="46.53619" lon="0.32577">
        <ele>121.4</ele>
        <time>2021-04-25T14:18:49Z</time>
      </trkpt>
      <trkpt lat="46.53618" lon="0.32576">
        <ele>120.8</ele>
        <time>2021-04-25T14:18:50Z</time>
      </trkpt>
      <trkpt lat="46.53618" lon="0.32576">
        <ele>120.4</ele>
        <time>2021-04-25T14:18:51Z</time>
      </trkpt>
      <trkpt lat="46.53618" lon="0.32575">
        <ele>120.2</ele>
        <time>2021-04-25T14:18:52Z</time>
      </trkpt>
      <trkpt lat="46.53613" lon="0.32572">
        <ele>120.2</ele>
        <time>2021-04-25T14:19:05Z</time>
      </trkpt>
      <trkpt lat="46.53611" lon="0.3257">
        <ele>120</ele>
        <time>2021-04-25T14:19:16Z</time>
      </trkpt>
      <trkpt lat="46.53609" lon="0.32567">
        <ele>119.6</ele>
        <time>2021-04-25T14:19:22Z</time>
      </trkpt>
      <trkpt lat="46.53609" lon="0.32567">
        <ele>119.6</ele>
        <time>2021-04-25T14:19:32Z</time>
      </trkpt>
      <trkpt lat="46.53606" lon="0.32562">
        <ele>119.2</ele>
        <time>2021-04-25T14:19:41Z</time>
      </trkpt>
      <trkpt lat="46.53606" lon="0.32562">
        <ele>119</ele>
        <time>2021-04-25T14:19:42Z</time>
      </trkpt>
      <trkpt lat="46.53607" lon="0.32559">
        <ele>118</ele>
        <time>2021-04-25T14:19:45Z</time>
      </trkpt>
      <trkpt lat="46.53607" lon="0.32557">
        <ele>116.6</ele>
        <time>2021-04-25T14:19:47Z</time>
      </trkpt>
      <trkpt lat="46.53606" lon="0.32553">
        <ele>115.2</ele>
        <time>2021-04-25T14:19:50Z</time>
      </trkpt>
      <trkpt lat="46.53605" lon="0.32551">
        <ele>115</ele>
        <time>2021-04-25T14:19:51Z</time>
      </trkpt>
      <trkpt lat="46.53603" lon="0.32549">
        <ele>114</ele>
        <time>2021-04-25T14:19:54Z</time>
      </trkpt>
      <trkpt lat="46.53596" lon="0.32543">
        <ele>113.2</ele>
        <time>2021-04-25T14:20:00Z</time>
      </trkpt>
      <trkpt lat="46.53593" lon="0.32541">
        <ele>113</ele>
        <time>2021-04-25T14:20:02Z</time>
      </trkpt>
      <trkpt lat="46.53592" lon="0.3254">
        <ele>112.8</ele>
        <time>2021-04-25T14:20:03Z</time>
      </trkpt>
      <trkpt lat="46.53588" lon="0.32538">
        <ele>111.8</ele>
        <time>2021-04-25T14:20:07Z</time>
      </trkpt>
      <trkpt lat="46.53585" lon="0.32535">
        <ele>110.6</ele>
        <time>2021-04-25T14:20:10Z</time>
      </trkpt>
      <trkpt lat="46.53584" lon="0.32534">
        <ele>110</ele>
        <time>2021-04-25T14:20:11Z</time>
      </trkpt>
      <trkpt lat="46.53583" lon="0.32532">
        <ele>108.6</ele>
        <time>2021-04-25T14:20:12Z</time>
      </trkpt>
      <trkpt lat="46.5358" lon="0.32529">
        <ele>106.8</ele>
        <time>2021-04-25T14:20:14Z</time>
      </trkpt>
      <trkpt lat="46.53579" lon="0.32527">
        <ele>105.8</ele>
        <time>2021-04-25T14:20:15Z</time>
      </trkpt>
      <trkpt lat="46.53576" lon="0.32523">
        <ele>104.6</ele>
        <time>2021-04-25T14:20:18Z</time>
      </trkpt>
      <trkpt lat="46.5357" lon="0.32519">
        <ele>103.8</ele>
        <time>2021-04-25T14:20:21Z</time>
      </trkpt>
      <trkpt lat="46.53567" lon="0.32517">
        <ele>103.6</ele>
        <time>2021-04-25T14:20:23Z</time>
      </trkpt>
      <trkpt lat="46.53565" lon="0.32515">
        <ele>103.6</ele>
        <time>2021-04-25T14:20:24Z</time>
      </trkpt>
      <trkpt lat="46.5355" lon="0.32508">
        <ele>103.4</ele>
        <time>2021-04-25T14:20:33Z</time>
      </trkpt>
      <trkpt lat="46.53532" lon="0.32507">
        <ele>103</ele>
        <time>2021-04-25T14:20:46Z</time>
      </trkpt>
      <trkpt lat="46.53522" lon="0.32502">
        <ele>104</ele>
        <time>2021-04-25T14:20:59Z</time>
      </trkpt>
      <trkpt lat="46.53515" lon="0.32501">
        <ele>104.2</ele>
        <time>2021-04-25T14:21:10Z</time>
      </trkpt>
      <trkpt lat="46.53512" lon="0.32501">
        <ele>104.2</ele>
        <time>2021-04-25T14:21:13Z</time>
      </trkpt>
      <trkpt lat="46.53508" lon="0.32497">
        <ele>103.6</ele>
        <time>2021-04-25T14:21:16Z</time>
      </trkpt>
      <trkpt lat="46.53505" lon="0.32494">
        <ele>103.4</ele>
        <time>2021-04-25T14:21:20Z</time>
      </trkpt>
      <trkpt lat="46.53494" lon="0.32483">
        <ele>103</ele>
        <time>2021-04-25T14:21:31Z</time>
      </trkpt>
      <trkpt lat="46.5349" lon="0.32483">
        <ele>103</ele>
        <time>2021-04-25T14:21:33Z</time>
      </trkpt>
      <trkpt lat="46.53471" lon="0.32479">
        <ele>104.8</ele>
        <time>2021-04-25T14:21:43Z</time>
      </trkpt>
      <trkpt lat="46.53464" lon="0.32477">
        <ele>106</ele>
        <time>2021-04-25T14:21:48Z</time>
      </trkpt>
      <trkpt lat="46.53459" lon="0.32475">
        <ele>107.2</ele>
        <time>2021-04-25T14:21:52Z</time>
      </trkpt>
      <trkpt lat="46.53454" lon="0.32474">
        <ele>108</ele>
        <time>2021-04-25T14:21:55Z</time>
      </trkpt>
      <trkpt lat="46.53453" lon="0.32474">
        <ele>108.2</ele>
        <time>2021-04-25T14:21:56Z</time>
      </trkpt>
      <trkpt lat="46.53444" lon="0.32472">
        <ele>109.2</ele>
        <time>2021-04-25T14:22:04Z</time>
      </trkpt>
      <trkpt lat="46.5344" lon="0.32471">
        <ele>110.4</ele>
        <time>2021-04-25T14:22:08Z</time>
      </trkpt>
      <trkpt lat="46.53438" lon="0.3247">
        <ele>110.4</ele>
        <time>2021-04-25T14:22:09Z</time>
      </trkpt>
      <trkpt lat="46.53435" lon="0.3247">
        <ele>111.4</ele>
        <time>2021-04-25T14:22:14Z</time>
      </trkpt>
      <trkpt lat="46.53429" lon="0.32466">
        <ele>112.2</ele>
        <time>2021-04-25T14:22:23Z</time>
      </trkpt>
      <trkpt lat="46.53426" lon="0.32466">
        <ele>112.2</ele>
        <time>2021-04-25T14:22:25Z</time>
      </trkpt>
      <trkpt lat="46.53425" lon="0.32466">
        <ele>112.4</ele>
        <time>2021-04-25T14:22:26Z</time>
      </trkpt>
      <trkpt lat="46.53421" lon="0.32465">
        <ele>113</ele>
        <time>2021-04-25T14:22:32Z</time>
      </trkpt>
      <trkpt lat="46.53418" lon="0.32464">
        <ele>113.4</ele>
        <time>2021-04-25T14:22:35Z</time>
      </trkpt>
      <trkpt lat="46.53411" lon="0.3246">
        <ele>114</ele>
        <time>2021-04-25T14:22:45Z</time>
      </trkpt>
      <trkpt lat="46.5341" lon="0.32459">
        <ele>114</ele>
        <time>2021-04-25T14:22:48Z</time>
      </trkpt>
      <trkpt lat="46.53408" lon="0.32459">
        <ele>114.6</ele>
        <time>2021-04-25T14:22:50Z</time>
      </trkpt>
      <trkpt lat="46.53408" lon="0.32459">
        <ele>114.8</ele>
        <time>2021-04-25T14:22:51Z</time>
      </trkpt>
      <trkpt lat="46.53405" lon="0.32457">
        <ele>115.6</ele>
        <time>2021-04-25T14:22:55Z</time>
      </trkpt>
      <trkpt lat="46.53403" lon="0.32457">
        <ele>115.6</ele>
        <time>2021-04-25T14:22:57Z</time>
      </trkpt>
      <trkpt lat="46.53401" lon="0.32457">
        <ele>116.4</ele>
        <time>2021-04-25T14:23:00Z</time>
      </trkpt>
      <trkpt lat="46.53401" lon="0.32457">
        <ele>116.6</ele>
        <time>2021-04-25T14:23:02Z</time>
      </trkpt>
      <trkpt lat="46.53396" lon="0.32454">
        <ele>117.6</ele>
        <time>2021-04-25T14:23:08Z</time>
      </trkpt>
      <trkpt lat="46.53394" lon="0.32453">
        <ele>118.4</ele>
        <time>2021-04-25T14:23:12Z</time>
      </trkpt>
      <trkpt lat="46.53394" lon="0.32453">
        <ele>118.6</ele>
        <time>2021-04-25T14:23:13Z</time>
      </trkpt>
      <trkpt lat="46.53393" lon="0.32453">
        <ele>118.8</ele>
        <time>2021-04-25T14:23:14Z</time>
      </trkpt>
      <trkpt lat="46.53386" lon="0.32453">
        <ele>119.4</ele>
        <time>2021-04-25T14:23:21Z</time>
      </trkpt>
      <trkpt lat="46.53383" lon="0.32452">
        <ele>119.6</ele>
        <time>2021-04-25T14:23:24Z</time>
      </trkpt>
      <trkpt lat="46.53382" lon="0.32452">
        <ele>119.6</ele>
        <time>2021-04-25T14:23:25Z</time>
      </trkpt>
      <trkpt lat="46.53379" lon="0.32451">
        <ele>119.6</ele>
        <time>2021-04-25T14:23:27Z</time>
      </trkpt>
      <trkpt lat="46.53375" lon="0.32451">
        <ele>119.6</ele>
        <time>2021-04-25T14:23:31Z</time>
      </trkpt>
      <trkpt lat="46.53374" lon="0.32452">
        <ele>119.8</ele>
        <time>2021-04-25T14:23:32Z</time>
      </trkpt>
      <trkpt lat="46.53372" lon="0.32454">
        <ele>120.6</ele>
        <time>2021-04-25T14:23:36Z</time>
      </trkpt>
      <trkpt lat="46.53371" lon="0.32455">
        <ele>120.8</ele>
        <time>2021-04-25T14:23:37Z</time>
      </trkpt>
      <trkpt lat="46.53371" lon="0.32456">
        <ele>121</ele>
        <time>2021-04-25T14:23:38Z</time>
      </trkpt>
      <trkpt lat="46.53369" lon="0.32459">
        <ele>121.8</ele>
        <time>2021-04-25T14:23:46Z</time>
      </trkpt>
      <trkpt lat="46.53366" lon="0.32461">
        <ele>122</ele>
        <time>2021-04-25T14:23:57Z</time>
      </trkpt>
      <trkpt lat="46.53366" lon="0.32461">
        <ele>122</ele>
        <time>2021-04-25T14:23:58Z</time>
      </trkpt>
      <trkpt lat="46.53363" lon="0.32462">
        <ele>122.2</ele>
        <time>2021-04-25T14:24:00Z</time>
      </trkpt>
      <trkpt lat="46.53361" lon="0.32462">
        <ele>122.8</ele>
        <time>2021-04-25T14:24:02Z</time>
      </trkpt>
      <trkpt lat="46.53359" lon="0.32463">
        <ele>123.4</ele>
        <time>2021-04-25T14:24:04Z</time>
      </trkpt>
      <trkpt lat="46.53358" lon="0.32463">
        <ele>123.8</ele>
        <time>2021-04-25T14:24:05Z</time>
      </trkpt>
      <trkpt lat="46.53356" lon="0.32463">
        <ele>124.4</ele>
        <time>2021-04-25T14:24:07Z</time>
      </trkpt>
      <trkpt lat="46.53353" lon="0.32463">
        <ele>124.8</ele>
        <time>2021-04-25T14:24:09Z</time>
      </trkpt>
      <trkpt lat="46.53352" lon="0.32463">
        <ele>125</ele>
        <time>2021-04-25T14:24:10Z</time>
      </trkpt>
      <trkpt lat="46.53351" lon="0.32463">
        <ele>125.4</ele>
        <time>2021-04-25T14:24:11Z</time>
      </trkpt>
      <trkpt lat="46.5335" lon="0.32463">
        <ele>125.8</ele>
        <time>2021-04-25T14:24:12Z</time>
      </trkpt>
      <trkpt lat="46.53347" lon="0.32461">
        <ele>126.6</ele>
        <time>2021-04-25T14:24:15Z</time>
      </trkpt>
      <trkpt lat="46.53345" lon="0.32461">
        <ele>127</ele>
        <time>2021-04-25T14:24:16Z</time>
      </trkpt>
      <trkpt lat="46.53344" lon="0.3246">
        <ele>127.2</ele>
        <time>2021-04-25T14:24:17Z</time>
      </trkpt>
      <trkpt lat="46.53339" lon="0.32458">
        <ele>128.2</ele>
        <time>2021-04-25T14:24:21Z</time>
      </trkpt>
      <trkpt lat="46.53336" lon="0.32457">
        <ele>129</ele>
        <time>2021-04-25T14:24:24Z</time>
      </trkpt>
      <trkpt lat="46.53335" lon="0.32456">
        <ele>129.2</ele>
        <time>2021-04-25T14:24:25Z</time>
      </trkpt>
      <trkpt lat="46.53332" lon="0.32455">
        <ele>129.6</ele>
        <time>2021-04-25T14:24:27Z</time>
      </trkpt>
      <trkpt lat="46.53328" lon="0.32453">
        <ele>130.4</ele>
        <time>2021-04-25T14:24:30Z</time>
      </trkpt>
      <trkpt lat="46.53327" lon="0.32453">
        <ele>130.6</ele>
        <time>2021-04-25T14:24:31Z</time>
      </trkpt>
      <trkpt lat="46.53322" lon="0.32452">
        <ele>130.8</ele>
        <time>2021-04-25T14:24:35Z</time>
      </trkpt>
      <trkpt lat="46.53318" lon="0.3245">
        <ele>131.6</ele>
        <time>2021-04-25T14:24:38Z</time>
      </trkpt>
      <trkpt lat="46.53308" lon="0.32451">
        <ele>133</ele>
        <time>2021-04-25T14:24:45Z</time>
      </trkpt>
      <trkpt lat="46.53306" lon="0.32452">
        <ele>133.4</ele>
        <time>2021-04-25T14:24:47Z</time>
      </trkpt>
      <trkpt lat="46.53304" lon="0.32456">
        <ele>134</ele>
        <time>2021-04-25T14:24:50Z</time>
      </trkpt>
      <trkpt lat="46.53296" lon="0.32462">
        <ele>135</ele>
        <time>2021-04-25T14:24:56Z</time>
      </trkpt>
      <trkpt lat="46.53293" lon="0.32465">
        <ele>135.4</ele>
        <time>2021-04-25T14:24:58Z</time>
      </trkpt>
      <trkpt lat="46.53283" lon="0.32472">
        <ele>136</ele>
        <time>2021-04-25T14:25:06Z</time>
      </trkpt>
      <trkpt lat="46.53275" lon="0.32472">
        <ele>136.8</ele>
        <time>2021-04-25T14:25:11Z</time>
      </trkpt>
      <trkpt lat="46.53271" lon="0.32473">
        <ele>137.4</ele>
        <time>2021-04-25T14:25:13Z</time>
      </trkpt>
      <trkpt lat="46.53254" lon="0.32474">
        <ele>138.2</ele>
        <time>2021-04-25T14:25:22Z</time>
      </trkpt>
      <trkpt lat="46.53248" lon="0.32474">
        <ele>138.8</ele>
        <time>2021-04-25T14:25:24Z</time>
      </trkpt>
      <trkpt lat="46.53237" lon="0.32472">
        <ele>139.4</ele>
        <time>2021-04-25T14:25:28Z</time>
      </trkpt>
      <trkpt lat="46.53231" lon="0.32471">
        <ele>139.8</ele>
        <time>2021-04-25T14:25:30Z</time>
      </trkpt>
      <trkpt lat="46.53223" lon="0.32466">
        <ele>139.8</ele>
        <time>2021-04-25T14:25:35Z</time>
      </trkpt>
      <trkpt lat="46.53217" lon="0.32452">
        <ele>139</ele>
        <time>2021-04-25T14:25:40Z</time>
      </trkpt>
      <trkpt lat="46.53208" lon="0.3243">
        <ele>138.8</ele>
        <time>2021-04-25T14:25:46Z</time>
      </trkpt>
      <trkpt lat="46.53203" lon="0.32423">
        <ele>138.8</ele>
        <time>2021-04-25T14:25:48Z</time>
      </trkpt>
      <trkpt lat="46.53193" lon="0.3241">
        <ele>138.8</ele>
        <time>2021-04-25T14:25:52Z</time>
      </trkpt>
      <trkpt lat="46.53179" lon="0.32402">
        <ele>139.2</ele>
        <time>2021-04-25T14:25:57Z</time>
      </trkpt>
      <trkpt lat="46.53168" lon="0.32396">
        <ele>140</ele>
        <time>2021-04-25T14:26:00Z</time>
      </trkpt>
      <trkpt lat="46.53157" lon="0.32394">
        <ele>140.2</ele>
        <time>2021-04-25T14:26:03Z</time>
      </trkpt>
      <trkpt lat="46.53135" lon="0.32394">
        <ele>140.6</ele>
        <time>2021-04-25T14:26:09Z</time>
      </trkpt>
      <trkpt lat="46.53127" lon="0.32394">
        <ele>141</ele>
        <time>2021-04-25T14:26:11Z</time>
      </trkpt>
      <trkpt lat="46.5311" lon="0.32394">
        <ele>141.6</ele>
        <time>2021-04-25T14:26:16Z</time>
      </trkpt>
      <trkpt lat="46.53086" lon="0.3239">
        <ele>142</ele>
        <time>2021-04-25T14:26:22Z</time>
      </trkpt>
      <trkpt lat="46.53062" lon="0.32389">
        <ele>142.8</ele>
        <time>2021-04-25T14:26:29Z</time>
      </trkpt>
      <trkpt lat="46.53059" lon="0.32389">
        <ele>143.2</ele>
        <time>2021-04-25T14:26:30Z</time>
      </trkpt>
      <trkpt lat="46.53034" lon="0.32389">
        <ele>144</ele>
        <time>2021-04-25T14:26:37Z</time>
      </trkpt>
      <trkpt lat="46.5302" lon="0.32388">
        <ele>144.4</ele>
        <time>2021-04-25T14:26:41Z</time>
      </trkpt>
      <trkpt lat="46.53006" lon="0.32388">
        <ele>144.6</ele>
        <time>2021-04-25T14:26:45Z</time>
      </trkpt>
      <trkpt lat="46.53001" lon="0.32386">
        <ele>144.8</ele>
        <time>2021-04-25T14:26:48Z</time>
      </trkpt>
      <trkpt lat="46.52999" lon="0.32385">
        <ele>144.8</ele>
        <time>2021-04-25T14:26:50Z</time>
      </trkpt>
      <trkpt lat="46.52996" lon="0.32377">
        <ele>145</ele>
        <time>2021-04-25T14:26:54Z</time>
      </trkpt>
      <trkpt lat="46.52996" lon="0.32365">
        <ele>144.4</ele>
        <time>2021-04-25T14:26:58Z</time>
      </trkpt>
      <trkpt lat="46.52996" lon="0.32341">
        <ele>144</ele>
        <time>2021-04-25T14:27:04Z</time>
      </trkpt>
      <trkpt lat="46.53001" lon="0.32317">
        <ele>143.6</ele>
        <time>2021-04-25T14:27:11Z</time>
      </trkpt>
      <trkpt lat="46.53002" lon="0.32314">
        <ele>143.2</ele>
        <time>2021-04-25T14:27:12Z</time>
      </trkpt>
      <trkpt lat="46.53005" lon="0.32292">
        <ele>142.8</ele>
        <time>2021-04-25T14:27:17Z</time>
      </trkpt>
      <trkpt lat="46.53008" lon="0.3228">
        <ele>142.4</ele>
        <time>2021-04-25T14:27:19Z</time>
      </trkpt>
      <trkpt lat="46.53008" lon="0.32273">
        <ele>142.2</ele>
        <time>2021-04-25T14:27:20Z</time>
      </trkpt>
      <trkpt lat="46.53012" lon="0.32253">
        <ele>141.8</ele>
        <time>2021-04-25T14:27:23Z</time>
      </trkpt>
      <trkpt lat="46.53012" lon="0.32248">
        <ele>141.6</ele>
        <time>2021-04-25T14:27:24Z</time>
      </trkpt>
      <trkpt lat="46.53014" lon="0.32228">
        <ele>141.2</ele>
        <time>2021-04-25T14:27:28Z</time>
      </trkpt>
      <trkpt lat="46.53014" lon="0.32214">
        <ele>141</ele>
        <time>2021-04-25T14:27:30Z</time>
      </trkpt>
      <trkpt lat="46.53013" lon="0.32202">
        <ele>140.2</ele>
        <time>2021-04-25T14:27:32Z</time>
      </trkpt>
      <trkpt lat="46.53012" lon="0.32196">
        <ele>139.8</ele>
        <time>2021-04-25T14:27:33Z</time>
      </trkpt>
      <trkpt lat="46.53007" lon="0.32184">
        <ele>139.2</ele>
        <time>2021-04-25T14:27:36Z</time>
      </trkpt>
      <trkpt lat="46.53006" lon="0.32179">
        <ele>139.2</ele>
        <time>2021-04-25T14:27:37Z</time>
      </trkpt>
      <trkpt lat="46.53001" lon="0.32167">
        <ele>138.8</ele>
        <time>2021-04-25T14:27:39Z</time>
      </trkpt>
      <trkpt lat="46.53" lon="0.3216">
        <ele>138.6</ele>
        <time>2021-04-25T14:27:41Z</time>
      </trkpt>
      <trkpt lat="46.52993" lon="0.32144">
        <ele>138.8</ele>
        <time>2021-04-25T14:27:45Z</time>
      </trkpt>
      <trkpt lat="46.52989" lon="0.32141">
        <ele>139</ele>
        <time>2021-04-25T14:27:46Z</time>
      </trkpt>
      <trkpt lat="46.52986" lon="0.32139">
        <ele>139.2</ele>
        <time>2021-04-25T14:27:47Z</time>
      </trkpt>
      <trkpt lat="46.52977" lon="0.32136">
        <ele>140</ele>
        <time>2021-04-25T14:27:49Z</time>
      </trkpt>
      <trkpt lat="46.52971" lon="0.32134">
        <ele>141</ele>
        <time>2021-04-25T14:27:51Z</time>
      </trkpt>
      <trkpt lat="46.52968" lon="0.32134">
        <ele>141.2</ele>
        <time>2021-04-25T14:27:52Z</time>
      </trkpt>
      <trkpt lat="46.52952" lon="0.32132">
        <ele>141.6</ele>
        <time>2021-04-25T14:27:57Z</time>
      </trkpt>
      <trkpt lat="46.52943" lon="0.32128">
        <ele>142.4</ele>
        <time>2021-04-25T14:28:00Z</time>
      </trkpt>
      <trkpt lat="46.52933" lon="0.32127">
        <ele>143.4</ele>
        <time>2021-04-25T14:28:03Z</time>
      </trkpt>
      <trkpt lat="46.52931" lon="0.32128">
        <ele>143.6</ele>
        <time>2021-04-25T14:28:04Z</time>
      </trkpt>
      <trkpt lat="46.52929" lon="0.32129">
        <ele>143.8</ele>
        <time>2021-04-25T14:28:05Z</time>
      </trkpt>
      <trkpt lat="46.52926" lon="0.32133">
        <ele>144</ele>
        <time>2021-04-25T14:28:07Z</time>
      </trkpt>
      <trkpt lat="46.52917" lon="0.32141">
        <ele>144.8</ele>
        <time>2021-04-25T14:28:11Z</time>
      </trkpt>
      <trkpt lat="46.52915" lon="0.32144">
        <ele>145</ele>
        <time>2021-04-25T14:28:12Z</time>
      </trkpt>
      <trkpt lat="46.52906" lon="0.32162">
        <ele>145.2</ele>
        <time>2021-04-25T14:28:18Z</time>
      </trkpt>
      <trkpt lat="46.52902" lon="0.3217">
        <ele>146</ele>
        <time>2021-04-25T14:28:21Z</time>
      </trkpt>
      <trkpt lat="46.52899" lon="0.32172">
        <ele>146.2</ele>
        <time>2021-04-25T14:28:22Z</time>
      </trkpt>
      <trkpt lat="46.52896" lon="0.32174">
        <ele>146.4</ele>
        <time>2021-04-25T14:28:23Z</time>
      </trkpt>
      <trkpt lat="46.52886" lon="0.32187">
        <ele>147</ele>
        <time>2021-04-25T14:28:28Z</time>
      </trkpt>
      <trkpt lat="46.52884" lon="0.32189">
        <ele>147</ele>
        <time>2021-04-25T14:28:29Z</time>
      </trkpt>
      <trkpt lat="46.52879" lon="0.3219">
        <ele>147</ele>
        <time>2021-04-25T14:28:31Z</time>
      </trkpt>
      <trkpt lat="46.52877" lon="0.32189">
        <ele>147.2</ele>
        <time>2021-04-25T14:28:32Z</time>
      </trkpt>
      <trkpt lat="46.52875" lon="0.32188">
        <ele>147.4</ele>
        <time>2021-04-25T14:28:33Z</time>
      </trkpt>
      <trkpt lat="46.52865" lon="0.32185">
        <ele>147.8</ele>
        <time>2021-04-25T14:28:37Z</time>
      </trkpt>
      <trkpt lat="46.52846" lon="0.32186">
        <ele>148.2</ele>
        <time>2021-04-25T14:28:43Z</time>
      </trkpt>
      <trkpt lat="46.52823" lon="0.32192">
        <ele>148.8</ele>
        <time>2021-04-25T14:28:49Z</time>
      </trkpt>
      <trkpt lat="46.52809" lon="0.32193">
        <ele>149.2</ele>
        <time>2021-04-25T14:28:53Z</time>
      </trkpt>
      <trkpt lat="46.52802" lon="0.32193">
        <ele>149.4</ele>
        <time>2021-04-25T14:28:55Z</time>
      </trkpt>
      <trkpt lat="46.5279" lon="0.32195">
        <ele>149.4</ele>
        <time>2021-04-25T14:28:58Z</time>
      </trkpt>
      <trkpt lat="46.52786" lon="0.32195">
        <ele>149.6</ele>
        <time>2021-04-25T14:28:59Z</time>
      </trkpt>
      <trkpt lat="46.52778" lon="0.32195">
        <ele>149.6</ele>
        <time>2021-04-25T14:29:01Z</time>
      </trkpt>
      <trkpt lat="46.52767" lon="0.32193">
        <ele>149.6</ele>
        <time>2021-04-25T14:29:05Z</time>
      </trkpt>
      <trkpt lat="46.52766" lon="0.32191">
        <ele>149.6</ele>
        <time>2021-04-25T14:29:06Z</time>
      </trkpt>
      <trkpt lat="46.52761" lon="0.32176">
        <ele>149.6</ele>
        <time>2021-04-25T14:29:11Z</time>
      </trkpt>
      <trkpt lat="46.52755" lon="0.32155">
        <ele>149</ele>
        <time>2021-04-25T14:29:17Z</time>
      </trkpt>
      <trkpt lat="46.52753" lon="0.32139">
        <ele>148.2</ele>
        <time>2021-04-25T14:29:22Z</time>
      </trkpt>
      <trkpt lat="46.52752" lon="0.32136">
        <ele>148</ele>
        <time>2021-04-25T14:29:23Z</time>
      </trkpt>
      <trkpt lat="46.52747" lon="0.32122">
        <ele>147.6</ele>
        <time>2021-04-25T14:29:29Z</time>
      </trkpt>
      <trkpt lat="46.52741" lon="0.32103">
        <ele>148</ele>
        <time>2021-04-25T14:29:38Z</time>
      </trkpt>
      <trkpt lat="46.5274" lon="0.321">
        <ele>147.6</ele>
        <time>2021-04-25T14:29:39Z</time>
      </trkpt>
      <trkpt lat="46.52735" lon="0.32085">
        <ele>147.4</ele>
        <time>2021-04-25T14:29:42Z</time>
      </trkpt>
      <trkpt lat="46.5273" lon="0.32073">
        <ele>147.4</ele>
        <time>2021-04-25T14:29:45Z</time>
      </trkpt>
      <trkpt lat="46.52726" lon="0.32065">
        <ele>147.4</ele>
        <time>2021-04-25T14:29:47Z</time>
      </trkpt>
      <trkpt lat="46.52717" lon="0.32047">
        <ele>147.2</ele>
        <time>2021-04-25T14:29:51Z</time>
      </trkpt>
      <trkpt lat="46.52714" lon="0.32043">
        <ele>147.2</ele>
        <time>2021-04-25T14:29:52Z</time>
      </trkpt>
      <trkpt lat="46.52706" lon="0.32028">
        <ele>147</ele>
        <time>2021-04-25T14:29:55Z</time>
      </trkpt>
      <trkpt lat="46.52688" lon="0.31995">
        <ele>146</ele>
        <time>2021-04-25T14:30:02Z</time>
      </trkpt>
      <trkpt lat="46.52684" lon="0.31988">
        <ele>145.2</ele>
        <time>2021-04-25T14:30:04Z</time>
      </trkpt>
      <trkpt lat="46.52682" lon="0.31978">
        <ele>144.8</ele>
        <time>2021-04-25T14:30:06Z</time>
      </trkpt>
      <trkpt lat="46.52682" lon="0.31972">
        <ele>144.8</ele>
        <time>2021-04-25T14:30:07Z</time>
      </trkpt>
      <trkpt lat="46.52681" lon="0.31967">
        <ele>144.4</ele>
        <time>2021-04-25T14:30:08Z</time>
      </trkpt>
      <trkpt lat="46.52682" lon="0.31958">
        <ele>144</ele>
        <time>2021-04-25T14:30:10Z</time>
      </trkpt>
      <trkpt lat="46.52684" lon="0.31954">
        <ele>143.8</ele>
        <time>2021-04-25T14:30:11Z</time>
      </trkpt>
      <trkpt lat="46.52686" lon="0.3195">
        <ele>143.4</ele>
        <time>2021-04-25T14:30:12Z</time>
      </trkpt>
      <trkpt lat="46.52689" lon="0.31946">
        <ele>142.8</ele>
        <time>2021-04-25T14:30:13Z</time>
      </trkpt>
      <trkpt lat="46.52692" lon="0.31941">
        <ele>142.2</ele>
        <time>2021-04-25T14:30:14Z</time>
      </trkpt>
      <trkpt lat="46.52694" lon="0.31936">
        <ele>141.6</ele>
        <time>2021-04-25T14:30:15Z</time>
      </trkpt>
      <trkpt lat="46.52697" lon="0.31931">
        <ele>141.4</ele>
        <time>2021-04-25T14:30:16Z</time>
      </trkpt>
      <trkpt lat="46.52701" lon="0.31923">
        <ele>140.8</ele>
        <time>2021-04-25T14:30:17Z</time>
      </trkpt>
      <trkpt lat="46.52713" lon="0.319">
        <ele>139.8</ele>
        <time>2021-04-25T14:30:20Z</time>
      </trkpt>
      <trkpt lat="46.52717" lon="0.31893">
        <ele>139.2</ele>
        <time>2021-04-25T14:30:21Z</time>
      </trkpt>
      <trkpt lat="46.52725" lon="0.31885">
        <ele>137.2</ele>
        <time>2021-04-25T14:30:22Z</time>
      </trkpt>
      <trkpt lat="46.52732" lon="0.3188">
        <ele>134.4</ele>
        <time>2021-04-25T14:30:23Z</time>
      </trkpt>
      <trkpt lat="46.5275" lon="0.31866">
        <ele>132</ele>
        <time>2021-04-25T14:30:26Z</time>
      </trkpt>
      <trkpt lat="46.52754" lon="0.31862">
        <ele>130.4</ele>
        <time>2021-04-25T14:30:27Z</time>
      </trkpt>
      <trkpt lat="46.52758" lon="0.31858">
        <ele>129.6</ele>
        <time>2021-04-25T14:30:28Z</time>
      </trkpt>
      <trkpt lat="46.52761" lon="0.31855">
        <ele>129.2</ele>
        <time>2021-04-25T14:30:29Z</time>
      </trkpt>
      <trkpt lat="46.52767" lon="0.31848">
        <ele>128</ele>
        <time>2021-04-25T14:30:31Z</time>
      </trkpt>
      <trkpt lat="46.52773" lon="0.31835">
        <ele>126.8</ele>
        <time>2021-04-25T14:30:34Z</time>
      </trkpt>
      <trkpt lat="46.52774" lon="0.31829">
        <ele>127</ele>
        <time>2021-04-25T14:30:35Z</time>
      </trkpt>
      <trkpt lat="46.52775" lon="0.31823">
        <ele>127.6</ele>
        <time>2021-04-25T14:30:36Z</time>
      </trkpt>
      <trkpt lat="46.52776" lon="0.3181">
        <ele>128</ele>
        <time>2021-04-25T14:30:38Z</time>
      </trkpt>
      <trkpt lat="46.52774" lon="0.31803">
        <ele>128.2</ele>
        <time>2021-04-25T14:30:39Z</time>
      </trkpt>
      <trkpt lat="46.52774" lon="0.31789">
        <ele>129.4</ele>
        <time>2021-04-25T14:30:42Z</time>
      </trkpt>
      <trkpt lat="46.52774" lon="0.31781">
        <ele>130.4</ele>
        <time>2021-04-25T14:30:44Z</time>
      </trkpt>
      <trkpt lat="46.52772" lon="0.31776">
        <ele>130.8</ele>
        <time>2021-04-25T14:30:45Z</time>
      </trkpt>
      <trkpt lat="46.52772" lon="0.31768">
        <ele>131.8</ele>
        <time>2021-04-25T14:30:47Z</time>
      </trkpt>
      <trkpt lat="46.52769" lon="0.31749">
        <ele>133</ele>
        <time>2021-04-25T14:30:52Z</time>
      </trkpt>
      <trkpt lat="46.52765" lon="0.31735">
        <ele>134</ele>
        <time>2021-04-25T14:30:56Z</time>
      </trkpt>
      <trkpt lat="46.52764" lon="0.31727">
        <ele>134.8</ele>
        <time>2021-04-25T14:30:59Z</time>
      </trkpt>
      <trkpt lat="46.52764" lon="0.31724">
        <ele>135.2</ele>
        <time>2021-04-25T14:31:00Z</time>
      </trkpt>
      <trkpt lat="46.52763" lon="0.31707">
        <ele>136.6</ele>
        <time>2021-04-25T14:31:05Z</time>
      </trkpt>
      <trkpt lat="46.52763" lon="0.317">
        <ele>137</ele>
        <time>2021-04-25T14:31:07Z</time>
      </trkpt>
      <trkpt lat="46.52762" lon="0.3169">
        <ele>137.8</ele>
        <time>2021-04-25T14:31:10Z</time>
      </trkpt>
      <trkpt lat="46.52764" lon="0.31685">
        <ele>138.6</ele>
        <time>2021-04-25T14:31:13Z</time>
      </trkpt>
      <trkpt lat="46.52764" lon="0.31683">
        <ele>138.8</ele>
        <time>2021-04-25T14:31:14Z</time>
      </trkpt>
      <trkpt lat="46.52765" lon="0.31678">
        <ele>139</ele>
        <time>2021-04-25T14:31:16Z</time>
      </trkpt>
      <trkpt lat="46.52768" lon="0.31671">
        <ele>139.4</ele>
        <time>2021-04-25T14:31:20Z</time>
      </trkpt>
      <trkpt lat="46.52768" lon="0.31667">
        <ele>140</ele>
        <time>2021-04-25T14:31:22Z</time>
      </trkpt>
      <trkpt lat="46.5277" lon="0.31663">
        <ele>140.4</ele>
        <time>2021-04-25T14:31:24Z</time>
      </trkpt>
      <trkpt lat="46.52773" lon="0.31655">
        <ele>140.8</ele>
        <time>2021-04-25T14:31:27Z</time>
      </trkpt>
      <trkpt lat="46.52774" lon="0.31652">
        <ele>141</ele>
        <time>2021-04-25T14:31:28Z</time>
      </trkpt>
      <trkpt lat="46.52779" lon="0.31639">
        <ele>142</ele>
        <time>2021-04-25T14:31:34Z</time>
      </trkpt>
      <trkpt lat="46.52779" lon="0.31637">
        <ele>142.2</ele>
        <time>2021-04-25T14:31:35Z</time>
      </trkpt>
      <trkpt lat="46.52783" lon="0.31628">
        <ele>143</ele>
        <time>2021-04-25T14:31:40Z</time>
      </trkpt>
      <trkpt lat="46.52784" lon="0.31622">
        <ele>143.2</ele>
        <time>2021-04-25T14:31:42Z</time>
      </trkpt>
      <trkpt lat="46.52785" lon="0.3161">
        <ele>143.6</ele>
        <time>2021-04-25T14:31:47Z</time>
      </trkpt>
      <trkpt lat="46.52785" lon="0.31603">
        <ele>144</ele>
        <time>2021-04-25T14:31:49Z</time>
      </trkpt>
      <trkpt lat="46.52786" lon="0.31597">
        <ele>144.4</ele>
        <time>2021-04-25T14:31:51Z</time>
      </trkpt>
      <trkpt lat="46.52786" lon="0.31594">
        <ele>144.6</ele>
        <time>2021-04-25T14:31:52Z</time>
      </trkpt>
      <trkpt lat="46.52791" lon="0.31576">
        <ele>145.4</ele>
        <time>2021-04-25T14:31:59Z</time>
      </trkpt>
      <trkpt lat="46.52798" lon="0.31565">
        <ele>145.6</ele>
        <time>2021-04-25T14:32:03Z</time>
      </trkpt>
      <trkpt lat="46.52802" lon="0.31562">
        <ele>145.8</ele>
        <time>2021-04-25T14:32:05Z</time>
      </trkpt>
      <trkpt lat="46.52819" lon="0.3156">
        <ele>146</ele>
        <time>2021-04-25T14:32:11Z</time>
      </trkpt>
      <trkpt lat="46.52842" lon="0.3156">
        <ele>146</ele>
        <time>2021-04-25T14:32:18Z</time>
      </trkpt>
      <trkpt lat="46.52847" lon="0.31558">
        <ele>145.8</ele>
        <time>2021-04-25T14:32:20Z</time>
      </trkpt>
      <trkpt lat="46.5285" lon="0.31554">
        <ele>145.4</ele>
        <time>2021-04-25T14:32:22Z</time>
      </trkpt>
      <trkpt lat="46.52851" lon="0.31552">
        <ele>145.4</ele>
        <time>2021-04-25T14:32:23Z</time>
      </trkpt>
      <trkpt lat="46.52853" lon="0.3155">
        <ele>145.4</ele>
        <time>2021-04-25T14:32:24Z</time>
      </trkpt>
      <trkpt lat="46.5286" lon="0.31546">
        <ele>145.4</ele>
        <time>2021-04-25T14:32:26Z</time>
      </trkpt>
      <trkpt lat="46.52866" lon="0.31541">
        <ele>145.4</ele>
        <time>2021-04-25T14:32:28Z</time>
      </trkpt>
      <trkpt lat="46.52869" lon="0.31538">
        <ele>145.4</ele>
        <time>2021-04-25T14:32:29Z</time>
      </trkpt>
      <trkpt lat="46.52879" lon="0.31527">
        <ele>144.8</ele>
        <time>2021-04-25T14:32:33Z</time>
      </trkpt>
      <trkpt lat="46.52887" lon="0.3152">
        <ele>144.4</ele>
        <time>2021-04-25T14:32:35Z</time>
      </trkpt>
      <trkpt lat="46.52891" lon="0.31515">
        <ele>143.6</ele>
        <time>2021-04-25T14:32:36Z</time>
      </trkpt>
      <trkpt lat="46.52895" lon="0.3151">
        <ele>143.2</ele>
        <time>2021-04-25T14:32:37Z</time>
      </trkpt>
      <trkpt lat="46.52899" lon="0.31506">
        <ele>143</ele>
        <time>2021-04-25T14:32:38Z</time>
      </trkpt>
      <trkpt lat="46.52906" lon="0.31495">
        <ele>141.6</ele>
        <time>2021-04-25T14:32:40Z</time>
      </trkpt>
      <trkpt lat="46.5291" lon="0.31485">
        <ele>140.2</ele>
        <time>2021-04-25T14:32:42Z</time>
      </trkpt>
      <trkpt lat="46.52911" lon="0.31481">
        <ele>139.8</ele>
        <time>2021-04-25T14:32:43Z</time>
      </trkpt>
      <trkpt lat="46.52914" lon="0.31479">
        <ele>138.8</ele>
        <time>2021-04-25T14:32:44Z</time>
      </trkpt>
      <trkpt lat="46.52917" lon="0.31479">
        <ele>138.2</ele>
        <time>2021-04-25T14:32:45Z</time>
      </trkpt>
      <trkpt lat="46.52923" lon="0.3148">
        <ele>137.6</ele>
        <time>2021-04-25T14:32:47Z</time>
      </trkpt>
      <trkpt lat="46.52931" lon="0.31485">
        <ele>137.4</ele>
        <time>2021-04-25T14:32:50Z</time>
      </trkpt>
      <trkpt lat="46.52937" lon="0.31491">
        <ele>137.4</ele>
        <time>2021-04-25T14:32:51Z</time>
      </trkpt>
      <trkpt lat="46.52937" lon="0.31491">
        <ele>137.4</ele>
        <time>2021-04-25T14:32:52Z</time>
      </trkpt>
      <trkpt lat="46.52956" lon="0.31514">
        <ele>137</ele>
        <time>2021-04-25T14:32:59Z</time>
      </trkpt>
      <trkpt lat="46.52966" lon="0.31528">
        <ele>137.2</ele>
        <time>2021-04-25T14:33:03Z</time>
      </trkpt>
      <trkpt lat="46.52968" lon="0.31531">
        <ele>136.8</ele>
        <time>2021-04-25T14:33:04Z</time>
      </trkpt>
      <trkpt lat="46.52972" lon="0.31536">
        <ele>136.4</ele>
        <time>2021-04-25T14:33:06Z</time>
      </trkpt>
      <trkpt lat="46.52981" lon="0.31557">
        <ele>136.6</ele>
        <time>2021-04-25T14:33:12Z</time>
      </trkpt>
      <trkpt lat="46.52987" lon="0.31579">
        <ele>136.2</ele>
        <time>2021-04-25T14:33:17Z</time>
      </trkpt>
      <trkpt lat="46.52989" lon="0.31586">
        <ele>136.2</ele>
        <time>2021-04-25T14:33:18Z</time>
      </trkpt>
      <trkpt lat="46.52991" lon="0.31591">
        <ele>135.8</ele>
        <time>2021-04-25T14:33:19Z</time>
      </trkpt>
      <trkpt lat="46.52994" lon="0.31601">
        <ele>135.2</ele>
        <time>2021-04-25T14:33:21Z</time>
      </trkpt>
      <trkpt lat="46.52997" lon="0.31612">
        <ele>134.2</ele>
        <time>2021-04-25T14:33:23Z</time>
      </trkpt>
      <trkpt lat="46.52998" lon="0.3162">
        <ele>133.6</ele>
        <time>2021-04-25T14:33:24Z</time>
      </trkpt>
      <trkpt lat="46.53" lon="0.31621">
        <ele>133.2</ele>
        <time>2021-04-25T14:33:25Z</time>
      </trkpt>
      <trkpt lat="46.53004" lon="0.31624">
        <ele>131.6</ele>
        <time>2021-04-25T14:33:27Z</time>
      </trkpt>
      <trkpt lat="46.53006" lon="0.31627">
        <ele>130.4</ele>
        <time>2021-04-25T14:33:28Z</time>
      </trkpt>
      <trkpt lat="46.53007" lon="0.31631">
        <ele>129.6</ele>
        <time>2021-04-25T14:33:29Z</time>
      </trkpt>
      <trkpt lat="46.5301" lon="0.31634">
        <ele>129.2</ele>
        <time>2021-04-25T14:33:30Z</time>
      </trkpt>
      <trkpt lat="46.53014" lon="0.31641">
        <ele>127.6</ele>
        <time>2021-04-25T14:33:32Z</time>
      </trkpt>
      <trkpt lat="46.53016" lon="0.31646">
        <ele>126.4</ele>
        <time>2021-04-25T14:33:33Z</time>
      </trkpt>
      <trkpt lat="46.53018" lon="0.31654">
        <ele>124.8</ele>
        <time>2021-04-25T14:33:35Z</time>
      </trkpt>
      <trkpt lat="46.5302" lon="0.3166">
        <ele>123.8</ele>
        <time>2021-04-25T14:33:36Z</time>
      </trkpt>
      <trkpt lat="46.53022" lon="0.31667">
        <ele>122.8</ele>
        <time>2021-04-25T14:33:37Z</time>
      </trkpt>
      <trkpt lat="46.53026" lon="0.3168">
        <ele>121.6</ele>
        <time>2021-04-25T14:33:39Z</time>
      </trkpt>
      <trkpt lat="46.53027" lon="0.31687">
        <ele>121</ele>
        <time>2021-04-25T14:33:40Z</time>
      </trkpt>
      <trkpt lat="46.53029" lon="0.31693">
        <ele>120.6</ele>
        <time>2021-04-25T14:33:41Z</time>
      </trkpt>
      <trkpt lat="46.53034" lon="0.31705">
        <ele>119.6</ele>
        <time>2021-04-25T14:33:43Z</time>
      </trkpt>
      <trkpt lat="46.53036" lon="0.31712">
        <ele>118.6</ele>
        <time>2021-04-25T14:33:44Z</time>
      </trkpt>
      <trkpt lat="46.5304" lon="0.31723">
        <ele>117</ele>
        <time>2021-04-25T14:33:46Z</time>
      </trkpt>
      <trkpt lat="46.53046" lon="0.31732">
        <ele>116</ele>
        <time>2021-04-25T14:33:48Z</time>
      </trkpt>
      <trkpt lat="46.53048" lon="0.31737">
        <ele>115.6</ele>
        <time>2021-04-25T14:33:49Z</time>
      </trkpt>
      <trkpt lat="46.53052" lon="0.31749">
        <ele>114.6</ele>
        <time>2021-04-25T14:33:51Z</time>
      </trkpt>
      <trkpt lat="46.53053" lon="0.31755">
        <ele>114.2</ele>
        <time>2021-04-25T14:33:52Z</time>
      </trkpt>
      <trkpt lat="46.53055" lon="0.31761">
        <ele>113.2</ele>
        <time>2021-04-25T14:33:54Z</time>
      </trkpt>
      <trkpt lat="46.53056" lon="0.31766">
        <ele>113</ele>
        <time>2021-04-25T14:33:55Z</time>
      </trkpt>
      <trkpt lat="46.53057" lon="0.3177">
        <ele>112.8</ele>
        <time>2021-04-25T14:33:56Z</time>
      </trkpt>
      <trkpt lat="46.53056" lon="0.31796">
        <ele>112.6</ele>
        <time>2021-04-25T14:34:04Z</time>
      </trkpt>
      <trkpt lat="46.53055" lon="0.3182">
        <ele>112.4</ele>
        <time>2021-04-25T14:34:18Z</time>
      </trkpt>
      <trkpt lat="46.53053" lon="0.31827">
        <ele>112.2</ele>
        <time>2021-04-25T14:34:28Z</time>
      </trkpt>
      <trkpt lat="46.53053" lon="0.31827">
        <ele>112.2</ele>
        <time>2021-04-25T14:34:30Z</time>
      </trkpt>
      <trkpt lat="46.53055" lon="0.31831">
        <ele>112.2</ele>
        <time>2021-04-25T14:34:47Z</time>
      </trkpt>
      <trkpt lat="46.53055" lon="0.31835">
        <ele>112.2</ele>
        <time>2021-04-25T14:35:05Z</time>
      </trkpt>
      <trkpt lat="46.53055" lon="0.31836">
        <ele>112.2</ele>
        <time>2021-04-25T14:35:20Z</time>
      </trkpt>
      <trkpt lat="46.5305" lon="0.3183">
        <ele>112.2</ele>
        <time>2021-04-25T14:35:35Z</time>
      </trkpt>
      <trkpt lat="46.5305" lon="0.31828">
        <ele>112.2</ele>
        <time>2021-04-25T14:35:48Z</time>
      </trkpt>
      <trkpt lat="46.53052" lon="0.31827">
        <ele>112.2</ele>
        <time>2021-04-25T14:36:01Z</time>
      </trkpt>
      <trkpt lat="46.53054" lon="0.3183">
        <ele>112.2</ele>
        <time>2021-04-25T14:36:19Z</time>
      </trkpt>
      <trkpt lat="46.53055" lon="0.31832">
        <ele>112.2</ele>
        <time>2021-04-25T14:36:35Z</time>
      </trkpt>
      <trkpt lat="46.53056" lon="0.31833">
        <ele>112.2</ele>
        <time>2021-04-25T14:36:53Z</time>
      </trkpt>
      <trkpt lat="46.53055" lon="0.31835">
        <ele>112.2</ele>
        <time>2021-04-25T14:37:06Z</time>
      </trkpt>
      <trkpt lat="46.53057" lon="0.31835">
        <ele>112.2</ele>
        <time>2021-04-25T14:37:21Z</time>
      </trkpt>
      <trkpt lat="46.53056" lon="0.31835">
        <ele>112.2</ele>
        <time>2021-04-25T14:37:36Z</time>
      </trkpt>
      <trkpt lat="46.53059" lon="0.31835">
        <ele>112.2</ele>
        <time>2021-04-25T14:37:52Z</time>
      </trkpt>
      <trkpt lat="46.5306" lon="0.31835">
        <ele>112.2</ele>
        <time>2021-04-25T14:38:05Z</time>
      </trkpt>
      <trkpt lat="46.53059" lon="0.31835">
        <ele>112.2</ele>
        <time>2021-04-25T14:38:20Z</time>
      </trkpt>
      <trkpt lat="46.53061" lon="0.31836">
        <ele>112.2</ele>
        <time>2021-04-25T14:38:36Z</time>
      </trkpt>
      <trkpt lat="46.53061" lon="0.31837">
        <ele>112.2</ele>
        <time>2021-04-25T14:38:48Z</time>
      </trkpt>
      <trkpt lat="46.53059" lon="0.31838">
        <ele>112.2</ele>
        <time>2021-04-25T14:39:03Z</time>
      </trkpt>
      <trkpt lat="46.53058" lon="0.31839">
        <ele>112.2</ele>
        <time>2021-04-25T14:39:18Z</time>
      </trkpt>
      <trkpt lat="46.53059" lon="0.31845">
        <ele>112.2</ele>
        <time>2021-04-25T14:39:25Z</time>
      </trkpt>
      <trkpt lat="46.5306" lon="0.31846">
        <ele>112.2</ele>
        <time>2021-04-25T14:39:27Z</time>
      </trkpt>
      <trkpt lat="46.53059" lon="0.31848">
        <ele>112.2</ele>
        <time>2021-04-25T14:39:30Z</time>
      </trkpt>
      <trkpt lat="46.53061" lon="0.31856">
        <ele>111.4</ele>
        <time>2021-04-25T14:39:35Z</time>
      </trkpt>
      <trkpt lat="46.53056" lon="0.3186">
        <ele>111.2</ele>
        <time>2021-04-25T14:39:43Z</time>
      </trkpt>
      <trkpt lat="46.53055" lon="0.31861">
        <ele>111.2</ele>
        <time>2021-04-25T14:39:45Z</time>
      </trkpt>
      <trkpt lat="46.53054" lon="0.31862">
        <ele>111</ele>
        <time>2021-04-25T14:39:46Z</time>
      </trkpt>
      <trkpt lat="46.53054" lon="0.31859">
        <ele>110.6</ele>
        <time>2021-04-25T14:39:52Z</time>
      </trkpt>
      <trkpt lat="46.53057" lon="0.3186">
        <ele>110.6</ele>
        <time>2021-04-25T14:39:55Z</time>
      </trkpt>
      <trkpt lat="46.53062" lon="0.31863">
        <ele>110.2</ele>
        <time>2021-04-25T14:39:58Z</time>
      </trkpt>
      <trkpt lat="46.53064" lon="0.31865">
        <ele>109.8</ele>
        <time>2021-04-25T14:39:59Z</time>
      </trkpt>
      <trkpt lat="46.53064" lon="0.31867">
        <ele>109.4</ele>
        <time>2021-04-25T14:40:00Z</time>
      </trkpt>
      <trkpt lat="46.53065" lon="0.31871">
        <ele>108.6</ele>
        <time>2021-04-25T14:40:02Z</time>
      </trkpt>
      <trkpt lat="46.53066" lon="0.31871">
        <ele>108.4</ele>
        <time>2021-04-25T14:40:03Z</time>
      </trkpt>
      <trkpt lat="46.53065" lon="0.3187">
        <ele>108.4</ele>
        <time>2021-04-25T14:40:04Z</time>
      </trkpt>
      <trkpt lat="46.53064" lon="0.31864">
        <ele>108.8</ele>
        <time>2021-04-25T14:40:10Z</time>
      </trkpt>
      <trkpt lat="46.53057" lon="0.31859">
        <ele>109</ele>
        <time>2021-04-25T14:40:16Z</time>
      </trkpt>
      <trkpt lat="46.53056" lon="0.31858">
        <ele>109.2</ele>
        <time>2021-04-25T14:40:17Z</time>
      </trkpt>
      <trkpt lat="46.53055" lon="0.31856">
        <ele>109.8</ele>
        <time>2021-04-25T14:40:19Z</time>
      </trkpt>
      <trkpt lat="46.53053" lon="0.31856">
        <ele>110.2</ele>
        <time>2021-04-25T14:40:22Z</time>
      </trkpt>
      <trkpt lat="46.5305" lon="0.31856">
        <ele>110.8</ele>
        <time>2021-04-25T14:40:31Z</time>
      </trkpt>
      <trkpt lat="46.5305" lon="0.31857">
        <ele>110.8</ele>
        <time>2021-04-25T14:40:32Z</time>
      </trkpt>
      <trkpt lat="46.5305" lon="0.31857">
        <ele>110.8</ele>
        <time>2021-04-25T14:40:33Z</time>
      </trkpt>
      <trkpt lat="46.5305" lon="0.31859">
        <ele>110.8</ele>
        <time>2021-04-25T14:40:35Z</time>
      </trkpt>
      <trkpt lat="46.53048" lon="0.31862">
        <ele>111.8</ele>
        <time>2021-04-25T14:40:39Z</time>
      </trkpt>
      <trkpt lat="46.53048" lon="0.31863">
        <ele>112</ele>
        <time>2021-04-25T14:40:40Z</time>
      </trkpt>
      <trkpt lat="46.53048" lon="0.31865">
        <ele>112.8</ele>
        <time>2021-04-25T14:40:46Z</time>
      </trkpt>
      <trkpt lat="46.53048" lon="0.31865">
        <ele>112.8</ele>
        <time>2021-04-25T14:40:48Z</time>
      </trkpt>
      <trkpt lat="46.53048" lon="0.31867">
        <ele>113.6</ele>
        <time>2021-04-25T14:41:02Z</time>
      </trkpt>
      <trkpt lat="46.53045" lon="0.31871">
        <ele>114</ele>
        <time>2021-04-25T14:41:06Z</time>
      </trkpt>
      <trkpt lat="46.53044" lon="0.31873">
        <ele>115.4</ele>
        <time>2021-04-25T14:41:09Z</time>
      </trkpt>
      <trkpt lat="46.53044" lon="0.31875">
        <ele>115.8</ele>
        <time>2021-04-25T14:41:11Z</time>
      </trkpt>
      <trkpt lat="46.53043" lon="0.31876">
        <ele>116</ele>
        <time>2021-04-25T14:41:12Z</time>
      </trkpt>
      <trkpt lat="46.53041" lon="0.31878">
        <ele>116.2</ele>
        <time>2021-04-25T14:41:14Z</time>
      </trkpt>
      <trkpt lat="46.53041" lon="0.31878">
        <ele>116.8</ele>
        <time>2021-04-25T14:41:15Z</time>
      </trkpt>
      <trkpt lat="46.53038" lon="0.31883">
        <ele>118</ele>
        <time>2021-04-25T14:41:21Z</time>
      </trkpt>
      <trkpt lat="46.53037" lon="0.31885">
        <ele>118.6</ele>
        <time>2021-04-25T14:41:23Z</time>
      </trkpt>
      <trkpt lat="46.53036" lon="0.31887">
        <ele>119.2</ele>
        <time>2021-04-25T14:41:26Z</time>
      </trkpt>
      <trkpt lat="46.53032" lon="0.31891">
        <ele>119.8</ele>
        <time>2021-04-25T14:41:34Z</time>
      </trkpt>
      <trkpt lat="46.53031" lon="0.31892">
        <ele>120.2</ele>
        <time>2021-04-25T14:41:35Z</time>
      </trkpt>
      <trkpt lat="46.53031" lon="0.31895">
        <ele>121.2</ele>
        <time>2021-04-25T14:41:37Z</time>
      </trkpt>
      <trkpt lat="46.53031" lon="0.31896">
        <ele>121.4</ele>
        <time>2021-04-25T14:41:38Z</time>
      </trkpt>
      <trkpt lat="46.53029" lon="0.31898">
        <ele>122</ele>
        <time>2021-04-25T14:41:40Z</time>
      </trkpt>
      <trkpt lat="46.53028" lon="0.31899">
        <ele>122.2</ele>
        <time>2021-04-25T14:41:42Z</time>
      </trkpt>
      <trkpt lat="46.53028" lon="0.31899">
        <ele>122.6</ele>
        <time>2021-04-25T14:41:43Z</time>
      </trkpt>
      <trkpt lat="46.53027" lon="0.31901">
        <ele>123.6</ele>
        <time>2021-04-25T14:41:45Z</time>
      </trkpt>
      <trkpt lat="46.53027" lon="0.31903">
        <ele>124.2</ele>
        <time>2021-04-25T14:41:47Z</time>
      </trkpt>
      <trkpt lat="46.53026" lon="0.31905">
        <ele>124.6</ele>
        <time>2021-04-25T14:41:49Z</time>
      </trkpt>
      <trkpt lat="46.53024" lon="0.31909">
        <ele>125</ele>
        <time>2021-04-25T14:41:51Z</time>
      </trkpt>
      <trkpt lat="46.53021" lon="0.31913">
        <ele>126</ele>
        <time>2021-04-25T14:41:54Z</time>
      </trkpt>
      <trkpt lat="46.53018" lon="0.31916">
        <ele>126.8</ele>
        <time>2021-04-25T14:41:57Z</time>
      </trkpt>
      <trkpt lat="46.53017" lon="0.31917">
        <ele>127.2</ele>
        <time>2021-04-25T14:41:58Z</time>
      </trkpt>
      <trkpt lat="46.53016" lon="0.31919">
        <ele>127.6</ele>
        <time>2021-04-25T14:42:00Z</time>
      </trkpt>
      <trkpt lat="46.53014" lon="0.31921">
        <ele>128</ele>
        <time>2021-04-25T14:42:02Z</time>
      </trkpt>
      <trkpt lat="46.53013" lon="0.31922">
        <ele>128.2</ele>
        <time>2021-04-25T14:42:03Z</time>
      </trkpt>
      <trkpt lat="46.53009" lon="0.31927">
        <ele>129.6</ele>
        <time>2021-04-25T14:42:08Z</time>
      </trkpt>
      <trkpt lat="46.53008" lon="0.31928">
        <ele>129.8</ele>
        <time>2021-04-25T14:42:09Z</time>
      </trkpt>
      <trkpt lat="46.53007" lon="0.3193">
        <ele>130</ele>
        <time>2021-04-25T14:42:11Z</time>
      </trkpt>
      <trkpt lat="46.53006" lon="0.3193">
        <ele>130.2</ele>
        <time>2021-04-25T14:42:12Z</time>
      </trkpt>
      <trkpt lat="46.53003" lon="0.31934">
        <ele>130.6</ele>
        <time>2021-04-25T14:42:16Z</time>
      </trkpt>
      <trkpt lat="46.53001" lon="0.31938">
        <ele>131.6</ele>
        <time>2021-04-25T14:42:20Z</time>
      </trkpt>
      <trkpt lat="46.53" lon="0.31939">
        <ele>131.8</ele>
        <time>2021-04-25T14:42:21Z</time>
      </trkpt>
      <trkpt lat="46.52999" lon="0.3194">
        <ele>132</ele>
        <time>2021-04-25T14:42:22Z</time>
      </trkpt>
      <trkpt lat="46.52997" lon="0.31942">
        <ele>132.4</ele>
        <time>2021-04-25T14:42:24Z</time>
      </trkpt>
      <trkpt lat="46.52996" lon="0.31944">
        <ele>132.4</ele>
        <time>2021-04-25T14:42:25Z</time>
      </trkpt>
      <trkpt lat="46.52993" lon="0.31946">
        <ele>132.8</ele>
        <time>2021-04-25T14:42:27Z</time>
      </trkpt>
      <trkpt lat="46.52992" lon="0.31948">
        <ele>133</ele>
        <time>2021-04-25T14:42:28Z</time>
      </trkpt>
      <trkpt lat="46.52989" lon="0.31955">
        <ele>134.2</ele>
        <time>2021-04-25T14:42:32Z</time>
      </trkpt>
      <trkpt lat="46.52987" lon="0.31961">
        <ele>135</ele>
        <time>2021-04-25T14:42:36Z</time>
      </trkpt>
      <trkpt lat="46.52987" lon="0.31965">
        <ele>135.2</ele>
        <time>2021-04-25T14:42:38Z</time>
      </trkpt>
      <trkpt lat="46.52984" lon="0.31972">
        <ele>136</ele>
        <time>2021-04-25T14:42:43Z</time>
      </trkpt>
      <trkpt lat="46.52983" lon="0.31973">
        <ele>136.2</ele>
        <time>2021-04-25T14:42:44Z</time>
      </trkpt>
      <trkpt lat="46.52983" lon="0.31974">
        <ele>136.4</ele>
        <time>2021-04-25T14:42:45Z</time>
      </trkpt>
      <trkpt lat="46.5298" lon="0.31978">
        <ele>136.8</ele>
        <time>2021-04-25T14:42:48Z</time>
      </trkpt>
      <trkpt lat="46.52977" lon="0.3198">
        <ele>137.2</ele>
        <time>2021-04-25T14:42:51Z</time>
      </trkpt>
      <trkpt lat="46.52975" lon="0.31981">
        <ele>137.4</ele>
        <time>2021-04-25T14:42:52Z</time>
      </trkpt>
      <trkpt lat="46.52971" lon="0.31986">
        <ele>138.4</ele>
        <time>2021-04-25T14:42:56Z</time>
      </trkpt>
      <trkpt lat="46.52967" lon="0.3199">
        <ele>138.8</ele>
        <time>2021-04-25T14:42:59Z</time>
      </trkpt>
      <trkpt lat="46.52966" lon="0.31992">
        <ele>139</ele>
        <time>2021-04-25T14:43:00Z</time>
      </trkpt>
      <trkpt lat="46.5296" lon="0.31997">
        <ele>139.6</ele>
        <time>2021-04-25T14:43:03Z</time>
      </trkpt>
      <trkpt lat="46.52953" lon="0.32001">
        <ele>140.8</ele>
        <time>2021-04-25T14:43:08Z</time>
      </trkpt>
      <trkpt lat="46.52949" lon="0.32003">
        <ele>141</ele>
        <time>2021-04-25T14:43:10Z</time>
      </trkpt>
      <trkpt lat="46.52937" lon="0.32008">
        <ele>141.8</ele>
        <time>2021-04-25T14:43:16Z</time>
      </trkpt>
      <trkpt lat="46.52931" lon="0.32011">
        <ele>142.2</ele>
        <time>2021-04-25T14:43:19Z</time>
      </trkpt>
      <trkpt lat="46.52924" lon="0.32014">
        <ele>143</ele>
        <time>2021-04-25T14:43:23Z</time>
      </trkpt>
      <trkpt lat="46.52915" lon="0.32015">
        <ele>143.4</ele>
        <time>2021-04-25T14:43:27Z</time>
      </trkpt>
      <trkpt lat="46.52909" lon="0.32013">
        <ele>143.4</ele>
        <time>2021-04-25T14:43:32Z</time>
      </trkpt>
      <trkpt lat="46.52908" lon="0.32012">
        <ele>143.4</ele>
        <time>2021-04-25T14:43:33Z</time>
      </trkpt>
      <trkpt lat="46.52894" lon="0.32004">
        <ele>143</ele>
        <time>2021-04-25T14:43:40Z</time>
      </trkpt>
      <trkpt lat="46.52883" lon="0.31994">
        <ele>143.2</ele>
        <time>2021-04-25T14:43:46Z</time>
      </trkpt>
      <trkpt lat="46.52874" lon="0.31982">
        <ele>142.4</ele>
        <time>2021-04-25T14:43:50Z</time>
      </trkpt>
      <trkpt lat="46.52872" lon="0.31978">
        <ele>142</ele>
        <time>2021-04-25T14:43:51Z</time>
      </trkpt>
      <trkpt lat="46.5287" lon="0.31975">
        <ele>141.8</ele>
        <time>2021-04-25T14:43:52Z</time>
      </trkpt>
      <trkpt lat="46.52861" lon="0.31958">
        <ele>140.6</ele>
        <time>2021-04-25T14:43:56Z</time>
      </trkpt>
      <trkpt lat="46.52856" lon="0.3195">
        <ele>139.2</ele>
        <time>2021-04-25T14:43:58Z</time>
      </trkpt>
      <trkpt lat="46.52854" lon="0.31945">
        <ele>138.6</ele>
        <time>2021-04-25T14:43:59Z</time>
      </trkpt>
      <trkpt lat="46.52852" lon="0.3194">
        <ele>138.2</ele>
        <time>2021-04-25T14:44:00Z</time>
      </trkpt>
      <trkpt lat="46.5285" lon="0.31935">
        <ele>138</ele>
        <time>2021-04-25T14:44:01Z</time>
      </trkpt>
      <trkpt lat="46.52846" lon="0.31926">
        <ele>137.8</ele>
        <time>2021-04-25T14:44:03Z</time>
      </trkpt>
      <trkpt lat="46.52844" lon="0.31923">
        <ele>137.6</ele>
        <time>2021-04-25T14:44:04Z</time>
      </trkpt>
      <trkpt lat="46.52838" lon="0.31915">
        <ele>136.2</ele>
        <time>2021-04-25T14:44:06Z</time>
      </trkpt>
      <trkpt lat="46.52836" lon="0.31912">
        <ele>135.2</ele>
        <time>2021-04-25T14:44:07Z</time>
      </trkpt>
      <trkpt lat="46.52834" lon="0.31908">
        <ele>133.6</ele>
        <time>2021-04-25T14:44:08Z</time>
      </trkpt>
      <trkpt lat="46.52832" lon="0.31903">
        <ele>132.4</ele>
        <time>2021-04-25T14:44:09Z</time>
      </trkpt>
      <trkpt lat="46.5283" lon="0.319">
        <ele>131.4</ele>
        <time>2021-04-25T14:44:10Z</time>
      </trkpt>
      <trkpt lat="46.52829" lon="0.31897">
        <ele>131</ele>
        <time>2021-04-25T14:44:11Z</time>
      </trkpt>
      <trkpt lat="46.52823" lon="0.31883">
        <ele>129.6</ele>
        <time>2021-04-25T14:44:14Z</time>
      </trkpt>
      <trkpt lat="46.5282" lon="0.31875">
        <ele>128.8</ele>
        <time>2021-04-25T14:44:16Z</time>
      </trkpt>
      <trkpt lat="46.52818" lon="0.31869">
        <ele>128.4</ele>
        <time>2021-04-25T14:44:17Z</time>
      </trkpt>
      <trkpt lat="46.52812" lon="0.31858">
        <ele>128.2</ele>
        <time>2021-04-25T14:44:18Z</time>
      </trkpt>
      <trkpt lat="46.52807" lon="0.31852">
        <ele>128</ele>
        <time>2021-04-25T14:44:20Z</time>
      </trkpt>
      <trkpt lat="46.52803" lon="0.31847">
        <ele>127.8</ele>
        <time>2021-04-25T14:44:21Z</time>
      </trkpt>
      <trkpt lat="46.52776" lon="0.31815">
        <ele>128</ele>
        <time>2021-04-25T14:44:24Z</time>
      </trkpt>
      <trkpt lat="46.52757" lon="0.31794">
        <ele>128.2</ele>
        <time>2021-04-25T14:44:27Z</time>
      </trkpt>
      <trkpt lat="46.5275" lon="0.31787">
        <ele>128.6</ele>
        <time>2021-04-25T14:44:28Z</time>
      </trkpt>
      <trkpt lat="46.52731" lon="0.31771">
        <ele>129.2</ele>
        <time>2021-04-25T14:44:32Z</time>
      </trkpt>
      <trkpt lat="46.52729" lon="0.31768">
        <ele>129.8</ele>
        <time>2021-04-25T14:44:33Z</time>
      </trkpt>
      <trkpt lat="46.52717" lon="0.31756">
        <ele>130.6</ele>
        <time>2021-04-25T14:44:38Z</time>
      </trkpt>
      <trkpt lat="46.52707" lon="0.31744">
        <ele>130.8</ele>
        <time>2021-04-25T14:44:42Z</time>
      </trkpt>
      <trkpt lat="46.52703" lon="0.31739">
        <ele>131.2</ele>
        <time>2021-04-25T14:44:44Z</time>
      </trkpt>
      <trkpt lat="46.52691" lon="0.31726">
        <ele>131.8</ele>
        <time>2021-04-25T14:44:47Z</time>
      </trkpt>
      <trkpt lat="46.52689" lon="0.31725">
        <ele>132</ele>
        <time>2021-04-25T14:44:48Z</time>
      </trkpt>
      <trkpt lat="46.52682" lon="0.31718">
        <ele>132.2</ele>
        <time>2021-04-25T14:44:50Z</time>
      </trkpt>
      <trkpt lat="46.52662" lon="0.317">
        <ele>132.6</ele>
        <time>2021-04-25T14:44:55Z</time>
      </trkpt>
      <trkpt lat="46.52655" lon="0.31691">
        <ele>132.8</ele>
        <time>2021-04-25T14:44:58Z</time>
      </trkpt>
      <trkpt lat="46.52647" lon="0.31685">
        <ele>133.2</ele>
        <time>2021-04-25T14:45:01Z</time>
      </trkpt>
      <trkpt lat="46.52641" lon="0.31682">
        <ele>133.6</ele>
        <time>2021-04-25T14:45:03Z</time>
      </trkpt>
      <trkpt lat="46.52636" lon="0.31677">
        <ele>134.2</ele>
        <time>2021-04-25T14:45:05Z</time>
      </trkpt>
      <trkpt lat="46.52629" lon="0.31673">
        <ele>134.6</ele>
        <time>2021-04-25T14:45:08Z</time>
      </trkpt>
      <trkpt lat="46.52617" lon="0.31663">
        <ele>135.4</ele>
        <time>2021-04-25T14:45:12Z</time>
      </trkpt>
      <trkpt lat="46.52612" lon="0.31658">
        <ele>135.6</ele>
        <time>2021-04-25T14:45:14Z</time>
      </trkpt>
      <trkpt lat="46.526" lon="0.31649">
        <ele>136.4</ele>
        <time>2021-04-25T14:45:18Z</time>
      </trkpt>
      <trkpt lat="46.52586" lon="0.31637">
        <ele>137.4</ele>
        <time>2021-04-25T14:45:21Z</time>
      </trkpt>
      <trkpt lat="46.52581" lon="0.31632">
        <ele>137.6</ele>
        <time>2021-04-25T14:45:22Z</time>
      </trkpt>
      <trkpt lat="46.52556" lon="0.31607">
        <ele>138.4</ele>
        <time>2021-04-25T14:45:29Z</time>
      </trkpt>
      <trkpt lat="46.52549" lon="0.31601">
        <ele>138.8</ele>
        <time>2021-04-25T14:45:32Z</time>
      </trkpt>
      <trkpt lat="46.52541" lon="0.31593">
        <ele>139.2</ele>
        <time>2021-04-25T14:45:35Z</time>
      </trkpt>
      <trkpt lat="46.52526" lon="0.31577">
        <ele>139.4</ele>
        <time>2021-04-25T14:45:41Z</time>
      </trkpt>
      <trkpt lat="46.52518" lon="0.31566">
        <ele>139.4</ele>
        <time>2021-04-25T14:45:45Z</time>
      </trkpt>
      <trkpt lat="46.52516" lon="0.31562">
        <ele>139.4</ele>
        <time>2021-04-25T14:45:46Z</time>
      </trkpt>
      <trkpt lat="46.52514" lon="0.31558">
        <ele>139.6</ele>
        <time>2021-04-25T14:45:47Z</time>
      </trkpt>
      <trkpt lat="46.52514" lon="0.31556">
        <ele>139.6</ele>
        <time>2021-04-25T14:45:48Z</time>
      </trkpt>
      <trkpt lat="46.5251" lon="0.31541">
        <ele>140</ele>
        <time>2021-04-25T14:45:53Z</time>
      </trkpt>
      <trkpt lat="46.52509" lon="0.31538">
        <ele>140.2</ele>
        <time>2021-04-25T14:45:54Z</time>
      </trkpt>
      <trkpt lat="46.52503" lon="0.3153">
        <ele>140.4</ele>
        <time>2021-04-25T14:45:55Z</time>
      </trkpt>
      <trkpt lat="46.52497" lon="0.31518">
        <ele>140.4</ele>
        <time>2021-04-25T14:45:57Z</time>
      </trkpt>
      <trkpt lat="46.52496" lon="0.31514">
        <ele>140.6</ele>
        <time>2021-04-25T14:45:58Z</time>
      </trkpt>
      <trkpt lat="46.52493" lon="0.31509">
        <ele>140.8</ele>
        <time>2021-04-25T14:45:59Z</time>
      </trkpt>
      <trkpt lat="46.52489" lon="0.315">
        <ele>141</ele>
        <time>2021-04-25T14:46:01Z</time>
      </trkpt>
      <trkpt lat="46.52486" lon="0.31494">
        <ele>141.6</ele>
        <time>2021-04-25T14:46:02Z</time>
      </trkpt>
      <trkpt lat="46.52482" lon="0.31484">
        <ele>141.8</ele>
        <time>2021-04-25T14:46:04Z</time>
      </trkpt>
      <trkpt lat="46.52477" lon="0.31474">
        <ele>142</ele>
        <time>2021-04-25T14:46:06Z</time>
      </trkpt>
      <trkpt lat="46.5247" lon="0.31454">
        <ele>142.4</ele>
        <time>2021-04-25T14:46:11Z</time>
      </trkpt>
      <trkpt lat="46.52469" lon="0.3145">
        <ele>142.6</ele>
        <time>2021-04-25T14:46:12Z</time>
      </trkpt>
      <trkpt lat="46.52469" lon="0.31446">
        <ele>142.8</ele>
        <time>2021-04-25T14:46:13Z</time>
      </trkpt>
      <trkpt lat="46.52469" lon="0.31438">
        <ele>142.8</ele>
        <time>2021-04-25T14:46:15Z</time>
      </trkpt>
      <trkpt lat="46.52468" lon="0.31426">
        <ele>143.2</ele>
        <time>2021-04-25T14:46:17Z</time>
      </trkpt>
      <trkpt lat="46.52467" lon="0.31421">
        <ele>143.4</ele>
        <time>2021-04-25T14:46:18Z</time>
      </trkpt>
      <trkpt lat="46.52464" lon="0.31412">
        <ele>143.6</ele>
        <time>2021-04-25T14:46:20Z</time>
      </trkpt>
      <trkpt lat="46.52457" lon="0.31391">
        <ele>144.2</ele>
        <time>2021-04-25T14:46:23Z</time>
      </trkpt>
      <trkpt lat="46.52448" lon="0.31368">
        <ele>144.8</ele>
        <time>2021-04-25T14:46:26Z</time>
      </trkpt>
      <trkpt lat="46.52446" lon="0.31358">
        <ele>145.2</ele>
        <time>2021-04-25T14:46:28Z</time>
      </trkpt>
      <trkpt lat="46.52445" lon="0.31351">
        <ele>145.8</ele>
        <time>2021-04-25T14:46:30Z</time>
      </trkpt>
      <trkpt lat="46.52448" lon="0.31342">
        <ele>146</ele>
        <time>2021-04-25T14:46:34Z</time>
      </trkpt>
      <trkpt lat="46.52451" lon="0.31337">
        <ele>147.2</ele>
        <time>2021-04-25T14:46:37Z</time>
      </trkpt>
      <trkpt lat="46.52455" lon="0.31333">
        <ele>147.8</ele>
        <time>2021-04-25T14:46:40Z</time>
      </trkpt>
      <trkpt lat="46.52458" lon="0.31331">
        <ele>148.4</ele>
        <time>2021-04-25T14:46:42Z</time>
      </trkpt>
      <trkpt lat="46.52465" lon="0.31327">
        <ele>149.4</ele>
        <time>2021-04-25T14:46:48Z</time>
      </trkpt>
      <trkpt lat="46.52465" lon="0.31326">
        <ele>149.4</ele>
        <time>2021-04-25T14:46:49Z</time>
      </trkpt>
      <trkpt lat="46.52467" lon="0.31323">
        <ele>149.8</ele>
        <time>2021-04-25T14:46:52Z</time>
      </trkpt>
      <trkpt lat="46.52467" lon="0.31317">
        <ele>150</ele>
        <time>2021-04-25T14:46:55Z</time>
      </trkpt>
      <trkpt lat="46.52466" lon="0.31313">
        <ele>150.2</ele>
        <time>2021-04-25T14:46:57Z</time>
      </trkpt>
      <trkpt lat="46.52459" lon="0.31294">
        <ele>150.2</ele>
        <time>2021-04-25T14:47:05Z</time>
      </trkpt>
      <trkpt lat="46.52457" lon="0.31288">
        <ele>150.2</ele>
        <time>2021-04-25T14:47:07Z</time>
      </trkpt>
      <trkpt lat="46.52454" lon="0.31277">
        <ele>150.2</ele>
        <time>2021-04-25T14:47:11Z</time>
      </trkpt>
      <trkpt lat="46.52448" lon="0.31271">
        <ele>149.6</ele>
        <time>2021-04-25T14:47:15Z</time>
      </trkpt>
      <trkpt lat="46.52448" lon="0.31271">
        <ele>149.6</ele>
        <time>2021-04-25T14:47:18Z</time>
      </trkpt>
      <trkpt lat="46.52449" lon="0.31272">
        <ele>149.8</ele>
        <time>2021-04-25T14:47:19Z</time>
      </trkpt>
      <trkpt lat="46.52453" lon="0.3128">
        <ele>150</ele>
        <time>2021-04-25T14:47:22Z</time>
      </trkpt>
      <trkpt lat="46.52464" lon="0.31302">
        <ele>150.2</ele>
        <time>2021-04-25T14:47:29Z</time>
      </trkpt>
      <trkpt lat="46.52472" lon="0.31317">
        <ele>150.4</ele>
        <time>2021-04-25T14:47:33Z</time>
      </trkpt>
      <trkpt lat="46.52475" lon="0.3132">
        <ele>150.4</ele>
        <time>2021-04-25T14:47:34Z</time>
      </trkpt>
      <trkpt lat="46.5248" lon="0.31325">
        <ele>150.6</ele>
        <time>2021-04-25T14:47:36Z</time>
      </trkpt>
      <trkpt lat="46.52495" lon="0.31337">
        <ele>151</ele>
        <time>2021-04-25T14:47:41Z</time>
      </trkpt>
      <trkpt lat="46.52504" lon="0.31345">
        <ele>151.6</ele>
        <time>2021-04-25T14:47:44Z</time>
      </trkpt>
      <trkpt lat="46.52514" lon="0.31354">
        <ele>151.8</ele>
        <time>2021-04-25T14:47:47Z</time>
      </trkpt>
      <trkpt lat="46.52538" lon="0.3137">
        <ele>152.8</ele>
        <time>2021-04-25T14:47:53Z</time>
      </trkpt>
      <trkpt lat="46.52557" lon="0.31383">
        <ele>153</ele>
        <time>2021-04-25T14:47:58Z</time>
      </trkpt>
      <trkpt lat="46.5257" lon="0.31391">
        <ele>153</ele>
        <time>2021-04-25T14:48:01Z</time>
      </trkpt>
      <trkpt lat="46.52578" lon="0.31397">
        <ele>153.2</ele>
        <time>2021-04-25T14:48:03Z</time>
      </trkpt>
      <trkpt lat="46.52595" lon="0.31404">
        <ele>153.8</ele>
        <time>2021-04-25T14:48:07Z</time>
      </trkpt>
      <trkpt lat="46.52599" lon="0.31406">
        <ele>153.8</ele>
        <time>2021-04-25T14:48:08Z</time>
      </trkpt>
      <trkpt lat="46.5261" lon="0.31409">
        <ele>154</ele>
        <time>2021-04-25T14:48:11Z</time>
      </trkpt>
      <trkpt lat="46.52617" lon="0.31411">
        <ele>154.2</ele>
        <time>2021-04-25T14:48:13Z</time>
      </trkpt>
      <trkpt lat="46.52625" lon="0.31413">
        <ele>154.2</ele>
        <time>2021-04-25T14:48:15Z</time>
      </trkpt>
      <trkpt lat="46.52633" lon="0.31415">
        <ele>154.2</ele>
        <time>2021-04-25T14:48:17Z</time>
      </trkpt>
      <trkpt lat="46.52657" lon="0.31418">
        <ele>154.2</ele>
        <time>2021-04-25T14:48:23Z</time>
      </trkpt>
      <trkpt lat="46.52666" lon="0.3142">
        <ele>154.2</ele>
        <time>2021-04-25T14:48:25Z</time>
      </trkpt>
      <trkpt lat="46.5268" lon="0.31426">
        <ele>154</ele>
        <time>2021-04-25T14:48:28Z</time>
      </trkpt>
      <trkpt lat="46.52685" lon="0.31428">
        <ele>154</ele>
        <time>2021-04-25T14:48:29Z</time>
      </trkpt>
      <trkpt lat="46.52693" lon="0.31432">
        <ele>154</ele>
        <time>2021-04-25T14:48:31Z</time>
      </trkpt>
      <trkpt lat="46.52699" lon="0.31429">
        <ele>154.2</ele>
        <time>2021-04-25T14:48:33Z</time>
      </trkpt>
      <trkpt lat="46.52706" lon="0.31424">
        <ele>154.2</ele>
        <time>2021-04-25T14:48:35Z</time>
      </trkpt>
      <trkpt lat="46.52714" lon="0.31419">
        <ele>154.4</ele>
        <time>2021-04-25T14:48:37Z</time>
      </trkpt>
      <trkpt lat="46.52718" lon="0.31417">
        <ele>154.4</ele>
        <time>2021-04-25T14:48:38Z</time>
      </trkpt>
      <trkpt lat="46.52744" lon="0.31406">
        <ele>154.4</ele>
        <time>2021-04-25T14:48:44Z</time>
      </trkpt>
      <trkpt lat="46.52771" lon="0.31398">
        <ele>153.8</ele>
        <time>2021-04-25T14:48:50Z</time>
      </trkpt>
      <trkpt lat="46.52776" lon="0.31391">
        <ele>153.8</ele>
        <time>2021-04-25T14:48:52Z</time>
      </trkpt>
      <trkpt lat="46.52779" lon="0.31384">
        <ele>153.8</ele>
        <time>2021-04-25T14:48:54Z</time>
      </trkpt>
      <trkpt lat="46.52783" lon="0.31377">
        <ele>153.8</ele>
        <time>2021-04-25T14:48:56Z</time>
      </trkpt>
      <trkpt lat="46.52788" lon="0.31368">
        <ele>153.8</ele>
        <time>2021-04-25T14:48:59Z</time>
      </trkpt>
      <trkpt lat="46.52787" lon="0.31363">
        <ele>153.8</ele>
        <time>2021-04-25T14:49:00Z</time>
      </trkpt>
      <trkpt lat="46.52787" lon="0.31357">
        <ele>153.8</ele>
        <time>2021-04-25T14:49:01Z</time>
      </trkpt>
      <trkpt lat="46.5279" lon="0.31339">
        <ele>154</ele>
        <time>2021-04-25T14:49:04Z</time>
      </trkpt>
      <trkpt lat="46.52793" lon="0.31312">
        <ele>152.8</ele>
        <time>2021-04-25T14:49:09Z</time>
      </trkpt>
      <trkpt lat="46.52794" lon="0.313">
        <ele>152.4</ele>
        <time>2021-04-25T14:49:11Z</time>
      </trkpt>
      <trkpt lat="46.52796" lon="0.31286">
        <ele>151.8</ele>
        <time>2021-04-25T14:49:13Z</time>
      </trkpt>
      <trkpt lat="46.52796" lon="0.31281">
        <ele>151.6</ele>
        <time>2021-04-25T14:49:14Z</time>
      </trkpt>
      <trkpt lat="46.52796" lon="0.31276">
        <ele>151.2</ele>
        <time>2021-04-25T14:49:15Z</time>
      </trkpt>
      <trkpt lat="46.52796" lon="0.31272">
        <ele>150.6</ele>
        <time>2021-04-25T14:49:16Z</time>
      </trkpt>
      <trkpt lat="46.52792" lon="0.31258">
        <ele>149.8</ele>
        <time>2021-04-25T14:49:18Z</time>
      </trkpt>
      <trkpt lat="46.52789" lon="0.31249">
        <ele>149.4</ele>
        <time>2021-04-25T14:49:20Z</time>
      </trkpt>
      <trkpt lat="46.52785" lon="0.31214">
        <ele>148</ele>
        <time>2021-04-25T14:49:25Z</time>
      </trkpt>
      <trkpt lat="46.52785" lon="0.312">
        <ele>146.8</ele>
        <time>2021-04-25T14:49:27Z</time>
      </trkpt>
      <trkpt lat="46.52785" lon="0.31173">
        <ele>145.6</ele>
        <time>2021-04-25T14:49:30Z</time>
      </trkpt>
      <trkpt lat="46.52786" lon="0.31155">
        <ele>144.8</ele>
        <time>2021-04-25T14:49:32Z</time>
      </trkpt>
      <trkpt lat="46.52786" lon="0.31147">
        <ele>144.4</ele>
        <time>2021-04-25T14:49:33Z</time>
      </trkpt>
      <trkpt lat="46.52785" lon="0.31132">
        <ele>143.8</ele>
        <time>2021-04-25T14:49:35Z</time>
      </trkpt>
      <trkpt lat="46.52782" lon="0.31106">
        <ele>143.4</ele>
        <time>2021-04-25T14:49:38Z</time>
      </trkpt>
      <trkpt lat="46.52782" lon="0.31098">
        <ele>143.4</ele>
        <time>2021-04-25T14:49:39Z</time>
      </trkpt>
      <trkpt lat="46.52779" lon="0.31071">
        <ele>143.2</ele>
        <time>2021-04-25T14:49:42Z</time>
      </trkpt>
      <trkpt lat="46.5278" lon="0.31065">
        <ele>143.2</ele>
        <time>2021-04-25T14:49:43Z</time>
      </trkpt>
      <trkpt lat="46.52779" lon="0.31034">
        <ele>143.4</ele>
        <time>2021-04-25T14:49:47Z</time>
      </trkpt>
      <trkpt lat="46.52779" lon="0.3101">
        <ele>143.8</ele>
        <time>2021-04-25T14:49:50Z</time>
      </trkpt>
      <trkpt lat="46.52773" lon="0.30982">
        <ele>144.4</ele>
        <time>2021-04-25T14:49:52Z</time>
      </trkpt>
      <trkpt lat="46.52764" lon="0.30962">
        <ele>144.8</ele>
        <time>2021-04-25T14:49:53Z</time>
      </trkpt>
      <trkpt lat="46.52736" lon="0.30911">
        <ele>145.8</ele>
        <time>2021-04-25T14:49:57Z</time>
      </trkpt>
      <trkpt lat="46.52733" lon="0.30904">
        <ele>146</ele>
        <time>2021-04-25T14:49:58Z</time>
      </trkpt>
      <trkpt lat="46.52729" lon="0.30897">
        <ele>146.8</ele>
        <time>2021-04-25T14:50:00Z</time>
      </trkpt>
      <trkpt lat="46.52728" lon="0.30894">
        <ele>147</ele>
        <time>2021-04-25T14:50:01Z</time>
      </trkpt>
      <trkpt lat="46.52726" lon="0.30886">
        <ele>147</ele>
        <time>2021-04-25T14:50:03Z</time>
      </trkpt>
      <trkpt lat="46.52723" lon="0.30874">
        <ele>147.2</ele>
        <time>2021-04-25T14:50:06Z</time>
      </trkpt>
      <trkpt lat="46.5272" lon="0.30866">
        <ele>147.4</ele>
        <time>2021-04-25T14:50:08Z</time>
      </trkpt>
      <trkpt lat="46.52719" lon="0.30857">
        <ele>147.4</ele>
        <time>2021-04-25T14:50:10Z</time>
      </trkpt>
      <trkpt lat="46.52712" lon="0.30832">
        <ele>146.6</ele>
        <time>2021-04-25T14:50:17Z</time>
      </trkpt>
      <trkpt lat="46.52708" lon="0.3082">
        <ele>145.6</ele>
        <time>2021-04-25T14:50:21Z</time>
      </trkpt>
      <trkpt lat="46.52708" lon="0.30816">
        <ele>145.2</ele>
        <time>2021-04-25T14:50:25Z</time>
      </trkpt>
      <trkpt lat="46.52707" lon="0.30813">
        <ele>145.4</ele>
        <time>2021-04-25T14:50:29Z</time>
      </trkpt>
      <trkpt lat="46.5271" lon="0.30813">
        <ele>145.4</ele>
        <time>2021-04-25T14:50:33Z</time>
      </trkpt>
      <trkpt lat="46.5271" lon="0.30812">
        <ele>145.4</ele>
        <time>2021-04-25T14:50:35Z</time>
      </trkpt>
      <trkpt lat="46.52708" lon="0.3081">
        <ele>145.6</ele>
        <time>2021-04-25T14:50:42Z</time>
      </trkpt>
      <trkpt lat="46.52709" lon="0.30811">
        <ele>146.4</ele>
        <time>2021-04-25T14:50:46Z</time>
      </trkpt>
      <trkpt lat="46.5271" lon="0.30812">
        <ele>146.6</ele>
        <time>2021-04-25T14:50:48Z</time>
      </trkpt>
      <trkpt lat="46.5271" lon="0.30814">
        <ele>146.6</ele>
        <time>2021-04-25T14:50:49Z</time>
      </trkpt>
      <trkpt lat="46.52711" lon="0.30815">
        <ele>146.8</ele>
        <time>2021-04-25T14:50:50Z</time>
      </trkpt>
      <trkpt lat="46.52711" lon="0.3082">
        <ele>147.4</ele>
        <time>2021-04-25T14:50:54Z</time>
      </trkpt>
      <trkpt lat="46.5271" lon="0.30823">
        <ele>147.4</ele>
        <time>2021-04-25T14:50:57Z</time>
      </trkpt>
      <trkpt lat="46.52709" lon="0.30823">
        <ele>147.6</ele>
        <time>2021-04-25T14:50:58Z</time>
      </trkpt>
      <trkpt lat="46.52709" lon="0.30822">
        <ele>147.6</ele>
        <time>2021-04-25T14:51:01Z</time>
      </trkpt>
      <trkpt lat="46.52708" lon="0.30822">
        <ele>147.8</ele>
        <time>2021-04-25T14:51:02Z</time>
      </trkpt>
      <trkpt lat="46.52705" lon="0.30821">
        <ele>148.4</ele>
        <time>2021-04-25T14:51:04Z</time>
      </trkpt>
      <trkpt lat="46.52702" lon="0.30818">
        <ele>149</ele>
        <time>2021-04-25T14:51:06Z</time>
      </trkpt>
      <trkpt lat="46.52696" lon="0.30813">
        <ele>150.2</ele>
        <time>2021-04-25T14:51:10Z</time>
      </trkpt>
      <trkpt lat="46.52693" lon="0.30811">
        <ele>150.8</ele>
        <time>2021-04-25T14:51:12Z</time>
      </trkpt>
      <trkpt lat="46.5269" lon="0.30808">
        <ele>151.4</ele>
        <time>2021-04-25T14:51:14Z</time>
      </trkpt>
      <trkpt lat="46.52684" lon="0.30805">
        <ele>152.2</ele>
        <time>2021-04-25T14:51:17Z</time>
      </trkpt>
      <trkpt lat="46.52682" lon="0.30804">
        <ele>152.6</ele>
        <time>2021-04-25T14:51:18Z</time>
      </trkpt>
      <trkpt lat="46.52681" lon="0.30803">
        <ele>152.8</ele>
        <time>2021-04-25T14:51:19Z</time>
      </trkpt>
      <trkpt lat="46.52675" lon="0.30797">
        <ele>153.6</ele>
        <time>2021-04-25T14:51:23Z</time>
      </trkpt>
      <trkpt lat="46.52667" lon="0.30776">
        <ele>154</ele>
        <time>2021-04-25T14:51:31Z</time>
      </trkpt>
      <trkpt lat="46.52663" lon="0.30752">
        <ele>154</ele>
        <time>2021-04-25T14:51:37Z</time>
      </trkpt>
      <trkpt lat="46.52663" lon="0.30749">
        <ele>153.8</ele>
        <time>2021-04-25T14:51:39Z</time>
      </trkpt>
      <trkpt lat="46.5266" lon="0.30743">
        <ele>153.6</ele>
        <time>2021-04-25T14:51:44Z</time>
      </trkpt>
      <trkpt lat="46.52661" lon="0.30735">
        <ele>153.6</ele>
        <time>2021-04-25T14:51:52Z</time>
      </trkpt>
      <trkpt lat="46.52663" lon="0.30735">
        <ele>153.4</ele>
        <time>2021-04-25T14:51:53Z</time>
      </trkpt>
      <trkpt lat="46.5267" lon="0.30736">
        <ele>152.4</ele>
        <time>2021-04-25T14:51:56Z</time>
      </trkpt>
      <trkpt lat="46.52676" lon="0.30738">
        <ele>152</ele>
        <time>2021-04-25T14:51:58Z</time>
      </trkpt>
      <trkpt lat="46.52683" lon="0.30742">
        <ele>151.2</ele>
        <time>2021-04-25T14:52:00Z</time>
      </trkpt>
      <trkpt lat="46.5269" lon="0.30745">
        <ele>150</ele>
        <time>2021-04-25T14:52:03Z</time>
      </trkpt>
      <trkpt lat="46.52695" lon="0.30746">
        <ele>149</ele>
        <time>2021-04-25T14:52:06Z</time>
      </trkpt>
      <trkpt lat="46.52697" lon="0.30745">
        <ele>148.2</ele>
        <time>2021-04-25T14:52:08Z</time>
      </trkpt>
      <trkpt lat="46.52698" lon="0.30744">
        <ele>148</ele>
        <time>2021-04-25T14:52:09Z</time>
      </trkpt>
      <trkpt lat="46.52698" lon="0.30743">
        <ele>148</ele>
        <time>2021-04-25T14:52:11Z</time>
      </trkpt>
      <trkpt lat="46.52696" lon="0.3074">
        <ele>147.8</ele>
        <time>2021-04-25T14:52:14Z</time>
      </trkpt>
      <trkpt lat="46.52696" lon="0.30739">
        <ele>147.8</ele>
        <time>2021-04-25T14:52:15Z</time>
      </trkpt>
      <trkpt lat="46.52695" lon="0.30732">
        <ele>147.6</ele>
        <time>2021-04-25T14:52:18Z</time>
      </trkpt>
      <trkpt lat="46.52693" lon="0.30725">
        <ele>147.8</ele>
        <time>2021-04-25T14:52:20Z</time>
      </trkpt>
      <trkpt lat="46.52693" lon="0.30718">
        <ele>147.8</ele>
        <time>2021-04-25T14:52:22Z</time>
      </trkpt>
      <trkpt lat="46.52691" lon="0.30705">
        <ele>147.6</ele>
        <time>2021-04-25T14:52:26Z</time>
      </trkpt>
      <trkpt lat="46.5269" lon="0.30699">
        <ele>147.6</ele>
        <time>2021-04-25T14:52:28Z</time>
      </trkpt>
      <trkpt lat="46.52685" lon="0.30679">
        <ele>148.4</ele>
        <time>2021-04-25T14:52:33Z</time>
      </trkpt>
      <trkpt lat="46.52682" lon="0.30672">
        <ele>149.2</ele>
        <time>2021-04-25T14:52:35Z</time>
      </trkpt>
      <trkpt lat="46.5268" lon="0.30658">
        <ele>149.4</ele>
        <time>2021-04-25T14:52:38Z</time>
      </trkpt>
      <trkpt lat="46.52679" lon="0.30653">
        <ele>149.4</ele>
        <time>2021-04-25T14:52:39Z</time>
      </trkpt>
      <trkpt lat="46.52678" lon="0.30636">
        <ele>149.4</ele>
        <time>2021-04-25T14:52:42Z</time>
      </trkpt>
      <trkpt lat="46.52677" lon="0.30623">
        <ele>149</ele>
        <time>2021-04-25T14:52:44Z</time>
      </trkpt>
      <trkpt lat="46.52678" lon="0.30612">
        <ele>148</ele>
        <time>2021-04-25T14:52:46Z</time>
      </trkpt>
      <trkpt lat="46.52676" lon="0.30603">
        <ele>147.8</ele>
        <time>2021-04-25T14:52:48Z</time>
      </trkpt>
      <trkpt lat="46.52672" lon="0.30586">
        <ele>147.8</ele>
        <time>2021-04-25T14:52:51Z</time>
      </trkpt>
      <trkpt lat="46.52668" lon="0.30579">
        <ele>148</ele>
        <time>2021-04-25T14:52:53Z</time>
      </trkpt>
      <trkpt lat="46.52662" lon="0.30567">
        <ele>148.2</ele>
        <time>2021-04-25T14:52:56Z</time>
      </trkpt>
      <trkpt lat="46.5266" lon="0.30563">
        <ele>148.4</ele>
        <time>2021-04-25T14:52:57Z</time>
      </trkpt>
      <trkpt lat="46.52658" lon="0.30554">
        <ele>149</ele>
        <time>2021-04-25T14:52:59Z</time>
      </trkpt>
      <trkpt lat="46.52657" lon="0.30548">
        <ele>149</ele>
        <time>2021-04-25T14:53:00Z</time>
      </trkpt>
      <trkpt lat="46.52656" lon="0.30538">
        <ele>149</ele>
        <time>2021-04-25T14:53:02Z</time>
      </trkpt>
      <trkpt lat="46.52655" lon="0.30523">
        <ele>148.4</ele>
        <time>2021-04-25T14:53:05Z</time>
      </trkpt>
      <trkpt lat="46.52657" lon="0.30503">
        <ele>148.2</ele>
        <time>2021-04-25T14:53:09Z</time>
      </trkpt>
      <trkpt lat="46.52656" lon="0.30497">
        <ele>147.8</ele>
        <time>2021-04-25T14:53:10Z</time>
      </trkpt>
      <trkpt lat="46.52657" lon="0.30489">
        <ele>147.6</ele>
        <time>2021-04-25T14:53:11Z</time>
      </trkpt>
      <trkpt lat="46.52657" lon="0.30476">
        <ele>146.6</ele>
        <time>2021-04-25T14:53:13Z</time>
      </trkpt>
      <trkpt lat="46.52656" lon="0.3047">
        <ele>146.2</ele>
        <time>2021-04-25T14:53:14Z</time>
      </trkpt>
      <trkpt lat="46.52654" lon="0.30457">
        <ele>146</ele>
        <time>2021-04-25T14:53:16Z</time>
      </trkpt>
      <trkpt lat="46.52652" lon="0.30445">
        <ele>145.2</ele>
        <time>2021-04-25T14:53:18Z</time>
      </trkpt>
      <trkpt lat="46.52651" lon="0.30416">
        <ele>144.6</ele>
        <time>2021-04-25T14:53:22Z</time>
      </trkpt>
      <trkpt lat="46.52653" lon="0.30404">
        <ele>144.4</ele>
        <time>2021-04-25T14:53:24Z</time>
      </trkpt>
      <trkpt lat="46.52657" lon="0.30395">
        <ele>144.2</ele>
        <time>2021-04-25T14:53:26Z</time>
      </trkpt>
      <trkpt lat="46.52659" lon="0.30386">
        <ele>144.2</ele>
        <time>2021-04-25T14:53:28Z</time>
      </trkpt>
      <trkpt lat="46.52658" lon="0.30376">
        <ele>144</ele>
        <time>2021-04-25T14:53:30Z</time>
      </trkpt>
      <trkpt lat="46.52656" lon="0.30372">
        <ele>143.8</ele>
        <time>2021-04-25T14:53:31Z</time>
      </trkpt>
      <trkpt lat="46.52655" lon="0.30368">
        <ele>143.6</ele>
        <time>2021-04-25T14:53:32Z</time>
      </trkpt>
      <trkpt lat="46.52653" lon="0.30363">
        <ele>143.2</ele>
        <time>2021-04-25T14:53:33Z</time>
      </trkpt>
      <trkpt lat="46.52644" lon="0.30342">
        <ele>142.6</ele>
        <time>2021-04-25T14:53:37Z</time>
      </trkpt>
      <trkpt lat="46.52626" lon="0.30311">
        <ele>142.6</ele>
        <time>2021-04-25T14:53:44Z</time>
      </trkpt>
      <trkpt lat="46.5262" lon="0.30299">
        <ele>142.8</ele>
        <time>2021-04-25T14:53:56Z</time>
      </trkpt>
      <trkpt lat="46.5262" lon="0.30297">
        <ele>143.2</ele>
        <time>2021-04-25T14:54:13Z</time>
      </trkpt>
      <trkpt lat="46.52619" lon="0.30295">
        <ele>143</ele>
        <time>2021-04-25T14:54:18Z</time>
      </trkpt>
      <trkpt lat="46.52619" lon="0.30292">
        <ele>143</ele>
        <time>2021-04-25T14:54:25Z</time>
      </trkpt>
      <trkpt lat="46.52617" lon="0.3029">
        <ele>142.8</ele>
        <time>2021-04-25T14:54:32Z</time>
      </trkpt>
      <trkpt lat="46.52614" lon="0.30285">
        <ele>142.4</ele>
        <time>2021-04-25T14:54:36Z</time>
      </trkpt>
      <trkpt lat="46.52614" lon="0.3028">
        <ele>142.2</ele>
        <time>2021-04-25T14:54:38Z</time>
      </trkpt>
      <trkpt lat="46.52614" lon="0.30276">
        <ele>142</ele>
        <time>2021-04-25T14:54:40Z</time>
      </trkpt>
      <trkpt lat="46.52613" lon="0.30274">
        <ele>141.8</ele>
        <time>2021-04-25T14:54:41Z</time>
      </trkpt>
      <trkpt lat="46.52611" lon="0.3027">
        <ele>140.8</ele>
        <time>2021-04-25T14:54:43Z</time>
      </trkpt>
      <trkpt lat="46.5261" lon="0.30265">
        <ele>139.6</ele>
        <time>2021-04-25T14:54:45Z</time>
      </trkpt>
      <trkpt lat="46.52609" lon="0.30261">
        <ele>138.4</ele>
        <time>2021-04-25T14:54:47Z</time>
      </trkpt>
      <trkpt lat="46.52607" lon="0.30256">
        <ele>136.2</ele>
        <time>2021-04-25T14:54:49Z</time>
      </trkpt>
      <trkpt lat="46.52605" lon="0.3025">
        <ele>134.6</ele>
        <time>2021-04-25T14:54:51Z</time>
      </trkpt>
      <trkpt lat="46.52603" lon="0.30245">
        <ele>132.8</ele>
        <time>2021-04-25T14:54:53Z</time>
      </trkpt>
      <trkpt lat="46.526" lon="0.30238">
        <ele>130.4</ele>
        <time>2021-04-25T14:54:55Z</time>
      </trkpt>
      <trkpt lat="46.52598" lon="0.30235">
        <ele>129</ele>
        <time>2021-04-25T14:54:56Z</time>
      </trkpt>
      <trkpt lat="46.52594" lon="0.3023">
        <ele>127.4</ele>
        <time>2021-04-25T14:54:58Z</time>
      </trkpt>
      <trkpt lat="46.52589" lon="0.30228">
        <ele>126</ele>
        <time>2021-04-25T14:55:00Z</time>
      </trkpt>
      <trkpt lat="46.52563" lon="0.30216">
        <ele>125.6</ele>
        <time>2021-04-25T14:55:07Z</time>
      </trkpt>
      <trkpt lat="46.5254" lon="0.30211">
        <ele>126.6</ele>
        <time>2021-04-25T14:55:14Z</time>
      </trkpt>
      <trkpt lat="46.52532" lon="0.30209">
        <ele>127</ele>
        <time>2021-04-25T14:55:17Z</time>
      </trkpt>
      <trkpt lat="46.52517" lon="0.3021">
        <ele>128</ele>
        <time>2021-04-25T14:55:23Z</time>
      </trkpt>
      <trkpt lat="46.52514" lon="0.30211">
        <ele>128.2</ele>
        <time>2021-04-25T14:55:24Z</time>
      </trkpt>
      <trkpt lat="46.52497" lon="0.30213">
        <ele>129.4</ele>
        <time>2021-04-25T14:55:31Z</time>
      </trkpt>
      <trkpt lat="46.52489" lon="0.30216">
        <ele>130.2</ele>
        <time>2021-04-25T14:55:35Z</time>
      </trkpt>
      <trkpt lat="46.52486" lon="0.30222">
        <ele>130.4</ele>
        <time>2021-04-25T14:55:37Z</time>
      </trkpt>
      <trkpt lat="46.52489" lon="0.3023">
        <ele>131.2</ele>
        <time>2021-04-25T14:55:41Z</time>
      </trkpt>
      <trkpt lat="46.5249" lon="0.3023">
        <ele>131.6</ele>
        <time>2021-04-25T14:55:42Z</time>
      </trkpt>
      <trkpt lat="46.52493" lon="0.30232">
        <ele>133</ele>
        <time>2021-04-25T14:55:47Z</time>
      </trkpt>
      <trkpt lat="46.52495" lon="0.30234">
        <ele>134</ele>
        <time>2021-04-25T14:55:49Z</time>
      </trkpt>
      <trkpt lat="46.52497" lon="0.30235">
        <ele>135.2</ele>
        <time>2021-04-25T14:55:52Z</time>
      </trkpt>
      <trkpt lat="46.525" lon="0.30236">
        <ele>135.8</ele>
        <time>2021-04-25T14:55:55Z</time>
      </trkpt>
      <trkpt lat="46.52504" lon="0.30235">
        <ele>136.2</ele>
        <time>2021-04-25T14:55:58Z</time>
      </trkpt>
      <trkpt lat="46.52509" lon="0.30234">
        <ele>137</ele>
        <time>2021-04-25T14:56:02Z</time>
      </trkpt>
      <trkpt lat="46.5251" lon="0.30234">
        <ele>137.2</ele>
        <time>2021-04-25T14:56:03Z</time>
      </trkpt>
      <trkpt lat="46.52515" lon="0.30234">
        <ele>138.2</ele>
        <time>2021-04-25T14:56:06Z</time>
      </trkpt>
      <trkpt lat="46.52524" lon="0.30232">
        <ele>138.8</ele>
        <time>2021-04-25T14:56:10Z</time>
      </trkpt>
      <trkpt lat="46.52541" lon="0.30231">
        <ele>138.8</ele>
        <time>2021-04-25T14:56:16Z</time>
      </trkpt>
      <trkpt lat="46.52548" lon="0.30234">
        <ele>139.2</ele>
        <time>2021-04-25T14:56:19Z</time>
      </trkpt>
      <trkpt lat="46.52551" lon="0.30235">
        <ele>139.6</ele>
        <time>2021-04-25T14:56:20Z</time>
      </trkpt>
      <trkpt lat="46.52563" lon="0.30241">
        <ele>140.6</ele>
        <time>2021-04-25T14:56:25Z</time>
      </trkpt>
      <trkpt lat="46.52568" lon="0.30243">
        <ele>141</ele>
        <time>2021-04-25T14:56:27Z</time>
      </trkpt>
      <trkpt lat="46.52576" lon="0.30247">
        <ele>141.6</ele>
        <time>2021-04-25T14:56:30Z</time>
      </trkpt>
      <trkpt lat="46.52586" lon="0.30252">
        <ele>142</ele>
        <time>2021-04-25T14:56:34Z</time>
      </trkpt>
      <trkpt lat="46.52601" lon="0.30263">
        <ele>142.2</ele>
        <time>2021-04-25T14:56:40Z</time>
      </trkpt>
      <trkpt lat="46.52612" lon="0.30273">
        <ele>142.6</ele>
        <time>2021-04-25T14:56:44Z</time>
      </trkpt>
      <trkpt lat="46.52617" lon="0.30281">
        <ele>143.2</ele>
        <time>2021-04-25T14:56:46Z</time>
      </trkpt>
      <trkpt lat="46.52629" lon="0.30301">
        <ele>143.6</ele>
        <time>2021-04-25T14:56:52Z</time>
      </trkpt>
      <trkpt lat="46.5263" lon="0.30305">
        <ele>143.8</ele>
        <time>2021-04-25T14:56:53Z</time>
      </trkpt>
      <trkpt lat="46.52637" lon="0.30323">
        <ele>144.4</ele>
        <time>2021-04-25T14:56:58Z</time>
      </trkpt>
      <trkpt lat="46.5264" lon="0.30337">
        <ele>145</ele>
        <time>2021-04-25T14:57:02Z</time>
      </trkpt>
      <trkpt lat="46.52643" lon="0.30347">
        <ele>145.4</ele>
        <time>2021-04-25T14:57:05Z</time>
      </trkpt>
      <trkpt lat="46.52647" lon="0.30372">
        <ele>145.8</ele>
        <time>2021-04-25T14:57:12Z</time>
      </trkpt>
      <trkpt lat="46.52647" lon="0.30376">
        <ele>146</ele>
        <time>2021-04-25T14:57:13Z</time>
      </trkpt>
      <trkpt lat="46.52649" lon="0.30396">
        <ele>146.4</ele>
        <time>2021-04-25T14:57:18Z</time>
      </trkpt>
      <trkpt lat="46.5265" lon="0.30421">
        <ele>147.2</ele>
        <time>2021-04-25T14:57:24Z</time>
      </trkpt>
      <trkpt lat="46.5265" lon="0.30435">
        <ele>147.4</ele>
        <time>2021-04-25T14:57:26Z</time>
      </trkpt>
      <trkpt lat="46.52652" lon="0.30464">
        <ele>148.4</ele>
        <time>2021-04-25T14:57:31Z</time>
      </trkpt>
      <trkpt lat="46.52652" lon="0.3047">
        <ele>148.4</ele>
        <time>2021-04-25T14:57:32Z</time>
      </trkpt>
      <trkpt lat="46.52651" lon="0.30492">
        <ele>148.6</ele>
        <time>2021-04-25T14:57:37Z</time>
      </trkpt>
      <trkpt lat="46.52649" lon="0.30514">
        <ele>149</ele>
        <time>2021-04-25T14:57:44Z</time>
      </trkpt>
      <trkpt lat="46.52648" lon="0.30525">
        <ele>149.4</ele>
        <time>2021-04-25T14:57:47Z</time>
      </trkpt>
      <trkpt lat="46.52646" lon="0.3054">
        <ele>150.2</ele>
        <time>2021-04-25T14:57:51Z</time>
      </trkpt>
      <trkpt lat="46.52646" lon="0.30543">
        <ele>150.8</ele>
        <time>2021-04-25T14:57:52Z</time>
      </trkpt>
      <trkpt lat="46.52643" lon="0.30559">
        <ele>151.6</ele>
        <time>2021-04-25T14:57:57Z</time>
      </trkpt>
      <trkpt lat="46.52641" lon="0.30561">
        <ele>151.8</ele>
        <time>2021-04-25T14:57:58Z</time>
      </trkpt>
      <trkpt lat="46.5264" lon="0.30569">
        <ele>152</ele>
        <time>2021-04-25T14:58:00Z</time>
      </trkpt>
      <trkpt lat="46.52641" lon="0.30575">
        <ele>152</ele>
        <time>2021-04-25T14:58:02Z</time>
      </trkpt>
      <trkpt lat="46.52643" lon="0.30573">
        <ele>152</ele>
        <time>2021-04-25T14:58:06Z</time>
      </trkpt>
      <trkpt lat="46.52641" lon="0.30571">
        <ele>151.8</ele>
        <time>2021-04-25T14:58:07Z</time>
      </trkpt>
      <trkpt lat="46.52641" lon="0.30569">
        <ele>151.4</ele>
        <time>2021-04-25T14:58:08Z</time>
      </trkpt>
      <trkpt lat="46.52639" lon="0.30556">
        <ele>151</ele>
        <time>2021-04-25T14:58:11Z</time>
      </trkpt>
      <trkpt lat="46.52638" lon="0.30546">
        <ele>150.6</ele>
        <time>2021-04-25T14:58:13Z</time>
      </trkpt>
      <trkpt lat="46.52639" lon="0.3054">
        <ele>150.2</ele>
        <time>2021-04-25T14:58:15Z</time>
      </trkpt>
      <trkpt lat="46.52639" lon="0.30539">
        <ele>150.2</ele>
        <time>2021-04-25T14:58:16Z</time>
      </trkpt>
      <trkpt lat="46.52641" lon="0.30539">
        <ele>149</ele>
        <time>2021-04-25T14:58:18Z</time>
      </trkpt>
      <trkpt lat="46.52643" lon="0.30541">
        <ele>147.8</ele>
        <time>2021-04-25T14:58:20Z</time>
      </trkpt>
      <trkpt lat="46.52645" lon="0.30543">
        <ele>147.6</ele>
        <time>2021-04-25T14:58:21Z</time>
      </trkpt>
      <trkpt lat="46.52652" lon="0.30556">
        <ele>147</ele>
        <time>2021-04-25T14:58:25Z</time>
      </trkpt>
      <trkpt lat="46.52653" lon="0.30561">
        <ele>147.2</ele>
        <time>2021-04-25T14:58:26Z</time>
      </trkpt>
      <trkpt lat="46.52655" lon="0.30565">
        <ele>147.2</ele>
        <time>2021-04-25T14:58:27Z</time>
      </trkpt>
      <trkpt lat="46.5266" lon="0.30584">
        <ele>148</ele>
        <time>2021-04-25T14:58:32Z</time>
      </trkpt>
      <trkpt lat="46.52662" lon="0.30596">
        <ele>149</ele>
        <time>2021-04-25T14:58:35Z</time>
      </trkpt>
      <trkpt lat="46.52665" lon="0.30609">
        <ele>149.2</ele>
        <time>2021-04-25T14:58:38Z</time>
      </trkpt>
      <trkpt lat="46.52674" lon="0.3063">
        <ele>149</ele>
        <time>2021-04-25T14:58:42Z</time>
      </trkpt>
      <trkpt lat="46.52677" lon="0.30642">
        <ele>148.6</ele>
        <time>2021-04-25T14:58:44Z</time>
      </trkpt>
      <trkpt lat="46.52679" lon="0.30646">
        <ele>147.8</ele>
        <time>2021-04-25T14:58:45Z</time>
      </trkpt>
      <trkpt lat="46.52681" lon="0.30651">
        <ele>147.4</ele>
        <time>2021-04-25T14:58:46Z</time>
      </trkpt>
      <trkpt lat="46.52684" lon="0.30664">
        <ele>147.4</ele>
        <time>2021-04-25T14:58:49Z</time>
      </trkpt>
      <trkpt lat="46.52687" lon="0.30675">
        <ele>147.8</ele>
        <time>2021-04-25T14:58:51Z</time>
      </trkpt>
      <trkpt lat="46.52691" lon="0.30685">
        <ele>148</ele>
        <time>2021-04-25T14:58:53Z</time>
      </trkpt>
      <trkpt lat="46.52692" lon="0.30691">
        <ele>147.6</ele>
        <time>2021-04-25T14:58:54Z</time>
      </trkpt>
      <trkpt lat="46.52701" lon="0.30711">
        <ele>147.4</ele>
        <time>2021-04-25T14:58:59Z</time>
      </trkpt>
      <trkpt lat="46.52707" lon="0.30729">
        <ele>146.6</ele>
        <time>2021-04-25T14:59:04Z</time>
      </trkpt>
      <trkpt lat="46.52711" lon="0.30742">
        <ele>145.2</ele>
        <time>2021-04-25T14:59:08Z</time>
      </trkpt>
      <trkpt lat="46.52712" lon="0.30746">
        <ele>144.8</ele>
        <time>2021-04-25T14:59:09Z</time>
      </trkpt>
      <trkpt lat="46.52713" lon="0.30755">
        <ele>144.4</ele>
        <time>2021-04-25T14:59:11Z</time>
      </trkpt>
      <trkpt lat="46.52712" lon="0.30763">
        <ele>144.4</ele>
        <time>2021-04-25T14:59:13Z</time>
      </trkpt>
      <trkpt lat="46.52712" lon="0.30766">
        <ele>144</ele>
        <time>2021-04-25T14:59:14Z</time>
      </trkpt>
      <trkpt lat="46.52721" lon="0.30783">
        <ele>144.2</ele>
        <time>2021-04-25T14:59:18Z</time>
      </trkpt>
      <trkpt lat="46.52727" lon="0.308">
        <ele>142.4</ele>
        <time>2021-04-25T14:59:21Z</time>
      </trkpt>
      <trkpt lat="46.52731" lon="0.30813">
        <ele>141.2</ele>
        <time>2021-04-25T14:59:23Z</time>
      </trkpt>
      <trkpt lat="46.52736" lon="0.30827">
        <ele>140.2</ele>
        <time>2021-04-25T14:59:25Z</time>
      </trkpt>
      <trkpt lat="46.52739" lon="0.30836">
        <ele>139.4</ele>
        <time>2021-04-25T14:59:26Z</time>
      </trkpt>
      <trkpt lat="46.52741" lon="0.30846">
        <ele>139</ele>
        <time>2021-04-25T14:59:27Z</time>
      </trkpt>
      <trkpt lat="46.52743" lon="0.30855">
        <ele>138.2</ele>
        <time>2021-04-25T14:59:28Z</time>
      </trkpt>
      <trkpt lat="46.52747" lon="0.3087">
        <ele>136.8</ele>
        <time>2021-04-25T14:59:30Z</time>
      </trkpt>
      <trkpt lat="46.5275" lon="0.30883">
        <ele>135.8</ele>
        <time>2021-04-25T14:59:32Z</time>
      </trkpt>
      <trkpt lat="46.52754" lon="0.309">
        <ele>134.8</ele>
        <time>2021-04-25T14:59:35Z</time>
      </trkpt>
      <trkpt lat="46.52756" lon="0.30907">
        <ele>134.2</ele>
        <time>2021-04-25T14:59:36Z</time>
      </trkpt>
      <trkpt lat="46.52757" lon="0.30913">
        <ele>133.2</ele>
        <time>2021-04-25T14:59:37Z</time>
      </trkpt>
      <trkpt lat="46.5276" lon="0.30918">
        <ele>132.6</ele>
        <time>2021-04-25T14:59:38Z</time>
      </trkpt>
      <trkpt lat="46.52761" lon="0.30924">
        <ele>131.8</ele>
        <time>2021-04-25T14:59:39Z</time>
      </trkpt>
      <trkpt lat="46.52764" lon="0.30929">
        <ele>131</ele>
        <time>2021-04-25T14:59:40Z</time>
      </trkpt>
      <trkpt lat="46.52766" lon="0.30935">
        <ele>130</ele>
        <time>2021-04-25T14:59:41Z</time>
      </trkpt>
      <trkpt lat="46.52773" lon="0.3095">
        <ele>129.2</ele>
        <time>2021-04-25T14:59:44Z</time>
      </trkpt>
      <trkpt lat="46.52775" lon="0.30955">
        <ele>129.2</ele>
        <time>2021-04-25T14:59:45Z</time>
      </trkpt>
      <trkpt lat="46.52777" lon="0.30961">
        <ele>129</ele>
        <time>2021-04-25T14:59:46Z</time>
      </trkpt>
      <trkpt lat="46.5278" lon="0.30968">
        <ele>129</ele>
        <time>2021-04-25T14:59:47Z</time>
      </trkpt>
      <trkpt lat="46.52785" lon="0.30979">
        <ele>127.2</ele>
        <time>2021-04-25T14:59:49Z</time>
      </trkpt>
      <trkpt lat="46.52787" lon="0.30984">
        <ele>126.2</ele>
        <time>2021-04-25T14:59:50Z</time>
      </trkpt>
      <trkpt lat="46.52788" lon="0.30989">
        <ele>125</ele>
        <time>2021-04-25T14:59:51Z</time>
      </trkpt>
      <trkpt lat="46.52793" lon="0.31">
        <ele>123.6</ele>
        <time>2021-04-25T14:59:53Z</time>
      </trkpt>
      <trkpt lat="46.52801" lon="0.31019">
        <ele>122.6</ele>
        <time>2021-04-25T14:59:56Z</time>
      </trkpt>
      <trkpt lat="46.52804" lon="0.31027">
        <ele>122.2</ele>
        <time>2021-04-25T14:59:57Z</time>
      </trkpt>
      <trkpt lat="46.52817" lon="0.31057">
        <ele>121</ele>
        <time>2021-04-25T15:00:01Z</time>
      </trkpt>
      <trkpt lat="46.52826" lon="0.31079">
        <ele>119.4</ele>
        <time>2021-04-25T15:00:04Z</time>
      </trkpt>
      <trkpt lat="46.52838" lon="0.31103">
        <ele>118</ele>
        <time>2021-04-25T15:00:08Z</time>
      </trkpt>
      <trkpt lat="46.5284" lon="0.31109">
        <ele>117.2</ele>
        <time>2021-04-25T15:00:09Z</time>
      </trkpt>
      <trkpt lat="46.52844" lon="0.31114">
        <ele>116.8</ele>
        <time>2021-04-25T15:00:10Z</time>
      </trkpt>
      <trkpt lat="46.52849" lon="0.31125">
        <ele>116.6</ele>
        <time>2021-04-25T15:00:12Z</time>
      </trkpt>
      <trkpt lat="46.52852" lon="0.31129">
        <ele>116.4</ele>
        <time>2021-04-25T15:00:13Z</time>
      </trkpt>
      <trkpt lat="46.52857" lon="0.31137">
        <ele>116.4</ele>
        <time>2021-04-25T15:00:15Z</time>
      </trkpt>
      <trkpt lat="46.52861" lon="0.31145">
        <ele>116.2</ele>
        <time>2021-04-25T15:00:17Z</time>
      </trkpt>
      <trkpt lat="46.52865" lon="0.31155">
        <ele>115.6</ele>
        <time>2021-04-25T15:00:19Z</time>
      </trkpt>
      <trkpt lat="46.52875" lon="0.31169">
        <ele>114.8</ele>
        <time>2021-04-25T15:00:23Z</time>
      </trkpt>
      <trkpt lat="46.52886" lon="0.31186">
        <ele>114.4</ele>
        <time>2021-04-25T15:00:28Z</time>
      </trkpt>
      <trkpt lat="46.5289" lon="0.31194">
        <ele>114.2</ele>
        <time>2021-04-25T15:00:31Z</time>
      </trkpt>
      <trkpt lat="46.52896" lon="0.31202">
        <ele>113.8</ele>
        <time>2021-04-25T15:00:37Z</time>
      </trkpt>
      <trkpt lat="46.52899" lon="0.31212">
        <ele>114.6</ele>
        <time>2021-04-25T15:00:52Z</time>
      </trkpt>
      <trkpt lat="46.52899" lon="0.31217">
        <ele>114.4</ele>
        <time>2021-04-25T15:01:07Z</time>
      </trkpt>
      <trkpt lat="46.52899" lon="0.31219">
        <ele>114.6</ele>
        <time>2021-04-25T15:01:09Z</time>
      </trkpt>
      <trkpt lat="46.52898" lon="0.31222">
        <ele>115.6</ele>
        <time>2021-04-25T15:01:11Z</time>
      </trkpt>
      <trkpt lat="46.52898" lon="0.31226">
        <ele>116</ele>
        <time>2021-04-25T15:01:13Z</time>
      </trkpt>
      <trkpt lat="46.52898" lon="0.31229">
        <ele>116.8</ele>
        <time>2021-04-25T15:01:14Z</time>
      </trkpt>
      <trkpt lat="46.52899" lon="0.31233">
        <ele>117.8</ele>
        <time>2021-04-25T15:01:16Z</time>
      </trkpt>
      <trkpt lat="46.529" lon="0.31238">
        <ele>118.8</ele>
        <time>2021-04-25T15:01:19Z</time>
      </trkpt>
      <trkpt lat="46.529" lon="0.3124">
        <ele>119</ele>
        <time>2021-04-25T15:01:20Z</time>
      </trkpt>
      <trkpt lat="46.52903" lon="0.31246">
        <ele>120.4</ele>
        <time>2021-04-25T15:01:24Z</time>
      </trkpt>
      <trkpt lat="46.52904" lon="0.31253">
        <ele>121.6</ele>
        <time>2021-04-25T15:01:28Z</time>
      </trkpt>
      <trkpt lat="46.52904" lon="0.31257">
        <ele>122.4</ele>
        <time>2021-04-25T15:01:30Z</time>
      </trkpt>
      <trkpt lat="46.52905" lon="0.31259">
        <ele>122.6</ele>
        <time>2021-04-25T15:01:31Z</time>
      </trkpt>
      <trkpt lat="46.5291" lon="0.31271">
        <ele>124</ele>
        <time>2021-04-25T15:01:38Z</time>
      </trkpt>
      <trkpt lat="46.52911" lon="0.31275">
        <ele>125</ele>
        <time>2021-04-25T15:01:41Z</time>
      </trkpt>
      <trkpt lat="46.52912" lon="0.31276">
        <ele>125.2</ele>
        <time>2021-04-25T15:01:42Z</time>
      </trkpt>
      <trkpt lat="46.52917" lon="0.31286">
        <ele>126.4</ele>
        <time>2021-04-25T15:01:50Z</time>
      </trkpt>
      <trkpt lat="46.52919" lon="0.31294">
        <ele>127.2</ele>
        <time>2021-04-25T15:01:54Z</time>
      </trkpt>
      <trkpt lat="46.5292" lon="0.31295">
        <ele>127.4</ele>
        <time>2021-04-25T15:01:55Z</time>
      </trkpt>
      <trkpt lat="46.52923" lon="0.31304">
        <ele>128.6</ele>
        <time>2021-04-25T15:02:01Z</time>
      </trkpt>
      <trkpt lat="46.52927" lon="0.3131">
        <ele>129.6</ele>
        <time>2021-04-25T15:02:05Z</time>
      </trkpt>
      <trkpt lat="46.52929" lon="0.31313">
        <ele>130</ele>
        <time>2021-04-25T15:02:07Z</time>
      </trkpt>
      <trkpt lat="46.52929" lon="0.31317">
        <ele>130.8</ele>
        <time>2021-04-25T15:02:10Z</time>
      </trkpt>
      <trkpt lat="46.5293" lon="0.31322">
        <ele>132</ele>
        <time>2021-04-25T15:02:14Z</time>
      </trkpt>
      <trkpt lat="46.52932" lon="0.31327">
        <ele>133</ele>
        <time>2021-04-25T15:02:19Z</time>
      </trkpt>
      <trkpt lat="46.52932" lon="0.31328">
        <ele>133.2</ele>
        <time>2021-04-25T15:02:20Z</time>
      </trkpt>
      <trkpt lat="46.52933" lon="0.31332">
        <ele>133.4</ele>
        <time>2021-04-25T15:02:22Z</time>
      </trkpt>
      <trkpt lat="46.52935" lon="0.31346">
        <ele>134</ele>
        <time>2021-04-25T15:02:29Z</time>
      </trkpt>
      <trkpt lat="46.52935" lon="0.31348">
        <ele>134.2</ele>
        <time>2021-04-25T15:02:30Z</time>
      </trkpt>
      <trkpt lat="46.52942" lon="0.31368">
        <ele>134.6</ele>
        <time>2021-04-25T15:02:40Z</time>
      </trkpt>
      <trkpt lat="46.52944" lon="0.31385">
        <ele>135.4</ele>
        <time>2021-04-25T15:02:47Z</time>
      </trkpt>
      <trkpt lat="46.52944" lon="0.31392">
        <ele>136.6</ele>
        <time>2021-04-25T15:02:51Z</time>
      </trkpt>
      <trkpt lat="46.52945" lon="0.31399">
        <ele>137.8</ele>
        <time>2021-04-25T15:02:55Z</time>
      </trkpt>
      <trkpt lat="46.52948" lon="0.31413">
        <ele>138.8</ele>
        <time>2021-04-25T15:03:02Z</time>
      </trkpt>
      <trkpt lat="46.52949" lon="0.31417">
        <ele>139</ele>
        <time>2021-04-25T15:03:04Z</time>
      </trkpt>
      <trkpt lat="46.52952" lon="0.31434">
        <ele>140</ele>
        <time>2021-04-25T15:03:13Z</time>
      </trkpt>
      <trkpt lat="46.52951" lon="0.31436">
        <ele>140.4</ele>
        <time>2021-04-25T15:03:14Z</time>
      </trkpt>
      <trkpt lat="46.52951" lon="0.31436">
        <ele>140.6</ele>
        <time>2021-04-25T15:03:15Z</time>
      </trkpt>
      <trkpt lat="46.52949" lon="0.31437">
        <ele>141</ele>
        <time>2021-04-25T15:03:17Z</time>
      </trkpt>
      <trkpt lat="46.52948" lon="0.31437">
        <ele>141.4</ele>
        <time>2021-04-25T15:03:18Z</time>
      </trkpt>
      <trkpt lat="46.52947" lon="0.31438">
        <ele>141.8</ele>
        <time>2021-04-25T15:03:20Z</time>
      </trkpt>
      <trkpt lat="46.52946" lon="0.31437">
        <ele>142.4</ele>
        <time>2021-04-25T15:03:22Z</time>
      </trkpt>
      <trkpt lat="46.52945" lon="0.31438">
        <ele>142.8</ele>
        <time>2021-04-25T15:03:24Z</time>
      </trkpt>
      <trkpt lat="46.52944" lon="0.31437">
        <ele>142.8</ele>
        <time>2021-04-25T15:03:25Z</time>
      </trkpt>
      <trkpt lat="46.52943" lon="0.31436">
        <ele>143.2</ele>
        <time>2021-04-25T15:03:27Z</time>
      </trkpt>
      <trkpt lat="46.52938" lon="0.31433">
        <ele>143.6</ele>
        <time>2021-04-25T15:03:31Z</time>
      </trkpt>
      <trkpt lat="46.52936" lon="0.31431">
        <ele>144.2</ele>
        <time>2021-04-25T15:03:33Z</time>
      </trkpt>
      <trkpt lat="46.52934" lon="0.31429">
        <ele>144.8</ele>
        <time>2021-04-25T15:03:35Z</time>
      </trkpt>
      <trkpt lat="46.52932" lon="0.31426">
        <ele>145</ele>
        <time>2021-04-25T15:03:37Z</time>
      </trkpt>
      <trkpt lat="46.52925" lon="0.31412">
        <ele>145.6</ele>
        <time>2021-04-25T15:03:46Z</time>
      </trkpt>
      <trkpt lat="46.52925" lon="0.31409">
        <ele>145.6</ele>
        <time>2021-04-25T15:03:47Z</time>
      </trkpt>
      <trkpt lat="46.52923" lon="0.31405">
        <ele>145.8</ele>
        <time>2021-04-25T15:03:48Z</time>
      </trkpt>
      <trkpt lat="46.52914" lon="0.31391">
        <ele>146.2</ele>
        <time>2021-04-25T15:03:53Z</time>
      </trkpt>
      <trkpt lat="46.52905" lon="0.31375">
        <ele>146.4</ele>
        <time>2021-04-25T15:03:58Z</time>
      </trkpt>
      <trkpt lat="46.52898" lon="0.31357">
        <ele>146.2</ele>
        <time>2021-04-25T15:04:04Z</time>
      </trkpt>
      <trkpt lat="46.52897" lon="0.31353">
        <ele>146.2</ele>
        <time>2021-04-25T15:04:05Z</time>
      </trkpt>
      <trkpt lat="46.52887" lon="0.31326">
        <ele>145</ele>
        <time>2021-04-25T15:04:10Z</time>
      </trkpt>
      <trkpt lat="46.52884" lon="0.31319">
        <ele>144.8</ele>
        <time>2021-04-25T15:04:11Z</time>
      </trkpt>
      <trkpt lat="46.52881" lon="0.31315">
        <ele>144.2</ele>
        <time>2021-04-25T15:04:12Z</time>
      </trkpt>
      <trkpt lat="46.52877" lon="0.31307">
        <ele>143.6</ele>
        <time>2021-04-25T15:04:14Z</time>
      </trkpt>
      <trkpt lat="46.52875" lon="0.31303">
        <ele>143.6</ele>
        <time>2021-04-25T15:04:15Z</time>
      </trkpt>
      <trkpt lat="46.52859" lon="0.31282">
        <ele>143.8</ele>
        <time>2021-04-25T15:04:21Z</time>
      </trkpt>
      <trkpt lat="46.52843" lon="0.31263">
        <ele>144.2</ele>
        <time>2021-04-25T15:04:27Z</time>
      </trkpt>
      <trkpt lat="46.52843" lon="0.31262">
        <ele>144.2</ele>
        <time>2021-04-25T15:04:28Z</time>
      </trkpt>
      <trkpt lat="46.52837" lon="0.31257">
        <ele>144.4</ele>
        <time>2021-04-25T15:04:31Z</time>
      </trkpt>
      <trkpt lat="46.52835" lon="0.31253">
        <ele>144.6</ele>
        <time>2021-04-25T15:04:33Z</time>
      </trkpt>
      <trkpt lat="46.52832" lon="0.31246">
        <ele>144.6</ele>
        <time>2021-04-25T15:04:35Z</time>
      </trkpt>
      <trkpt lat="46.52833" lon="0.31243">
        <ele>144.2</ele>
        <time>2021-04-25T15:04:39Z</time>
      </trkpt>
      <trkpt lat="46.52833" lon="0.31242">
        <ele>144.2</ele>
        <time>2021-04-25T15:04:42Z</time>
      </trkpt>
      <trkpt lat="46.52837" lon="0.31246">
        <ele>143.6</ele>
        <time>2021-04-25T15:04:49Z</time>
      </trkpt>
      <trkpt lat="46.52839" lon="0.31245">
        <ele>143.2</ele>
        <time>2021-04-25T15:04:57Z</time>
      </trkpt>
      <trkpt lat="46.52848" lon="0.31255">
        <ele>143</ele>
        <time>2021-04-25T15:05:05Z</time>
      </trkpt>
      <trkpt lat="46.52857" lon="0.31271">
        <ele>143.4</ele>
        <time>2021-04-25T15:05:16Z</time>
      </trkpt>
      <trkpt lat="46.52858" lon="0.31275">
        <ele>143.4</ele>
        <time>2021-04-25T15:05:28Z</time>
      </trkpt>
      <trkpt lat="46.52858" lon="0.31276">
        <ele>143.6</ele>
        <time>2021-04-25T15:05:30Z</time>
      </trkpt>
      <trkpt lat="46.52858" lon="0.31277">
        <ele>144</ele>
        <time>2021-04-25T15:05:39Z</time>
      </trkpt>
      <trkpt lat="46.52859" lon="0.31279">
        <ele>144</ele>
        <time>2021-04-25T15:05:50Z</time>
      </trkpt>
      <trkpt lat="46.52859" lon="0.3128">
        <ele>144.2</ele>
        <time>2021-04-25T15:06:29Z</time>
      </trkpt>
      <trkpt lat="46.52859" lon="0.3128">
        <ele>144.2</ele>
        <time>2021-04-25T15:06:31Z</time>
      </trkpt>
      <trkpt lat="46.52858" lon="0.31275">
        <ele>143.8</ele>
        <time>2021-04-25T15:06:42Z</time>
      </trkpt>
      <trkpt lat="46.52858" lon="0.31274">
        <ele>143.8</ele>
        <time>2021-04-25T15:06:43Z</time>
      </trkpt>
      <trkpt lat="46.52859" lon="0.3127">
        <ele>142.8</ele>
        <time>2021-04-25T15:06:46Z</time>
      </trkpt>
      <trkpt lat="46.5286" lon="0.31268">
        <ele>142.4</ele>
        <time>2021-04-25T15:06:47Z</time>
      </trkpt>
      <trkpt lat="46.52862" lon="0.31266">
        <ele>141</ele>
        <time>2021-04-25T15:06:49Z</time>
      </trkpt>
      <trkpt lat="46.52863" lon="0.31265">
        <ele>139.4</ele>
        <time>2021-04-25T15:06:50Z</time>
      </trkpt>
      <trkpt lat="46.52864" lon="0.31264">
        <ele>138.6</ele>
        <time>2021-04-25T15:06:51Z</time>
      </trkpt>
      <trkpt lat="46.52865" lon="0.31262">
        <ele>137.4</ele>
        <time>2021-04-25T15:06:52Z</time>
      </trkpt>
      <trkpt lat="46.52867" lon="0.31261">
        <ele>135.8</ele>
        <time>2021-04-25T15:06:53Z</time>
      </trkpt>
      <trkpt lat="46.52868" lon="0.3126">
        <ele>134.2</ele>
        <time>2021-04-25T15:06:54Z</time>
      </trkpt>
      <trkpt lat="46.52869" lon="0.31259">
        <ele>133</ele>
        <time>2021-04-25T15:06:55Z</time>
      </trkpt>
      <trkpt lat="46.52871" lon="0.31256">
        <ele>130.6</ele>
        <time>2021-04-25T15:06:57Z</time>
      </trkpt>
      <trkpt lat="46.52872" lon="0.31254">
        <ele>129</ele>
        <time>2021-04-25T15:06:58Z</time>
      </trkpt>
      <trkpt lat="46.52872" lon="0.31251">
        <ele>128</ele>
        <time>2021-04-25T15:06:59Z</time>
      </trkpt>
      <trkpt lat="46.52872" lon="0.31249">
        <ele>127</ele>
        <time>2021-04-25T15:07:00Z</time>
      </trkpt>
      <trkpt lat="46.52872" lon="0.31247">
        <ele>125.8</ele>
        <time>2021-04-25T15:07:01Z</time>
      </trkpt>
      <trkpt lat="46.52872" lon="0.31245">
        <ele>124.6</ele>
        <time>2021-04-25T15:07:02Z</time>
      </trkpt>
      <trkpt lat="46.52873" lon="0.31244">
        <ele>123.8</ele>
        <time>2021-04-25T15:07:03Z</time>
      </trkpt>
      <trkpt lat="46.52873" lon="0.31244">
        <ele>122.6</ele>
        <time>2021-04-25T15:07:04Z</time>
      </trkpt>
      <trkpt lat="46.52871" lon="0.31238">
        <ele>121.2</ele>
        <time>2021-04-25T15:07:06Z</time>
      </trkpt>
      <trkpt lat="46.52871" lon="0.31235">
        <ele>120</ele>
        <time>2021-04-25T15:07:08Z</time>
      </trkpt>
      <trkpt lat="46.5287" lon="0.31232">
        <ele>119.2</ele>
        <time>2021-04-25T15:07:10Z</time>
      </trkpt>
      <trkpt lat="46.5287" lon="0.3123">
        <ele>118.8</ele>
        <time>2021-04-25T15:07:11Z</time>
      </trkpt>
      <trkpt lat="46.52871" lon="0.31228">
        <ele>118.2</ele>
        <time>2021-04-25T15:07:12Z</time>
      </trkpt>
      <trkpt lat="46.52871" lon="0.31225">
        <ele>117.6</ele>
        <time>2021-04-25T15:07:13Z</time>
      </trkpt>
      <trkpt lat="46.52876" lon="0.31223">
        <ele>116.4</ele>
        <time>2021-04-25T15:07:14Z</time>
      </trkpt>
      <trkpt lat="46.52878" lon="0.31223">
        <ele>115.6</ele>
        <time>2021-04-25T15:07:15Z</time>
      </trkpt>
      <trkpt lat="46.52881" lon="0.31223">
        <ele>115</ele>
        <time>2021-04-25T15:07:16Z</time>
      </trkpt>
      <trkpt lat="46.52889" lon="0.31225">
        <ele>114.4</ele>
        <time>2021-04-25T15:07:19Z</time>
      </trkpt>
      <trkpt lat="46.52895" lon="0.31223">
        <ele>114.2</ele>
        <time>2021-04-25T15:07:24Z</time>
      </trkpt>
      <trkpt lat="46.52903" lon="0.31223">
        <ele>114</ele>
        <time>2021-04-25T15:07:32Z</time>
      </trkpt>
      <trkpt lat="46.52905" lon="0.31223">
        <ele>114.2</ele>
        <time>2021-04-25T15:07:42Z</time>
      </trkpt>
      <trkpt lat="46.52905" lon="0.31224">
        <ele>114.2</ele>
        <time>2021-04-25T15:07:58Z</time>
      </trkpt>
      <trkpt lat="46.52906" lon="0.31226">
        <ele>114</ele>
        <time>2021-04-25T15:08:14Z</time>
      </trkpt>
      <trkpt lat="46.52906" lon="0.31226">
        <ele>114</ele>
        <time>2021-04-25T15:08:34Z</time>
      </trkpt>
      <trkpt lat="46.52906" lon="0.31227">
        <ele>114</ele>
        <time>2021-04-25T15:08:45Z</time>
      </trkpt>
      <trkpt lat="46.52904" lon="0.31226">
        <ele>114</ele>
        <time>2021-04-25T15:09:01Z</time>
      </trkpt>
      <trkpt lat="46.52903" lon="0.31225">
        <ele>114</ele>
        <time>2021-04-25T15:09:16Z</time>
      </trkpt>
      <trkpt lat="46.52908" lon="0.31229">
        <ele>114</ele>
        <time>2021-04-25T15:09:27Z</time>
      </trkpt>
      <trkpt lat="46.52917" lon="0.31239">
        <ele>114</ele>
        <time>2021-04-25T15:09:34Z</time>
      </trkpt>
      <trkpt lat="46.5293" lon="0.31255">
        <ele>113.2</ele>
        <time>2021-04-25T15:09:40Z</time>
      </trkpt>
      <trkpt lat="46.52933" lon="0.31256">
        <ele>113</ele>
        <time>2021-04-25T15:09:42Z</time>
      </trkpt>
      <trkpt lat="46.52936" lon="0.31257">
        <ele>112.8</ele>
        <time>2021-04-25T15:09:46Z</time>
      </trkpt>
      <trkpt lat="46.52944" lon="0.31262">
        <ele>112.8</ele>
        <time>2021-04-25T15:09:56Z</time>
      </trkpt>
      <trkpt lat="46.52957" lon="0.31256">
        <ele>112.4</ele>
        <time>2021-04-25T15:10:03Z</time>
      </trkpt>
      <trkpt lat="46.52962" lon="0.3125">
        <ele>112.4</ele>
        <time>2021-04-25T15:10:09Z</time>
      </trkpt>
      <trkpt lat="46.52966" lon="0.31247">
        <ele>112.8</ele>
        <time>2021-04-25T15:10:12Z</time>
      </trkpt>
      <trkpt lat="46.52977" lon="0.31245">
        <ele>113</ele>
        <time>2021-04-25T15:10:18Z</time>
      </trkpt>
      <trkpt lat="46.52986" lon="0.31234">
        <ele>114</ele>
        <time>2021-04-25T15:10:26Z</time>
      </trkpt>
      <trkpt lat="46.52988" lon="0.31232">
        <ele>114.2</ele>
        <time>2021-04-25T15:10:27Z</time>
      </trkpt>
      <trkpt lat="46.52994" lon="0.31225">
        <ele>115</ele>
        <time>2021-04-25T15:10:31Z</time>
      </trkpt>
      <trkpt lat="46.52997" lon="0.31221">
        <ele>115.2</ele>
        <time>2021-04-25T15:10:33Z</time>
      </trkpt>
      <trkpt lat="46.53004" lon="0.31207">
        <ele>116</ele>
        <time>2021-04-25T15:10:39Z</time>
      </trkpt>
      <trkpt lat="46.53005" lon="0.31204">
        <ele>116</ele>
        <time>2021-04-25T15:10:40Z</time>
      </trkpt>
      <trkpt lat="46.53009" lon="0.31195">
        <ele>117.2</ele>
        <time>2021-04-25T15:10:44Z</time>
      </trkpt>
      <trkpt lat="46.53012" lon="0.3119">
        <ele>117.4</ele>
        <time>2021-04-25T15:10:46Z</time>
      </trkpt>
      <trkpt lat="46.53019" lon="0.31175">
        <ele>118.2</ele>
        <time>2021-04-25T15:10:52Z</time>
      </trkpt>
      <trkpt lat="46.5303" lon="0.31155">
        <ele>119</ele>
        <time>2021-04-25T15:10:59Z</time>
      </trkpt>
      <trkpt lat="46.53033" lon="0.3115">
        <ele>119.4</ele>
        <time>2021-04-25T15:11:01Z</time>
      </trkpt>
      <trkpt lat="46.53041" lon="0.31134">
        <ele>120</ele>
        <time>2021-04-25T15:11:06Z</time>
      </trkpt>
      <trkpt lat="46.53044" lon="0.3113">
        <ele>120.4</ele>
        <time>2021-04-25T15:11:08Z</time>
      </trkpt>
      <trkpt lat="46.53054" lon="0.31117">
        <ele>121.2</ele>
        <time>2021-04-25T15:11:13Z</time>
      </trkpt>
      <trkpt lat="46.53059" lon="0.31112">
        <ele>121.6</ele>
        <time>2021-04-25T15:11:15Z</time>
      </trkpt>
      <trkpt lat="46.53065" lon="0.31105">
        <ele>122.6</ele>
        <time>2021-04-25T15:11:18Z</time>
      </trkpt>
      <trkpt lat="46.53066" lon="0.31104">
        <ele>123</ele>
        <time>2021-04-25T15:11:19Z</time>
      </trkpt>
      <trkpt lat="46.53078" lon="0.3109">
        <ele>123.6</ele>
        <time>2021-04-25T15:11:26Z</time>
      </trkpt>
      <trkpt lat="46.53079" lon="0.31088">
        <ele>123.8</ele>
        <time>2021-04-25T15:11:27Z</time>
      </trkpt>
      <trkpt lat="46.53085" lon="0.31079">
        <ele>124.6</ele>
        <time>2021-04-25T15:11:31Z</time>
      </trkpt>
      <trkpt lat="46.53089" lon="0.31074">
        <ele>124.8</ele>
        <time>2021-04-25T15:11:34Z</time>
      </trkpt>
      <trkpt lat="46.53098" lon="0.31065">
        <ele>125.6</ele>
        <time>2021-04-25T15:11:39Z</time>
      </trkpt>
      <trkpt lat="46.53102" lon="0.31057">
        <ele>126</ele>
        <time>2021-04-25T15:11:42Z</time>
      </trkpt>
      <trkpt lat="46.53109" lon="0.3105">
        <ele>126.6</ele>
        <time>2021-04-25T15:11:46Z</time>
      </trkpt>
      <trkpt lat="46.53114" lon="0.31046">
        <ele>127.2</ele>
        <time>2021-04-25T15:11:48Z</time>
      </trkpt>
      <trkpt lat="46.53123" lon="0.31036">
        <ele>127.6</ele>
        <time>2021-04-25T15:11:53Z</time>
      </trkpt>
      <trkpt lat="46.53131" lon="0.31025">
        <ele>128.4</ele>
        <time>2021-04-25T15:11:58Z</time>
      </trkpt>
      <trkpt lat="46.53134" lon="0.31023">
        <ele>128.4</ele>
        <time>2021-04-25T15:11:59Z</time>
      </trkpt>
      <trkpt lat="46.53141" lon="0.31016">
        <ele>129.4</ele>
        <time>2021-04-25T15:12:03Z</time>
      </trkpt>
      <trkpt lat="46.53148" lon="0.31007">
        <ele>129.8</ele>
        <time>2021-04-25T15:12:07Z</time>
      </trkpt>
      <trkpt lat="46.53151" lon="0.31001">
        <ele>130</ele>
        <time>2021-04-25T15:12:10Z</time>
      </trkpt>
      <trkpt lat="46.53158" lon="0.30993">
        <ele>130.4</ele>
        <time>2021-04-25T15:12:14Z</time>
      </trkpt>
      <trkpt lat="46.53158" lon="0.30991">
        <ele>130.4</ele>
        <time>2021-04-25T15:12:15Z</time>
      </trkpt>
      <trkpt lat="46.53167" lon="0.30977">
        <ele>131.4</ele>
        <time>2021-04-25T15:12:21Z</time>
      </trkpt>
      <trkpt lat="46.5318" lon="0.30964">
        <ele>132.8</ele>
        <time>2021-04-25T15:12:28Z</time>
      </trkpt>
      <trkpt lat="46.5318" lon="0.30961">
        <ele>133</ele>
        <time>2021-04-25T15:12:29Z</time>
      </trkpt>
      <trkpt lat="46.53188" lon="0.30951">
        <ele>134</ele>
        <time>2021-04-25T15:12:33Z</time>
      </trkpt>
      <trkpt lat="46.53191" lon="0.30946">
        <ele>134.6</ele>
        <time>2021-04-25T15:12:35Z</time>
      </trkpt>
      <trkpt lat="46.53197" lon="0.3094">
        <ele>135</ele>
        <time>2021-04-25T15:12:38Z</time>
      </trkpt>
      <trkpt lat="46.532" lon="0.30934">
        <ele>135</ele>
        <time>2021-04-25T15:12:40Z</time>
      </trkpt>
      <trkpt lat="46.53213" lon="0.30918">
        <ele>135</ele>
        <time>2021-04-25T15:12:46Z</time>
      </trkpt>
      <trkpt lat="46.53228" lon="0.30903">
        <ele>135.8</ele>
        <time>2021-04-25T15:12:53Z</time>
      </trkpt>
      <trkpt lat="46.53238" lon="0.30893">
        <ele>136</ele>
        <time>2021-04-25T15:12:57Z</time>
      </trkpt>
      <trkpt lat="46.53254" lon="0.3088">
        <ele>136.4</ele>
        <time>2021-04-25T15:13:02Z</time>
      </trkpt>
      <trkpt lat="46.53272" lon="0.3087">
        <ele>137.4</ele>
        <time>2021-04-25T15:13:07Z</time>
      </trkpt>
      <trkpt lat="46.53281" lon="0.30867">
        <ele>138</ele>
        <time>2021-04-25T15:13:10Z</time>
      </trkpt>
      <trkpt lat="46.53295" lon="0.30859">
        <ele>138.2</ele>
        <time>2021-04-25T15:13:15Z</time>
      </trkpt>
      <trkpt lat="46.53297" lon="0.30858">
        <ele>138.4</ele>
        <time>2021-04-25T15:13:16Z</time>
      </trkpt>
      <trkpt lat="46.533" lon="0.30855">
        <ele>138.4</ele>
        <time>2021-04-25T15:13:17Z</time>
      </trkpt>
      <trkpt lat="46.53314" lon="0.30846">
        <ele>139.2</ele>
        <time>2021-04-25T15:13:22Z</time>
      </trkpt>
      <trkpt lat="46.5332" lon="0.30843">
        <ele>139.6</ele>
        <time>2021-04-25T15:13:24Z</time>
      </trkpt>
      <trkpt lat="46.53327" lon="0.30834">
        <ele>140</ele>
        <time>2021-04-25T15:13:28Z</time>
      </trkpt>
      <trkpt lat="46.53333" lon="0.30828">
        <ele>140.6</ele>
        <time>2021-04-25T15:13:31Z</time>
      </trkpt>
      <trkpt lat="46.53343" lon="0.30821">
        <ele>141.4</ele>
        <time>2021-04-25T15:13:35Z</time>
      </trkpt>
      <trkpt lat="46.53346" lon="0.3082">
        <ele>141.6</ele>
        <time>2021-04-25T15:13:36Z</time>
      </trkpt>
      <trkpt lat="46.53346" lon="0.3082">
        <ele>142.6</ele>
        <time>2021-04-25T15:13:41Z</time>
      </trkpt>
      <trkpt lat="46.5337" lon="0.30809">
        <ele>142.8</ele>
        <time>2021-04-25T15:13:44Z</time>
      </trkpt>
      <trkpt lat="46.53382" lon="0.30801">
        <ele>143.8</ele>
        <time>2021-04-25T15:13:49Z</time>
      </trkpt>
      <trkpt lat="46.53403" lon="0.30788">
        <ele>144.4</ele>
        <time>2021-04-25T15:13:56Z</time>
      </trkpt>
      <trkpt lat="46.53409" lon="0.30786">
        <ele>145</ele>
        <time>2021-04-25T15:13:58Z</time>
      </trkpt>
      <trkpt lat="46.53421" lon="0.30782">
        <ele>145.4</ele>
        <time>2021-04-25T15:14:02Z</time>
      </trkpt>
      <trkpt lat="46.53429" lon="0.30778">
        <ele>146</ele>
        <time>2021-04-25T15:14:06Z</time>
      </trkpt>
      <trkpt lat="46.53435" lon="0.30774">
        <ele>146.6</ele>
        <time>2021-04-25T15:14:09Z</time>
      </trkpt>
      <trkpt lat="46.5344" lon="0.30772">
        <ele>147.2</ele>
        <time>2021-04-25T15:14:11Z</time>
      </trkpt>
      <trkpt lat="46.53454" lon="0.30769">
        <ele>148.2</ele>
        <time>2021-04-25T15:14:16Z</time>
      </trkpt>
      <trkpt lat="46.53465" lon="0.30766">
        <ele>149.4</ele>
        <time>2021-04-25T15:14:21Z</time>
      </trkpt>
      <trkpt lat="46.53472" lon="0.30765">
        <ele>150.2</ele>
        <time>2021-04-25T15:14:24Z</time>
      </trkpt>
      <trkpt lat="46.53474" lon="0.30764">
        <ele>150.4</ele>
        <time>2021-04-25T15:14:25Z</time>
      </trkpt>
      <trkpt lat="46.53487" lon="0.30763">
        <ele>151.4</ele>
        <time>2021-04-25T15:14:31Z</time>
      </trkpt>
      <trkpt lat="46.53489" lon="0.30763">
        <ele>151.6</ele>
        <time>2021-04-25T15:14:32Z</time>
      </trkpt>
      <trkpt lat="46.53503" lon="0.30761">
        <ele>152.4</ele>
        <time>2021-04-25T15:14:38Z</time>
      </trkpt>
      <trkpt lat="46.53511" lon="0.30758">
        <ele>153.6</ele>
        <time>2021-04-25T15:14:42Z</time>
      </trkpt>
      <trkpt lat="46.53514" lon="0.30758">
        <ele>154.2</ele>
        <time>2021-04-25T15:14:44Z</time>
      </trkpt>
      <trkpt lat="46.53517" lon="0.30758">
        <ele>154.6</ele>
        <time>2021-04-25T15:14:46Z</time>
      </trkpt>
      <trkpt lat="46.53526" lon="0.30758">
        <ele>155.6</ele>
        <time>2021-04-25T15:14:51Z</time>
      </trkpt>
      <trkpt lat="46.53535" lon="0.30759">
        <ele>156.4</ele>
        <time>2021-04-25T15:14:56Z</time>
      </trkpt>
      <trkpt lat="46.5354" lon="0.30759">
        <ele>156.8</ele>
        <time>2021-04-25T15:14:59Z</time>
      </trkpt>
      <trkpt lat="46.53549" lon="0.30761">
        <ele>157.8</ele>
        <time>2021-04-25T15:15:04Z</time>
      </trkpt>
      <trkpt lat="46.53562" lon="0.30763">
        <ele>158.6</ele>
        <time>2021-04-25T15:15:11Z</time>
      </trkpt>
      <trkpt lat="46.53567" lon="0.30764">
        <ele>159</ele>
        <time>2021-04-25T15:15:14Z</time>
      </trkpt>
      <trkpt lat="46.53578" lon="0.30769">
        <ele>160</ele>
        <time>2021-04-25T15:15:19Z</time>
      </trkpt>
      <trkpt lat="46.53586" lon="0.30773">
        <ele>160.4</ele>
        <time>2021-04-25T15:15:23Z</time>
      </trkpt>
      <trkpt lat="46.53601" lon="0.30785">
        <ele>160.8</ele>
        <time>2021-04-25T15:15:29Z</time>
      </trkpt>
      <trkpt lat="46.53613" lon="0.30799">
        <ele>161.4</ele>
        <time>2021-04-25T15:15:34Z</time>
      </trkpt>
      <trkpt lat="46.53615" lon="0.30802">
        <ele>161.4</ele>
        <time>2021-04-25T15:15:35Z</time>
      </trkpt>
      <trkpt lat="46.53627" lon="0.30823">
        <ele>162</ele>
        <time>2021-04-25T15:15:41Z</time>
      </trkpt>
      <trkpt lat="46.53633" lon="0.30832">
        <ele>162.4</ele>
        <time>2021-04-25T15:15:44Z</time>
      </trkpt>
      <trkpt lat="46.53639" lon="0.30848">
        <ele>163.2</ele>
        <time>2021-04-25T15:15:48Z</time>
      </trkpt>
      <trkpt lat="46.53645" lon="0.30859">
        <ele>163.6</ele>
        <time>2021-04-25T15:15:51Z</time>
      </trkpt>
      <trkpt lat="46.5365" lon="0.3087">
        <ele>163.4</ele>
        <time>2021-04-25T15:15:54Z</time>
      </trkpt>
      <trkpt lat="46.53661" lon="0.30898">
        <ele>163.4</ele>
        <time>2021-04-25T15:16:01Z</time>
      </trkpt>
      <trkpt lat="46.53669" lon="0.30927">
        <ele>163.6</ele>
        <time>2021-04-25T15:16:08Z</time>
      </trkpt>
      <trkpt lat="46.53676" lon="0.3096">
        <ele>163.8</ele>
        <time>2021-04-25T15:16:14Z</time>
      </trkpt>
      <trkpt lat="46.53688" lon="0.30997">
        <ele>163.6</ele>
        <time>2021-04-25T15:16:20Z</time>
      </trkpt>
      <trkpt lat="46.53706" lon="0.31028">
        <ele>163</ele>
        <time>2021-04-25T15:16:26Z</time>
      </trkpt>
      <trkpt lat="46.53714" lon="0.31039">
        <ele>163.2</ele>
        <time>2021-04-25T15:16:29Z</time>
      </trkpt>
      <trkpt lat="46.53718" lon="0.31049">
        <ele>162.8</ele>
        <time>2021-04-25T15:16:31Z</time>
      </trkpt>
      <trkpt lat="46.5372" lon="0.31054">
        <ele>162.8</ele>
        <time>2021-04-25T15:16:32Z</time>
      </trkpt>
      <trkpt lat="46.53725" lon="0.31069">
        <ele>162.2</ele>
        <time>2021-04-25T15:16:35Z</time>
      </trkpt>
      <trkpt lat="46.53732" lon="0.31083">
        <ele>161.8</ele>
        <time>2021-04-25T15:16:38Z</time>
      </trkpt>
      <trkpt lat="46.53743" lon="0.31114">
        <ele>161.8</ele>
        <time>2021-04-25T15:16:44Z</time>
      </trkpt>
      <trkpt lat="46.53763" lon="0.31151">
        <ele>161.4</ele>
        <time>2021-04-25T15:16:51Z</time>
      </trkpt>
      <trkpt lat="46.53766" lon="0.31156">
        <ele>161</ele>
        <time>2021-04-25T15:16:52Z</time>
      </trkpt>
      <trkpt lat="46.53769" lon="0.31162">
        <ele>160.6</ele>
        <time>2021-04-25T15:16:53Z</time>
      </trkpt>
      <trkpt lat="46.53778" lon="0.31178">
        <ele>160.2</ele>
        <time>2021-04-25T15:16:56Z</time>
      </trkpt>
      <trkpt lat="46.53794" lon="0.312">
        <ele>159.8</ele>
        <time>2021-04-25T15:17:00Z</time>
      </trkpt>
      <trkpt lat="46.53803" lon="0.31211">
        <ele>159</ele>
        <time>2021-04-25T15:17:02Z</time>
      </trkpt>
      <trkpt lat="46.53807" lon="0.31217">
        <ele>158.6</ele>
        <time>2021-04-25T15:17:03Z</time>
      </trkpt>
      <trkpt lat="46.5383" lon="0.31235">
        <ele>157.8</ele>
        <time>2021-04-25T15:17:08Z</time>
      </trkpt>
      <trkpt lat="46.53844" lon="0.31244">
        <ele>157.8</ele>
        <time>2021-04-25T15:17:12Z</time>
      </trkpt>
      <trkpt lat="46.53848" lon="0.31247">
        <ele>157.6</ele>
        <time>2021-04-25T15:17:13Z</time>
      </trkpt>
      <trkpt lat="46.53852" lon="0.3125">
        <ele>157.6</ele>
        <time>2021-04-25T15:17:14Z</time>
      </trkpt>
      <trkpt lat="46.53856" lon="0.31253">
        <ele>157.4</ele>
        <time>2021-04-25T15:17:15Z</time>
      </trkpt>
      <trkpt lat="46.53866" lon="0.31262">
        <ele>157.6</ele>
        <time>2021-04-25T15:17:18Z</time>
      </trkpt>
      <trkpt lat="46.53889" lon="0.31282">
        <ele>157.2</ele>
        <time>2021-04-25T15:17:24Z</time>
      </trkpt>
      <trkpt lat="46.53894" lon="0.31287">
        <ele>157.6</ele>
        <time>2021-04-25T15:17:26Z</time>
      </trkpt>
      <trkpt lat="46.53903" lon="0.31294">
        <ele>158.2</ele>
        <time>2021-04-25T15:17:29Z</time>
      </trkpt>
      <trkpt lat="46.53907" lon="0.31297">
        <ele>159</ele>
        <time>2021-04-25T15:17:30Z</time>
      </trkpt>
      <trkpt lat="46.53914" lon="0.31303">
        <ele>159.2</ele>
        <time>2021-04-25T15:17:32Z</time>
      </trkpt>
      <trkpt lat="46.53925" lon="0.3131">
        <ele>159.4</ele>
        <time>2021-04-25T15:17:35Z</time>
      </trkpt>
      <trkpt lat="46.53943" lon="0.31323">
        <ele>159.8</ele>
        <time>2021-04-25T15:17:41Z</time>
      </trkpt>
      <trkpt lat="46.53949" lon="0.31327">
        <ele>160</ele>
        <time>2021-04-25T15:17:43Z</time>
      </trkpt>
      <trkpt lat="46.5396" lon="0.31335">
        <ele>160.4</ele>
        <time>2021-04-25T15:17:47Z</time>
      </trkpt>
      <trkpt lat="46.53975" lon="0.31345">
        <ele>160.8</ele>
        <time>2021-04-25T15:17:52Z</time>
      </trkpt>
      <trkpt lat="46.53988" lon="0.31352">
        <ele>161</ele>
        <time>2021-04-25T15:17:56Z</time>
      </trkpt>
      <trkpt lat="46.53995" lon="0.31355">
        <ele>161.2</ele>
        <time>2021-04-25T15:17:58Z</time>
      </trkpt>
      <trkpt lat="46.54013" lon="0.31366">
        <ele>161.8</ele>
        <time>2021-04-25T15:18:03Z</time>
      </trkpt>
      <trkpt lat="46.54031" lon="0.31372">
        <ele>162.2</ele>
        <time>2021-04-25T15:18:09Z</time>
      </trkpt>
      <trkpt lat="46.54052" lon="0.31376">
        <ele>163</ele>
        <time>2021-04-25T15:18:15Z</time>
      </trkpt>
      <trkpt lat="46.54056" lon="0.31376">
        <ele>162.8</ele>
        <time>2021-04-25T15:18:16Z</time>
      </trkpt>
      <trkpt lat="46.54077" lon="0.3138">
        <ele>163</ele>
        <time>2021-04-25T15:18:21Z</time>
      </trkpt>
      <trkpt lat="46.54103" lon="0.31384">
        <ele>163</ele>
        <time>2021-04-25T15:18:27Z</time>
      </trkpt>
      <trkpt lat="46.54119" lon="0.31389">
        <ele>163.2</ele>
        <time>2021-04-25T15:18:31Z</time>
      </trkpt>
      <trkpt lat="46.54123" lon="0.3139">
        <ele>163.4</ele>
        <time>2021-04-25T15:18:32Z</time>
      </trkpt>
      <trkpt lat="46.54151" lon="0.31401">
        <ele>164</ele>
        <time>2021-04-25T15:18:39Z</time>
      </trkpt>
      <trkpt lat="46.5418" lon="0.3141">
        <ele>163.8</ele>
        <time>2021-04-25T15:18:46Z</time>
      </trkpt>
      <trkpt lat="46.54184" lon="0.31411">
        <ele>163.8</ele>
        <time>2021-04-25T15:18:47Z</time>
      </trkpt>
      <trkpt lat="46.54197" lon="0.31413">
        <ele>163.6</ele>
        <time>2021-04-25T15:18:51Z</time>
      </trkpt>
      <trkpt lat="46.54228" lon="0.31411">
        <ele>164.2</ele>
        <time>2021-04-25T15:19:00Z</time>
      </trkpt>
      <trkpt lat="46.54247" lon="0.31408">
        <ele>164.8</ele>
        <time>2021-04-25T15:19:05Z</time>
      </trkpt>
      <trkpt lat="46.54253" lon="0.31407">
        <ele>164.8</ele>
        <time>2021-04-25T15:19:06Z</time>
      </trkpt>
      <trkpt lat="46.54281" lon="0.31397">
        <ele>164.8</ele>
        <time>2021-04-25T15:19:13Z</time>
      </trkpt>
      <trkpt lat="46.54288" lon="0.31395">
        <ele>164.6</ele>
        <time>2021-04-25T15:19:15Z</time>
      </trkpt>
      <trkpt lat="46.54309" lon="0.31388">
        <ele>164.2</ele>
        <time>2021-04-25T15:19:20Z</time>
      </trkpt>
      <trkpt lat="46.54338" lon="0.31381">
        <ele>164</ele>
        <time>2021-04-25T15:19:26Z</time>
      </trkpt>
      <trkpt lat="46.54368" lon="0.31374">
        <ele>163.6</ele>
        <time>2021-04-25T15:19:33Z</time>
      </trkpt>
      <trkpt lat="46.54393" lon="0.31372">
        <ele>163.4</ele>
        <time>2021-04-25T15:19:39Z</time>
      </trkpt>
      <trkpt lat="46.54401" lon="0.3138">
        <ele>163.2</ele>
        <time>2021-04-25T15:19:42Z</time>
      </trkpt>
      <trkpt lat="46.54404" lon="0.31383">
        <ele>163</ele>
        <time>2021-04-25T15:19:43Z</time>
      </trkpt>
      <trkpt lat="46.5441" lon="0.31396">
        <ele>162.8</ele>
        <time>2021-04-25T15:19:46Z</time>
      </trkpt>
      <trkpt lat="46.5441" lon="0.31401">
        <ele>162.4</ele>
        <time>2021-04-25T15:19:47Z</time>
      </trkpt>
      <trkpt lat="46.54401" lon="0.31428">
        <ele>162.2</ele>
        <time>2021-04-25T15:19:53Z</time>
      </trkpt>
      <trkpt lat="46.54399" lon="0.31441">
        <ele>162.4</ele>
        <time>2021-04-25T15:19:55Z</time>
      </trkpt>
      <trkpt lat="46.54397" lon="0.31466">
        <ele>163.2</ele>
        <time>2021-04-25T15:19:59Z</time>
      </trkpt>
      <trkpt lat="46.54396" lon="0.31509">
        <ele>163.4</ele>
        <time>2021-04-25T15:20:06Z</time>
      </trkpt>
      <trkpt lat="46.54403" lon="0.31555">
        <ele>163</ele>
        <time>2021-04-25T15:20:13Z</time>
      </trkpt>
      <trkpt lat="46.54404" lon="0.31561">
        <ele>162.8</ele>
        <time>2021-04-25T15:20:14Z</time>
      </trkpt>
      <trkpt lat="46.54407" lon="0.3158">
        <ele>162</ele>
        <time>2021-04-25T15:20:17Z</time>
      </trkpt>
      <trkpt lat="46.54411" lon="0.31593">
        <ele>161.6</ele>
        <time>2021-04-25T15:20:19Z</time>
      </trkpt>
      <trkpt lat="46.54424" lon="0.31633">
        <ele>160.8</ele>
        <time>2021-04-25T15:20:25Z</time>
      </trkpt>
      <trkpt lat="46.54427" lon="0.3164">
        <ele>160.8</ele>
        <time>2021-04-25T15:20:26Z</time>
      </trkpt>
      <trkpt lat="46.54434" lon="0.31652">
        <ele>160.6</ele>
        <time>2021-04-25T15:20:28Z</time>
      </trkpt>
      <trkpt lat="46.54446" lon="0.31668">
        <ele>160.2</ele>
        <time>2021-04-25T15:20:31Z</time>
      </trkpt>
      <trkpt lat="46.54458" lon="0.31682">
        <ele>159.6</ele>
        <time>2021-04-25T15:20:34Z</time>
      </trkpt>
      <trkpt lat="46.54461" lon="0.31693">
        <ele>159.2</ele>
        <time>2021-04-25T15:20:36Z</time>
      </trkpt>
      <trkpt lat="46.54467" lon="0.31718">
        <ele>159</ele>
        <time>2021-04-25T15:20:40Z</time>
      </trkpt>
      <trkpt lat="46.54469" lon="0.31723">
        <ele>159</ele>
        <time>2021-04-25T15:20:41Z</time>
      </trkpt>
      <trkpt lat="46.5449" lon="0.31761">
        <ele>159.2</ele>
        <time>2021-04-25T15:20:48Z</time>
      </trkpt>
      <trkpt lat="46.54495" lon="0.31772">
        <ele>159.2</ele>
        <time>2021-04-25T15:20:50Z</time>
      </trkpt>
      <trkpt lat="46.54498" lon="0.31785">
        <ele>159.2</ele>
        <time>2021-04-25T15:20:52Z</time>
      </trkpt>
      <trkpt lat="46.54502" lon="0.3183">
        <ele>158.6</ele>
        <time>2021-04-25T15:20:58Z</time>
      </trkpt>
      <trkpt lat="46.54502" lon="0.31838">
        <ele>158.4</ele>
        <time>2021-04-25T15:20:59Z</time>
      </trkpt>
      <trkpt lat="46.54505" lon="0.31881">
        <ele>158</ele>
        <time>2021-04-25T15:21:05Z</time>
      </trkpt>
      <trkpt lat="46.54509" lon="0.31936">
        <ele>157.4</ele>
        <time>2021-04-25T15:21:14Z</time>
      </trkpt>
      <trkpt lat="46.54513" lon="0.31957">
        <ele>157.2</ele>
        <time>2021-04-25T15:21:17Z</time>
      </trkpt>
      <trkpt lat="46.5452" lon="0.31976">
        <ele>157</ele>
        <time>2021-04-25T15:21:20Z</time>
      </trkpt>
      <trkpt lat="46.54533" lon="0.31995">
        <ele>156.8</ele>
        <time>2021-04-25T15:21:24Z</time>
      </trkpt>
      <trkpt lat="46.54541" lon="0.32004">
        <ele>156.8</ele>
        <time>2021-04-25T15:21:26Z</time>
      </trkpt>
      <trkpt lat="46.54545" lon="0.32008">
        <ele>156.8</ele>
        <time>2021-04-25T15:21:27Z</time>
      </trkpt>
      <trkpt lat="46.54559" lon="0.32015">
        <ele>157</ele>
        <time>2021-04-25T15:21:30Z</time>
      </trkpt>
      <trkpt lat="46.54568" lon="0.32017">
        <ele>157</ele>
        <time>2021-04-25T15:21:32Z</time>
      </trkpt>
      <trkpt lat="46.54573" lon="0.32018">
        <ele>156.8</ele>
        <time>2021-04-25T15:21:33Z</time>
      </trkpt>
      <trkpt lat="46.54598" lon="0.32014">
        <ele>156.8</ele>
        <time>2021-04-25T15:21:38Z</time>
      </trkpt>
      <trkpt lat="46.54634" lon="0.32007">
        <ele>156.6</ele>
        <time>2021-04-25T15:21:46Z</time>
      </trkpt>
      <trkpt lat="46.54651" lon="0.32007">
        <ele>156.8</ele>
        <time>2021-04-25T15:21:51Z</time>
      </trkpt>
      <trkpt lat="46.54664" lon="0.32008">
        <ele>156.8</ele>
        <time>2021-04-25T15:21:54Z</time>
      </trkpt>
      <trkpt lat="46.54678" lon="0.32011">
        <ele>156.6</ele>
        <time>2021-04-25T15:21:57Z</time>
      </trkpt>
      <trkpt lat="46.54683" lon="0.32012">
        <ele>156.2</ele>
        <time>2021-04-25T15:21:58Z</time>
      </trkpt>
      <trkpt lat="46.54695" lon="0.32015">
        <ele>155.6</ele>
        <time>2021-04-25T15:22:01Z</time>
      </trkpt>
      <trkpt lat="46.54703" lon="0.32019">
        <ele>155</ele>
        <time>2021-04-25T15:22:03Z</time>
      </trkpt>
      <trkpt lat="46.54707" lon="0.32022">
        <ele>155</ele>
        <time>2021-04-25T15:22:04Z</time>
      </trkpt>
      <trkpt lat="46.54714" lon="0.3203">
        <ele>154.4</ele>
        <time>2021-04-25T15:22:06Z</time>
      </trkpt>
      <trkpt lat="46.54725" lon="0.32043">
        <ele>154</ele>
        <time>2021-04-25T15:22:09Z</time>
      </trkpt>
      <trkpt lat="46.54727" lon="0.32047">
        <ele>153.8</ele>
        <time>2021-04-25T15:22:10Z</time>
      </trkpt>
      <trkpt lat="46.54733" lon="0.32056">
        <ele>153.8</ele>
        <time>2021-04-25T15:22:12Z</time>
      </trkpt>
      <trkpt lat="46.54745" lon="0.32073">
        <ele>153.6</ele>
        <time>2021-04-25T15:22:16Z</time>
      </trkpt>
      <trkpt lat="46.54748" lon="0.32075">
        <ele>153.6</ele>
        <time>2021-04-25T15:22:17Z</time>
      </trkpt>
      <trkpt lat="46.54751" lon="0.32078">
        <ele>153.4</ele>
        <time>2021-04-25T15:22:18Z</time>
      </trkpt>
      <trkpt lat="46.54756" lon="0.32083">
        <ele>153.2</ele>
        <time>2021-04-25T15:22:20Z</time>
      </trkpt>
      <trkpt lat="46.54762" lon="0.32087">
        <ele>153.2</ele>
        <time>2021-04-25T15:22:22Z</time>
      </trkpt>
      <trkpt lat="46.54768" lon="0.3209">
        <ele>153</ele>
        <time>2021-04-25T15:22:24Z</time>
      </trkpt>
      <trkpt lat="46.54784" lon="0.32096">
        <ele>153.2</ele>
        <time>2021-04-25T15:22:29Z</time>
      </trkpt>
      <trkpt lat="46.5481" lon="0.321">
        <ele>153</ele>
        <time>2021-04-25T15:22:36Z</time>
      </trkpt>
      <trkpt lat="46.54829" lon="0.32098">
        <ele>153.4</ele>
        <time>2021-04-25T15:22:42Z</time>
      </trkpt>
      <trkpt lat="46.54851" lon="0.32083">
        <ele>153.8</ele>
        <time>2021-04-25T15:22:48Z</time>
      </trkpt>
      <trkpt lat="46.5486" lon="0.32077">
        <ele>154</ele>
        <time>2021-04-25T15:22:51Z</time>
      </trkpt>
      <trkpt lat="46.54866" lon="0.32073">
        <ele>154.2</ele>
        <time>2021-04-25T15:22:54Z</time>
      </trkpt>
      <trkpt lat="46.54869" lon="0.32072">
        <ele>154.2</ele>
        <time>2021-04-25T15:22:55Z</time>
      </trkpt>
      <trkpt lat="46.54875" lon="0.32077">
        <ele>154.6</ele>
        <time>2021-04-25T15:22:58Z</time>
      </trkpt>
      <trkpt lat="46.54886" lon="0.32094">
        <ele>155</ele>
        <time>2021-04-25T15:23:02Z</time>
      </trkpt>
      <trkpt lat="46.54891" lon="0.32104">
        <ele>155.2</ele>
        <time>2021-04-25T15:23:04Z</time>
      </trkpt>
      <trkpt lat="46.54896" lon="0.32114">
        <ele>155.4</ele>
        <time>2021-04-25T15:23:06Z</time>
      </trkpt>
      <trkpt lat="46.54899" lon="0.32125">
        <ele>155.4</ele>
        <time>2021-04-25T15:23:08Z</time>
      </trkpt>
      <trkpt lat="46.54899" lon="0.32131">
        <ele>155.4</ele>
        <time>2021-04-25T15:23:09Z</time>
      </trkpt>
      <trkpt lat="46.54892" lon="0.3215">
        <ele>155.8</ele>
        <time>2021-04-25T15:23:13Z</time>
      </trkpt>
      <trkpt lat="46.54888" lon="0.32158">
        <ele>155.8</ele>
        <time>2021-04-25T15:23:15Z</time>
      </trkpt>
      <trkpt lat="46.54889" lon="0.32166">
        <ele>155.8</ele>
        <time>2021-04-25T15:23:17Z</time>
      </trkpt>
      <trkpt lat="46.5489" lon="0.32174">
        <ele>156</ele>
        <time>2021-04-25T15:23:19Z</time>
      </trkpt>
      <trkpt lat="46.54889" lon="0.32177">
        <ele>156</ele>
        <time>2021-04-25T15:23:20Z</time>
      </trkpt>
      <trkpt lat="46.54879" lon="0.32188">
        <ele>156</ele>
        <time>2021-04-25T15:23:24Z</time>
      </trkpt>
      <trkpt lat="46.54867" lon="0.32196">
        <ele>155.8</ele>
        <time>2021-04-25T15:23:27Z</time>
      </trkpt>
      <trkpt lat="46.54854" lon="0.32202">
        <ele>155.4</ele>
        <time>2021-04-25T15:23:30Z</time>
      </trkpt>
      <trkpt lat="46.54849" lon="0.32204">
        <ele>155.2</ele>
        <time>2021-04-25T15:23:31Z</time>
      </trkpt>
      <trkpt lat="46.54828" lon="0.32212">
        <ele>154.8</ele>
        <time>2021-04-25T15:23:35Z</time>
      </trkpt>
      <trkpt lat="46.54822" lon="0.32214">
        <ele>154.8</ele>
        <time>2021-04-25T15:23:36Z</time>
      </trkpt>
      <trkpt lat="46.54789" lon="0.32229">
        <ele>154</ele>
        <time>2021-04-25T15:23:42Z</time>
      </trkpt>
      <trkpt lat="46.54774" lon="0.32239">
        <ele>154.2</ele>
        <time>2021-04-25T15:23:45Z</time>
      </trkpt>
      <trkpt lat="46.54735" lon="0.32271">
        <ele>153.2</ele>
        <time>2021-04-25T15:23:53Z</time>
      </trkpt>
      <trkpt lat="46.54704" lon="0.32303">
        <ele>153.2</ele>
        <time>2021-04-25T15:24:00Z</time>
      </trkpt>
      <trkpt lat="46.54688" lon="0.3232">
        <ele>153</ele>
        <time>2021-04-25T15:24:04Z</time>
      </trkpt>
      <trkpt lat="46.54678" lon="0.32332">
        <ele>152.4</ele>
        <time>2021-04-25T15:24:07Z</time>
      </trkpt>
      <trkpt lat="46.54655" lon="0.32358">
        <ele>152</ele>
        <time>2021-04-25T15:24:14Z</time>
      </trkpt>
      <trkpt lat="46.54636" lon="0.32373">
        <ele>152</ele>
        <time>2021-04-25T15:24:19Z</time>
      </trkpt>
      <trkpt lat="46.54632" lon="0.32376">
        <ele>151.8</ele>
        <time>2021-04-25T15:24:20Z</time>
      </trkpt>
      <trkpt lat="46.54611" lon="0.32391">
        <ele>152</ele>
        <time>2021-04-25T15:24:26Z</time>
      </trkpt>
      <trkpt lat="46.54596" lon="0.32403">
        <ele>152.4</ele>
        <time>2021-04-25T15:24:31Z</time>
      </trkpt>
      <trkpt lat="46.54588" lon="0.32411">
        <ele>152.6</ele>
        <time>2021-04-25T15:24:33Z</time>
      </trkpt>
      <trkpt lat="46.54583" lon="0.32422">
        <ele>152.6</ele>
        <time>2021-04-25T15:24:35Z</time>
      </trkpt>
      <trkpt lat="46.54575" lon="0.32439">
        <ele>152.2</ele>
        <time>2021-04-25T15:24:38Z</time>
      </trkpt>
      <trkpt lat="46.5457" lon="0.32443">
        <ele>152</ele>
        <time>2021-04-25T15:24:40Z</time>
      </trkpt>
      <trkpt lat="46.54565" lon="0.32445">
        <ele>151.8</ele>
        <time>2021-04-25T15:24:42Z</time>
      </trkpt>
      <trkpt lat="46.54554" lon="0.32452">
        <ele>151.6</ele>
        <time>2021-04-25T15:24:45Z</time>
      </trkpt>
      <trkpt lat="46.54551" lon="0.32455">
        <ele>151.8</ele>
        <time>2021-04-25T15:24:46Z</time>
      </trkpt>
      <trkpt lat="46.5454" lon="0.32462">
        <ele>152.2</ele>
        <time>2021-04-25T15:24:49Z</time>
      </trkpt>
      <trkpt lat="46.54534" lon="0.32463">
        <ele>152.2</ele>
        <time>2021-04-25T15:24:51Z</time>
      </trkpt>
      <trkpt lat="46.54519" lon="0.32469">
        <ele>152</ele>
        <time>2021-04-25T15:24:55Z</time>
      </trkpt>
      <trkpt lat="46.54516" lon="0.32471">
        <ele>151.8</ele>
        <time>2021-04-25T15:24:56Z</time>
      </trkpt>
      <trkpt lat="46.54513" lon="0.32473">
        <ele>151.8</ele>
        <time>2021-04-25T15:24:58Z</time>
      </trkpt>
      <trkpt lat="46.5451" lon="0.32473">
        <ele>151.8</ele>
        <time>2021-04-25T15:25:00Z</time>
      </trkpt>
      <trkpt lat="46.54509" lon="0.32472">
        <ele>151.8</ele>
        <time>2021-04-25T15:25:01Z</time>
      </trkpt>
      <trkpt lat="46.54508" lon="0.32471">
        <ele>151.8</ele>
        <time>2021-04-25T15:25:02Z</time>
      </trkpt>
      <trkpt lat="46.54509" lon="0.32466">
        <ele>152</ele>
        <time>2021-04-25T15:25:09Z</time>
      </trkpt>
      <trkpt lat="46.54514" lon="0.32464">
        <ele>152</ele>
        <time>2021-04-25T15:25:12Z</time>
      </trkpt>
      <trkpt lat="46.54518" lon="0.32467">
        <ele>152</ele>
        <time>2021-04-25T15:25:14Z</time>
      </trkpt>
      <trkpt lat="46.54522" lon="0.32471">
        <ele>152</ele>
        <time>2021-04-25T15:25:16Z</time>
      </trkpt>
      <trkpt lat="46.54526" lon="0.32476">
        <ele>152</ele>
        <time>2021-04-25T15:25:18Z</time>
      </trkpt>
      <trkpt lat="46.5453" lon="0.32482">
        <ele>151.6</ele>
        <time>2021-04-25T15:25:20Z</time>
      </trkpt>
      <trkpt lat="46.54527" lon="0.32489">
        <ele>151.4</ele>
        <time>2021-04-25T15:25:22Z</time>
      </trkpt>
      <trkpt lat="46.54525" lon="0.32492">
        <ele>151.2</ele>
        <time>2021-04-25T15:25:23Z</time>
      </trkpt>
      <trkpt lat="46.54521" lon="0.32499">
        <ele>150.6</ele>
        <time>2021-04-25T15:25:25Z</time>
      </trkpt>
      <trkpt lat="46.5452" lon="0.325">
        <ele>150.2</ele>
        <time>2021-04-25T15:25:26Z</time>
      </trkpt>
      <trkpt lat="46.54518" lon="0.32501">
        <ele>150</ele>
        <time>2021-04-25T15:25:27Z</time>
      </trkpt>
      <trkpt lat="46.5451" lon="0.32505">
        <ele>149.8</ele>
        <time>2021-04-25T15:25:30Z</time>
      </trkpt>
      <trkpt lat="46.54508" lon="0.32506">
        <ele>150</ele>
        <time>2021-04-25T15:25:31Z</time>
      </trkpt>
      <trkpt lat="46.54498" lon="0.3251">
        <ele>150.2</ele>
        <time>2021-04-25T15:25:34Z</time>
      </trkpt>
      <trkpt lat="46.54495" lon="0.32512">
        <ele>150</ele>
        <time>2021-04-25T15:25:35Z</time>
      </trkpt>
      <trkpt lat="46.54494" lon="0.32515">
        <ele>149.8</ele>
        <time>2021-04-25T15:25:36Z</time>
      </trkpt>
      <trkpt lat="46.54494" lon="0.3252">
        <ele>149.8</ele>
        <time>2021-04-25T15:25:38Z</time>
      </trkpt>
      <trkpt lat="46.54494" lon="0.32524">
        <ele>149.6</ele>
        <time>2021-04-25T15:25:39Z</time>
      </trkpt>
      <trkpt lat="46.54495" lon="0.32528">
        <ele>149.6</ele>
        <time>2021-04-25T15:25:40Z</time>
      </trkpt>
      <trkpt lat="46.54498" lon="0.32542">
        <ele>149.2</ele>
        <time>2021-04-25T15:25:43Z</time>
      </trkpt>
      <trkpt lat="46.545" lon="0.32548">
        <ele>148.8</ele>
        <time>2021-04-25T15:25:44Z</time>
      </trkpt>
      <trkpt lat="46.54502" lon="0.32553">
        <ele>148.2</ele>
        <time>2021-04-25T15:25:45Z</time>
      </trkpt>
      <trkpt lat="46.54507" lon="0.32563">
        <ele>147.6</ele>
        <time>2021-04-25T15:25:47Z</time>
      </trkpt>
      <trkpt lat="46.54507" lon="0.32574">
        <ele>147.2</ele>
        <time>2021-04-25T15:25:49Z</time>
      </trkpt>
      <trkpt lat="46.54505" lon="0.32577">
        <ele>146.6</ele>
        <time>2021-04-25T15:25:50Z</time>
      </trkpt>
      <trkpt lat="46.545" lon="0.32582">
        <ele>146.2</ele>
        <time>2021-04-25T15:25:52Z</time>
      </trkpt>
      <trkpt lat="46.54498" lon="0.32583">
        <ele>146.2</ele>
        <time>2021-04-25T15:25:53Z</time>
      </trkpt>
      <trkpt lat="46.54495" lon="0.32584">
        <ele>146.2</ele>
        <time>2021-04-25T15:25:54Z</time>
      </trkpt>
      <trkpt lat="46.54492" lon="0.32586">
        <ele>146.2</ele>
        <time>2021-04-25T15:25:55Z</time>
      </trkpt>
      <trkpt lat="46.54489" lon="0.32588">
        <ele>146</ele>
        <time>2021-04-25T15:25:56Z</time>
      </trkpt>
      <trkpt lat="46.54483" lon="0.32592">
        <ele>145.8</ele>
        <time>2021-04-25T15:25:58Z</time>
      </trkpt>
      <trkpt lat="46.5448" lon="0.32594">
        <ele>146</ele>
        <time>2021-04-25T15:25:59Z</time>
      </trkpt>
      <trkpt lat="46.5447" lon="0.32598">
        <ele>146</ele>
        <time>2021-04-25T15:26:02Z</time>
      </trkpt>
      <trkpt lat="46.54459" lon="0.32598">
        <ele>146</ele>
        <time>2021-04-25T15:26:05Z</time>
      </trkpt>
      <trkpt lat="46.54452" lon="0.32599">
        <ele>145.6</ele>
        <time>2021-04-25T15:26:07Z</time>
      </trkpt>
      <trkpt lat="46.54448" lon="0.32602">
        <ele>144.8</ele>
        <time>2021-04-25T15:26:08Z</time>
      </trkpt>
      <trkpt lat="46.54446" lon="0.32605">
        <ele>144.4</ele>
        <time>2021-04-25T15:26:09Z</time>
      </trkpt>
      <trkpt lat="46.54439" lon="0.32606">
        <ele>143.6</ele>
        <time>2021-04-25T15:26:12Z</time>
      </trkpt>
      <trkpt lat="46.54434" lon="0.32609">
        <ele>143.2</ele>
        <time>2021-04-25T15:26:14Z</time>
      </trkpt>
      <trkpt lat="46.54428" lon="0.32613">
        <ele>142.2</ele>
        <time>2021-04-25T15:26:16Z</time>
      </trkpt>
      <trkpt lat="46.54422" lon="0.32616">
        <ele>141.4</ele>
        <time>2021-04-25T15:26:18Z</time>
      </trkpt>
      <trkpt lat="46.54418" lon="0.32617">
        <ele>140.8</ele>
        <time>2021-04-25T15:26:19Z</time>
      </trkpt>
      <trkpt lat="46.5441" lon="0.3262">
        <ele>140.4</ele>
        <time>2021-04-25T15:26:20Z</time>
      </trkpt>
      <trkpt lat="46.5441" lon="0.3262">
        <ele>139.6</ele>
        <time>2021-04-25T15:26:21Z</time>
      </trkpt>
      <trkpt lat="46.54406" lon="0.32622">
        <ele>139.2</ele>
        <time>2021-04-25T15:26:22Z</time>
      </trkpt>
      <trkpt lat="46.54401" lon="0.32629">
        <ele>139</ele>
        <time>2021-04-25T15:26:24Z</time>
      </trkpt>
      <trkpt lat="46.544" lon="0.32637">
        <ele>138.4</ele>
        <time>2021-04-25T15:26:26Z</time>
      </trkpt>
      <trkpt lat="46.544" lon="0.32638">
        <ele>138</ele>
        <time>2021-04-25T15:26:28Z</time>
      </trkpt>
      <trkpt lat="46.544" lon="0.32641">
        <ele>137.8</ele>
        <time>2021-04-25T15:26:29Z</time>
      </trkpt>
      <trkpt lat="46.54402" lon="0.32647">
        <ele>137.4</ele>
        <time>2021-04-25T15:26:31Z</time>
      </trkpt>
      <trkpt lat="46.54401" lon="0.32652">
        <ele>137</ele>
        <time>2021-04-25T15:26:33Z</time>
      </trkpt>
      <trkpt lat="46.544" lon="0.32658">
        <ele>136.8</ele>
        <time>2021-04-25T15:26:36Z</time>
      </trkpt>
      <trkpt lat="46.54398" lon="0.32671">
        <ele>136.4</ele>
        <time>2021-04-25T15:26:44Z</time>
      </trkpt>
      <trkpt lat="46.54397" lon="0.32672">
        <ele>136</ele>
        <time>2021-04-25T15:26:45Z</time>
      </trkpt>
      <trkpt lat="46.54393" lon="0.32677">
        <ele>134.8</ele>
        <time>2021-04-25T15:26:48Z</time>
      </trkpt>
      <trkpt lat="46.54391" lon="0.32677">
        <ele>134.4</ele>
        <time>2021-04-25T15:26:49Z</time>
      </trkpt>
      <trkpt lat="46.54384" lon="0.32677">
        <ele>133.6</ele>
        <time>2021-04-25T15:26:53Z</time>
      </trkpt>
      <trkpt lat="46.5438" lon="0.32683">
        <ele>133</ele>
        <time>2021-04-25T15:26:56Z</time>
      </trkpt>
      <trkpt lat="46.54378" lon="0.32685">
        <ele>132</ele>
        <time>2021-04-25T15:26:57Z</time>
      </trkpt>
      <trkpt lat="46.54377" lon="0.32688">
        <ele>131.2</ele>
        <time>2021-04-25T15:26:58Z</time>
      </trkpt>
      <trkpt lat="46.54376" lon="0.32689">
        <ele>130.8</ele>
        <time>2021-04-25T15:26:59Z</time>
      </trkpt>
      <trkpt lat="46.54374" lon="0.32693">
        <ele>130.2</ele>
        <time>2021-04-25T15:27:01Z</time>
      </trkpt>
      <trkpt lat="46.54373" lon="0.32695">
        <ele>129.6</ele>
        <time>2021-04-25T15:27:02Z</time>
      </trkpt>
      <trkpt lat="46.54372" lon="0.32696">
        <ele>129</ele>
        <time>2021-04-25T15:27:03Z</time>
      </trkpt>
      <trkpt lat="46.54371" lon="0.32697">
        <ele>128.4</ele>
        <time>2021-04-25T15:27:05Z</time>
      </trkpt>
      <trkpt lat="46.54365" lon="0.32707">
        <ele>127.8</ele>
        <time>2021-04-25T15:27:18Z</time>
      </trkpt>
      <trkpt lat="46.54363" lon="0.32711">
        <ele>127.2</ele>
        <time>2021-04-25T15:27:21Z</time>
      </trkpt>
      <trkpt lat="46.54361" lon="0.32719">
        <ele>126.8</ele>
        <time>2021-04-25T15:27:28Z</time>
      </trkpt>
      <trkpt lat="46.54358" lon="0.32721">
        <ele>126.8</ele>
        <time>2021-04-25T15:27:43Z</time>
      </trkpt>
      <trkpt lat="46.54354" lon="0.3272">
        <ele>125.8</ele>
        <time>2021-04-25T15:27:45Z</time>
      </trkpt>
      <trkpt lat="46.54349" lon="0.32721">
        <ele>124.8</ele>
        <time>2021-04-25T15:27:47Z</time>
      </trkpt>
      <trkpt lat="46.54347" lon="0.32721">
        <ele>124.4</ele>
        <time>2021-04-25T15:27:48Z</time>
      </trkpt>
      <trkpt lat="46.54343" lon="0.32721">
        <ele>123.6</ele>
        <time>2021-04-25T15:27:51Z</time>
      </trkpt>
      <trkpt lat="46.54342" lon="0.32721">
        <ele>123.4</ele>
        <time>2021-04-25T15:27:52Z</time>
      </trkpt>
      <trkpt lat="46.54336" lon="0.3272">
        <ele>121.6</ele>
        <time>2021-04-25T15:28:00Z</time>
      </trkpt>
      <trkpt lat="46.54333" lon="0.32719">
        <ele>120.4</ele>
        <time>2021-04-25T15:28:02Z</time>
      </trkpt>
      <trkpt lat="46.54332" lon="0.32719">
        <ele>119.4</ele>
        <time>2021-04-25T15:28:03Z</time>
      </trkpt>
      <trkpt lat="46.54331" lon="0.32719">
        <ele>119</ele>
        <time>2021-04-25T15:28:04Z</time>
      </trkpt>
      <trkpt lat="46.54329" lon="0.32718">
        <ele>118</ele>
        <time>2021-04-25T15:28:05Z</time>
      </trkpt>
      <trkpt lat="46.54327" lon="0.32718">
        <ele>117.6</ele>
        <time>2021-04-25T15:28:06Z</time>
      </trkpt>
      <trkpt lat="46.54322" lon="0.3272">
        <ele>116.4</ele>
        <time>2021-04-25T15:28:08Z</time>
      </trkpt>
      <trkpt lat="46.54318" lon="0.32722">
        <ele>115.6</ele>
        <time>2021-04-25T15:28:09Z</time>
      </trkpt>
      <trkpt lat="46.54315" lon="0.32723">
        <ele>115.4</ele>
        <time>2021-04-25T15:28:10Z</time>
      </trkpt>
      <trkpt lat="46.54311" lon="0.32723">
        <ele>115.2</ele>
        <time>2021-04-25T15:28:11Z</time>
      </trkpt>
      <trkpt lat="46.54307" lon="0.32723">
        <ele>113.8</ele>
        <time>2021-04-25T15:28:12Z</time>
      </trkpt>
      <trkpt lat="46.54297" lon="0.32725">
        <ele>111.4</ele>
        <time>2021-04-25T15:28:14Z</time>
      </trkpt>
      <trkpt lat="46.54291" lon="0.32725">
        <ele>110.2</ele>
        <time>2021-04-25T15:28:15Z</time>
      </trkpt>
      <trkpt lat="46.54286" lon="0.32724">
        <ele>108.2</ele>
        <time>2021-04-25T15:28:16Z</time>
      </trkpt>
      <trkpt lat="46.54281" lon="0.32722">
        <ele>107</ele>
        <time>2021-04-25T15:28:17Z</time>
      </trkpt>
      <trkpt lat="46.54275" lon="0.3272">
        <ele>106.2</ele>
        <time>2021-04-25T15:28:18Z</time>
      </trkpt>
      <trkpt lat="46.5427" lon="0.32718">
        <ele>105.8</ele>
        <time>2021-04-25T15:28:19Z</time>
      </trkpt>
      <trkpt lat="46.5426" lon="0.32714">
        <ele>105</ele>
        <time>2021-04-25T15:28:21Z</time>
      </trkpt>
      <trkpt lat="46.54252" lon="0.32711">
        <ele>105</ele>
        <time>2021-04-25T15:28:23Z</time>
      </trkpt>
      <trkpt lat="46.54244" lon="0.32711">
        <ele>105</ele>
        <time>2021-04-25T15:28:25Z</time>
      </trkpt>
      <trkpt lat="46.5424" lon="0.32711">
        <ele>104.8</ele>
        <time>2021-04-25T15:28:26Z</time>
      </trkpt>
      <trkpt lat="46.54237" lon="0.32708">
        <ele>104.6</ele>
        <time>2021-04-25T15:28:27Z</time>
      </trkpt>
      <trkpt lat="46.54221" lon="0.32709">
        <ele>104.4</ele>
        <time>2021-04-25T15:28:32Z</time>
      </trkpt>
      <trkpt lat="46.54219" lon="0.32712">
        <ele>104.4</ele>
        <time>2021-04-25T15:28:33Z</time>
      </trkpt>
      <trkpt lat="46.54216" lon="0.3272">
        <ele>104.6</ele>
        <time>2021-04-25T15:28:36Z</time>
      </trkpt>
      <trkpt lat="46.54213" lon="0.32734">
        <ele>104.4</ele>
        <time>2021-04-25T15:28:41Z</time>
      </trkpt>
      <trkpt lat="46.54212" lon="0.32737">
        <ele>104.4</ele>
        <time>2021-04-25T15:28:42Z</time>
      </trkpt>
      <trkpt lat="46.54207" lon="0.32748">
        <ele>104.6</ele>
        <time>2021-04-25T15:28:46Z</time>
      </trkpt>
      <trkpt lat="46.54205" lon="0.32751">
        <ele>104.6</ele>
        <time>2021-04-25T15:28:47Z</time>
      </trkpt>
      <trkpt lat="46.542" lon="0.32757">
        <ele>104.2</ele>
        <time>2021-04-25T15:28:51Z</time>
      </trkpt>
      <trkpt lat="46.54196" lon="0.3276">
        <ele>104.2</ele>
        <time>2021-04-25T15:28:52Z</time>
      </trkpt>
      <trkpt lat="46.54191" lon="0.3276">
        <ele>104.6</ele>
        <time>2021-04-25T15:28:57Z</time>
      </trkpt>
      <trkpt lat="46.54186" lon="0.32764">
        <ele>105.6</ele>
        <time>2021-04-25T15:29:06Z</time>
      </trkpt>
      <trkpt lat="46.54181" lon="0.32764">
        <ele>105.8</ele>
        <time>2021-04-25T15:29:09Z</time>
      </trkpt>
      <trkpt lat="46.54174" lon="0.32765">
        <ele>106.4</ele>
        <time>2021-04-25T15:29:13Z</time>
      </trkpt>
      <trkpt lat="46.54172" lon="0.32765">
        <ele>106.8</ele>
        <time>2021-04-25T15:29:14Z</time>
      </trkpt>
      <trkpt lat="46.54163" lon="0.32768">
        <ele>108</ele>
        <time>2021-04-25T15:29:19Z</time>
      </trkpt>
      <trkpt lat="46.54156" lon="0.32769">
        <ele>108.6</ele>
        <time>2021-04-25T15:29:23Z</time>
      </trkpt>
      <trkpt lat="46.54152" lon="0.32769">
        <ele>109</ele>
        <time>2021-04-25T15:29:25Z</time>
      </trkpt>
      <trkpt lat="46.54145" lon="0.3277">
        <ele>109.6</ele>
        <time>2021-04-25T15:29:29Z</time>
      </trkpt>
      <trkpt lat="46.54136" lon="0.32772">
        <ele>110</ele>
        <time>2021-04-25T15:29:34Z</time>
      </trkpt>
      <trkpt lat="46.54133" lon="0.32774">
        <ele>110.4</ele>
        <time>2021-04-25T15:29:36Z</time>
      </trkpt>
      <trkpt lat="46.54126" lon="0.32777">
        <ele>111.2</ele>
        <time>2021-04-25T15:29:40Z</time>
      </trkpt>
      <trkpt lat="46.54122" lon="0.32777">
        <ele>111.6</ele>
        <time>2021-04-25T15:29:43Z</time>
      </trkpt>
      <trkpt lat="46.5412" lon="0.32778">
        <ele>112.2</ele>
        <time>2021-04-25T15:29:45Z</time>
      </trkpt>
      <trkpt lat="46.54113" lon="0.3278">
        <ele>113.2</ele>
        <time>2021-04-25T15:29:50Z</time>
      </trkpt>
      <trkpt lat="46.5411" lon="0.32781">
        <ele>113.6</ele>
        <time>2021-04-25T15:29:52Z</time>
      </trkpt>
      <trkpt lat="46.54105" lon="0.32783">
        <ele>114.4</ele>
        <time>2021-04-25T15:29:56Z</time>
      </trkpt>
      <trkpt lat="46.54096" lon="0.32783">
        <ele>115.4</ele>
        <time>2021-04-25T15:30:02Z</time>
      </trkpt>
      <trkpt lat="46.54094" lon="0.32783">
        <ele>115.8</ele>
        <time>2021-04-25T15:30:03Z</time>
      </trkpt>
      <trkpt lat="46.5409" lon="0.32784">
        <ele>116.6</ele>
        <time>2021-04-25T15:30:06Z</time>
      </trkpt>
      <trkpt lat="46.54082" lon="0.32786">
        <ele>117.6</ele>
        <time>2021-04-25T15:30:12Z</time>
      </trkpt>
      <trkpt lat="46.5408" lon="0.32786">
        <ele>118</ele>
        <time>2021-04-25T15:30:14Z</time>
      </trkpt>
      <trkpt lat="46.54075" lon="0.32787">
        <ele>118.8</ele>
        <time>2021-04-25T15:30:18Z</time>
      </trkpt>
      <trkpt lat="46.54072" lon="0.32789">
        <ele>119.8</ele>
        <time>2021-04-25T15:30:22Z</time>
      </trkpt>
      <trkpt lat="46.5407" lon="0.32789">
        <ele>120.2</ele>
        <time>2021-04-25T15:30:24Z</time>
      </trkpt>
      <trkpt lat="46.5407" lon="0.32789">
        <ele>120.4</ele>
        <time>2021-04-25T15:30:25Z</time>
      </trkpt>
      <trkpt lat="46.54067" lon="0.32791">
        <ele>121</ele>
        <time>2021-04-25T15:30:28Z</time>
      </trkpt>
      <trkpt lat="46.54064" lon="0.32792">
        <ele>121.6</ele>
        <time>2021-04-25T15:30:31Z</time>
      </trkpt>
      <trkpt lat="46.54061" lon="0.32792">
        <ele>121.8</ele>
        <time>2021-04-25T15:30:33Z</time>
      </trkpt>
      <trkpt lat="46.5406" lon="0.32794">
        <ele>122</ele>
        <time>2021-04-25T15:30:35Z</time>
      </trkpt>
      <trkpt lat="46.54059" lon="0.32795">
        <ele>122.4</ele>
        <time>2021-04-25T15:30:37Z</time>
      </trkpt>
      <trkpt lat="46.54057" lon="0.32796">
        <ele>123</ele>
        <time>2021-04-25T15:30:41Z</time>
      </trkpt>
      <trkpt lat="46.54054" lon="0.32798">
        <ele>123</ele>
        <time>2021-04-25T15:30:48Z</time>
      </trkpt>
      <trkpt lat="46.54053" lon="0.32798">
        <ele>122.8</ele>
        <time>2021-04-25T15:30:50Z</time>
      </trkpt>
      <trkpt lat="46.54049" lon="0.32798">
        <ele>123.2</ele>
        <time>2021-04-25T15:45:47Z</time>
      </trkpt>
      <trkpt lat="46.54051" lon="0.32799">
        <ele>124.2</ele>
        <time>2021-04-25T15:45:54Z</time>
      </trkpt>
      <trkpt lat="46.54053" lon="0.328">
        <ele>124.8</ele>
        <time>2021-04-25T15:45:57Z</time>
      </trkpt>
      <trkpt lat="46.54056" lon="0.32801">
        <ele>125</ele>
        <time>2021-04-25T15:46:00Z</time>
      </trkpt>
      <trkpt lat="46.54061" lon="0.32801">
        <ele>124.4</ele>
        <time>2021-04-25T15:46:05Z</time>
      </trkpt>
      <trkpt lat="46.54061" lon="0.32801">
        <ele>124.2</ele>
        <time>2021-04-25T15:46:06Z</time>
      </trkpt>
      <trkpt lat="46.54062" lon="0.32801">
        <ele>124</ele>
        <time>2021-04-25T15:46:07Z</time>
      </trkpt>
      <trkpt lat="46.54066" lon="0.32802">
        <ele>123.8</ele>
        <time>2021-04-25T15:46:11Z</time>
      </trkpt>
      <trkpt lat="46.54069" lon="0.32801">
        <ele>123</ele>
        <time>2021-04-25T15:46:14Z</time>
      </trkpt>
      <trkpt lat="46.5407" lon="0.328">
        <ele>122.6</ele>
        <time>2021-04-25T15:46:15Z</time>
      </trkpt>
      <trkpt lat="46.54073" lon="0.32798">
        <ele>121.8</ele>
        <time>2021-04-25T15:46:17Z</time>
      </trkpt>
      <trkpt lat="46.54077" lon="0.32796">
        <ele>120.8</ele>
        <time>2021-04-25T15:46:21Z</time>
      </trkpt>
      <trkpt lat="46.5408" lon="0.32793">
        <ele>119.6</ele>
        <time>2021-04-25T15:46:24Z</time>
      </trkpt>
      <trkpt lat="46.54082" lon="0.32792">
        <ele>119.2</ele>
        <time>2021-04-25T15:46:25Z</time>
      </trkpt>
      <trkpt lat="46.54085" lon="0.3279">
        <ele>118</ele>
        <time>2021-04-25T15:46:27Z</time>
      </trkpt>
      <trkpt lat="46.5409" lon="0.32789">
        <ele>116.4</ele>
        <time>2021-04-25T15:46:30Z</time>
      </trkpt>
      <trkpt lat="46.54095" lon="0.3279">
        <ele>114.6</ele>
        <time>2021-04-25T15:46:33Z</time>
      </trkpt>
      <trkpt lat="46.54097" lon="0.32789">
        <ele>113.4</ele>
        <time>2021-04-25T15:46:34Z</time>
      </trkpt>
      <trkpt lat="46.54098" lon="0.32789">
        <ele>112.2</ele>
        <time>2021-04-25T15:46:36Z</time>
      </trkpt>
      <trkpt lat="46.54104" lon="0.32788">
        <ele>112</ele>
        <time>2021-04-25T15:46:43Z</time>
      </trkpt>
      <trkpt lat="46.54108" lon="0.32784">
        <ele>112.4</ele>
        <time>2021-04-25T15:46:54Z</time>
      </trkpt>
      <trkpt lat="46.54111" lon="0.32782">
        <ele>112.4</ele>
        <time>2021-04-25T15:46:59Z</time>
      </trkpt>
      <trkpt lat="46.54113" lon="0.32783">
        <ele>112</ele>
        <time>2021-04-25T15:47:01Z</time>
      </trkpt>
      <trkpt lat="46.54114" lon="0.32785">
        <ele>111.6</ele>
        <time>2021-04-25T15:47:03Z</time>
      </trkpt>
      <trkpt lat="46.54115" lon="0.32786">
        <ele>111.6</ele>
        <time>2021-04-25T15:47:04Z</time>
      </trkpt>
      <trkpt lat="46.54116" lon="0.32787">
        <ele>111.2</ele>
        <time>2021-04-25T15:47:05Z</time>
      </trkpt>
      <trkpt lat="46.54116" lon="0.3279">
        <ele>109.4</ele>
        <time>2021-04-25T15:47:07Z</time>
      </trkpt>
      <trkpt lat="46.54116" lon="0.32791">
        <ele>108.6</ele>
        <time>2021-04-25T15:47:08Z</time>
      </trkpt>
      <trkpt lat="46.54117" lon="0.32793">
        <ele>108</ele>
        <time>2021-04-25T15:47:09Z</time>
      </trkpt>
      <trkpt lat="46.54116" lon="0.32797">
        <ele>107</ele>
        <time>2021-04-25T15:47:11Z</time>
      </trkpt>
      <trkpt lat="46.54115" lon="0.32799">
        <ele>106.2</ele>
        <time>2021-04-25T15:47:12Z</time>
      </trkpt>
      <trkpt lat="46.54112" lon="0.32801">
        <ele>105</ele>
        <time>2021-04-25T15:47:15Z</time>
      </trkpt>
      <trkpt lat="46.5411" lon="0.32803">
        <ele>105</ele>
        <time>2021-04-25T15:47:19Z</time>
      </trkpt>
      <trkpt lat="46.54109" lon="0.32809">
        <ele>105.8</ele>
        <time>2021-04-25T15:47:31Z</time>
      </trkpt>
      <trkpt lat="46.54109" lon="0.3281">
        <ele>106</ele>
        <time>2021-04-25T15:47:37Z</time>
      </trkpt>
      <trkpt lat="46.54107" lon="0.32809">
        <ele>106.4</ele>
        <time>2021-04-25T15:47:51Z</time>
      </trkpt>
      <trkpt lat="46.54099" lon="0.32815">
        <ele>106.8</ele>
        <time>2021-04-25T15:47:58Z</time>
      </trkpt>
      <trkpt lat="46.54098" lon="0.32816">
        <ele>107</ele>
        <time>2021-04-25T15:47:59Z</time>
      </trkpt>
      <trkpt lat="46.54095" lon="0.32819">
        <ele>107.2</ele>
        <time>2021-04-25T15:48:01Z</time>
      </trkpt>
      <trkpt lat="46.54089" lon="0.32828">
        <ele>108</ele>
        <time>2021-04-25T15:48:07Z</time>
      </trkpt>
      <trkpt lat="46.54087" lon="0.3283">
        <ele>108.2</ele>
        <time>2021-04-25T15:48:09Z</time>
      </trkpt>
      <trkpt lat="46.54084" lon="0.32839">
        <ele>108.2</ele>
        <time>2021-04-25T15:48:13Z</time>
      </trkpt>
      <trkpt lat="46.54071" lon="0.32852">
        <ele>108</ele>
        <time>2021-04-25T15:48:18Z</time>
      </trkpt>
      <trkpt lat="46.54068" lon="0.32855">
        <ele>107.8</ele>
        <time>2021-04-25T15:48:19Z</time>
      </trkpt>
      <trkpt lat="46.54053" lon="0.32862">
        <ele>107.6</ele>
        <time>2021-04-25T15:48:23Z</time>
      </trkpt>
      <trkpt lat="46.54049" lon="0.32863">
        <ele>107</ele>
        <time>2021-04-25T15:48:24Z</time>
      </trkpt>
      <trkpt lat="46.54046" lon="0.32864">
        <ele>106.6</ele>
        <time>2021-04-25T15:48:25Z</time>
      </trkpt>
      <trkpt lat="46.54033" lon="0.32867">
        <ele>106</ele>
        <time>2021-04-25T15:48:29Z</time>
      </trkpt>
      <trkpt lat="46.54019" lon="0.32872">
        <ele>105.4</ele>
        <time>2021-04-25T15:48:33Z</time>
      </trkpt>
      <trkpt lat="46.54009" lon="0.32877">
        <ele>105.2</ele>
        <time>2021-04-25T15:48:36Z</time>
      </trkpt>
      <trkpt lat="46.5399" lon="0.32888">
        <ele>105</ele>
        <time>2021-04-25T15:48:41Z</time>
      </trkpt>
      <trkpt lat="46.5397" lon="0.32903">
        <ele>105.8</ele>
        <time>2021-04-25T15:48:48Z</time>
      </trkpt>
      <trkpt lat="46.53961" lon="0.32911">
        <ele>106</ele>
        <time>2021-04-25T15:48:52Z</time>
      </trkpt>
      <trkpt lat="46.53954" lon="0.32917">
        <ele>106.2</ele>
        <time>2021-04-25T15:48:55Z</time>
      </trkpt>
      <trkpt lat="46.53941" lon="0.32942">
        <ele>106.2</ele>
        <time>2021-04-25T15:49:01Z</time>
      </trkpt>
      <trkpt lat="46.53924" lon="0.32966">
        <ele>106.2</ele>
        <time>2021-04-25T15:49:07Z</time>
      </trkpt>
      <trkpt lat="46.53912" lon="0.32988">
        <ele>105.6</ele>
        <time>2021-04-25T15:49:12Z</time>
      </trkpt>
      <trkpt lat="46.53904" lon="0.33013">
        <ele>105.6</ele>
        <time>2021-04-25T15:49:16Z</time>
      </trkpt>
      <trkpt lat="46.53902" lon="0.33018">
        <ele>106</ele>
        <time>2021-04-25T15:49:17Z</time>
      </trkpt>
      <trkpt lat="46.53894" lon="0.33045">
        <ele>106.6</ele>
        <time>2021-04-25T15:49:23Z</time>
      </trkpt>
      <trkpt lat="46.53891" lon="0.3305">
        <ele>107.2</ele>
        <time>2021-04-25T15:49:25Z</time>
      </trkpt>
      <trkpt lat="46.53887" lon="0.33063">
        <ele>107.8</ele>
        <time>2021-04-25T15:49:29Z</time>
      </trkpt>
      <trkpt lat="46.53878" lon="0.33086">
        <ele>107.4</ele>
        <time>2021-04-25T15:49:35Z</time>
      </trkpt>
      <trkpt lat="46.53875" lon="0.33107">
        <ele>107.4</ele>
        <time>2021-04-25T15:49:41Z</time>
      </trkpt>
      <trkpt lat="46.53878" lon="0.33131">
        <ele>107.4</ele>
        <time>2021-04-25T15:49:48Z</time>
      </trkpt>
      <trkpt lat="46.53883" lon="0.33159">
        <ele>106.6</ele>
        <time>2021-04-25T15:49:54Z</time>
      </trkpt>
      <trkpt lat="46.53886" lon="0.33171">
        <ele>106.2</ele>
        <time>2021-04-25T15:49:59Z</time>
      </trkpt>
      <trkpt lat="46.53886" lon="0.33174">
        <ele>106.2</ele>
        <time>2021-04-25T15:50:00Z</time>
      </trkpt>
      <trkpt lat="46.5389" lon="0.33188">
        <ele>106.2</ele>
        <time>2021-04-25T15:50:06Z</time>
      </trkpt>
      <trkpt lat="46.53891" lon="0.33192">
        <ele>106</ele>
        <time>2021-04-25T15:50:09Z</time>
      </trkpt>
      <trkpt lat="46.53892" lon="0.33191">
        <ele>105.6</ele>
        <time>2021-04-25T15:50:11Z</time>
      </trkpt>
      <trkpt lat="46.53888" lon="0.33185">
        <ele>105.6</ele>
        <time>2021-04-25T15:50:16Z</time>
      </trkpt>
      <trkpt lat="46.53888" lon="0.33182">
        <ele>105.8</ele>
        <time>2021-04-25T15:50:17Z</time>
      </trkpt>
      <trkpt lat="46.53885" lon="0.33171">
        <ele>106.4</ele>
        <time>2021-04-25T15:50:21Z</time>
      </trkpt>
      <trkpt lat="46.53882" lon="0.33167">
        <ele>106.6</ele>
        <time>2021-04-25T15:50:23Z</time>
      </trkpt>
      <trkpt lat="46.53881" lon="0.33164">
        <ele>106.8</ele>
        <time>2021-04-25T15:50:24Z</time>
      </trkpt>
      <trkpt lat="46.53878" lon="0.33154">
        <ele>107.2</ele>
        <time>2021-04-25T15:50:27Z</time>
      </trkpt>
      <trkpt lat="46.53878" lon="0.3315">
        <ele>107.2</ele>
        <time>2021-04-25T15:50:28Z</time>
      </trkpt>
      <trkpt lat="46.53876" lon="0.33131">
        <ele>107.4</ele>
        <time>2021-04-25T15:50:32Z</time>
      </trkpt>
      <trkpt lat="46.53876" lon="0.33118">
        <ele>107.4</ele>
        <time>2021-04-25T15:50:34Z</time>
      </trkpt>
      <trkpt lat="46.53875" lon="0.33094">
        <ele>107.6</ele>
        <time>2021-04-25T15:50:39Z</time>
      </trkpt>
      <trkpt lat="46.53876" lon="0.3309">
        <ele>107.6</ele>
        <time>2021-04-25T15:50:40Z</time>
      </trkpt>
      <trkpt lat="46.53884" lon="0.33059">
        <ele>106.4</ele>
        <time>2021-04-25T15:50:45Z</time>
      </trkpt>
      <trkpt lat="46.53886" lon="0.33053">
        <ele>106</ele>
        <time>2021-04-25T15:50:46Z</time>
      </trkpt>
      <trkpt lat="46.53891" lon="0.33031">
        <ele>106.2</ele>
        <time>2021-04-25T15:50:50Z</time>
      </trkpt>
      <trkpt lat="46.53894" lon="0.33026">
        <ele>106.2</ele>
        <time>2021-04-25T15:50:51Z</time>
      </trkpt>
      <trkpt lat="46.53902" lon="0.3301">
        <ele>106.2</ele>
        <time>2021-04-25T15:50:54Z</time>
      </trkpt>
      <trkpt lat="46.53905" lon="0.33002">
        <ele>106</ele>
        <time>2021-04-25T15:50:56Z</time>
      </trkpt>
      <trkpt lat="46.53909" lon="0.32994">
        <ele>106.4</ele>
        <time>2021-04-25T15:50:58Z</time>
      </trkpt>
      <trkpt lat="46.5391" lon="0.32989">
        <ele>106.8</ele>
        <time>2021-04-25T15:50:59Z</time>
      </trkpt>
      <trkpt lat="46.53912" lon="0.32984">
        <ele>107.2</ele>
        <time>2021-04-25T15:51:00Z</time>
      </trkpt>
      <trkpt lat="46.53922" lon="0.32966">
        <ele>107.4</ele>
        <time>2021-04-25T15:51:04Z</time>
      </trkpt>
      <trkpt lat="46.53924" lon="0.32962">
        <ele>107</ele>
        <time>2021-04-25T15:51:05Z</time>
      </trkpt>
      <trkpt lat="46.53933" lon="0.32954">
        <ele>106.2</ele>
        <time>2021-04-25T15:51:07Z</time>
      </trkpt>
      <trkpt lat="46.53937" lon="0.3295">
        <ele>106</ele>
        <time>2021-04-25T15:51:08Z</time>
      </trkpt>
      <trkpt lat="46.53942" lon="0.32948">
        <ele>105.8</ele>
        <time>2021-04-25T15:51:09Z</time>
      </trkpt>
      <trkpt lat="46.53947" lon="0.32944">
        <ele>105.6</ele>
        <time>2021-04-25T15:51:10Z</time>
      </trkpt>
      <trkpt lat="46.53973" lon="0.32925">
        <ele>105.8</ele>
        <time>2021-04-25T15:51:15Z</time>
      </trkpt>
      <trkpt lat="46.54002" lon="0.32902">
        <ele>106.4</ele>
        <time>2021-04-25T15:51:21Z</time>
      </trkpt>
      <trkpt lat="46.54006" lon="0.329">
        <ele>106.4</ele>
        <time>2021-04-25T15:51:22Z</time>
      </trkpt>
      <trkpt lat="46.54022" lon="0.32887">
        <ele>107</ele>
        <time>2021-04-25T15:51:26Z</time>
      </trkpt>
      <trkpt lat="46.54045" lon="0.32875">
        <ele>107.2</ele>
        <time>2021-04-25T15:51:32Z</time>
      </trkpt>
      <trkpt lat="46.54056" lon="0.32863">
        <ele>107.6</ele>
        <time>2021-04-25T15:51:37Z</time>
      </trkpt>
      <trkpt lat="46.54058" lon="0.3286">
        <ele>108</ele>
        <time>2021-04-25T15:51:38Z</time>
      </trkpt>
      <trkpt lat="46.54071" lon="0.32844">
        <ele>108.2</ele>
        <time>2021-04-25T15:51:42Z</time>
      </trkpt>
      <trkpt lat="46.54082" lon="0.32829">
        <ele>107</ele>
        <time>2021-04-25T15:51:45Z</time>
      </trkpt>
      <trkpt lat="46.54085" lon="0.32825">
        <ele>106.8</ele>
        <time>2021-04-25T15:51:46Z</time>
      </trkpt>
      <trkpt lat="46.54106" lon="0.32812">
        <ele>106.2</ele>
        <time>2021-04-25T15:51:50Z</time>
      </trkpt>
      <trkpt lat="46.54111" lon="0.32808">
        <ele>105.8</ele>
        <time>2021-04-25T15:51:51Z</time>
      </trkpt>
      <trkpt lat="46.54117" lon="0.32804">
        <ele>105.8</ele>
        <time>2021-04-25T15:51:52Z</time>
      </trkpt>
      <trkpt lat="46.54135" lon="0.32797">
        <ele>105.2</ele>
        <time>2021-04-25T15:51:55Z</time>
      </trkpt>
      <trkpt lat="46.5414" lon="0.32794">
        <ele>105.2</ele>
        <time>2021-04-25T15:51:56Z</time>
      </trkpt>
      <trkpt lat="46.54149" lon="0.32788">
        <ele>105</ele>
        <time>2021-04-25T15:51:58Z</time>
      </trkpt>
      <trkpt lat="46.54158" lon="0.32783">
        <ele>105</ele>
        <time>2021-04-25T15:52:00Z</time>
      </trkpt>
      <trkpt lat="46.54167" lon="0.32774">
        <ele>105.2</ele>
        <time>2021-04-25T15:52:02Z</time>
      </trkpt>
      <trkpt lat="46.54179" lon="0.3276">
        <ele>105.6</ele>
        <time>2021-04-25T15:52:05Z</time>
      </trkpt>
      <trkpt lat="46.54184" lon="0.3275">
        <ele>105.6</ele>
        <time>2021-04-25T15:52:07Z</time>
      </trkpt>
      <trkpt lat="46.5419" lon="0.32733">
        <ele>106</ele>
        <time>2021-04-25T15:52:12Z</time>
      </trkpt>
      <trkpt lat="46.54205" lon="0.32728">
        <ele>106</ele>
        <time>2021-04-25T15:52:16Z</time>
      </trkpt>
      <trkpt lat="46.54228" lon="0.32728">
        <ele>106.2</ele>
        <time>2021-04-25T15:52:23Z</time>
      </trkpt>
      <trkpt lat="46.54253" lon="0.32734">
        <ele>106.4</ele>
        <time>2021-04-25T15:52:28Z</time>
      </trkpt>
      <trkpt lat="46.54257" lon="0.32736">
        <ele>106.4</ele>
        <time>2021-04-25T15:52:29Z</time>
      </trkpt>
      <trkpt lat="46.54265" lon="0.32738">
        <ele>106.4</ele>
        <time>2021-04-25T15:52:31Z</time>
      </trkpt>
      <trkpt lat="46.54275" lon="0.32742">
        <ele>106.4</ele>
        <time>2021-04-25T15:52:33Z</time>
      </trkpt>
      <trkpt lat="46.54309" lon="0.32758">
        <ele>106.6</ele>
        <time>2021-04-25T15:52:40Z</time>
      </trkpt>
      <trkpt lat="46.54338" lon="0.32778">
        <ele>106.8</ele>
        <time>2021-04-25T15:52:46Z</time>
      </trkpt>
      <trkpt lat="46.54343" lon="0.32781">
        <ele>107</ele>
        <time>2021-04-25T15:52:47Z</time>
      </trkpt>
      <trkpt lat="46.54375" lon="0.3281">
        <ele>106</ele>
        <time>2021-04-25T15:52:54Z</time>
      </trkpt>
      <trkpt lat="46.54399" lon="0.32839">
        <ele>106.4</ele>
        <time>2021-04-25T15:53:00Z</time>
      </trkpt>
      <trkpt lat="46.54411" lon="0.32855">
        <ele>106.6</ele>
        <time>2021-04-25T15:53:04Z</time>
      </trkpt>
      <trkpt lat="46.54417" lon="0.32863">
        <ele>106.6</ele>
        <time>2021-04-25T15:53:06Z</time>
      </trkpt>
      <trkpt lat="46.54424" lon="0.3287">
        <ele>106.6</ele>
        <time>2021-04-25T15:53:08Z</time>
      </trkpt>
      <trkpt lat="46.54434" lon="0.3288">
        <ele>106.6</ele>
        <time>2021-04-25T15:53:11Z</time>
      </trkpt>
      <trkpt lat="46.54457" lon="0.32912">
        <ele>106.4</ele>
        <time>2021-04-25T15:53:18Z</time>
      </trkpt>
      <trkpt lat="46.5449" lon="0.32961">
        <ele>106.6</ele>
        <time>2021-04-25T15:53:27Z</time>
      </trkpt>
      <trkpt lat="46.54524" lon="0.33009">
        <ele>106.6</ele>
        <time>2021-04-25T15:53:35Z</time>
      </trkpt>
      <trkpt lat="46.54556" lon="0.33055">
        <ele>107.2</ele>
        <time>2021-04-25T15:53:43Z</time>
      </trkpt>
      <trkpt lat="46.5458" lon="0.33089">
        <ele>106.8</ele>
        <time>2021-04-25T15:53:50Z</time>
      </trkpt>
      <trkpt lat="46.54602" lon="0.33111">
        <ele>106.4</ele>
        <time>2021-04-25T15:53:56Z</time>
      </trkpt>
      <trkpt lat="46.54622" lon="0.33128">
        <ele>106.4</ele>
        <time>2021-04-25T15:54:01Z</time>
      </trkpt>
      <trkpt lat="46.54648" lon="0.33153">
        <ele>106</ele>
        <time>2021-04-25T15:54:07Z</time>
      </trkpt>
      <trkpt lat="46.54653" lon="0.33157">
        <ele>106.2</ele>
        <time>2021-04-25T15:54:08Z</time>
      </trkpt>
      <trkpt lat="46.54672" lon="0.33177">
        <ele>106.6</ele>
        <time>2021-04-25T15:54:12Z</time>
      </trkpt>
      <trkpt lat="46.54709" lon="0.33217">
        <ele>106.4</ele>
        <time>2021-04-25T15:54:20Z</time>
      </trkpt>
      <trkpt lat="46.54743" lon="0.3325">
        <ele>106.2</ele>
        <time>2021-04-25T15:54:28Z</time>
      </trkpt>
      <trkpt lat="46.54767" lon="0.33271">
        <ele>105.8</ele>
        <time>2021-04-25T15:54:34Z</time>
      </trkpt>
      <trkpt lat="46.54774" lon="0.33276">
        <ele>105.6</ele>
        <time>2021-04-25T15:54:36Z</time>
      </trkpt>
      <trkpt lat="46.54804" lon="0.33297">
        <ele>105.8</ele>
        <time>2021-04-25T15:54:42Z</time>
      </trkpt>
      <trkpt lat="46.54843" lon="0.33324">
        <ele>106.2</ele>
        <time>2021-04-25T15:54:50Z</time>
      </trkpt>
      <trkpt lat="46.5488" lon="0.33348">
        <ele>106.4</ele>
        <time>2021-04-25T15:54:58Z</time>
      </trkpt>
      <trkpt lat="46.54897" lon="0.33366">
        <ele>106.8</ele>
        <time>2021-04-25T15:55:03Z</time>
      </trkpt>
      <trkpt lat="46.54903" lon="0.3337">
        <ele>106.8</ele>
        <time>2021-04-25T15:55:05Z</time>
      </trkpt>
      <trkpt lat="46.54909" lon="0.33373">
        <ele>106.8</ele>
        <time>2021-04-25T15:55:07Z</time>
      </trkpt>
      <trkpt lat="46.54913" lon="0.33375">
        <ele>106.8</ele>
        <time>2021-04-25T15:55:08Z</time>
      </trkpt>
      <trkpt lat="46.54924" lon="0.33385">
        <ele>106.6</ele>
        <time>2021-04-25T15:55:11Z</time>
      </trkpt>
      <trkpt lat="46.54928" lon="0.33388">
        <ele>106.6</ele>
        <time>2021-04-25T15:55:12Z</time>
      </trkpt>
      <trkpt lat="46.54931" lon="0.3339">
        <ele>106.4</ele>
        <time>2021-04-25T15:55:13Z</time>
      </trkpt>
      <trkpt lat="46.5495" lon="0.33404">
        <ele>106.2</ele>
        <time>2021-04-25T15:55:18Z</time>
      </trkpt>
      <trkpt lat="46.54957" lon="0.33411">
        <ele>106.2</ele>
        <time>2021-04-25T15:55:20Z</time>
      </trkpt>
      <trkpt lat="46.54964" lon="0.33424">
        <ele>106.2</ele>
        <time>2021-04-25T15:55:22Z</time>
      </trkpt>
      <trkpt lat="46.54969" lon="0.33431">
        <ele>106.2</ele>
        <time>2021-04-25T15:55:23Z</time>
      </trkpt>
      <trkpt lat="46.54972" lon="0.33439">
        <ele>106.2</ele>
        <time>2021-04-25T15:55:24Z</time>
      </trkpt>
      <trkpt lat="46.54981" lon="0.33466">
        <ele>106.2</ele>
        <time>2021-04-25T15:55:27Z</time>
      </trkpt>
      <trkpt lat="46.54993" lon="0.3352">
        <ele>106.2</ele>
        <time>2021-04-25T15:55:34Z</time>
      </trkpt>
      <trkpt lat="46.55007" lon="0.33579">
        <ele>106.4</ele>
        <time>2021-04-25T15:55:42Z</time>
      </trkpt>
      <trkpt lat="46.55014" lon="0.33628">
        <ele>106</ele>
        <time>2021-04-25T15:55:49Z</time>
      </trkpt>
      <trkpt lat="46.55008" lon="0.33633">
        <ele>105.8</ele>
        <time>2021-04-25T15:55:51Z</time>
      </trkpt>
      <trkpt lat="46.55003" lon="0.33632">
        <ele>105.6</ele>
        <time>2021-04-25T15:55:52Z</time>
      </trkpt>
      <trkpt lat="46.54985" lon="0.33627">
        <ele>105.4</ele>
        <time>2021-04-25T15:55:56Z</time>
      </trkpt>
      <trkpt lat="46.54981" lon="0.33625">
        <ele>105.4</ele>
        <time>2021-04-25T15:55:57Z</time>
      </trkpt>
      <trkpt lat="46.5497" lon="0.33618">
        <ele>105</ele>
        <time>2021-04-25T15:56:00Z</time>
      </trkpt>
      <trkpt lat="46.54965" lon="0.33616">
        <ele>105</ele>
        <time>2021-04-25T15:56:01Z</time>
      </trkpt>
      <trkpt lat="46.54934" lon="0.33606">
        <ele>105.4</ele>
        <time>2021-04-25T15:56:08Z</time>
      </trkpt>
      <trkpt lat="46.5492" lon="0.33601">
        <ele>105.6</ele>
        <time>2021-04-25T15:56:11Z</time>
      </trkpt>
      <trkpt lat="46.54905" lon="0.33596">
        <ele>105.6</ele>
        <time>2021-04-25T15:56:14Z</time>
      </trkpt>
      <trkpt lat="46.54874" lon="0.33587">
        <ele>105.8</ele>
        <time>2021-04-25T15:56:20Z</time>
      </trkpt>
      <trkpt lat="46.54844" lon="0.33578">
        <ele>106</ele>
        <time>2021-04-25T15:56:25Z</time>
      </trkpt>
      <trkpt lat="46.54839" lon="0.33576">
        <ele>106</ele>
        <time>2021-04-25T15:56:26Z</time>
      </trkpt>
      <trkpt lat="46.54808" lon="0.33563">
        <ele>105.8</ele>
        <time>2021-04-25T15:56:33Z</time>
      </trkpt>
      <trkpt lat="46.54778" lon="0.33554">
        <ele>106</ele>
        <time>2021-04-25T15:56:40Z</time>
      </trkpt>
      <trkpt lat="46.54747" lon="0.33548">
        <ele>106</ele>
        <time>2021-04-25T15:56:46Z</time>
      </trkpt>
      <trkpt lat="46.54711" lon="0.33539">
        <ele>105.8</ele>
        <time>2021-04-25T15:56:52Z</time>
      </trkpt>
      <trkpt lat="46.54706" lon="0.33537">
        <ele>105.8</ele>
        <time>2021-04-25T15:56:53Z</time>
      </trkpt>
      <trkpt lat="46.54667" lon="0.33517">
        <ele>106.8</ele>
        <time>2021-04-25T15:57:00Z</time>
      </trkpt>
      <trkpt lat="46.54657" lon="0.33511">
        <ele>107</ele>
        <time>2021-04-25T15:57:01Z</time>
      </trkpt>
      <trkpt lat="46.54629" lon="0.33491">
        <ele>107.4</ele>
        <time>2021-04-25T15:57:08Z</time>
      </trkpt>
      <trkpt lat="46.54624" lon="0.33487">
        <ele>107.8</ele>
        <time>2021-04-25T15:57:09Z</time>
      </trkpt>
      <trkpt lat="46.54616" lon="0.33479">
        <ele>108</ele>
        <time>2021-04-25T15:57:11Z</time>
      </trkpt>
      <trkpt lat="46.54595" lon="0.33458">
        <ele>108.2</ele>
        <time>2021-04-25T15:57:16Z</time>
      </trkpt>
      <trkpt lat="46.54575" lon="0.33438">
        <ele>108.4</ele>
        <time>2021-04-25T15:57:21Z</time>
      </trkpt>
      <trkpt lat="46.54547" lon="0.3341">
        <ele>108.8</ele>
        <time>2021-04-25T15:57:27Z</time>
      </trkpt>
      <trkpt lat="46.54523" lon="0.33384">
        <ele>109.2</ele>
        <time>2021-04-25T15:57:32Z</time>
      </trkpt>
      <trkpt lat="46.54509" lon="0.33371">
        <ele>109.4</ele>
        <time>2021-04-25T15:57:35Z</time>
      </trkpt>
      <trkpt lat="46.54474" lon="0.33337">
        <ele>109.4</ele>
        <time>2021-04-25T15:57:42Z</time>
      </trkpt>
      <trkpt lat="46.54437" lon="0.33299">
        <ele>109.2</ele>
        <time>2021-04-25T15:57:49Z</time>
      </trkpt>
      <trkpt lat="46.54411" lon="0.33264">
        <ele>108.6</ele>
        <time>2021-04-25T15:57:55Z</time>
      </trkpt>
      <trkpt lat="46.5439" lon="0.33235">
        <ele>108.8</ele>
        <time>2021-04-25T15:58:00Z</time>
      </trkpt>
      <trkpt lat="46.54386" lon="0.33232">
        <ele>109</ele>
        <time>2021-04-25T15:58:01Z</time>
      </trkpt>
      <trkpt lat="46.5438" lon="0.33232">
        <ele>109</ele>
        <time>2021-04-25T15:58:02Z</time>
      </trkpt>
      <trkpt lat="46.54371" lon="0.33237">
        <ele>109.2</ele>
        <time>2021-04-25T15:58:04Z</time>
      </trkpt>
      <trkpt lat="46.54367" lon="0.33239">
        <ele>109.4</ele>
        <time>2021-04-25T15:58:05Z</time>
      </trkpt>
      <trkpt lat="46.5435" lon="0.33251">
        <ele>109.8</ele>
        <time>2021-04-25T15:58:09Z</time>
      </trkpt>
      <trkpt lat="46.54346" lon="0.33253">
        <ele>110</ele>
        <time>2021-04-25T15:58:10Z</time>
      </trkpt>
      <trkpt lat="46.54341" lon="0.33253">
        <ele>110.6</ele>
        <time>2021-04-25T15:58:11Z</time>
      </trkpt>
      <trkpt lat="46.54331" lon="0.3325">
        <ele>111.2</ele>
        <time>2021-04-25T15:58:14Z</time>
      </trkpt>
      <trkpt lat="46.54328" lon="0.33248">
        <ele>111.4</ele>
        <time>2021-04-25T15:58:15Z</time>
      </trkpt>
      <trkpt lat="46.54324" lon="0.33246">
        <ele>111.4</ele>
        <time>2021-04-25T15:58:16Z</time>
      </trkpt>
      <trkpt lat="46.5432" lon="0.33244">
        <ele>111.6</ele>
        <time>2021-04-25T15:58:17Z</time>
      </trkpt>
      <trkpt lat="46.54317" lon="0.33243">
        <ele>111.6</ele>
        <time>2021-04-25T15:58:18Z</time>
      </trkpt>
      <trkpt lat="46.5431" lon="0.33238">
        <ele>111.8</ele>
        <time>2021-04-25T15:58:20Z</time>
      </trkpt>
      <trkpt lat="46.54288" lon="0.3322">
        <ele>111.8</ele>
        <time>2021-04-25T15:58:25Z</time>
      </trkpt>
      <trkpt lat="46.54243" lon="0.3318">
        <ele>111.8</ele>
        <time>2021-04-25T15:58:34Z</time>
      </trkpt>
      <trkpt lat="46.54218" lon="0.33155">
        <ele>112.2</ele>
        <time>2021-04-25T15:58:40Z</time>
      </trkpt>
      <trkpt lat="46.54213" lon="0.33152">
        <ele>112.2</ele>
        <time>2021-04-25T15:58:41Z</time>
      </trkpt>
      <trkpt lat="46.54189" lon="0.33137">
        <ele>112.4</ele>
        <time>2021-04-25T15:58:46Z</time>
      </trkpt>
      <trkpt lat="46.54164" lon="0.33128">
        <ele>112.2</ele>
        <time>2021-04-25T15:58:51Z</time>
      </trkpt>
      <trkpt lat="46.54154" lon="0.33126">
        <ele>112.2</ele>
        <time>2021-04-25T15:58:53Z</time>
      </trkpt>
      <trkpt lat="46.54145" lon="0.33122">
        <ele>112.4</ele>
        <time>2021-04-25T15:58:55Z</time>
      </trkpt>
      <trkpt lat="46.54127" lon="0.33119">
        <ele>112.4</ele>
        <time>2021-04-25T15:58:59Z</time>
      </trkpt>
      <trkpt lat="46.54109" lon="0.33117">
        <ele>112.4</ele>
        <time>2021-04-25T15:59:03Z</time>
      </trkpt>
      <trkpt lat="46.541" lon="0.33116">
        <ele>112</ele>
        <time>2021-04-25T15:59:05Z</time>
      </trkpt>
      <trkpt lat="46.54092" lon="0.33113">
        <ele>111.8</ele>
        <time>2021-04-25T15:59:07Z</time>
      </trkpt>
      <trkpt lat="46.54078" lon="0.33111">
        <ele>111.6</ele>
        <time>2021-04-25T15:59:10Z</time>
      </trkpt>
      <trkpt lat="46.54064" lon="0.33107">
        <ele>111.4</ele>
        <time>2021-04-25T15:59:13Z</time>
      </trkpt>
      <trkpt lat="46.54054" lon="0.33108">
        <ele>111</ele>
        <time>2021-04-25T15:59:15Z</time>
      </trkpt>
      <trkpt lat="46.54048" lon="0.33107">
        <ele>110.8</ele>
        <time>2021-04-25T15:59:17Z</time>
      </trkpt>
      <trkpt lat="46.54046" lon="0.33105">
        <ele>110.4</ele>
        <time>2021-04-25T15:59:18Z</time>
      </trkpt>
      <trkpt lat="46.54043" lon="0.3309">
        <ele>109.6</ele>
        <time>2021-04-25T15:59:22Z</time>
      </trkpt>
      <trkpt lat="46.5404" lon="0.33083">
        <ele>109.2</ele>
        <time>2021-04-25T15:59:24Z</time>
      </trkpt>
      <trkpt lat="46.54033" lon="0.33074">
        <ele>108.4</ele>
        <time>2021-04-25T15:59:26Z</time>
      </trkpt>
      <trkpt lat="46.5403" lon="0.33071">
        <ele>107.8</ele>
        <time>2021-04-25T15:59:27Z</time>
      </trkpt>
      <trkpt lat="46.54027" lon="0.33067">
        <ele>107.4</ele>
        <time>2021-04-25T15:59:28Z</time>
      </trkpt>
      <trkpt lat="46.54025" lon="0.33064">
        <ele>106.8</ele>
        <time>2021-04-25T15:59:29Z</time>
      </trkpt>
      <trkpt lat="46.54021" lon="0.33057">
        <ele>106.2</ele>
        <time>2021-04-25T15:59:31Z</time>
      </trkpt>
      <trkpt lat="46.54019" lon="0.33054">
        <ele>105.8</ele>
        <time>2021-04-25T15:59:32Z</time>
      </trkpt>
      <trkpt lat="46.54008" lon="0.3305">
        <ele>105.6</ele>
        <time>2021-04-25T15:59:35Z</time>
      </trkpt>
      <trkpt lat="46.53998" lon="0.33052">
        <ele>105.2</ele>
        <time>2021-04-25T15:59:39Z</time>
      </trkpt>
      <trkpt lat="46.53996" lon="0.3305">
        <ele>105</ele>
        <time>2021-04-25T15:59:41Z</time>
      </trkpt>
      <trkpt lat="46.5399" lon="0.33051">
        <ele>105</ele>
        <time>2021-04-25T15:59:43Z</time>
      </trkpt>
      <trkpt lat="46.53976" lon="0.3306">
        <ele>105.2</ele>
        <time>2021-04-25T15:59:48Z</time>
      </trkpt>
      <trkpt lat="46.53959" lon="0.33059">
        <ele>105</ele>
        <time>2021-04-25T15:59:53Z</time>
      </trkpt>
      <trkpt lat="46.53952" lon="0.33063">
        <ele>105.2</ele>
        <time>2021-04-25T15:59:55Z</time>
      </trkpt>
      <trkpt lat="46.53949" lon="0.33066">
        <ele>105.4</ele>
        <time>2021-04-25T15:59:56Z</time>
      </trkpt>
      <trkpt lat="46.53947" lon="0.33069">
        <ele>105.6</ele>
        <time>2021-04-25T15:59:57Z</time>
      </trkpt>
      <trkpt lat="46.53943" lon="0.33076">
        <ele>106</ele>
        <time>2021-04-25T15:59:59Z</time>
      </trkpt>
      <trkpt lat="46.53941" lon="0.33085">
        <ele>106.2</ele>
        <time>2021-04-25T16:00:01Z</time>
      </trkpt>
      <trkpt lat="46.53939" lon="0.33111">
        <ele>106</ele>
        <time>2021-04-25T16:00:06Z</time>
      </trkpt>
      <trkpt lat="46.5394" lon="0.33116">
        <ele>105.8</ele>
        <time>2021-04-25T16:00:07Z</time>
      </trkpt>
      <trkpt lat="46.53942" lon="0.33137">
        <ele>105.4</ele>
        <time>2021-04-25T16:00:11Z</time>
      </trkpt>
      <trkpt lat="46.53943" lon="0.33147">
        <ele>105.4</ele>
        <time>2021-04-25T16:00:13Z</time>
      </trkpt>
      <trkpt lat="46.53943" lon="0.33162">
        <ele>105.8</ele>
        <time>2021-04-25T16:00:16Z</time>
      </trkpt>
      <trkpt lat="46.53943" lon="0.33172">
        <ele>105.8</ele>
        <time>2021-04-25T16:00:18Z</time>
      </trkpt>
      <trkpt lat="46.53945" lon="0.33183">
        <ele>105.8</ele>
        <time>2021-04-25T16:00:20Z</time>
      </trkpt>
      <trkpt lat="46.53948" lon="0.33189">
        <ele>105.8</ele>
        <time>2021-04-25T16:00:21Z</time>
      </trkpt>
      <trkpt lat="46.53956" lon="0.33216">
        <ele>105.8</ele>
        <time>2021-04-25T16:00:25Z</time>
      </trkpt>
      <trkpt lat="46.53964" lon="0.3324">
        <ele>106</ele>
        <time>2021-04-25T16:00:29Z</time>
      </trkpt>
      <trkpt lat="46.53967" lon="0.33256">
        <ele>106</ele>
        <time>2021-04-25T16:00:31Z</time>
      </trkpt>
      <trkpt lat="46.53967" lon="0.33264">
        <ele>106</ele>
        <time>2021-04-25T16:00:32Z</time>
      </trkpt>
      <trkpt lat="46.53969" lon="0.33279">
        <ele>106</ele>
        <time>2021-04-25T16:00:34Z</time>
      </trkpt>
      <trkpt lat="46.53972" lon="0.33294">
        <ele>106</ele>
        <time>2021-04-25T16:00:36Z</time>
      </trkpt>
      <trkpt lat="46.53973" lon="0.33302">
        <ele>106</ele>
        <time>2021-04-25T16:00:37Z</time>
      </trkpt>
      <trkpt lat="46.53976" lon="0.33325">
        <ele>106.2</ele>
        <time>2021-04-25T16:00:40Z</time>
      </trkpt>
      <trkpt lat="46.53979" lon="0.33356">
        <ele>105.8</ele>
        <time>2021-04-25T16:00:44Z</time>
      </trkpt>
      <trkpt lat="46.53984" lon="0.33371">
        <ele>106</ele>
        <time>2021-04-25T16:00:46Z</time>
      </trkpt>
      <trkpt lat="46.53992" lon="0.33394">
        <ele>105.6</ele>
        <time>2021-04-25T16:00:49Z</time>
      </trkpt>
      <trkpt lat="46.54" lon="0.33418">
        <ele>106</ele>
        <time>2021-04-25T16:00:52Z</time>
      </trkpt>
      <trkpt lat="46.54003" lon="0.33434">
        <ele>106</ele>
        <time>2021-04-25T16:00:54Z</time>
      </trkpt>
      <trkpt lat="46.54009" lon="0.33447">
        <ele>106</ele>
        <time>2021-04-25T16:00:56Z</time>
      </trkpt>
      <trkpt lat="46.54027" lon="0.33477">
        <ele>105</ele>
        <time>2021-04-25T16:01:02Z</time>
      </trkpt>
      <trkpt lat="46.5403" lon="0.3348">
        <ele>105</ele>
        <time>2021-04-25T16:01:03Z</time>
      </trkpt>
      <trkpt lat="46.54039" lon="0.33485">
        <ele>104.8</ele>
        <time>2021-04-25T16:01:06Z</time>
      </trkpt>
      <trkpt lat="46.54042" lon="0.33487">
        <ele>104.6</ele>
        <time>2021-04-25T16:01:07Z</time>
      </trkpt>
      <trkpt lat="46.54044" lon="0.33489">
        <ele>104.8</ele>
        <time>2021-04-25T16:01:08Z</time>
      </trkpt>
      <trkpt lat="46.54049" lon="0.33495">
        <ele>105</ele>
        <time>2021-04-25T16:01:10Z</time>
      </trkpt>
      <trkpt lat="46.54052" lon="0.33501">
        <ele>105</ele>
        <time>2021-04-25T16:01:11Z</time>
      </trkpt>
      <trkpt lat="46.5406" lon="0.33519">
        <ele>105.8</ele>
        <time>2021-04-25T16:01:14Z</time>
      </trkpt>
      <trkpt lat="46.54071" lon="0.33544">
        <ele>106.2</ele>
        <time>2021-04-25T16:01:18Z</time>
      </trkpt>
      <trkpt lat="46.54084" lon="0.33582">
        <ele>106</ele>
        <time>2021-04-25T16:01:24Z</time>
      </trkpt>
      <trkpt lat="46.54091" lon="0.33595">
        <ele>106</ele>
        <time>2021-04-25T16:01:26Z</time>
      </trkpt>
      <trkpt lat="46.54096" lon="0.33607">
        <ele>106</ele>
        <time>2021-04-25T16:01:28Z</time>
      </trkpt>
      <trkpt lat="46.54105" lon="0.33636">
        <ele>106.4</ele>
        <time>2021-04-25T16:01:33Z</time>
      </trkpt>
      <trkpt lat="46.54106" lon="0.33641">
        <ele>106.4</ele>
        <time>2021-04-25T16:01:34Z</time>
      </trkpt>
      <trkpt lat="46.54112" lon="0.33657">
        <ele>106.4</ele>
        <time>2021-04-25T16:01:37Z</time>
      </trkpt>
      <trkpt lat="46.54114" lon="0.33664">
        <ele>106.4</ele>
        <time>2021-04-25T16:01:38Z</time>
      </trkpt>
      <trkpt lat="46.5412" lon="0.33705">
        <ele>106.2</ele>
        <time>2021-04-25T16:01:44Z</time>
      </trkpt>
      <trkpt lat="46.54121" lon="0.33719">
        <ele>106.4</ele>
        <time>2021-04-25T16:01:46Z</time>
      </trkpt>
      <trkpt lat="46.54122" lon="0.33745">
        <ele>106.4</ele>
        <time>2021-04-25T16:01:50Z</time>
      </trkpt>
      <trkpt lat="46.54124" lon="0.33782">
        <ele>106.2</ele>
        <time>2021-04-25T16:01:55Z</time>
      </trkpt>
      <trkpt lat="46.54128" lon="0.33809">
        <ele>106</ele>
        <time>2021-04-25T16:01:59Z</time>
      </trkpt>
      <trkpt lat="46.54127" lon="0.33816">
        <ele>106</ele>
        <time>2021-04-25T16:02:00Z</time>
      </trkpt>
      <trkpt lat="46.54128" lon="0.33828">
        <ele>106</ele>
        <time>2021-04-25T16:02:02Z</time>
      </trkpt>
      <trkpt lat="46.54131" lon="0.33848">
        <ele>106</ele>
        <time>2021-04-25T16:02:05Z</time>
      </trkpt>
      <trkpt lat="46.54129" lon="0.33865">
        <ele>106</ele>
        <time>2021-04-25T16:02:07Z</time>
      </trkpt>
      <trkpt lat="46.54129" lon="0.3388">
        <ele>105.8</ele>
        <time>2021-04-25T16:02:09Z</time>
      </trkpt>
      <trkpt lat="46.5413" lon="0.33886">
        <ele>105.8</ele>
        <time>2021-04-25T16:02:10Z</time>
      </trkpt>
      <trkpt lat="46.54129" lon="0.339">
        <ele>105.6</ele>
        <time>2021-04-25T16:02:12Z</time>
      </trkpt>
      <trkpt lat="46.54131" lon="0.33912">
        <ele>105.4</ele>
        <time>2021-04-25T16:02:14Z</time>
      </trkpt>
      <trkpt lat="46.5413" lon="0.33918">
        <ele>105.8</ele>
        <time>2021-04-25T16:02:15Z</time>
      </trkpt>
      <trkpt lat="46.54129" lon="0.33925">
        <ele>105.6</ele>
        <time>2021-04-25T16:02:16Z</time>
      </trkpt>
      <trkpt lat="46.54127" lon="0.33941">
        <ele>105.8</ele>
        <time>2021-04-25T16:02:18Z</time>
      </trkpt>
      <trkpt lat="46.54126" lon="0.33949">
        <ele>105.8</ele>
        <time>2021-04-25T16:02:19Z</time>
      </trkpt>
      <trkpt lat="46.54122" lon="0.33981">
        <ele>105.2</ele>
        <time>2021-04-25T16:02:24Z</time>
      </trkpt>
      <trkpt lat="46.54118" lon="0.34013">
        <ele>106</ele>
        <time>2021-04-25T16:02:29Z</time>
      </trkpt>
      <trkpt lat="46.54115" lon="0.34053">
        <ele>106.8</ele>
        <time>2021-04-25T16:02:35Z</time>
      </trkpt>
      <trkpt lat="46.54113" lon="0.3406">
        <ele>106.8</ele>
        <time>2021-04-25T16:02:36Z</time>
      </trkpt>
      <trkpt lat="46.5411" lon="0.34073">
        <ele>106.8</ele>
        <time>2021-04-25T16:02:38Z</time>
      </trkpt>
      <trkpt lat="46.54106" lon="0.34086">
        <ele>106.4</ele>
        <time>2021-04-25T16:02:40Z</time>
      </trkpt>
      <trkpt lat="46.54104" lon="0.34091">
        <ele>106.2</ele>
        <time>2021-04-25T16:02:41Z</time>
      </trkpt>
      <trkpt lat="46.54102" lon="0.34095">
        <ele>106.2</ele>
        <time>2021-04-25T16:02:42Z</time>
      </trkpt>
      <trkpt lat="46.54099" lon="0.34106">
        <ele>106</ele>
        <time>2021-04-25T16:02:44Z</time>
      </trkpt>
      <trkpt lat="46.54097" lon="0.34111">
        <ele>106</ele>
        <time>2021-04-25T16:02:45Z</time>
      </trkpt>
      <trkpt lat="46.54091" lon="0.34124">
        <ele>106</ele>
        <time>2021-04-25T16:02:48Z</time>
      </trkpt>
      <trkpt lat="46.54085" lon="0.34132">
        <ele>105.8</ele>
        <time>2021-04-25T16:02:50Z</time>
      </trkpt>
      <trkpt lat="46.5407" lon="0.34159">
        <ele>106</ele>
        <time>2021-04-25T16:02:56Z</time>
      </trkpt>
      <trkpt lat="46.54063" lon="0.34166">
        <ele>106.2</ele>
        <time>2021-04-25T16:02:59Z</time>
      </trkpt>
      <trkpt lat="46.54058" lon="0.34178">
        <ele>106.4</ele>
        <time>2021-04-25T16:03:02Z</time>
      </trkpt>
      <trkpt lat="46.54047" lon="0.34193">
        <ele>106.8</ele>
        <time>2021-04-25T16:03:07Z</time>
      </trkpt>
      <trkpt lat="46.54036" lon="0.34215">
        <ele>106.2</ele>
        <time>2021-04-25T16:03:13Z</time>
      </trkpt>
      <trkpt lat="46.54026" lon="0.34235">
        <ele>105.8</ele>
        <time>2021-04-25T16:03:19Z</time>
      </trkpt>
      <trkpt lat="46.54018" lon="0.34254">
        <ele>105.2</ele>
        <time>2021-04-25T16:03:24Z</time>
      </trkpt>
      <trkpt lat="46.54008" lon="0.34272">
        <ele>106</ele>
        <time>2021-04-25T16:03:29Z</time>
      </trkpt>
      <trkpt lat="46.53995" lon="0.34307">
        <ele>106.4</ele>
        <time>2021-04-25T16:03:36Z</time>
      </trkpt>
      <trkpt lat="46.5398" lon="0.34324">
        <ele>106.8</ele>
        <time>2021-04-25T16:03:42Z</time>
      </trkpt>
      <trkpt lat="46.53978" lon="0.34327">
        <ele>107</ele>
        <time>2021-04-25T16:03:43Z</time>
      </trkpt>
      <trkpt lat="46.53969" lon="0.34338">
        <ele>108.2</ele>
        <time>2021-04-25T16:03:48Z</time>
      </trkpt>
      <trkpt lat="46.53956" lon="0.34351">
        <ele>108.6</ele>
        <time>2021-04-25T16:03:55Z</time>
      </trkpt>
      <trkpt lat="46.53949" lon="0.34358">
        <ele>109.2</ele>
        <time>2021-04-25T16:03:59Z</time>
      </trkpt>
      <trkpt lat="46.53941" lon="0.34367">
        <ele>109.6</ele>
        <time>2021-04-25T16:04:03Z</time>
      </trkpt>
      <trkpt lat="46.53937" lon="0.34372">
        <ele>110.2</ele>
        <time>2021-04-25T16:04:05Z</time>
      </trkpt>
      <trkpt lat="46.53928" lon="0.34385">
        <ele>110.8</ele>
        <time>2021-04-25T16:04:10Z</time>
      </trkpt>
      <trkpt lat="46.53923" lon="0.34392">
        <ele>111.2</ele>
        <time>2021-04-25T16:04:13Z</time>
      </trkpt>
      <trkpt lat="46.53917" lon="0.34407">
        <ele>112.4</ele>
        <time>2021-04-25T16:04:18Z</time>
      </trkpt>
      <trkpt lat="46.53915" lon="0.3442">
        <ele>113.6</ele>
        <time>2021-04-25T16:04:22Z</time>
      </trkpt>
      <trkpt lat="46.53915" lon="0.34428">
        <ele>114.6</ele>
        <time>2021-04-25T16:04:25Z</time>
      </trkpt>
      <trkpt lat="46.53915" lon="0.3443">
        <ele>114.8</ele>
        <time>2021-04-25T16:04:26Z</time>
      </trkpt>
      <trkpt lat="46.53917" lon="0.34441">
        <ele>116</ele>
        <time>2021-04-25T16:04:30Z</time>
      </trkpt>
      <trkpt lat="46.53918" lon="0.34443">
        <ele>116.2</ele>
        <time>2021-04-25T16:04:31Z</time>
      </trkpt>
      <trkpt lat="46.53919" lon="0.34454">
        <ele>117.2</ele>
        <time>2021-04-25T16:04:35Z</time>
      </trkpt>
      <trkpt lat="46.5392" lon="0.34459">
        <ele>117.2</ele>
        <time>2021-04-25T16:04:37Z</time>
      </trkpt>
      <trkpt lat="46.53922" lon="0.34467">
        <ele>117.6</ele>
        <time>2021-04-25T16:04:41Z</time>
      </trkpt>
      <trkpt lat="46.53924" lon="0.34469">
        <ele>117.6</ele>
        <time>2021-04-25T16:04:43Z</time>
      </trkpt>
      <trkpt lat="46.53927" lon="0.34467">
        <ele>118.2</ele>
        <time>2021-04-25T16:04:47Z</time>
      </trkpt>
      <trkpt lat="46.53927" lon="0.34465">
        <ele>118.4</ele>
        <time>2021-04-25T16:04:48Z</time>
      </trkpt>
      <trkpt lat="46.53928" lon="0.34455">
        <ele>119.4</ele>
        <time>2021-04-25T16:04:53Z</time>
      </trkpt>
      <trkpt lat="46.5393" lon="0.34446">
        <ele>120</ele>
        <time>2021-04-25T16:04:57Z</time>
      </trkpt>
      <trkpt lat="46.53932" lon="0.34442">
        <ele>120.4</ele>
        <time>2021-04-25T16:04:59Z</time>
      </trkpt>
      <trkpt lat="46.53937" lon="0.34434">
        <ele>121</ele>
        <time>2021-04-25T16:05:04Z</time>
      </trkpt>
      <trkpt lat="46.53941" lon="0.34429">
        <ele>121.6</ele>
        <time>2021-04-25T16:05:07Z</time>
      </trkpt>
      <trkpt lat="46.53947" lon="0.34424">
        <ele>122.6</ele>
        <time>2021-04-25T16:05:11Z</time>
      </trkpt>
      <trkpt lat="46.53948" lon="0.34423">
        <ele>122.8</ele>
        <time>2021-04-25T16:05:12Z</time>
      </trkpt>
      <trkpt lat="46.53956" lon="0.34417">
        <ele>123.8</ele>
        <time>2021-04-25T16:05:17Z</time>
      </trkpt>
      <trkpt lat="46.53958" lon="0.34416">
        <ele>124.2</ele>
        <time>2021-04-25T16:05:18Z</time>
      </trkpt>
      <trkpt lat="46.53966" lon="0.34412">
        <ele>125</ele>
        <time>2021-04-25T16:05:23Z</time>
      </trkpt>
      <trkpt lat="46.5397" lon="0.3441">
        <ele>125.4</ele>
        <time>2021-04-25T16:05:25Z</time>
      </trkpt>
      <trkpt lat="46.53979" lon="0.34405">
        <ele>126.2</ele>
        <time>2021-04-25T16:05:30Z</time>
      </trkpt>
      <trkpt lat="46.53982" lon="0.34403">
        <ele>126.4</ele>
        <time>2021-04-25T16:05:32Z</time>
      </trkpt>
      <trkpt lat="46.5399" lon="0.344">
        <ele>127.4</ele>
        <time>2021-04-25T16:05:37Z</time>
      </trkpt>
      <trkpt lat="46.53996" lon="0.34397">
        <ele>128</ele>
        <time>2021-04-25T16:05:40Z</time>
      </trkpt>
      <trkpt lat="46.53997" lon="0.34397">
        <ele>128.4</ele>
        <time>2021-04-25T16:05:41Z</time>
      </trkpt>
      <trkpt lat="46.54004" lon="0.34392">
        <ele>129.6</ele>
        <time>2021-04-25T16:05:46Z</time>
      </trkpt>
      <trkpt lat="46.54005" lon="0.34389">
        <ele>129.6</ele>
        <time>2021-04-25T16:05:47Z</time>
      </trkpt>
      <trkpt lat="46.54012" lon="0.34371">
        <ele>128.6</ele>
        <time>2021-04-25T16:05:51Z</time>
      </trkpt>
      <trkpt lat="46.54012" lon="0.34368">
        <ele>127.4</ele>
        <time>2021-04-25T16:05:52Z</time>
      </trkpt>
      <trkpt lat="46.54012" lon="0.34364">
        <ele>125.8</ele>
        <time>2021-04-25T16:05:53Z</time>
      </trkpt>
      <trkpt lat="46.54012" lon="0.34361">
        <ele>124.8</ele>
        <time>2021-04-25T16:05:54Z</time>
      </trkpt>
      <trkpt lat="46.54011" lon="0.34358">
        <ele>123.4</ele>
        <time>2021-04-25T16:05:55Z</time>
      </trkpt>
      <trkpt lat="46.5401" lon="0.34356">
        <ele>122</ele>
        <time>2021-04-25T16:05:56Z</time>
      </trkpt>
      <trkpt lat="46.54009" lon="0.34355">
        <ele>120</ele>
        <time>2021-04-25T16:05:57Z</time>
      </trkpt>
      <trkpt lat="46.54008" lon="0.34353">
        <ele>118.6</ele>
        <time>2021-04-25T16:05:58Z</time>
      </trkpt>
      <trkpt lat="46.54007" lon="0.34347">
        <ele>116</ele>
        <time>2021-04-25T16:06:00Z</time>
      </trkpt>
      <trkpt lat="46.54004" lon="0.34344">
        <ele>114</ele>
        <time>2021-04-25T16:06:01Z</time>
      </trkpt>
      <trkpt lat="46.54001" lon="0.34343">
        <ele>112.2</ele>
        <time>2021-04-25T16:06:02Z</time>
      </trkpt>
      <trkpt lat="46.54" lon="0.34341">
        <ele>111.2</ele>
        <time>2021-04-25T16:06:03Z</time>
      </trkpt>
      <trkpt lat="46.53998" lon="0.34338">
        <ele>110.2</ele>
        <time>2021-04-25T16:06:04Z</time>
      </trkpt>
      <trkpt lat="46.53997" lon="0.34334">
        <ele>109.4</ele>
        <time>2021-04-25T16:06:05Z</time>
      </trkpt>
      <trkpt lat="46.53994" lon="0.34332">
        <ele>108.8</ele>
        <time>2021-04-25T16:06:06Z</time>
      </trkpt>
      <trkpt lat="46.53993" lon="0.34332">
        <ele>108.2</ele>
        <time>2021-04-25T16:06:07Z</time>
      </trkpt>
      <trkpt lat="46.53991" lon="0.34333">
        <ele>107.8</ele>
        <time>2021-04-25T16:06:08Z</time>
      </trkpt>
      <trkpt lat="46.53985" lon="0.34339">
        <ele>107.2</ele>
        <time>2021-04-25T16:06:12Z</time>
      </trkpt>
      <trkpt lat="46.53971" lon="0.3435">
        <ele>107.6</ele>
        <time>2021-04-25T16:06:19Z</time>
      </trkpt>
      <trkpt lat="46.53959" lon="0.34357">
        <ele>108.4</ele>
        <time>2021-04-25T16:06:26Z</time>
      </trkpt>
      <trkpt lat="46.53953" lon="0.3436">
        <ele>108.8</ele>
        <time>2021-04-25T16:06:29Z</time>
      </trkpt>
      <trkpt lat="46.53948" lon="0.34364">
        <ele>109.2</ele>
        <time>2021-04-25T16:06:32Z</time>
      </trkpt>
      <trkpt lat="46.53939" lon="0.34375">
        <ele>109.8</ele>
        <time>2021-04-25T16:06:37Z</time>
      </trkpt>
      <trkpt lat="46.53937" lon="0.34378">
        <ele>110</ele>
        <time>2021-04-25T16:06:38Z</time>
      </trkpt>
      <trkpt lat="46.53924" lon="0.34393">
        <ele>110.8</ele>
        <time>2021-04-25T16:06:45Z</time>
      </trkpt>
      <trkpt lat="46.53923" lon="0.34396">
        <ele>111</ele>
        <time>2021-04-25T16:06:46Z</time>
      </trkpt>
      <trkpt lat="46.53919" lon="0.34404">
        <ele>112</ele>
        <time>2021-04-25T16:06:49Z</time>
      </trkpt>
      <trkpt lat="46.53915" lon="0.34415">
        <ele>113</ele>
        <time>2021-04-25T16:06:53Z</time>
      </trkpt>
      <trkpt lat="46.53915" lon="0.34432">
        <ele>114.2</ele>
        <time>2021-04-25T16:06:59Z</time>
      </trkpt>
      <trkpt lat="46.53916" lon="0.34437">
        <ele>114.4</ele>
        <time>2021-04-25T16:07:01Z</time>
      </trkpt>
      <trkpt lat="46.53916" lon="0.34437">
        <ele>115.4</ele>
        <time>2021-04-25T16:07:03Z</time>
      </trkpt>
      <trkpt lat="46.53922" lon="0.3446">
        <ele>116.8</ele>
        <time>2021-04-25T16:07:10Z</time>
      </trkpt>
      <trkpt lat="46.53923" lon="0.34463">
        <ele>117.2</ele>
        <time>2021-04-25T16:07:12Z</time>
      </trkpt>
      <trkpt lat="46.53924" lon="0.34465">
        <ele>117.6</ele>
        <time>2021-04-25T16:07:13Z</time>
      </trkpt>
      <trkpt lat="46.53925" lon="0.34467">
        <ele>117.8</ele>
        <time>2021-04-25T16:07:14Z</time>
      </trkpt>
      <trkpt lat="46.53927" lon="0.34468">
        <ele>118.2</ele>
        <time>2021-04-25T16:07:16Z</time>
      </trkpt>
      <trkpt lat="46.53928" lon="0.34468">
        <ele>118.2</ele>
        <time>2021-04-25T16:07:17Z</time>
      </trkpt>
      <trkpt lat="46.5393" lon="0.34458">
        <ele>119</ele>
        <time>2021-04-25T16:07:22Z</time>
      </trkpt>
      <trkpt lat="46.53932" lon="0.34448">
        <ele>120.2</ele>
        <time>2021-04-25T16:07:27Z</time>
      </trkpt>
      <trkpt lat="46.53934" lon="0.34441">
        <ele>120.6</ele>
        <time>2021-04-25T16:07:30Z</time>
      </trkpt>
      <trkpt lat="46.53938" lon="0.34434">
        <ele>121.4</ele>
        <time>2021-04-25T16:07:34Z</time>
      </trkpt>
      <trkpt lat="46.5394" lon="0.34431">
        <ele>121.8</ele>
        <time>2021-04-25T16:07:36Z</time>
      </trkpt>
      <trkpt lat="46.53945" lon="0.34427">
        <ele>122.4</ele>
        <time>2021-04-25T16:07:40Z</time>
      </trkpt>
      <trkpt lat="46.53948" lon="0.34424">
        <ele>122.6</ele>
        <time>2021-04-25T16:07:42Z</time>
      </trkpt>
      <trkpt lat="46.53955" lon="0.34419">
        <ele>123.4</ele>
        <time>2021-04-25T16:07:47Z</time>
      </trkpt>
      <trkpt lat="46.53956" lon="0.34418">
        <ele>124</ele>
        <time>2021-04-25T16:07:48Z</time>
      </trkpt>
      <trkpt lat="46.53957" lon="0.34417">
        <ele>124.2</ele>
        <time>2021-04-25T16:07:49Z</time>
      </trkpt>
      <trkpt lat="46.53958" lon="0.34416">
        <ele>124.4</ele>
        <time>2021-04-25T16:07:50Z</time>
      </trkpt>
      <trkpt lat="46.53962" lon="0.34413">
        <ele>125</ele>
        <time>2021-04-25T16:07:53Z</time>
      </trkpt>
      <trkpt lat="46.53969" lon="0.34408">
        <ele>126.2</ele>
        <time>2021-04-25T16:07:58Z</time>
      </trkpt>
      <trkpt lat="46.53976" lon="0.34404">
        <ele>127.2</ele>
        <time>2021-04-25T16:08:02Z</time>
      </trkpt>
      <trkpt lat="46.53982" lon="0.34401">
        <ele>127.8</ele>
        <time>2021-04-25T16:08:05Z</time>
      </trkpt>
      <trkpt lat="46.5399" lon="0.34397">
        <ele>128.2</ele>
        <time>2021-04-25T16:08:10Z</time>
      </trkpt>
      <trkpt lat="46.53996" lon="0.34394">
        <ele>128.8</ele>
        <time>2021-04-25T16:08:13Z</time>
      </trkpt>
      <trkpt lat="46.53999" lon="0.34393">
        <ele>129.2</ele>
        <time>2021-04-25T16:08:15Z</time>
      </trkpt>
      <trkpt lat="46.54007" lon="0.34393">
        <ele>130.2</ele>
        <time>2021-04-25T16:08:19Z</time>
      </trkpt>
      <trkpt lat="46.54012" lon="0.34394">
        <ele>130.8</ele>
        <time>2021-04-25T16:08:21Z</time>
      </trkpt>
      <trkpt lat="46.54026" lon="0.34396">
        <ele>131</ele>
        <time>2021-04-25T16:08:28Z</time>
      </trkpt>
      <trkpt lat="46.54036" lon="0.3439">
        <ele>131</ele>
        <time>2021-04-25T16:08:33Z</time>
      </trkpt>
      <trkpt lat="46.54041" lon="0.34382">
        <ele>131.4</ele>
        <time>2021-04-25T16:08:37Z</time>
      </trkpt>
      <trkpt lat="46.54043" lon="0.34378">
        <ele>131</ele>
        <time>2021-04-25T16:08:39Z</time>
      </trkpt>
      <trkpt lat="46.54046" lon="0.34371">
        <ele>130.4</ele>
        <time>2021-04-25T16:08:41Z</time>
      </trkpt>
      <trkpt lat="46.54049" lon="0.34365">
        <ele>130.2</ele>
        <time>2021-04-25T16:08:43Z</time>
      </trkpt>
      <trkpt lat="46.54058" lon="0.34352">
        <ele>131.6</ele>
        <time>2021-04-25T16:08:48Z</time>
      </trkpt>
      <trkpt lat="46.5406" lon="0.34342">
        <ele>132.6</ele>
        <time>2021-04-25T16:08:51Z</time>
      </trkpt>
      <trkpt lat="46.54061" lon="0.34339">
        <ele>133.6</ele>
        <time>2021-04-25T16:08:53Z</time>
      </trkpt>
      <trkpt lat="46.54062" lon="0.34337">
        <ele>134.2</ele>
        <time>2021-04-25T16:08:54Z</time>
      </trkpt>
      <trkpt lat="46.54065" lon="0.34334">
        <ele>134.8</ele>
        <time>2021-04-25T16:08:56Z</time>
      </trkpt>
      <trkpt lat="46.54066" lon="0.34332">
        <ele>135.6</ele>
        <time>2021-04-25T16:08:57Z</time>
      </trkpt>
      <trkpt lat="46.54069" lon="0.34325">
        <ele>136.8</ele>
        <time>2021-04-25T16:09:00Z</time>
      </trkpt>
      <trkpt lat="46.54071" lon="0.34321">
        <ele>137.2</ele>
        <time>2021-04-25T16:09:02Z</time>
      </trkpt>
      <trkpt lat="46.54075" lon="0.34313">
        <ele>138</ele>
        <time>2021-04-25T16:09:06Z</time>
      </trkpt>
      <trkpt lat="46.54079" lon="0.34308">
        <ele>139</ele>
        <time>2021-04-25T16:09:09Z</time>
      </trkpt>
      <trkpt lat="46.54084" lon="0.34301">
        <ele>140.4</ele>
        <time>2021-04-25T16:09:13Z</time>
      </trkpt>
      <trkpt lat="46.54092" lon="0.34283">
        <ele>141.6</ele>
        <time>2021-04-25T16:09:23Z</time>
      </trkpt>
      <trkpt lat="46.54098" lon="0.34276">
        <ele>142.6</ele>
        <time>2021-04-25T16:09:28Z</time>
      </trkpt>
      <trkpt lat="46.54104" lon="0.34267">
        <ele>143.2</ele>
        <time>2021-04-25T16:09:33Z</time>
      </trkpt>
      <trkpt lat="46.5411" lon="0.3426">
        <ele>143.8</ele>
        <time>2021-04-25T16:09:37Z</time>
      </trkpt>
      <trkpt lat="46.54114" lon="0.34252">
        <ele>144.6</ele>
        <time>2021-04-25T16:09:41Z</time>
      </trkpt>
      <trkpt lat="46.54116" lon="0.34249">
        <ele>144.8</ele>
        <time>2021-04-25T16:09:42Z</time>
      </trkpt>
      <trkpt lat="46.54122" lon="0.34229">
        <ele>144.4</ele>
        <time>2021-04-25T16:09:49Z</time>
      </trkpt>
      <trkpt lat="46.54125" lon="0.34217">
        <ele>143.8</ele>
        <time>2021-04-25T16:09:51Z</time>
      </trkpt>
      <trkpt lat="46.5413" lon="0.34201">
        <ele>143.2</ele>
        <time>2021-04-25T16:09:54Z</time>
      </trkpt>
      <trkpt lat="46.54133" lon="0.34183">
        <ele>143.4</ele>
        <time>2021-04-25T16:09:59Z</time>
      </trkpt>
      <trkpt lat="46.54139" lon="0.34167">
        <ele>144</ele>
        <time>2021-04-25T16:10:05Z</time>
      </trkpt>
      <trkpt lat="46.54141" lon="0.34157">
        <ele>145</ele>
        <time>2021-04-25T16:10:08Z</time>
      </trkpt>
      <trkpt lat="46.54146" lon="0.34147">
        <ele>145.8</ele>
        <time>2021-04-25T16:10:12Z</time>
      </trkpt>
      <trkpt lat="46.54148" lon="0.34143">
        <ele>146</ele>
        <time>2021-04-25T16:10:13Z</time>
      </trkpt>
      <trkpt lat="46.54154" lon="0.34127">
        <ele>146.4</ele>
        <time>2021-04-25T16:10:18Z</time>
      </trkpt>
      <trkpt lat="46.54162" lon="0.34108">
        <ele>145.8</ele>
        <time>2021-04-25T16:10:23Z</time>
      </trkpt>
      <trkpt lat="46.54165" lon="0.341">
        <ele>145.8</ele>
        <time>2021-04-25T16:10:25Z</time>
      </trkpt>
      <trkpt lat="46.54167" lon="0.34089">
        <ele>145.6</ele>
        <time>2021-04-25T16:10:27Z</time>
      </trkpt>
      <trkpt lat="46.54171" lon="0.3408">
        <ele>145.2</ele>
        <time>2021-04-25T16:10:29Z</time>
      </trkpt>
      <trkpt lat="46.54175" lon="0.34071">
        <ele>145</ele>
        <time>2021-04-25T16:10:31Z</time>
      </trkpt>
      <trkpt lat="46.54176" lon="0.34067">
        <ele>145</ele>
        <time>2021-04-25T16:10:32Z</time>
      </trkpt>
      <trkpt lat="46.54182" lon="0.3406">
        <ele>145</ele>
        <time>2021-04-25T16:10:35Z</time>
      </trkpt>
      <trkpt lat="46.54188" lon="0.34067">
        <ele>145.4</ele>
        <time>2021-04-25T16:10:40Z</time>
      </trkpt>
      <trkpt lat="46.54194" lon="0.34082">
        <ele>146</ele>
        <time>2021-04-25T16:10:45Z</time>
      </trkpt>
      <trkpt lat="46.54195" lon="0.34086">
        <ele>146.6</ele>
        <time>2021-04-25T16:10:46Z</time>
      </trkpt>
      <trkpt lat="46.54196" lon="0.34093">
        <ele>147</ele>
        <time>2021-04-25T16:10:48Z</time>
      </trkpt>
      <trkpt lat="46.542" lon="0.34113">
        <ele>147.8</ele>
        <time>2021-04-25T16:10:53Z</time>
      </trkpt>
      <trkpt lat="46.542" lon="0.34113">
        <ele>148.2</ele>
        <time>2021-04-25T16:10:55Z</time>
      </trkpt>
      <trkpt lat="46.54205" lon="0.34149">
        <ele>148.4</ele>
        <time>2021-04-25T16:11:00Z</time>
      </trkpt>
      <trkpt lat="46.54209" lon="0.34181">
        <ele>148.8</ele>
        <time>2021-04-25T16:11:06Z</time>
      </trkpt>
      <trkpt lat="46.54211" lon="0.34198">
        <ele>149</ele>
        <time>2021-04-25T16:11:09Z</time>
      </trkpt>
      <trkpt lat="46.54211" lon="0.34204">
        <ele>149.2</ele>
        <time>2021-04-25T16:11:10Z</time>
      </trkpt>
      <trkpt lat="46.54212" lon="0.3422">
        <ele>149.4</ele>
        <time>2021-04-25T16:11:13Z</time>
      </trkpt>
      <trkpt lat="46.54214" lon="0.34235">
        <ele>149.4</ele>
        <time>2021-04-25T16:11:16Z</time>
      </trkpt>
      <trkpt lat="46.54218" lon="0.34246">
        <ele>149.2</ele>
        <time>2021-04-25T16:11:18Z</time>
      </trkpt>
      <trkpt lat="46.54223" lon="0.34254">
        <ele>149</ele>
        <time>2021-04-25T16:11:20Z</time>
      </trkpt>
      <trkpt lat="46.54227" lon="0.34257">
        <ele>148.6</ele>
        <time>2021-04-25T16:11:22Z</time>
      </trkpt>
      <trkpt lat="46.54233" lon="0.34259">
        <ele>148.6</ele>
        <time>2021-04-25T16:11:24Z</time>
      </trkpt>
      <trkpt lat="46.54244" lon="0.34264">
        <ele>149</ele>
        <time>2021-04-25T16:11:28Z</time>
      </trkpt>
      <trkpt lat="46.54246" lon="0.34266">
        <ele>148.8</ele>
        <time>2021-04-25T16:11:29Z</time>
      </trkpt>
      <trkpt lat="46.54263" lon="0.34275">
        <ele>149</ele>
        <time>2021-04-25T16:11:35Z</time>
      </trkpt>
      <trkpt lat="46.54266" lon="0.34278">
        <ele>148.8</ele>
        <time>2021-04-25T16:11:36Z</time>
      </trkpt>
      <trkpt lat="46.54283" lon="0.34283">
        <ele>148.4</ele>
        <time>2021-04-25T16:11:41Z</time>
      </trkpt>
      <trkpt lat="46.54289" lon="0.34285">
        <ele>148.2</ele>
        <time>2021-04-25T16:11:43Z</time>
      </trkpt>
      <trkpt lat="46.54293" lon="0.34287">
        <ele>148.2</ele>
        <time>2021-04-25T16:11:44Z</time>
      </trkpt>
      <trkpt lat="46.54296" lon="0.34291">
        <ele>148</ele>
        <time>2021-04-25T16:11:45Z</time>
      </trkpt>
      <trkpt lat="46.543" lon="0.34296">
        <ele>148</ele>
        <time>2021-04-25T16:11:46Z</time>
      </trkpt>
      <trkpt lat="46.54321" lon="0.34328">
        <ele>147.6</ele>
        <time>2021-04-25T16:11:52Z</time>
      </trkpt>
      <trkpt lat="46.54354" lon="0.34381">
        <ele>148</ele>
        <time>2021-04-25T16:12:00Z</time>
      </trkpt>
      <trkpt lat="46.54387" lon="0.3444">
        <ele>148</ele>
        <time>2021-04-25T16:12:09Z</time>
      </trkpt>
      <trkpt lat="46.54405" lon="0.34488">
        <ele>148.4</ele>
        <time>2021-04-25T16:12:16Z</time>
      </trkpt>
      <trkpt lat="46.54406" lon="0.34501">
        <ele>148.2</ele>
        <time>2021-04-25T16:12:18Z</time>
      </trkpt>
      <trkpt lat="46.54403" lon="0.34512">
        <ele>148.4</ele>
        <time>2021-04-25T16:12:20Z</time>
      </trkpt>
      <trkpt lat="46.54394" lon="0.34526">
        <ele>148.4</ele>
        <time>2021-04-25T16:12:23Z</time>
      </trkpt>
      <trkpt lat="46.54391" lon="0.3453">
        <ele>148.6</ele>
        <time>2021-04-25T16:12:24Z</time>
      </trkpt>
      <trkpt lat="46.54388" lon="0.34534">
        <ele>148.8</ele>
        <time>2021-04-25T16:12:25Z</time>
      </trkpt>
      <trkpt lat="46.54385" lon="0.34545">
        <ele>148.8</ele>
        <time>2021-04-25T16:12:27Z</time>
      </trkpt>
      <trkpt lat="46.54384" lon="0.34551">
        <ele>148.8</ele>
        <time>2021-04-25T16:12:28Z</time>
      </trkpt>
      <trkpt lat="46.54385" lon="0.34561">
        <ele>149.2</ele>
        <time>2021-04-25T16:12:30Z</time>
      </trkpt>
      <trkpt lat="46.54382" lon="0.34573">
        <ele>149.4</ele>
        <time>2021-04-25T16:12:33Z</time>
      </trkpt>
      <trkpt lat="46.54371" lon="0.34582">
        <ele>150</ele>
        <time>2021-04-25T16:12:37Z</time>
      </trkpt>
      <trkpt lat="46.54363" lon="0.34585">
        <ele>150</ele>
        <time>2021-04-25T16:12:40Z</time>
      </trkpt>
      <trkpt lat="46.54358" lon="0.3459">
        <ele>149.6</ele>
        <time>2021-04-25T16:12:42Z</time>
      </trkpt>
      <trkpt lat="46.54354" lon="0.34597">
        <ele>149.2</ele>
        <time>2021-04-25T16:12:44Z</time>
      </trkpt>
      <trkpt lat="46.5435" lon="0.34604">
        <ele>149</ele>
        <time>2021-04-25T16:12:46Z</time>
      </trkpt>
      <trkpt lat="46.54343" lon="0.34609">
        <ele>149</ele>
        <time>2021-04-25T16:12:47Z</time>
      </trkpt>
      <trkpt lat="46.54339" lon="0.34613">
        <ele>148.6</ele>
        <time>2021-04-25T16:12:49Z</time>
      </trkpt>
      <trkpt lat="46.54323" lon="0.34629">
        <ele>148.2</ele>
        <time>2021-04-25T16:12:53Z</time>
      </trkpt>
      <trkpt lat="46.54319" lon="0.34633">
        <ele>148</ele>
        <time>2021-04-25T16:12:54Z</time>
      </trkpt>
      <trkpt lat="46.54309" lon="0.34647">
        <ele>148.2</ele>
        <time>2021-04-25T16:12:57Z</time>
      </trkpt>
      <trkpt lat="46.54307" lon="0.34652">
        <ele>148.2</ele>
        <time>2021-04-25T16:12:58Z</time>
      </trkpt>
      <trkpt lat="46.54304" lon="0.34656">
        <ele>148.2</ele>
        <time>2021-04-25T16:12:59Z</time>
      </trkpt>
      <trkpt lat="46.54299" lon="0.34663">
        <ele>148</ele>
        <time>2021-04-25T16:13:01Z</time>
      </trkpt>
      <trkpt lat="46.54296" lon="0.34666">
        <ele>148</ele>
        <time>2021-04-25T16:13:02Z</time>
      </trkpt>
      <trkpt lat="46.54293" lon="0.34669">
        <ele>148</ele>
        <time>2021-04-25T16:13:03Z</time>
      </trkpt>
      <trkpt lat="46.54286" lon="0.34674">
        <ele>147.8</ele>
        <time>2021-04-25T16:13:05Z</time>
      </trkpt>
      <trkpt lat="46.54283" lon="0.34675">
        <ele>148</ele>
        <time>2021-04-25T16:13:06Z</time>
      </trkpt>
      <trkpt lat="46.54279" lon="0.34677">
        <ele>148.2</ele>
        <time>2021-04-25T16:13:07Z</time>
      </trkpt>
      <trkpt lat="46.54269" lon="0.34683">
        <ele>148.8</ele>
        <time>2021-04-25T16:13:10Z</time>
      </trkpt>
      <trkpt lat="46.54268" lon="0.34689">
        <ele>149</ele>
        <time>2021-04-25T16:13:12Z</time>
      </trkpt>
      <trkpt lat="46.54267" lon="0.34693">
        <ele>149.2</ele>
        <time>2021-04-25T16:13:13Z</time>
      </trkpt>
      <trkpt lat="46.54266" lon="0.34697">
        <ele>149</ele>
        <time>2021-04-25T16:13:14Z</time>
      </trkpt>
      <trkpt lat="46.54266" lon="0.34706">
        <ele>149</ele>
        <time>2021-04-25T16:13:16Z</time>
      </trkpt>
      <trkpt lat="46.54265" lon="0.34718">
        <ele>149</ele>
        <time>2021-04-25T16:13:18Z</time>
      </trkpt>
      <trkpt lat="46.54267" lon="0.34728">
        <ele>149.4</ele>
        <time>2021-04-25T16:13:21Z</time>
      </trkpt>
      <trkpt lat="46.54267" lon="0.34731">
        <ele>149.2</ele>
        <time>2021-04-25T16:13:22Z</time>
      </trkpt>
      <trkpt lat="46.54266" lon="0.34734">
        <ele>149.2</ele>
        <time>2021-04-25T16:13:23Z</time>
      </trkpt>
      <trkpt lat="46.54264" lon="0.34748">
        <ele>149</ele>
        <time>2021-04-25T16:13:26Z</time>
      </trkpt>
      <trkpt lat="46.54263" lon="0.34752">
        <ele>149</ele>
        <time>2021-04-25T16:13:27Z</time>
      </trkpt>
      <trkpt lat="46.54262" lon="0.34758">
        <ele>149</ele>
        <time>2021-04-25T16:13:29Z</time>
      </trkpt>
      <trkpt lat="46.54259" lon="0.34767">
        <ele>149.2</ele>
        <time>2021-04-25T16:13:32Z</time>
      </trkpt>
      <trkpt lat="46.54259" lon="0.3477">
        <ele>149.2</ele>
        <time>2021-04-25T16:13:33Z</time>
      </trkpt>
      <trkpt lat="46.54257" lon="0.34782">
        <ele>149.2</ele>
        <time>2021-04-25T16:13:36Z</time>
      </trkpt>
      <trkpt lat="46.54256" lon="0.34792">
        <ele>149</ele>
        <time>2021-04-25T16:13:38Z</time>
      </trkpt>
      <trkpt lat="46.54254" lon="0.34803">
        <ele>149</ele>
        <time>2021-04-25T16:13:40Z</time>
      </trkpt>
      <trkpt lat="46.54254" lon="0.34808">
        <ele>149.2</ele>
        <time>2021-04-25T16:13:41Z</time>
      </trkpt>
      <trkpt lat="46.54256" lon="0.34814">
        <ele>149.2</ele>
        <time>2021-04-25T16:13:42Z</time>
      </trkpt>
      <trkpt lat="46.54257" lon="0.34833">
        <ele>149.2</ele>
        <time>2021-04-25T16:13:45Z</time>
      </trkpt>
      <trkpt lat="46.54258" lon="0.34839">
        <ele>149.2</ele>
        <time>2021-04-25T16:13:46Z</time>
      </trkpt>
      <trkpt lat="46.54259" lon="0.34844">
        <ele>149.2</ele>
        <time>2021-04-25T16:13:47Z</time>
      </trkpt>
      <trkpt lat="46.54264" lon="0.34852">
        <ele>149.2</ele>
        <time>2021-04-25T16:13:49Z</time>
      </trkpt>
      <trkpt lat="46.54265" lon="0.34856">
        <ele>149.2</ele>
        <time>2021-04-25T16:13:50Z</time>
      </trkpt>
      <trkpt lat="46.54265" lon="0.3486">
        <ele>149.2</ele>
        <time>2021-04-25T16:13:51Z</time>
      </trkpt>
      <trkpt lat="46.54268" lon="0.34874">
        <ele>149.2</ele>
        <time>2021-04-25T16:13:54Z</time>
      </trkpt>
      <trkpt lat="46.54271" lon="0.34877">
        <ele>148.8</ele>
        <time>2021-04-25T16:13:56Z</time>
      </trkpt>
      <trkpt lat="46.54272" lon="0.34879">
        <ele>148.4</ele>
        <time>2021-04-25T16:13:58Z</time>
      </trkpt>
      <trkpt lat="46.54279" lon="0.34878">
        <ele>148.6</ele>
        <time>2021-04-25T16:14:01Z</time>
      </trkpt>
      <trkpt lat="46.54284" lon="0.34878">
        <ele>148.8</ele>
        <time>2021-04-25T16:14:03Z</time>
      </trkpt>
      <trkpt lat="46.54289" lon="0.34882">
        <ele>148.8</ele>
        <time>2021-04-25T16:14:05Z</time>
      </trkpt>
      <trkpt lat="46.54295" lon="0.34888">
        <ele>148.8</ele>
        <time>2021-04-25T16:14:07Z</time>
      </trkpt>
      <trkpt lat="46.543" lon="0.3489">
        <ele>148.8</ele>
        <time>2021-04-25T16:14:09Z</time>
      </trkpt>
      <trkpt lat="46.54306" lon="0.34891">
        <ele>148.8</ele>
        <time>2021-04-25T16:14:11Z</time>
      </trkpt>
      <trkpt lat="46.54319" lon="0.34885">
        <ele>149.2</ele>
        <time>2021-04-25T16:14:16Z</time>
      </trkpt>
      <trkpt lat="46.54324" lon="0.34884">
        <ele>149.4</ele>
        <time>2021-04-25T16:14:18Z</time>
      </trkpt>
      <trkpt lat="46.5433" lon="0.34887">
        <ele>149.2</ele>
        <time>2021-04-25T16:14:20Z</time>
      </trkpt>
      <trkpt lat="46.54335" lon="0.34892">
        <ele>149.2</ele>
        <time>2021-04-25T16:14:22Z</time>
      </trkpt>
      <trkpt lat="46.54339" lon="0.34902">
        <ele>149.2</ele>
        <time>2021-04-25T16:14:25Z</time>
      </trkpt>
      <trkpt lat="46.54344" lon="0.3492">
        <ele>149.2</ele>
        <time>2021-04-25T16:14:30Z</time>
      </trkpt>
      <trkpt lat="46.54351" lon="0.34933">
        <ele>148.8</ele>
        <time>2021-04-25T16:14:35Z</time>
      </trkpt>
      <trkpt lat="46.54357" lon="0.34944">
        <ele>148.2</ele>
        <time>2021-04-25T16:14:40Z</time>
      </trkpt>
      <trkpt lat="46.54366" lon="0.34952">
        <ele>149.2</ele>
        <time>2021-04-25T16:14:45Z</time>
      </trkpt>
      <trkpt lat="46.54368" lon="0.34955">
        <ele>149.4</ele>
        <time>2021-04-25T16:14:46Z</time>
      </trkpt>
      <trkpt lat="46.54369" lon="0.34959">
        <ele>149.4</ele>
        <time>2021-04-25T16:14:47Z</time>
      </trkpt>
      <trkpt lat="46.54369" lon="0.34975">
        <ele>149.6</ele>
        <time>2021-04-25T16:14:52Z</time>
      </trkpt>
      <trkpt lat="46.54365" lon="0.34993">
        <ele>150.2</ele>
        <time>2021-04-25T16:14:57Z</time>
      </trkpt>
      <trkpt lat="46.54364" lon="0.34996">
        <ele>150.2</ele>
        <time>2021-04-25T16:14:58Z</time>
      </trkpt>
      <trkpt lat="46.54359" lon="0.35005">
        <ele>150.4</ele>
        <time>2021-04-25T16:15:01Z</time>
      </trkpt>
      <trkpt lat="46.54358" lon="0.35008">
        <ele>150.2</ele>
        <time>2021-04-25T16:15:02Z</time>
      </trkpt>
      <trkpt lat="46.54355" lon="0.35018">
        <ele>150</ele>
        <time>2021-04-25T16:15:05Z</time>
      </trkpt>
      <trkpt lat="46.54351" lon="0.35026">
        <ele>150</ele>
        <time>2021-04-25T16:15:07Z</time>
      </trkpt>
      <trkpt lat="46.54353" lon="0.35046">
        <ele>149.4</ele>
        <time>2021-04-25T16:15:12Z</time>
      </trkpt>
      <trkpt lat="46.54354" lon="0.35062">
        <ele>149.8</ele>
        <time>2021-04-25T16:15:17Z</time>
      </trkpt>
      <trkpt lat="46.54352" lon="0.35077">
        <ele>150.2</ele>
        <time>2021-04-25T16:15:20Z</time>
      </trkpt>
      <trkpt lat="46.54352" lon="0.35081">
        <ele>150.4</ele>
        <time>2021-04-25T16:15:21Z</time>
      </trkpt>
      <trkpt lat="46.54353" lon="0.35084">
        <ele>150.4</ele>
        <time>2021-04-25T16:15:22Z</time>
      </trkpt>
      <trkpt lat="46.54355" lon="0.35087">
        <ele>150.4</ele>
        <time>2021-04-25T16:15:24Z</time>
      </trkpt>
      <trkpt lat="46.54357" lon="0.35087">
        <ele>150.6</ele>
        <time>2021-04-25T16:15:25Z</time>
      </trkpt>
      <trkpt lat="46.54358" lon="0.35089">
        <ele>150.6</ele>
        <time>2021-04-25T16:15:26Z</time>
      </trkpt>
      <trkpt lat="46.54362" lon="0.35095">
        <ele>150.8</ele>
        <time>2021-04-25T16:15:28Z</time>
      </trkpt>
      <trkpt lat="46.54372" lon="0.35114">
        <ele>150.8</ele>
        <time>2021-04-25T16:15:33Z</time>
      </trkpt>
      <trkpt lat="46.54374" lon="0.35118">
        <ele>150.8</ele>
        <time>2021-04-25T16:15:34Z</time>
      </trkpt>
      <trkpt lat="46.54377" lon="0.35126">
        <ele>150.8</ele>
        <time>2021-04-25T16:15:36Z</time>
      </trkpt>
      <trkpt lat="46.54381" lon="0.35133">
        <ele>150.8</ele>
        <time>2021-04-25T16:15:38Z</time>
      </trkpt>
      <trkpt lat="46.54383" lon="0.35137">
        <ele>150.8</ele>
        <time>2021-04-25T16:15:39Z</time>
      </trkpt>
      <trkpt lat="46.54387" lon="0.35143">
        <ele>150.8</ele>
        <time>2021-04-25T16:15:40Z</time>
      </trkpt>
      <trkpt lat="46.54396" lon="0.35157">
        <ele>150.4</ele>
        <time>2021-04-25T16:15:43Z</time>
      </trkpt>
      <trkpt lat="46.54402" lon="0.35165">
        <ele>150.2</ele>
        <time>2021-04-25T16:15:45Z</time>
      </trkpt>
      <trkpt lat="46.54406" lon="0.3517">
        <ele>150.2</ele>
        <time>2021-04-25T16:15:46Z</time>
      </trkpt>
      <trkpt lat="46.54412" lon="0.35177">
        <ele>150</ele>
        <time>2021-04-25T16:15:48Z</time>
      </trkpt>
      <trkpt lat="46.5442" lon="0.35189">
        <ele>149.8</ele>
        <time>2021-04-25T16:15:51Z</time>
      </trkpt>
      <trkpt lat="46.5443" lon="0.35199">
        <ele>149.6</ele>
        <time>2021-04-25T16:15:54Z</time>
      </trkpt>
      <trkpt lat="46.54439" lon="0.35208">
        <ele>149.4</ele>
        <time>2021-04-25T16:15:56Z</time>
      </trkpt>
      <trkpt lat="46.54442" lon="0.35214">
        <ele>149</ele>
        <time>2021-04-25T16:15:57Z</time>
      </trkpt>
      <trkpt lat="46.54445" lon="0.35218">
        <ele>148.8</ele>
        <time>2021-04-25T16:15:58Z</time>
      </trkpt>
      <trkpt lat="46.5445" lon="0.35224">
        <ele>148</ele>
        <time>2021-04-25T16:16:00Z</time>
      </trkpt>
      <trkpt lat="46.54453" lon="0.35229">
        <ele>148</ele>
        <time>2021-04-25T16:16:01Z</time>
      </trkpt>
      <trkpt lat="46.54458" lon="0.35234">
        <ele>147.6</ele>
        <time>2021-04-25T16:16:03Z</time>
      </trkpt>
      <trkpt lat="46.54462" lon="0.35233">
        <ele>147.6</ele>
        <time>2021-04-25T16:16:05Z</time>
      </trkpt>
      <trkpt lat="46.54471" lon="0.35234">
        <ele>147.4</ele>
        <time>2021-04-25T16:16:08Z</time>
      </trkpt>
      <trkpt lat="46.54477" lon="0.35234">
        <ele>147.4</ele>
        <time>2021-04-25T16:16:10Z</time>
      </trkpt>
      <trkpt lat="46.54493" lon="0.35226">
        <ele>147</ele>
        <time>2021-04-25T16:16:14Z</time>
      </trkpt>
      <trkpt lat="46.54499" lon="0.35225">
        <ele>147</ele>
        <time>2021-04-25T16:16:16Z</time>
      </trkpt>
      <trkpt lat="46.54499" lon="0.35225">
        <ele>146.8</ele>
        <time>2021-04-25T16:16:17Z</time>
      </trkpt>
      <trkpt lat="46.5451" lon="0.35224">
        <ele>146.4</ele>
        <time>2021-04-25T16:16:19Z</time>
      </trkpt>
      <trkpt lat="46.54532" lon="0.35218">
        <ele>146.2</ele>
        <time>2021-04-25T16:16:24Z</time>
      </trkpt>
      <trkpt lat="46.54543" lon="0.35217">
        <ele>146.2</ele>
        <time>2021-04-25T16:16:26Z</time>
      </trkpt>
      <trkpt lat="46.54552" lon="0.35216">
        <ele>146.2</ele>
        <time>2021-04-25T16:16:28Z</time>
      </trkpt>
      <trkpt lat="46.54557" lon="0.35217">
        <ele>145.6</ele>
        <time>2021-04-25T16:16:30Z</time>
      </trkpt>
      <trkpt lat="46.54564" lon="0.35222">
        <ele>145</ele>
        <time>2021-04-25T16:16:32Z</time>
      </trkpt>
      <trkpt lat="46.54565" lon="0.3523">
        <ele>144.6</ele>
        <time>2021-04-25T16:16:34Z</time>
      </trkpt>
      <trkpt lat="46.54566" lon="0.35234">
        <ele>144</ele>
        <time>2021-04-25T16:16:35Z</time>
      </trkpt>
      <trkpt lat="46.54564" lon="0.35258">
        <ele>143.4</ele>
        <time>2021-04-25T16:16:40Z</time>
      </trkpt>
      <trkpt lat="46.54566" lon="0.35265">
        <ele>143</ele>
        <time>2021-04-25T16:16:42Z</time>
      </trkpt>
      <trkpt lat="46.54567" lon="0.35267">
        <ele>142.8</ele>
        <time>2021-04-25T16:16:43Z</time>
      </trkpt>
      <trkpt lat="46.54567" lon="0.35274">
        <ele>142.8</ele>
        <time>2021-04-25T16:16:45Z</time>
      </trkpt>
      <trkpt lat="46.54563" lon="0.35282">
        <ele>142.6</ele>
        <time>2021-04-25T16:16:47Z</time>
      </trkpt>
      <trkpt lat="46.5456" lon="0.3529">
        <ele>142.6</ele>
        <time>2021-04-25T16:16:49Z</time>
      </trkpt>
      <trkpt lat="46.54557" lon="0.3531">
        <ele>142.8</ele>
        <time>2021-04-25T16:16:53Z</time>
      </trkpt>
      <trkpt lat="46.54558" lon="0.35322">
        <ele>142.8</ele>
        <time>2021-04-25T16:16:56Z</time>
      </trkpt>
      <trkpt lat="46.54559" lon="0.35324">
        <ele>142.6</ele>
        <time>2021-04-25T16:16:57Z</time>
      </trkpt>
      <trkpt lat="46.5456" lon="0.35325">
        <ele>142.2</ele>
        <time>2021-04-25T16:16:58Z</time>
      </trkpt>
      <trkpt lat="46.54562" lon="0.35326">
        <ele>141.8</ele>
        <time>2021-04-25T16:16:59Z</time>
      </trkpt>
      <trkpt lat="46.54563" lon="0.35326">
        <ele>141.4</ele>
        <time>2021-04-25T16:17:00Z</time>
      </trkpt>
      <trkpt lat="46.54568" lon="0.35326">
        <ele>140.8</ele>
        <time>2021-04-25T16:17:02Z</time>
      </trkpt>
      <trkpt lat="46.54573" lon="0.3533">
        <ele>140.2</ele>
        <time>2021-04-25T16:17:04Z</time>
      </trkpt>
      <trkpt lat="46.54575" lon="0.35334">
        <ele>139</ele>
        <time>2021-04-25T16:17:05Z</time>
      </trkpt>
      <trkpt lat="46.54578" lon="0.35336">
        <ele>137.6</ele>
        <time>2021-04-25T16:17:06Z</time>
      </trkpt>
      <trkpt lat="46.5458" lon="0.35337">
        <ele>136.2</ele>
        <time>2021-04-25T16:17:07Z</time>
      </trkpt>
      <trkpt lat="46.54583" lon="0.35338">
        <ele>134.4</ele>
        <time>2021-04-25T16:17:08Z</time>
      </trkpt>
      <trkpt lat="46.54586" lon="0.3534">
        <ele>133.4</ele>
        <time>2021-04-25T16:17:09Z</time>
      </trkpt>
      <trkpt lat="46.54591" lon="0.35345">
        <ele>131.4</ele>
        <time>2021-04-25T16:17:11Z</time>
      </trkpt>
      <trkpt lat="46.54594" lon="0.35349">
        <ele>130</ele>
        <time>2021-04-25T16:17:12Z</time>
      </trkpt>
      <trkpt lat="46.54602" lon="0.35356">
        <ele>128.6</ele>
        <time>2021-04-25T16:17:14Z</time>
      </trkpt>
      <trkpt lat="46.54607" lon="0.3536">
        <ele>127.8</ele>
        <time>2021-04-25T16:17:15Z</time>
      </trkpt>
      <trkpt lat="46.54612" lon="0.35365">
        <ele>127.4</ele>
        <time>2021-04-25T16:17:16Z</time>
      </trkpt>
      <trkpt lat="46.54616" lon="0.3537">
        <ele>126.4</ele>
        <time>2021-04-25T16:17:17Z</time>
      </trkpt>
      <trkpt lat="46.5462" lon="0.35374">
        <ele>126</ele>
        <time>2021-04-25T16:17:18Z</time>
      </trkpt>
      <trkpt lat="46.54627" lon="0.35381">
        <ele>125.2</ele>
        <time>2021-04-25T16:17:20Z</time>
      </trkpt>
      <trkpt lat="46.54633" lon="0.35387">
        <ele>125</ele>
        <time>2021-04-25T16:17:21Z</time>
      </trkpt>
      <trkpt lat="46.54637" lon="0.35393">
        <ele>124.6</ele>
        <time>2021-04-25T16:17:22Z</time>
      </trkpt>
      <trkpt lat="46.54645" lon="0.35406">
        <ele>124</ele>
        <time>2021-04-25T16:17:24Z</time>
      </trkpt>
      <trkpt lat="46.54652" lon="0.35414">
        <ele>123.6</ele>
        <time>2021-04-25T16:17:25Z</time>
      </trkpt>
      <trkpt lat="46.54658" lon="0.35422">
        <ele>123.2</ele>
        <time>2021-04-25T16:17:26Z</time>
      </trkpt>
      <trkpt lat="46.54663" lon="0.35434">
        <ele>122.8</ele>
        <time>2021-04-25T16:17:28Z</time>
      </trkpt>
      <trkpt lat="46.54665" lon="0.3544">
        <ele>122.6</ele>
        <time>2021-04-25T16:17:29Z</time>
      </trkpt>
      <trkpt lat="46.54666" lon="0.35444">
        <ele>122.4</ele>
        <time>2021-04-25T16:17:30Z</time>
      </trkpt>
      <trkpt lat="46.54666" lon="0.35457">
        <ele>122.4</ele>
        <time>2021-04-25T16:17:31Z</time>
      </trkpt>
      <trkpt lat="46.54671" lon="0.35474">
        <ele>122.2</ele>
        <time>2021-04-25T16:17:34Z</time>
      </trkpt>
      <trkpt lat="46.54678" lon="0.35498">
        <ele>122</ele>
        <time>2021-04-25T16:17:37Z</time>
      </trkpt>
      <trkpt lat="46.5468" lon="0.35504">
        <ele>121.6</ele>
        <time>2021-04-25T16:17:38Z</time>
      </trkpt>
      <trkpt lat="46.54681" lon="0.35509">
        <ele>121.2</ele>
        <time>2021-04-25T16:17:39Z</time>
      </trkpt>
      <trkpt lat="46.54683" lon="0.35512">
        <ele>120.6</ele>
        <time>2021-04-25T16:17:40Z</time>
      </trkpt>
      <trkpt lat="46.54689" lon="0.35517">
        <ele>120</ele>
        <time>2021-04-25T16:17:42Z</time>
      </trkpt>
      <trkpt lat="46.54693" lon="0.35518">
        <ele>119</ele>
        <time>2021-04-25T16:17:44Z</time>
      </trkpt>
      <trkpt lat="46.54696" lon="0.3552">
        <ele>118.6</ele>
        <time>2021-04-25T16:17:45Z</time>
      </trkpt>
      <trkpt lat="46.54701" lon="0.35526">
        <ele>117</ele>
        <time>2021-04-25T16:17:47Z</time>
      </trkpt>
      <trkpt lat="46.54709" lon="0.35531">
        <ele>115.4</ele>
        <time>2021-04-25T16:17:49Z</time>
      </trkpt>
      <trkpt lat="46.54716" lon="0.3554">
        <ele>113.4</ele>
        <time>2021-04-25T16:17:51Z</time>
      </trkpt>
      <trkpt lat="46.54717" lon="0.35543">
        <ele>112.8</ele>
        <time>2021-04-25T16:17:52Z</time>
      </trkpt>
      <trkpt lat="46.54719" lon="0.35546">
        <ele>112.4</ele>
        <time>2021-04-25T16:17:53Z</time>
      </trkpt>
      <trkpt lat="46.54721" lon="0.35548">
        <ele>112.2</ele>
        <time>2021-04-25T16:17:54Z</time>
      </trkpt>
      <trkpt lat="46.54726" lon="0.35559">
        <ele>111.6</ele>
        <time>2021-04-25T16:18:05Z</time>
      </trkpt>
      <trkpt lat="46.54734" lon="0.35568">
        <ele>111.6</ele>
        <time>2021-04-25T16:18:21Z</time>
      </trkpt>
      <trkpt lat="46.54734" lon="0.35568">
        <ele>111.6</ele>
        <time>2021-04-25T16:18:42Z</time>
      </trkpt>
      <trkpt lat="46.54733" lon="0.35568">
        <ele>111.6</ele>
        <time>2021-04-25T16:18:55Z</time>
      </trkpt>
      <trkpt lat="46.54732" lon="0.3557">
        <ele>111.6</ele>
        <time>2021-04-25T16:19:09Z</time>
      </trkpt>
      <trkpt lat="46.54732" lon="0.35572">
        <ele>111.6</ele>
        <time>2021-04-25T16:19:24Z</time>
      </trkpt>
      <trkpt lat="46.54731" lon="0.35572">
        <ele>111.6</ele>
        <time>2021-04-25T16:19:43Z</time>
      </trkpt>
      <trkpt lat="46.54731" lon="0.35575">
        <ele>111.6</ele>
        <time>2021-04-25T16:20:02Z</time>
      </trkpt>
      <trkpt lat="46.54731" lon="0.35577">
        <ele>111.6</ele>
        <time>2021-04-25T16:20:17Z</time>
      </trkpt>
      <trkpt lat="46.54731" lon="0.35578">
        <ele>111.6</ele>
        <time>2021-04-25T16:20:34Z</time>
      </trkpt>
      <trkpt lat="46.54731" lon="0.35579">
        <ele>111.6</ele>
        <time>2021-04-25T16:20:54Z</time>
      </trkpt>
      <trkpt lat="46.54731" lon="0.35579">
        <ele>111.6</ele>
        <time>2021-04-25T16:21:11Z</time>
      </trkpt>
      <trkpt lat="46.54731" lon="0.3558">
        <ele>111.6</ele>
        <time>2021-04-25T16:21:31Z</time>
      </trkpt>
      <trkpt lat="46.54731" lon="0.3558">
        <ele>111.6</ele>
        <time>2021-04-25T16:21:38Z</time>
      </trkpt>
      <trkpt lat="46.54734" lon="0.35574">
        <ele>111.6</ele>
        <time>2021-04-25T16:22:57Z</time>
      </trkpt>
      <trkpt lat="46.54733" lon="0.35577">
        <ele>112</ele>
        <time>2021-04-25T16:23:04Z</time>
      </trkpt>
      <trkpt lat="46.54734" lon="0.35584">
        <ele>112.2</ele>
        <time>2021-04-25T16:23:10Z</time>
      </trkpt>
      <trkpt lat="46.54734" lon="0.35586">
        <ele>112.2</ele>
        <time>2021-04-25T16:23:12Z</time>
      </trkpt>
      <trkpt lat="46.54734" lon="0.35589">
        <ele>112.6</ele>
        <time>2021-04-25T16:23:14Z</time>
      </trkpt>
      <trkpt lat="46.54734" lon="0.3559">
        <ele>112.8</ele>
        <time>2021-04-25T16:23:15Z</time>
      </trkpt>
      <trkpt lat="46.54732" lon="0.35594">
        <ele>113.8</ele>
        <time>2021-04-25T16:23:18Z</time>
      </trkpt>
      <trkpt lat="46.54731" lon="0.356">
        <ele>115.2</ele>
        <time>2021-04-25T16:23:22Z</time>
      </trkpt>
      <trkpt lat="46.5473" lon="0.35604">
        <ele>116.2</ele>
        <time>2021-04-25T16:23:25Z</time>
      </trkpt>
      <trkpt lat="46.54729" lon="0.35606">
        <ele>116.8</ele>
        <time>2021-04-25T16:23:27Z</time>
      </trkpt>
      <trkpt lat="46.54729" lon="0.35608">
        <ele>117</ele>
        <time>2021-04-25T16:23:28Z</time>
      </trkpt>
      <trkpt lat="46.54729" lon="0.35609">
        <ele>117.4</ele>
        <time>2021-04-25T16:23:29Z</time>
      </trkpt>
      <trkpt lat="46.54729" lon="0.35611">
        <ele>117.8</ele>
        <time>2021-04-25T16:23:31Z</time>
      </trkpt>
      <trkpt lat="46.54728" lon="0.35614">
        <ele>118.4</ele>
        <time>2021-04-25T16:23:34Z</time>
      </trkpt>
      <trkpt lat="46.54727" lon="0.35615">
        <ele>118.6</ele>
        <time>2021-04-25T16:23:35Z</time>
      </trkpt>
      <trkpt lat="46.54724" lon="0.35618">
        <ele>119.6</ele>
        <time>2021-04-25T16:23:39Z</time>
      </trkpt>
      <trkpt lat="46.54724" lon="0.3562">
        <ele>119.8</ele>
        <time>2021-04-25T16:23:40Z</time>
      </trkpt>
      <trkpt lat="46.54723" lon="0.35622">
        <ele>120.4</ele>
        <time>2021-04-25T16:23:42Z</time>
      </trkpt>
      <trkpt lat="46.54722" lon="0.35624">
        <ele>120.8</ele>
        <time>2021-04-25T16:23:44Z</time>
      </trkpt>
      <trkpt lat="46.54719" lon="0.35627">
        <ele>121</ele>
        <time>2021-04-25T16:23:46Z</time>
      </trkpt>
      <trkpt lat="46.54715" lon="0.3563">
        <ele>121.8</ele>
        <time>2021-04-25T16:23:49Z</time>
      </trkpt>
      <trkpt lat="46.54714" lon="0.35632">
        <ele>122.2</ele>
        <time>2021-04-25T16:23:50Z</time>
      </trkpt>
      <trkpt lat="46.54711" lon="0.35634">
        <ele>123.2</ele>
        <time>2021-04-25T16:23:53Z</time>
      </trkpt>
      <trkpt lat="46.54708" lon="0.35636">
        <ele>123.8</ele>
        <time>2021-04-25T16:23:56Z</time>
      </trkpt>
      <trkpt lat="46.54705" lon="0.35639">
        <ele>124.4</ele>
        <time>2021-04-25T16:23:59Z</time>
      </trkpt>
      <trkpt lat="46.54704" lon="0.3564">
        <ele>124.6</ele>
        <time>2021-04-25T16:24:00Z</time>
      </trkpt>
      <trkpt lat="46.54702" lon="0.3564">
        <ele>125.2</ele>
        <time>2021-04-25T16:24:03Z</time>
      </trkpt>
      <trkpt lat="46.547" lon="0.35636">
        <ele>125.2</ele>
        <time>2021-04-25T16:24:07Z</time>
      </trkpt>
      <trkpt lat="46.54699" lon="0.35636">
        <ele>125.2</ele>
        <time>2021-04-25T16:24:08Z</time>
      </trkpt>
      <trkpt lat="46.54686" lon="0.35619">
        <ele>124.8</ele>
        <time>2021-04-25T16:24:19Z</time>
      </trkpt>
      <trkpt lat="46.5467" lon="0.35601">
        <ele>123.4</ele>
        <time>2021-04-25T16:24:31Z</time>
      </trkpt>
      <trkpt lat="46.54668" lon="0.356">
        <ele>123.4</ele>
        <time>2021-04-25T16:24:32Z</time>
      </trkpt>
      <trkpt lat="46.54662" lon="0.356">
        <ele>124.6</ele>
        <time>2021-04-25T16:24:37Z</time>
      </trkpt>
      <trkpt lat="46.54655" lon="0.356">
        <ele>125.6</ele>
        <time>2021-04-25T16:24:42Z</time>
      </trkpt>
      <trkpt lat="46.54651" lon="0.35601">
        <ele>126.4</ele>
        <time>2021-04-25T16:24:45Z</time>
      </trkpt>
      <trkpt lat="46.54649" lon="0.35602">
        <ele>126.6</ele>
        <time>2021-04-25T16:24:46Z</time>
      </trkpt>
      <trkpt lat="46.54648" lon="0.35602">
        <ele>126.8</ele>
        <time>2021-04-25T16:24:47Z</time>
      </trkpt>
      <trkpt lat="46.54641" lon="0.35606">
        <ele>127.8</ele>
        <time>2021-04-25T16:24:52Z</time>
      </trkpt>
      <trkpt lat="46.54638" lon="0.35609">
        <ele>128.8</ele>
        <time>2021-04-25T16:24:56Z</time>
      </trkpt>
      <trkpt lat="46.54632" lon="0.35611">
        <ele>129.8</ele>
        <time>2021-04-25T16:25:00Z</time>
      </trkpt>
      <trkpt lat="46.5463" lon="0.35612">
        <ele>130</ele>
        <time>2021-04-25T16:25:01Z</time>
      </trkpt>
      <trkpt lat="46.54622" lon="0.35615">
        <ele>131</ele>
        <time>2021-04-25T16:25:06Z</time>
      </trkpt>
      <trkpt lat="46.54621" lon="0.35615">
        <ele>131.2</ele>
        <time>2021-04-25T16:25:07Z</time>
      </trkpt>
      <trkpt lat="46.54614" lon="0.35618">
        <ele>132.4</ele>
        <time>2021-04-25T16:25:12Z</time>
      </trkpt>
      <trkpt lat="46.54608" lon="0.3562">
        <ele>133.6</ele>
        <time>2021-04-25T16:25:17Z</time>
      </trkpt>
      <trkpt lat="46.54606" lon="0.3562">
        <ele>134</ele>
        <time>2021-04-25T16:25:19Z</time>
      </trkpt>
      <trkpt lat="46.54601" lon="0.35619">
        <ele>134.8</ele>
        <time>2021-04-25T16:25:22Z</time>
      </trkpt>
      <trkpt lat="46.54593" lon="0.3562">
        <ele>136</ele>
        <time>2021-04-25T16:25:28Z</time>
      </trkpt>
      <trkpt lat="46.54591" lon="0.35621">
        <ele>136</ele>
        <time>2021-04-25T16:25:29Z</time>
      </trkpt>
      <trkpt lat="46.54587" lon="0.35623">
        <ele>137</ele>
        <time>2021-04-25T16:25:32Z</time>
      </trkpt>
      <trkpt lat="46.54582" lon="0.35626">
        <ele>138.2</ele>
        <time>2021-04-25T16:25:36Z</time>
      </trkpt>
      <trkpt lat="46.54577" lon="0.35626">
        <ele>138.8</ele>
        <time>2021-04-25T16:25:40Z</time>
      </trkpt>
      <trkpt lat="46.54574" lon="0.35623">
        <ele>139.4</ele>
        <time>2021-04-25T16:25:43Z</time>
      </trkpt>
      <trkpt lat="46.54566" lon="0.35616">
        <ele>140.6</ele>
        <time>2021-04-25T16:25:50Z</time>
      </trkpt>
      <trkpt lat="46.54562" lon="0.35608">
        <ele>141</ele>
        <time>2021-04-25T16:25:54Z</time>
      </trkpt>
      <trkpt lat="46.54556" lon="0.356">
        <ele>141.6</ele>
        <time>2021-04-25T16:25:59Z</time>
      </trkpt>
      <trkpt lat="46.54553" lon="0.35597">
        <ele>142.2</ele>
        <time>2021-04-25T16:26:01Z</time>
      </trkpt>
      <trkpt lat="46.5455" lon="0.35592">
        <ele>142.6</ele>
        <time>2021-04-25T16:26:04Z</time>
      </trkpt>
      <trkpt lat="46.5454" lon="0.35575">
        <ele>143.8</ele>
        <time>2021-04-25T16:26:12Z</time>
      </trkpt>
      <trkpt lat="46.54529" lon="0.35562">
        <ele>144.8</ele>
        <time>2021-04-25T16:26:20Z</time>
      </trkpt>
      <trkpt lat="46.54526" lon="0.35561">
        <ele>144.8</ele>
        <time>2021-04-25T16:26:21Z</time>
      </trkpt>
      <trkpt lat="46.54507" lon="0.3556">
        <ele>146</ele>
        <time>2021-04-25T16:26:30Z</time>
      </trkpt>
      <trkpt lat="46.54492" lon="0.35558">
        <ele>146.8</ele>
        <time>2021-04-25T16:26:36Z</time>
      </trkpt>
      <trkpt lat="46.5449" lon="0.35558">
        <ele>147</ele>
        <time>2021-04-25T16:26:37Z</time>
      </trkpt>
      <trkpt lat="46.54478" lon="0.35557">
        <ele>147.6</ele>
        <time>2021-04-25T16:26:42Z</time>
      </trkpt>
      <trkpt lat="46.54471" lon="0.35556">
        <ele>148</ele>
        <time>2021-04-25T16:26:45Z</time>
      </trkpt>
      <trkpt lat="46.54461" lon="0.35553">
        <ele>148.6</ele>
        <time>2021-04-25T16:26:49Z</time>
      </trkpt>
      <trkpt lat="46.54447" lon="0.35546">
        <ele>149</ele>
        <time>2021-04-25T16:26:54Z</time>
      </trkpt>
      <trkpt lat="46.54445" lon="0.35544">
        <ele>149.2</ele>
        <time>2021-04-25T16:26:55Z</time>
      </trkpt>
      <trkpt lat="46.54442" lon="0.3554">
        <ele>149.2</ele>
        <time>2021-04-25T16:26:57Z</time>
      </trkpt>
      <trkpt lat="46.54436" lon="0.35537">
        <ele>149.4</ele>
        <time>2021-04-25T16:26:59Z</time>
      </trkpt>
      <trkpt lat="46.54425" lon="0.35531">
        <ele>150.2</ele>
        <time>2021-04-25T16:27:02Z</time>
      </trkpt>
      <trkpt lat="46.5442" lon="0.35527">
        <ele>150.4</ele>
        <time>2021-04-25T16:27:04Z</time>
      </trkpt>
      <trkpt lat="46.54406" lon="0.35516">
        <ele>150.6</ele>
        <time>2021-04-25T16:27:09Z</time>
      </trkpt>
      <trkpt lat="46.5439" lon="0.35505">
        <ele>150.8</ele>
        <time>2021-04-25T16:27:14Z</time>
      </trkpt>
      <trkpt lat="46.54379" lon="0.35486">
        <ele>150.8</ele>
        <time>2021-04-25T16:27:20Z</time>
      </trkpt>
      <trkpt lat="46.54375" lon="0.3548">
        <ele>151.2</ele>
        <time>2021-04-25T16:27:22Z</time>
      </trkpt>
      <trkpt lat="46.54367" lon="0.35472">
        <ele>151.8</ele>
        <time>2021-04-25T16:27:25Z</time>
      </trkpt>
      <trkpt lat="46.54365" lon="0.35469">
        <ele>151.8</ele>
        <time>2021-04-25T16:27:26Z</time>
      </trkpt>
      <trkpt lat="46.54363" lon="0.35456">
        <ele>152</ele>
        <time>2021-04-25T16:27:28Z</time>
      </trkpt>
      <trkpt lat="46.54362" lon="0.35451">
        <ele>152</ele>
        <time>2021-04-25T16:27:29Z</time>
      </trkpt>
      <trkpt lat="46.54361" lon="0.35446">
        <ele>151.8</ele>
        <time>2021-04-25T16:27:33Z</time>
      </trkpt>
      <trkpt lat="46.5436" lon="0.35446">
        <ele>151.8</ele>
        <time>2021-04-25T16:27:34Z</time>
      </trkpt>
      <trkpt lat="46.5436" lon="0.35445">
        <ele>151.6</ele>
        <time>2021-04-25T16:27:36Z</time>
      </trkpt>
      <trkpt lat="46.54361" lon="0.35442">
        <ele>151.6</ele>
        <time>2021-04-25T16:27:38Z</time>
      </trkpt>
      <trkpt lat="46.54366" lon="0.35443">
        <ele>151.4</ele>
        <time>2021-04-25T16:27:42Z</time>
      </trkpt>
      <trkpt lat="46.54371" lon="0.35445">
        <ele>151</ele>
        <time>2021-04-25T16:27:45Z</time>
      </trkpt>
      <trkpt lat="46.54372" lon="0.35446">
        <ele>150.8</ele>
        <time>2021-04-25T16:27:46Z</time>
      </trkpt>
      <trkpt lat="46.54379" lon="0.35452">
        <ele>150.6</ele>
        <time>2021-04-25T16:27:50Z</time>
      </trkpt>
      <trkpt lat="46.54383" lon="0.35455">
        <ele>150.6</ele>
        <time>2021-04-25T16:27:53Z</time>
      </trkpt>
      <trkpt lat="46.54388" lon="0.35454">
        <ele>150.6</ele>
        <time>2021-04-25T16:27:55Z</time>
      </trkpt>
      <trkpt lat="46.54394" lon="0.35453">
        <ele>150.4</ele>
        <time>2021-04-25T16:27:57Z</time>
      </trkpt>
      <trkpt lat="46.54399" lon="0.35457">
        <ele>150.2</ele>
        <time>2021-04-25T16:27:59Z</time>
      </trkpt>
      <trkpt lat="46.54403" lon="0.35459">
        <ele>150</ele>
        <time>2021-04-25T16:28:00Z</time>
      </trkpt>
      <trkpt lat="46.54406" lon="0.35461">
        <ele>149.8</ele>
        <time>2021-04-25T16:28:01Z</time>
      </trkpt>
      <trkpt lat="46.54414" lon="0.35461">
        <ele>149.8</ele>
        <time>2021-04-25T16:28:03Z</time>
      </trkpt>
      <trkpt lat="46.54417" lon="0.35459">
        <ele>149.6</ele>
        <time>2021-04-25T16:28:04Z</time>
      </trkpt>
      <trkpt lat="46.54419" lon="0.35456">
        <ele>149.6</ele>
        <time>2021-04-25T16:28:05Z</time>
      </trkpt>
      <trkpt lat="46.54426" lon="0.35451">
        <ele>149</ele>
        <time>2021-04-25T16:28:07Z</time>
      </trkpt>
      <trkpt lat="46.54429" lon="0.3545">
        <ele>148.6</ele>
        <time>2021-04-25T16:28:08Z</time>
      </trkpt>
      <trkpt lat="46.54433" lon="0.35449">
        <ele>148.4</ele>
        <time>2021-04-25T16:28:09Z</time>
      </trkpt>
      <trkpt lat="46.54443" lon="0.35455">
        <ele>147.8</ele>
        <time>2021-04-25T16:28:12Z</time>
      </trkpt>
      <trkpt lat="46.54447" lon="0.35457">
        <ele>147.8</ele>
        <time>2021-04-25T16:28:13Z</time>
      </trkpt>
      <trkpt lat="46.54454" lon="0.35462">
        <ele>147.6</ele>
        <time>2021-04-25T16:28:15Z</time>
      </trkpt>
      <trkpt lat="46.54459" lon="0.35464">
        <ele>147.6</ele>
        <time>2021-04-25T16:28:17Z</time>
      </trkpt>
      <trkpt lat="46.54462" lon="0.35469">
        <ele>147.2</ele>
        <time>2021-04-25T16:28:19Z</time>
      </trkpt>
      <trkpt lat="46.54463" lon="0.3547">
        <ele>146.8</ele>
        <time>2021-04-25T16:28:20Z</time>
      </trkpt>
      <trkpt lat="46.54469" lon="0.35472">
        <ele>146.4</ele>
        <time>2021-04-25T16:28:22Z</time>
      </trkpt>
      <trkpt lat="46.54477" lon="0.35479">
        <ele>146</ele>
        <time>2021-04-25T16:28:25Z</time>
      </trkpt>
      <trkpt lat="46.54479" lon="0.35479">
        <ele>145.8</ele>
        <time>2021-04-25T16:28:26Z</time>
      </trkpt>
      <trkpt lat="46.54483" lon="0.35477">
        <ele>145.6</ele>
        <time>2021-04-25T16:28:28Z</time>
      </trkpt>
      <trkpt lat="46.54486" lon="0.35475">
        <ele>145.4</ele>
        <time>2021-04-25T16:28:29Z</time>
      </trkpt>
      <trkpt lat="46.54488" lon="0.35469">
        <ele>145.2</ele>
        <time>2021-04-25T16:28:31Z</time>
      </trkpt>
      <trkpt lat="46.54489" lon="0.35466">
        <ele>144.8</ele>
        <time>2021-04-25T16:28:32Z</time>
      </trkpt>
      <trkpt lat="46.54491" lon="0.35464">
        <ele>144.6</ele>
        <time>2021-04-25T16:28:33Z</time>
      </trkpt>
      <trkpt lat="46.54492" lon="0.35459">
        <ele>144.2</ele>
        <time>2021-04-25T16:28:36Z</time>
      </trkpt>
      <trkpt lat="46.54497" lon="0.35452">
        <ele>143.8</ele>
        <time>2021-04-25T16:28:41Z</time>
      </trkpt>
      <trkpt lat="46.54499" lon="0.35447">
        <ele>143.4</ele>
        <time>2021-04-25T16:28:43Z</time>
      </trkpt>
      <trkpt lat="46.54503" lon="0.35441">
        <ele>142.8</ele>
        <time>2021-04-25T16:28:46Z</time>
      </trkpt>
      <trkpt lat="46.54507" lon="0.35441">
        <ele>142.6</ele>
        <time>2021-04-25T16:28:48Z</time>
      </trkpt>
      <trkpt lat="46.54513" lon="0.35442">
        <ele>142</ele>
        <time>2021-04-25T16:28:50Z</time>
      </trkpt>
      <trkpt lat="46.54515" lon="0.35445">
        <ele>141.6</ele>
        <time>2021-04-25T16:28:51Z</time>
      </trkpt>
      <trkpt lat="46.5452" lon="0.35449">
        <ele>140.4</ele>
        <time>2021-04-25T16:28:53Z</time>
      </trkpt>
      <trkpt lat="46.54522" lon="0.35446">
        <ele>139.6</ele>
        <time>2021-04-25T16:28:55Z</time>
      </trkpt>
      <trkpt lat="46.54523" lon="0.35444">
        <ele>139.2</ele>
        <time>2021-04-25T16:28:56Z</time>
      </trkpt>
      <trkpt lat="46.54525" lon="0.35442">
        <ele>139</ele>
        <time>2021-04-25T16:28:58Z</time>
      </trkpt>
      <trkpt lat="46.54527" lon="0.35443">
        <ele>138.8</ele>
        <time>2021-04-25T16:28:59Z</time>
      </trkpt>
      <trkpt lat="46.54532" lon="0.35448">
        <ele>138.4</ele>
        <time>2021-04-25T16:29:02Z</time>
      </trkpt>
      <trkpt lat="46.54534" lon="0.35448">
        <ele>138</ele>
        <time>2021-04-25T16:29:03Z</time>
      </trkpt>
      <trkpt lat="46.54541" lon="0.35448">
        <ele>137.6</ele>
        <time>2021-04-25T16:29:06Z</time>
      </trkpt>
      <trkpt lat="46.54545" lon="0.35449">
        <ele>137</ele>
        <time>2021-04-25T16:29:07Z</time>
      </trkpt>
      <trkpt lat="46.54548" lon="0.35451">
        <ele>135.8</ele>
        <time>2021-04-25T16:29:09Z</time>
      </trkpt>
      <trkpt lat="46.54552" lon="0.35454">
        <ele>134.6</ele>
        <time>2021-04-25T16:29:11Z</time>
      </trkpt>
      <trkpt lat="46.54558" lon="0.35461">
        <ele>133.8</ele>
        <time>2021-04-25T16:29:14Z</time>
      </trkpt>
      <trkpt lat="46.54559" lon="0.35462">
        <ele>133.4</ele>
        <time>2021-04-25T16:29:15Z</time>
      </trkpt>
      <trkpt lat="46.5456" lon="0.35464">
        <ele>133</ele>
        <time>2021-04-25T16:29:16Z</time>
      </trkpt>
      <trkpt lat="46.54561" lon="0.35465">
        <ele>132.6</ele>
        <time>2021-04-25T16:29:17Z</time>
      </trkpt>
      <trkpt lat="46.54562" lon="0.35467">
        <ele>132.4</ele>
        <time>2021-04-25T16:29:18Z</time>
      </trkpt>
      <trkpt lat="46.54564" lon="0.35468">
        <ele>132.2</ele>
        <time>2021-04-25T16:29:19Z</time>
      </trkpt>
      <trkpt lat="46.54567" lon="0.35474">
        <ele>131.8</ele>
        <time>2021-04-25T16:29:21Z</time>
      </trkpt>
      <trkpt lat="46.54569" lon="0.35475">
        <ele>131.4</ele>
        <time>2021-04-25T16:29:22Z</time>
      </trkpt>
      <trkpt lat="46.54571" lon="0.35476">
        <ele>130.4</ele>
        <time>2021-04-25T16:29:23Z</time>
      </trkpt>
      <trkpt lat="46.54573" lon="0.35478">
        <ele>129</ele>
        <time>2021-04-25T16:29:25Z</time>
      </trkpt>
      <trkpt lat="46.54576" lon="0.3548">
        <ele>128.2</ele>
        <time>2021-04-25T16:29:27Z</time>
      </trkpt>
      <trkpt lat="46.54577" lon="0.35481">
        <ele>127.8</ele>
        <time>2021-04-25T16:29:28Z</time>
      </trkpt>
      <trkpt lat="46.54578" lon="0.35482">
        <ele>127.4</ele>
        <time>2021-04-25T16:29:29Z</time>
      </trkpt>
      <trkpt lat="46.54587" lon="0.35481">
        <ele>126.4</ele>
        <time>2021-04-25T16:29:33Z</time>
      </trkpt>
      <trkpt lat="46.5459" lon="0.35482">
        <ele>126</ele>
        <time>2021-04-25T16:29:34Z</time>
      </trkpt>
      <trkpt lat="46.54596" lon="0.35485">
        <ele>125.4</ele>
        <time>2021-04-25T16:29:36Z</time>
      </trkpt>
      <trkpt lat="46.54605" lon="0.35487">
        <ele>124.8</ele>
        <time>2021-04-25T16:29:39Z</time>
      </trkpt>
      <trkpt lat="46.54617" lon="0.35491">
        <ele>124</ele>
        <time>2021-04-25T16:29:43Z</time>
      </trkpt>
      <trkpt lat="46.54626" lon="0.35493">
        <ele>123.4</ele>
        <time>2021-04-25T16:29:46Z</time>
      </trkpt>
      <trkpt lat="46.54633" lon="0.35497">
        <ele>123</ele>
        <time>2021-04-25T16:29:48Z</time>
      </trkpt>
      <trkpt lat="46.54641" lon="0.35502">
        <ele>122.8</ele>
        <time>2021-04-25T16:29:50Z</time>
      </trkpt>
      <trkpt lat="46.54644" lon="0.35505">
        <ele>122.8</ele>
        <time>2021-04-25T16:29:51Z</time>
      </trkpt>
      <trkpt lat="46.54654" lon="0.35509">
        <ele>122.2</ele>
        <time>2021-04-25T16:29:55Z</time>
      </trkpt>
      <trkpt lat="46.54656" lon="0.35509">
        <ele>122</ele>
        <time>2021-04-25T16:29:56Z</time>
      </trkpt>
      <trkpt lat="46.54667" lon="0.3551">
        <ele>121.2</ele>
        <time>2021-04-25T16:30:01Z</time>
      </trkpt>
      <trkpt lat="46.54671" lon="0.35512">
        <ele>121</ele>
        <time>2021-04-25T16:30:03Z</time>
      </trkpt>
      <trkpt lat="46.54679" lon="0.35514">
        <ele>120.8</ele>
        <time>2021-04-25T16:30:08Z</time>
      </trkpt>
      <trkpt lat="46.54682" lon="0.35514">
        <ele>120.6</ele>
        <time>2021-04-25T16:30:17Z</time>
      </trkpt>
      <trkpt lat="46.54688" lon="0.35516">
        <ele>120.4</ele>
        <time>2021-04-25T16:30:30Z</time>
      </trkpt>
      <trkpt lat="46.54694" lon="0.35518">
        <ele>120.8</ele>
        <time>2021-04-25T16:30:46Z</time>
      </trkpt>
      <trkpt lat="46.54698" lon="0.35518">
        <ele>120</ele>
        <time>2021-04-25T16:31:02Z</time>
      </trkpt>
      <trkpt lat="46.54701" lon="0.35516">
        <ele>120.6</ele>
        <time>2021-04-25T16:31:21Z</time>
      </trkpt>
      <trkpt lat="46.54702" lon="0.35529">
        <ele>120.6</ele>
        <time>2021-04-25T16:31:32Z</time>
      </trkpt>
      <trkpt lat="46.54705" lon="0.35539">
        <ele>119.8</ele>
        <time>2021-04-25T16:31:36Z</time>
      </trkpt>
      <trkpt lat="46.54707" lon="0.35543">
        <ele>118.6</ele>
        <time>2021-04-25T16:31:38Z</time>
      </trkpt>
      <trkpt lat="46.54708" lon="0.35547">
        <ele>117.2</ele>
        <time>2021-04-25T16:31:40Z</time>
      </trkpt>
      <trkpt lat="46.54706" lon="0.35553">
        <ele>116.4</ele>
        <time>2021-04-25T16:31:44Z</time>
      </trkpt>
      <trkpt lat="46.54705" lon="0.35553">
        <ele>116.2</ele>
        <time>2021-04-25T16:31:45Z</time>
      </trkpt>
      <trkpt lat="46.54702" lon="0.35556">
        <ele>117.2</ele>
        <time>2021-04-25T16:31:49Z</time>
      </trkpt>
      <trkpt lat="46.54698" lon="0.35557">
        <ele>118</ele>
        <time>2021-04-25T16:31:52Z</time>
      </trkpt>
      <trkpt lat="46.54696" lon="0.35558">
        <ele>118.4</ele>
        <time>2021-04-25T16:31:53Z</time>
      </trkpt>
      <trkpt lat="46.54693" lon="0.35559">
        <ele>119.6</ele>
        <time>2021-04-25T16:31:55Z</time>
      </trkpt>
      <trkpt lat="46.54688" lon="0.35561">
        <ele>120.8</ele>
        <time>2021-04-25T16:31:58Z</time>
      </trkpt>
      <trkpt lat="46.54682" lon="0.35565">
        <ele>121.6</ele>
        <time>2021-04-25T16:32:01Z</time>
      </trkpt>
      <trkpt lat="46.54681" lon="0.35566">
        <ele>121.8</ele>
        <time>2021-04-25T16:32:02Z</time>
      </trkpt>
      <trkpt lat="46.54672" lon="0.35571">
        <ele>122.8</ele>
        <time>2021-04-25T16:32:08Z</time>
      </trkpt>
      <trkpt lat="46.54668" lon="0.35574">
        <ele>123.6</ele>
        <time>2021-04-25T16:32:12Z</time>
      </trkpt>
      <trkpt lat="46.54667" lon="0.35575">
        <ele>124</ele>
        <time>2021-04-25T16:32:13Z</time>
      </trkpt>
      <trkpt lat="46.54667" lon="0.35577">
        <ele>124.4</ele>
        <time>2021-04-25T16:32:15Z</time>
      </trkpt>
      <trkpt lat="46.54666" lon="0.35578">
        <ele>124.4</ele>
        <time>2021-04-25T16:32:16Z</time>
      </trkpt>
      <trkpt lat="46.54666" lon="0.35579">
        <ele>124.6</ele>
        <time>2021-04-25T16:32:17Z</time>
      </trkpt>
      <trkpt lat="46.54664" lon="0.35583">
        <ele>125</ele>
        <time>2021-04-25T16:32:20Z</time>
      </trkpt>
      <trkpt lat="46.54661" lon="0.35585">
        <ele>125.4</ele>
        <time>2021-04-25T16:32:23Z</time>
      </trkpt>
      <trkpt lat="46.54659" lon="0.35587">
        <ele>125.8</ele>
        <time>2021-04-25T16:32:25Z</time>
      </trkpt>
      <trkpt lat="46.54657" lon="0.35588">
        <ele>126.2</ele>
        <time>2021-04-25T16:32:27Z</time>
      </trkpt>
      <trkpt lat="46.54655" lon="0.3559">
        <ele>126.6</ele>
        <time>2021-04-25T16:32:29Z</time>
      </trkpt>
      <trkpt lat="46.54651" lon="0.35593">
        <ele>127</ele>
        <time>2021-04-25T16:32:32Z</time>
      </trkpt>
      <trkpt lat="46.54649" lon="0.35595">
        <ele>127.2</ele>
        <time>2021-04-25T16:32:34Z</time>
      </trkpt>
      <trkpt lat="46.54643" lon="0.356">
        <ele>128.2</ele>
        <time>2021-04-25T16:32:39Z</time>
      </trkpt>
      <trkpt lat="46.54642" lon="0.35601">
        <ele>128.4</ele>
        <time>2021-04-25T16:32:40Z</time>
      </trkpt>
      <trkpt lat="46.54637" lon="0.35608">
        <ele>129.6</ele>
        <time>2021-04-25T16:32:46Z</time>
      </trkpt>
      <trkpt lat="46.5463" lon="0.35611">
        <ele>130.8</ele>
        <time>2021-04-25T16:32:52Z</time>
      </trkpt>
      <trkpt lat="46.54629" lon="0.35611">
        <ele>131.2</ele>
        <time>2021-04-25T16:32:53Z</time>
      </trkpt>
      <trkpt lat="46.54625" lon="0.35613">
        <ele>132</ele>
        <time>2021-04-25T16:32:56Z</time>
      </trkpt>
      <trkpt lat="46.5462" lon="0.35616">
        <ele>133.2</ele>
        <time>2021-04-25T16:33:01Z</time>
      </trkpt>
      <trkpt lat="46.54616" lon="0.35618">
        <ele>133.8</ele>
        <time>2021-04-25T16:33:04Z</time>
      </trkpt>
      <trkpt lat="46.54612" lon="0.35619">
        <ele>134.4</ele>
        <time>2021-04-25T16:33:07Z</time>
      </trkpt>
      <trkpt lat="46.54604" lon="0.3562">
        <ele>135.4</ele>
        <time>2021-04-25T16:33:13Z</time>
      </trkpt>
      <trkpt lat="46.54596" lon="0.35621">
        <ele>136.6</ele>
        <time>2021-04-25T16:33:19Z</time>
      </trkpt>
      <trkpt lat="46.54595" lon="0.35621">
        <ele>136.8</ele>
        <time>2021-04-25T16:33:20Z</time>
      </trkpt>
      <trkpt lat="46.54593" lon="0.35622">
        <ele>137</ele>
        <time>2021-04-25T16:33:22Z</time>
      </trkpt>
      <trkpt lat="46.5459" lon="0.35621">
        <ele>137.4</ele>
        <time>2021-04-25T16:33:24Z</time>
      </trkpt>
      <trkpt lat="46.54588" lon="0.35622">
        <ele>137.6</ele>
        <time>2021-04-25T16:33:26Z</time>
      </trkpt>
      <trkpt lat="46.54588" lon="0.35623">
        <ele>137.8</ele>
        <time>2021-04-25T16:33:27Z</time>
      </trkpt>
      <trkpt lat="46.54586" lon="0.35625">
        <ele>138.4</ele>
        <time>2021-04-25T16:33:29Z</time>
      </trkpt>
      <trkpt lat="46.54584" lon="0.35627">
        <ele>138.8</ele>
        <time>2021-04-25T16:33:31Z</time>
      </trkpt>
      <trkpt lat="46.54582" lon="0.35628">
        <ele>139.2</ele>
        <time>2021-04-25T16:33:33Z</time>
      </trkpt>
      <trkpt lat="46.54577" lon="0.35627">
        <ele>139.6</ele>
        <time>2021-04-25T16:33:38Z</time>
      </trkpt>
      <trkpt lat="46.54576" lon="0.35626">
        <ele>139.8</ele>
        <time>2021-04-25T16:33:40Z</time>
      </trkpt>
      <trkpt lat="46.54569" lon="0.35619">
        <ele>141</ele>
        <time>2021-04-25T16:33:49Z</time>
      </trkpt>
      <trkpt lat="46.54564" lon="0.35613">
        <ele>141.8</ele>
        <time>2021-04-25T16:33:54Z</time>
      </trkpt>
      <trkpt lat="46.54563" lon="0.35611">
        <ele>142</ele>
        <time>2021-04-25T16:33:55Z</time>
      </trkpt>
      <trkpt lat="46.54556" lon="0.35602">
        <ele>142.6</ele>
        <time>2021-04-25T16:34:01Z</time>
      </trkpt>
      <trkpt lat="46.54552" lon="0.35597">
        <ele>143</ele>
        <time>2021-04-25T16:34:04Z</time>
      </trkpt>
      <trkpt lat="46.54542" lon="0.35588">
        <ele>144.2</ele>
        <time>2021-04-25T16:34:11Z</time>
      </trkpt>
      <trkpt lat="46.54538" lon="0.35582">
        <ele>144.6</ele>
        <time>2021-04-25T16:34:14Z</time>
      </trkpt>
      <trkpt lat="46.54532" lon="0.35571">
        <ele>145.4</ele>
        <time>2021-04-25T16:34:19Z</time>
      </trkpt>
      <trkpt lat="46.54525" lon="0.35559">
        <ele>146</ele>
        <time>2021-04-25T16:34:24Z</time>
      </trkpt>
      <trkpt lat="46.54524" lon="0.35558">
        <ele>146</ele>
        <time>2021-04-25T16:34:25Z</time>
      </trkpt>
      <trkpt lat="46.54522" lon="0.35557">
        <ele>146.2</ele>
        <time>2021-04-25T16:34:26Z</time>
      </trkpt>
      <trkpt lat="46.54516" lon="0.35555">
        <ele>146.6</ele>
        <time>2021-04-25T16:34:29Z</time>
      </trkpt>
      <trkpt lat="46.54511" lon="0.35555">
        <ele>147.4</ele>
        <time>2021-04-25T16:34:32Z</time>
      </trkpt>
      <trkpt lat="46.54506" lon="0.35557">
        <ele>147.6</ele>
        <time>2021-04-25T16:34:35Z</time>
      </trkpt>
      <trkpt lat="46.54498" lon="0.35556">
        <ele>148</ele>
        <time>2021-04-25T16:34:39Z</time>
      </trkpt>
      <trkpt lat="46.54485" lon="0.35555">
        <ele>148.8</ele>
        <time>2021-04-25T16:34:45Z</time>
      </trkpt>
      <trkpt lat="46.54482" lon="0.35555">
        <ele>149.2</ele>
        <time>2021-04-25T16:34:47Z</time>
      </trkpt>
      <trkpt lat="46.5447" lon="0.35555">
        <ele>150</ele>
        <time>2021-04-25T16:34:53Z</time>
      </trkpt>
      <trkpt lat="46.54467" lon="0.35554">
        <ele>150</ele>
        <time>2021-04-25T16:34:55Z</time>
      </trkpt>
      <trkpt lat="46.54452" lon="0.35548">
        <ele>150.2</ele>
        <time>2021-04-25T16:35:02Z</time>
      </trkpt>
      <trkpt lat="46.5444" lon="0.35537">
        <ele>151</ele>
        <time>2021-04-25T16:35:08Z</time>
      </trkpt>
      <trkpt lat="46.54426" lon="0.35528">
        <ele>151.4</ele>
        <time>2021-04-25T16:35:14Z</time>
      </trkpt>
      <trkpt lat="46.54412" lon="0.35514">
        <ele>151.6</ele>
        <time>2021-04-25T16:35:20Z</time>
      </trkpt>
      <trkpt lat="46.5441" lon="0.35512">
        <ele>151.6</ele>
        <time>2021-04-25T16:35:21Z</time>
      </trkpt>
      <trkpt lat="46.54401" lon="0.35505">
        <ele>152</ele>
        <time>2021-04-25T16:35:24Z</time>
      </trkpt>
      <trkpt lat="46.54398" lon="0.35503">
        <ele>152</ele>
        <time>2021-04-25T16:35:25Z</time>
      </trkpt>
      <trkpt lat="46.5438" lon="0.35488">
        <ele>152.4</ele>
        <time>2021-04-25T16:35:31Z</time>
      </trkpt>
      <trkpt lat="46.54372" lon="0.35471">
        <ele>153</ele>
        <time>2021-04-25T16:35:36Z</time>
      </trkpt>
      <trkpt lat="46.54367" lon="0.35466">
        <ele>153.2</ele>
        <time>2021-04-25T16:35:38Z</time>
      </trkpt>
      <trkpt lat="46.54361" lon="0.35451">
        <ele>153.2</ele>
        <time>2021-04-25T16:35:41Z</time>
      </trkpt>
      <trkpt lat="46.54359" lon="0.35446">
        <ele>153.2</ele>
        <time>2021-04-25T16:35:42Z</time>
      </trkpt>
      <trkpt lat="46.54359" lon="0.35436">
        <ele>153.2</ele>
        <time>2021-04-25T16:35:44Z</time>
      </trkpt>
      <trkpt lat="46.54358" lon="0.35428">
        <ele>153.2</ele>
        <time>2021-04-25T16:35:46Z</time>
      </trkpt>
      <trkpt lat="46.54356" lon="0.35423">
        <ele>153.2</ele>
        <time>2021-04-25T16:35:48Z</time>
      </trkpt>
      <trkpt lat="46.54355" lon="0.35419">
        <ele>153.4</ele>
        <time>2021-04-25T16:35:50Z</time>
      </trkpt>
      <trkpt lat="46.54355" lon="0.35416">
        <ele>153.4</ele>
        <time>2021-04-25T16:35:52Z</time>
      </trkpt>
      <trkpt lat="46.54355" lon="0.35411">
        <ele>153.4</ele>
        <time>2021-04-25T16:35:54Z</time>
      </trkpt>
      <trkpt lat="46.54356" lon="0.35404">
        <ele>153.2</ele>
        <time>2021-04-25T16:36:01Z</time>
      </trkpt>
      <trkpt lat="46.54352" lon="0.35406">
        <ele>153.2</ele>
        <time>2021-04-25T16:36:03Z</time>
      </trkpt>
      <trkpt lat="46.54346" lon="0.35406">
        <ele>153.4</ele>
        <time>2021-04-25T16:36:06Z</time>
      </trkpt>
      <trkpt lat="46.54334" lon="0.35401">
        <ele>153.4</ele>
        <time>2021-04-25T16:36:11Z</time>
      </trkpt>
      <trkpt lat="46.54318" lon="0.35394">
        <ele>153.4</ele>
        <time>2021-04-25T16:36:16Z</time>
      </trkpt>
      <trkpt lat="46.54301" lon="0.35393">
        <ele>153.8</ele>
        <time>2021-04-25T16:36:21Z</time>
      </trkpt>
      <trkpt lat="46.54286" lon="0.3539">
        <ele>154.2</ele>
        <time>2021-04-25T16:36:25Z</time>
      </trkpt>
      <trkpt lat="46.54275" lon="0.3539">
        <ele>154.2</ele>
        <time>2021-04-25T16:36:28Z</time>
      </trkpt>
      <trkpt lat="46.5426" lon="0.35389">
        <ele>153.6</ele>
        <time>2021-04-25T16:36:33Z</time>
      </trkpt>
      <trkpt lat="46.54256" lon="0.35388">
        <ele>153.6</ele>
        <time>2021-04-25T16:36:34Z</time>
      </trkpt>
      <trkpt lat="46.54253" lon="0.35387">
        <ele>153.6</ele>
        <time>2021-04-25T16:36:35Z</time>
      </trkpt>
      <trkpt lat="46.54236" lon="0.35384">
        <ele>153.4</ele>
        <time>2021-04-25T16:36:39Z</time>
      </trkpt>
      <trkpt lat="46.5422" lon="0.35383">
        <ele>153</ele>
        <time>2021-04-25T16:36:43Z</time>
      </trkpt>
      <trkpt lat="46.54206" lon="0.35385">
        <ele>153</ele>
        <time>2021-04-25T16:36:46Z</time>
      </trkpt>
      <trkpt lat="46.54186" lon="0.35388">
        <ele>152.8</ele>
        <time>2021-04-25T16:36:50Z</time>
      </trkpt>
      <trkpt lat="46.54182" lon="0.35389">
        <ele>152.8</ele>
        <time>2021-04-25T16:36:51Z</time>
      </trkpt>
      <trkpt lat="46.54174" lon="0.35386">
        <ele>153</ele>
        <time>2021-04-25T16:36:52Z</time>
      </trkpt>
      <trkpt lat="46.54172" lon="0.35383">
        <ele>153</ele>
        <time>2021-04-25T16:36:54Z</time>
      </trkpt>
      <trkpt lat="46.54169" lon="0.35378">
        <ele>153</ele>
        <time>2021-04-25T16:36:55Z</time>
      </trkpt>
      <trkpt lat="46.54166" lon="0.35373">
        <ele>152.4</ele>
        <time>2021-04-25T16:36:57Z</time>
      </trkpt>
      <trkpt lat="46.54162" lon="0.35365">
        <ele>152</ele>
        <time>2021-04-25T16:36:59Z</time>
      </trkpt>
      <trkpt lat="46.54157" lon="0.35354">
        <ele>151.6</ele>
        <time>2021-04-25T16:37:01Z</time>
      </trkpt>
      <trkpt lat="46.54155" lon="0.35347">
        <ele>151.4</ele>
        <time>2021-04-25T16:37:02Z</time>
      </trkpt>
      <trkpt lat="46.54152" lon="0.35334">
        <ele>150.4</ele>
        <time>2021-04-25T16:37:04Z</time>
      </trkpt>
      <trkpt lat="46.5415" lon="0.35327">
        <ele>149.8</ele>
        <time>2021-04-25T16:37:05Z</time>
      </trkpt>
      <trkpt lat="46.54149" lon="0.3532">
        <ele>149.6</ele>
        <time>2021-04-25T16:37:06Z</time>
      </trkpt>
      <trkpt lat="46.54149" lon="0.35311">
        <ele>149.4</ele>
        <time>2021-04-25T16:37:07Z</time>
      </trkpt>
      <trkpt lat="46.5415" lon="0.35279">
        <ele>148.6</ele>
        <time>2021-04-25T16:37:11Z</time>
      </trkpt>
      <trkpt lat="46.54152" lon="0.35255">
        <ele>148.2</ele>
        <time>2021-04-25T16:37:14Z</time>
      </trkpt>
      <trkpt lat="46.54156" lon="0.35234">
        <ele>148.2</ele>
        <time>2021-04-25T16:37:17Z</time>
      </trkpt>
      <trkpt lat="46.54165" lon="0.35187">
        <ele>148</ele>
        <time>2021-04-25T16:37:23Z</time>
      </trkpt>
      <trkpt lat="46.54177" lon="0.35129">
        <ele>147.8</ele>
        <time>2021-04-25T16:37:31Z</time>
      </trkpt>
      <trkpt lat="46.54191" lon="0.35083">
        <ele>147.2</ele>
        <time>2021-04-25T16:37:38Z</time>
      </trkpt>
      <trkpt lat="46.54197" lon="0.35065">
        <ele>146.8</ele>
        <time>2021-04-25T16:37:41Z</time>
      </trkpt>
      <trkpt lat="46.542" lon="0.35052">
        <ele>146.8</ele>
        <time>2021-04-25T16:37:43Z</time>
      </trkpt>
      <trkpt lat="46.54201" lon="0.35046">
        <ele>146.8</ele>
        <time>2021-04-25T16:37:44Z</time>
      </trkpt>
      <trkpt lat="46.54202" lon="0.35032">
        <ele>146.6</ele>
        <time>2021-04-25T16:37:46Z</time>
      </trkpt>
      <trkpt lat="46.54202" lon="0.35016">
        <ele>146.6</ele>
        <time>2021-04-25T16:37:48Z</time>
      </trkpt>
      <trkpt lat="46.54201" lon="0.34967">
        <ele>147.6</ele>
        <time>2021-04-25T16:37:55Z</time>
      </trkpt>
      <trkpt lat="46.542" lon="0.34954">
        <ele>148</ele>
        <time>2021-04-25T16:37:57Z</time>
      </trkpt>
      <trkpt lat="46.54201" lon="0.34941">
        <ele>148.4</ele>
        <time>2021-04-25T16:37:59Z</time>
      </trkpt>
      <trkpt lat="46.54201" lon="0.34935">
        <ele>148.4</ele>
        <time>2021-04-25T16:38:00Z</time>
      </trkpt>
      <trkpt lat="46.54203" lon="0.34905">
        <ele>149.4</ele>
        <time>2021-04-25T16:38:05Z</time>
      </trkpt>
      <trkpt lat="46.54203" lon="0.34899">
        <ele>149.8</ele>
        <time>2021-04-25T16:38:06Z</time>
      </trkpt>
      <trkpt lat="46.54202" lon="0.34881">
        <ele>150.6</ele>
        <time>2021-04-25T16:38:09Z</time>
      </trkpt>
      <trkpt lat="46.542" lon="0.34865">
        <ele>151</ele>
        <time>2021-04-25T16:38:12Z</time>
      </trkpt>
      <trkpt lat="46.54191" lon="0.34826">
        <ele>150.6</ele>
        <time>2021-04-25T16:38:19Z</time>
      </trkpt>
      <trkpt lat="46.5419" lon="0.34814">
        <ele>150.4</ele>
        <time>2021-04-25T16:38:21Z</time>
      </trkpt>
      <trkpt lat="46.5419" lon="0.34798">
        <ele>150</ele>
        <time>2021-04-25T16:38:23Z</time>
      </trkpt>
      <trkpt lat="46.54191" lon="0.3479">
        <ele>149.8</ele>
        <time>2021-04-25T16:38:24Z</time>
      </trkpt>
      <trkpt lat="46.54192" lon="0.34784">
        <ele>149.4</ele>
        <time>2021-04-25T16:38:25Z</time>
      </trkpt>
      <trkpt lat="46.54194" lon="0.34772">
        <ele>149.2</ele>
        <time>2021-04-25T16:38:27Z</time>
      </trkpt>
      <trkpt lat="46.54195" lon="0.34768">
        <ele>149.2</ele>
        <time>2021-04-25T16:38:28Z</time>
      </trkpt>
      <trkpt lat="46.54197" lon="0.34763">
        <ele>149.2</ele>
        <time>2021-04-25T16:38:29Z</time>
      </trkpt>
      <trkpt lat="46.54198" lon="0.34747">
        <ele>149.2</ele>
        <time>2021-04-25T16:38:33Z</time>
      </trkpt>
      <trkpt lat="46.54198" lon="0.34743">
        <ele>149.2</ele>
        <time>2021-04-25T16:38:34Z</time>
      </trkpt>
      <trkpt lat="46.54199" lon="0.3474">
        <ele>149.2</ele>
        <time>2021-04-25T16:38:36Z</time>
      </trkpt>
      <trkpt lat="46.54198" lon="0.3474">
        <ele>149.2</ele>
        <time>2021-04-25T16:38:37Z</time>
      </trkpt>
      <trkpt lat="46.54195" lon="0.3474">
        <ele>149.2</ele>
        <time>2021-04-25T16:38:40Z</time>
      </trkpt>
      <trkpt lat="46.54194" lon="0.3473">
        <ele>149.2</ele>
        <time>2021-04-25T16:38:44Z</time>
      </trkpt>
      <trkpt lat="46.54187" lon="0.34728">
        <ele>148.4</ele>
        <time>2021-04-25T16:38:47Z</time>
      </trkpt>
      <trkpt lat="46.54185" lon="0.34729">
        <ele>148.2</ele>
        <time>2021-04-25T16:38:48Z</time>
      </trkpt>
      <trkpt lat="46.54171" lon="0.34739">
        <ele>147.2</ele>
        <time>2021-04-25T16:38:52Z</time>
      </trkpt>
      <trkpt lat="46.54167" lon="0.34742">
        <ele>147</ele>
        <time>2021-04-25T16:38:53Z</time>
      </trkpt>
      <trkpt lat="46.54152" lon="0.34754">
        <ele>145.6</ele>
        <time>2021-04-25T16:38:56Z</time>
      </trkpt>
      <trkpt lat="46.54146" lon="0.3476">
        <ele>145.4</ele>
        <time>2021-04-25T16:38:57Z</time>
      </trkpt>
      <trkpt lat="46.5414" lon="0.34764">
        <ele>144.8</ele>
        <time>2021-04-25T16:38:58Z</time>
      </trkpt>
      <trkpt lat="46.54132" lon="0.34769">
        <ele>144.4</ele>
        <time>2021-04-25T16:38:59Z</time>
      </trkpt>
      <trkpt lat="46.54115" lon="0.34781">
        <ele>143</ele>
        <time>2021-04-25T16:39:01Z</time>
      </trkpt>
      <trkpt lat="46.54087" lon="0.34798">
        <ele>141.6</ele>
        <time>2021-04-25T16:39:04Z</time>
      </trkpt>
      <trkpt lat="46.54067" lon="0.34811">
        <ele>140.2</ele>
        <time>2021-04-25T16:39:06Z</time>
      </trkpt>
      <trkpt lat="46.54057" lon="0.34817">
        <ele>139.2</ele>
        <time>2021-04-25T16:39:07Z</time>
      </trkpt>
      <trkpt lat="46.54036" lon="0.34832">
        <ele>137.8</ele>
        <time>2021-04-25T16:39:09Z</time>
      </trkpt>
      <trkpt lat="46.54015" lon="0.34847">
        <ele>136.6</ele>
        <time>2021-04-25T16:39:11Z</time>
      </trkpt>
      <trkpt lat="46.53994" lon="0.34861">
        <ele>135.4</ele>
        <time>2021-04-25T16:39:13Z</time>
      </trkpt>
      <trkpt lat="46.53964" lon="0.34881">
        <ele>134.2</ele>
        <time>2021-04-25T16:39:16Z</time>
      </trkpt>
      <trkpt lat="46.53937" lon="0.349">
        <ele>133</ele>
        <time>2021-04-25T16:39:19Z</time>
      </trkpt>
      <trkpt lat="46.53916" lon="0.34915">
        <ele>132.2</ele>
        <time>2021-04-25T16:39:22Z</time>
      </trkpt>
      <trkpt lat="46.53904" lon="0.34925">
        <ele>132.2</ele>
        <time>2021-04-25T16:39:24Z</time>
      </trkpt>
      <trkpt lat="46.53894" lon="0.34931">
        <ele>132.4</ele>
        <time>2021-04-25T16:39:26Z</time>
      </trkpt>
      <trkpt lat="46.53886" lon="0.34931">
        <ele>132.6</ele>
        <time>2021-04-25T16:39:28Z</time>
      </trkpt>
      <trkpt lat="46.53881" lon="0.34921">
        <ele>132.8</ele>
        <time>2021-04-25T16:39:30Z</time>
      </trkpt>
      <trkpt lat="46.5388" lon="0.34915">
        <ele>132.8</ele>
        <time>2021-04-25T16:39:31Z</time>
      </trkpt>
      <trkpt lat="46.53877" lon="0.34883">
        <ele>131.6</ele>
        <time>2021-04-25T16:39:35Z</time>
      </trkpt>
      <trkpt lat="46.53876" lon="0.34865">
        <ele>131.2</ele>
        <time>2021-04-25T16:39:37Z</time>
      </trkpt>
      <trkpt lat="46.53874" lon="0.34836">
        <ele>130</ele>
        <time>2021-04-25T16:39:40Z</time>
      </trkpt>
      <trkpt lat="46.53871" lon="0.34806">
        <ele>128.8</ele>
        <time>2021-04-25T16:39:43Z</time>
      </trkpt>
      <trkpt lat="46.5387" lon="0.34795">
        <ele>128.4</ele>
        <time>2021-04-25T16:39:44Z</time>
      </trkpt>
      <trkpt lat="46.53867" lon="0.34764">
        <ele>127.8</ele>
        <time>2021-04-25T16:39:47Z</time>
      </trkpt>
      <trkpt lat="46.53866" lon="0.34721">
        <ele>127.2</ele>
        <time>2021-04-25T16:39:51Z</time>
      </trkpt>
      <trkpt lat="46.53866" lon="0.34699">
        <ele>126.6</ele>
        <time>2021-04-25T16:39:53Z</time>
      </trkpt>
      <trkpt lat="46.53868" lon="0.34658">
        <ele>126.2</ele>
        <time>2021-04-25T16:39:57Z</time>
      </trkpt>
      <trkpt lat="46.53869" lon="0.34628">
        <ele>125.6</ele>
        <time>2021-04-25T16:40:00Z</time>
      </trkpt>
      <trkpt lat="46.53868" lon="0.34592">
        <ele>125.2</ele>
        <time>2021-04-25T16:40:04Z</time>
      </trkpt>
      <trkpt lat="46.53861" lon="0.34539">
        <ele>124.4</ele>
        <time>2021-04-25T16:40:10Z</time>
      </trkpt>
      <trkpt lat="46.53858" lon="0.34523">
        <ele>123.4</ele>
        <time>2021-04-25T16:40:12Z</time>
      </trkpt>
      <trkpt lat="46.53851" lon="0.34504">
        <ele>122.6</ele>
        <time>2021-04-25T16:40:15Z</time>
      </trkpt>
      <trkpt lat="46.53844" lon="0.34495">
        <ele>122.2</ele>
        <time>2021-04-25T16:40:17Z</time>
      </trkpt>
      <trkpt lat="46.53839" lon="0.34493">
        <ele>122</ele>
        <time>2021-04-25T16:40:18Z</time>
      </trkpt>
      <trkpt lat="46.53802" lon="0.34482">
        <ele>121.4</ele>
        <time>2021-04-25T16:40:26Z</time>
      </trkpt>
      <trkpt lat="46.53793" lon="0.3448">
        <ele>121.2</ele>
        <time>2021-04-25T16:40:28Z</time>
      </trkpt>
      <trkpt lat="46.53782" lon="0.34479">
        <ele>121.2</ele>
        <time>2021-04-25T16:40:31Z</time>
      </trkpt>
      <trkpt lat="46.53752" lon="0.34471">
        <ele>121</ele>
        <time>2021-04-25T16:40:39Z</time>
      </trkpt>
      <trkpt lat="46.53732" lon="0.34464">
        <ele>121</ele>
        <time>2021-04-25T16:40:45Z</time>
      </trkpt>
      <trkpt lat="46.53728" lon="0.34462">
        <ele>121</ele>
        <time>2021-04-25T16:40:46Z</time>
      </trkpt>
      <trkpt lat="46.53696" lon="0.34443">
        <ele>120.2</ele>
        <time>2021-04-25T16:40:53Z</time>
      </trkpt>
      <trkpt lat="46.53686" lon="0.34438">
        <ele>120</ele>
        <time>2021-04-25T16:40:55Z</time>
      </trkpt>
      <trkpt lat="46.53645" lon="0.34421">
        <ele>119</ele>
        <time>2021-04-25T16:41:03Z</time>
      </trkpt>
      <trkpt lat="46.53607" lon="0.34414">
        <ele>119</ele>
        <time>2021-04-25T16:41:10Z</time>
      </trkpt>
      <trkpt lat="46.53591" lon="0.34414">
        <ele>118.8</ele>
        <time>2021-04-25T16:41:13Z</time>
      </trkpt>
      <trkpt lat="46.53576" lon="0.34408">
        <ele>118</ele>
        <time>2021-04-25T16:41:16Z</time>
      </trkpt>
      <trkpt lat="46.53566" lon="0.34401">
        <ele>117.8</ele>
        <time>2021-04-25T16:41:18Z</time>
      </trkpt>
      <trkpt lat="46.53549" lon="0.34385">
        <ele>118.4</ele>
        <time>2021-04-25T16:41:22Z</time>
      </trkpt>
      <trkpt lat="46.53519" lon="0.34366">
        <ele>119.2</ele>
        <time>2021-04-25T16:41:29Z</time>
      </trkpt>
      <trkpt lat="46.53494" lon="0.34356">
        <ele>119.8</ele>
        <time>2021-04-25T16:41:35Z</time>
      </trkpt>
      <trkpt lat="46.53482" lon="0.34352">
        <ele>120.4</ele>
        <time>2021-04-25T16:41:38Z</time>
      </trkpt>
      <trkpt lat="46.5347" lon="0.34347">
        <ele>120.8</ele>
        <time>2021-04-25T16:41:41Z</time>
      </trkpt>
      <trkpt lat="46.53441" lon="0.34342">
        <ele>121.2</ele>
        <time>2021-04-25T16:41:48Z</time>
      </trkpt>
      <trkpt lat="46.53436" lon="0.34342">
        <ele>121.4</ele>
        <time>2021-04-25T16:41:49Z</time>
      </trkpt>
      <trkpt lat="46.53402" lon="0.34341">
        <ele>121.6</ele>
        <time>2021-04-25T16:41:56Z</time>
      </trkpt>
      <trkpt lat="46.53386" lon="0.34335">
        <ele>121.4</ele>
        <time>2021-04-25T16:41:59Z</time>
      </trkpt>
      <trkpt lat="46.53376" lon="0.34328">
        <ele>121.4</ele>
        <time>2021-04-25T16:42:01Z</time>
      </trkpt>
      <trkpt lat="46.53372" lon="0.34324">
        <ele>121.4</ele>
        <time>2021-04-25T16:42:02Z</time>
      </trkpt>
      <trkpt lat="46.53341" lon="0.34295">
        <ele>121.2</ele>
        <time>2021-04-25T16:42:09Z</time>
      </trkpt>
      <trkpt lat="46.53317" lon="0.34274">
        <ele>121.6</ele>
        <time>2021-04-25T16:42:15Z</time>
      </trkpt>
      <trkpt lat="46.53309" lon="0.34269">
        <ele>121.8</ele>
        <time>2021-04-25T16:42:17Z</time>
      </trkpt>
      <trkpt lat="46.53287" lon="0.34256">
        <ele>122.4</ele>
        <time>2021-04-25T16:42:22Z</time>
      </trkpt>
      <trkpt lat="46.53275" lon="0.34249">
        <ele>122.4</ele>
        <time>2021-04-25T16:42:25Z</time>
      </trkpt>
      <trkpt lat="46.53245" lon="0.34227">
        <ele>122.8</ele>
        <time>2021-04-25T16:42:32Z</time>
      </trkpt>
      <trkpt lat="46.53223" lon="0.34205">
        <ele>122.4</ele>
        <time>2021-04-25T16:42:38Z</time>
      </trkpt>
      <trkpt lat="46.53191" lon="0.34171">
        <ele>122.4</ele>
        <time>2021-04-25T16:42:46Z</time>
      </trkpt>
      <trkpt lat="46.53176" lon="0.34153">
        <ele>121.4</ele>
        <time>2021-04-25T16:42:50Z</time>
      </trkpt>
      <trkpt lat="46.53166" lon="0.34139">
        <ele>121.4</ele>
        <time>2021-04-25T16:42:53Z</time>
      </trkpt>
      <trkpt lat="46.53132" lon="0.34111">
        <ele>121.4</ele>
        <time>2021-04-25T16:43:01Z</time>
      </trkpt>
      <trkpt lat="46.53085" lon="0.34083">
        <ele>120.6</ele>
        <time>2021-04-25T16:43:10Z</time>
      </trkpt>
      <trkpt lat="46.53079" lon="0.34079">
        <ele>120.2</ele>
        <time>2021-04-25T16:43:11Z</time>
      </trkpt>
      <trkpt lat="46.53049" lon="0.34061">
        <ele>119</ele>
        <time>2021-04-25T16:43:16Z</time>
      </trkpt>
      <trkpt lat="46.53043" lon="0.34059">
        <ele>118.8</ele>
        <time>2021-04-25T16:43:17Z</time>
      </trkpt>
      <trkpt lat="46.53037" lon="0.34058">
        <ele>118.6</ele>
        <time>2021-04-25T16:43:18Z</time>
      </trkpt>
      <trkpt lat="46.53024" lon="0.34058">
        <ele>117.8</ele>
        <time>2021-04-25T16:43:20Z</time>
      </trkpt>
      <trkpt lat="46.53013" lon="0.34059">
        <ele>117.6</ele>
        <time>2021-04-25T16:43:22Z</time>
      </trkpt>
      <trkpt lat="46.52987" lon="0.34061">
        <ele>116.6</ele>
        <time>2021-04-25T16:43:27Z</time>
      </trkpt>
      <trkpt lat="46.52983" lon="0.3406">
        <ele>116.4</ele>
        <time>2021-04-25T16:43:28Z</time>
      </trkpt>
      <trkpt lat="46.52968" lon="0.34055">
        <ele>116</ele>
        <time>2021-04-25T16:43:31Z</time>
      </trkpt>
      <trkpt lat="46.52963" lon="0.34052">
        <ele>115.6</ele>
        <time>2021-04-25T16:43:32Z</time>
      </trkpt>
      <trkpt lat="46.52959" lon="0.34047">
        <ele>115.4</ele>
        <time>2021-04-25T16:43:33Z</time>
      </trkpt>
      <trkpt lat="46.52953" lon="0.34031">
        <ele>115</ele>
        <time>2021-04-25T16:43:35Z</time>
      </trkpt>
      <trkpt lat="46.52952" lon="0.34022">
        <ele>114.8</ele>
        <time>2021-04-25T16:43:36Z</time>
      </trkpt>
      <trkpt lat="46.5295" lon="0.34012">
        <ele>114.6</ele>
        <time>2021-04-25T16:43:37Z</time>
      </trkpt>
      <trkpt lat="46.52949" lon="0.33983">
        <ele>113.6</ele>
        <time>2021-04-25T16:43:40Z</time>
      </trkpt>
      <trkpt lat="46.52948" lon="0.33974">
        <ele>113.2</ele>
        <time>2021-04-25T16:43:41Z</time>
      </trkpt>
      <trkpt lat="46.52946" lon="0.33964">
        <ele>113</ele>
        <time>2021-04-25T16:43:42Z</time>
      </trkpt>
      <trkpt lat="46.52942" lon="0.33947">
        <ele>112.4</ele>
        <time>2021-04-25T16:43:44Z</time>
      </trkpt>
      <trkpt lat="46.52939" lon="0.33938">
        <ele>112.2</ele>
        <time>2021-04-25T16:43:45Z</time>
      </trkpt>
      <trkpt lat="46.52932" lon="0.33923">
        <ele>111.8</ele>
        <time>2021-04-25T16:43:47Z</time>
      </trkpt>
      <trkpt lat="46.52928" lon="0.33916">
        <ele>111.6</ele>
        <time>2021-04-25T16:43:48Z</time>
      </trkpt>
      <trkpt lat="46.52923" lon="0.33911">
        <ele>111.6</ele>
        <time>2021-04-25T16:43:49Z</time>
      </trkpt>
      <trkpt lat="46.5291" lon="0.33906">
        <ele>111.4</ele>
        <time>2021-04-25T16:43:51Z</time>
      </trkpt>
      <trkpt lat="46.52894" lon="0.33907">
        <ele>111.2</ele>
        <time>2021-04-25T16:43:54Z</time>
      </trkpt>
      <trkpt lat="46.52884" lon="0.33908">
        <ele>111.2</ele>
        <time>2021-04-25T16:43:56Z</time>
      </trkpt>
      <trkpt lat="46.52879" lon="0.33908">
        <ele>111.2</ele>
        <time>2021-04-25T16:43:57Z</time>
      </trkpt>
      <trkpt lat="46.52856" lon="0.33909">
        <ele>111</ele>
        <time>2021-04-25T16:44:02Z</time>
      </trkpt>
      <trkpt lat="46.52835" lon="0.33914">
        <ele>110.8</ele>
        <time>2021-04-25T16:44:06Z</time>
      </trkpt>
      <trkpt lat="46.52825" lon="0.33918">
        <ele>111</ele>
        <time>2021-04-25T16:44:08Z</time>
      </trkpt>
      <trkpt lat="46.52806" lon="0.33923">
        <ele>111.2</ele>
        <time>2021-04-25T16:44:12Z</time>
      </trkpt>
      <trkpt lat="46.52798" lon="0.33923">
        <ele>111.2</ele>
        <time>2021-04-25T16:44:14Z</time>
      </trkpt>
      <trkpt lat="46.52794" lon="0.33924">
        <ele>111.2</ele>
        <time>2021-04-25T16:44:15Z</time>
      </trkpt>
      <trkpt lat="46.52788" lon="0.33932">
        <ele>111</ele>
        <time>2021-04-25T16:44:17Z</time>
      </trkpt>
      <trkpt lat="46.52783" lon="0.33955">
        <ele>111.2</ele>
        <time>2021-04-25T16:44:21Z</time>
      </trkpt>
      <trkpt lat="46.52775" lon="0.33988">
        <ele>112.4</ele>
        <time>2021-04-25T16:44:26Z</time>
      </trkpt>
      <trkpt lat="46.52774" lon="0.33994">
        <ele>112.6</ele>
        <time>2021-04-25T16:44:27Z</time>
      </trkpt>
      <trkpt lat="46.52769" lon="0.34013">
        <ele>113.6</ele>
        <time>2021-04-25T16:44:31Z</time>
      </trkpt>
      <trkpt lat="46.52767" lon="0.34016">
        <ele>114</ele>
        <time>2021-04-25T16:44:32Z</time>
      </trkpt>
      <trkpt lat="46.52763" lon="0.34022">
        <ele>114.6</ele>
        <time>2021-04-25T16:44:34Z</time>
      </trkpt>
      <trkpt lat="46.52758" lon="0.34026">
        <ele>115.8</ele>
        <time>2021-04-25T16:44:37Z</time>
      </trkpt>
      <trkpt lat="46.52752" lon="0.3403">
        <ele>117</ele>
        <time>2021-04-25T16:44:40Z</time>
      </trkpt>
      <trkpt lat="46.52743" lon="0.34033">
        <ele>117.4</ele>
        <time>2021-04-25T16:44:44Z</time>
      </trkpt>
      <trkpt lat="46.52738" lon="0.34036">
        <ele>118.4</ele>
        <time>2021-04-25T16:44:47Z</time>
      </trkpt>
      <trkpt lat="46.5273" lon="0.34038">
        <ele>119.4</ele>
        <time>2021-04-25T16:44:51Z</time>
      </trkpt>
      <trkpt lat="46.52727" lon="0.34039">
        <ele>119.6</ele>
        <time>2021-04-25T16:44:52Z</time>
      </trkpt>
      <trkpt lat="46.52716" lon="0.34041">
        <ele>120.4</ele>
        <time>2021-04-25T16:44:57Z</time>
      </trkpt>
      <trkpt lat="46.52714" lon="0.34041">
        <ele>120.6</ele>
        <time>2021-04-25T16:44:58Z</time>
      </trkpt>
      <trkpt lat="46.52702" lon="0.34041">
        <ele>120.6</ele>
        <time>2021-04-25T16:45:03Z</time>
      </trkpt>
      <trkpt lat="46.5269" lon="0.3404">
        <ele>120.4</ele>
        <time>2021-04-25T16:45:07Z</time>
      </trkpt>
      <trkpt lat="46.52671" lon="0.34039">
        <ele>121</ele>
        <time>2021-04-25T16:45:14Z</time>
      </trkpt>
      <trkpt lat="46.52658" lon="0.34038">
        <ele>121.6</ele>
        <time>2021-04-25T16:45:19Z</time>
      </trkpt>
      <trkpt lat="46.52653" lon="0.34038">
        <ele>121.8</ele>
        <time>2021-04-25T16:45:21Z</time>
      </trkpt>
      <trkpt lat="46.52628" lon="0.34034">
        <ele>121.6</ele>
        <time>2021-04-25T16:45:29Z</time>
      </trkpt>
      <trkpt lat="46.52611" lon="0.34037">
        <ele>122.8</ele>
        <time>2021-04-25T16:45:35Z</time>
      </trkpt>
      <trkpt lat="46.52591" lon="0.34039">
        <ele>123.8</ele>
        <time>2021-04-25T16:45:42Z</time>
      </trkpt>
      <trkpt lat="46.52573" lon="0.34043">
        <ele>125</ele>
        <time>2021-04-25T16:45:49Z</time>
      </trkpt>
      <trkpt lat="46.52566" lon="0.34046">
        <ele>126</ele>
        <time>2021-04-25T16:45:52Z</time>
      </trkpt>
      <trkpt lat="46.52557" lon="0.34048">
        <ele>126.6</ele>
        <time>2021-04-25T16:45:56Z</time>
      </trkpt>
      <trkpt lat="46.52553" lon="0.34049">
        <ele>127.2</ele>
        <time>2021-04-25T16:45:58Z</time>
      </trkpt>
      <trkpt lat="46.52542" lon="0.3405">
        <ele>128.4</ele>
        <time>2021-04-25T16:46:02Z</time>
      </trkpt>
      <trkpt lat="46.52537" lon="0.34051">
        <ele>128.8</ele>
        <time>2021-04-25T16:46:04Z</time>
      </trkpt>
      <trkpt lat="46.52524" lon="0.34057">
        <ele>129.4</ele>
        <time>2021-04-25T16:46:09Z</time>
      </trkpt>
      <trkpt lat="46.52518" lon="0.34061">
        <ele>129.8</ele>
        <time>2021-04-25T16:46:11Z</time>
      </trkpt>
      <trkpt lat="46.52513" lon="0.34067">
        <ele>130.6</ele>
        <time>2021-04-25T16:46:14Z</time>
      </trkpt>
      <trkpt lat="46.52509" lon="0.34075">
        <ele>131</ele>
        <time>2021-04-25T16:46:17Z</time>
      </trkpt>
      <trkpt lat="46.52506" lon="0.3408">
        <ele>131.6</ele>
        <time>2021-04-25T16:46:19Z</time>
      </trkpt>
      <trkpt lat="46.52502" lon="0.3409">
        <ele>132.8</ele>
        <time>2021-04-25T16:46:23Z</time>
      </trkpt>
      <trkpt lat="46.52499" lon="0.34096">
        <ele>133.2</ele>
        <time>2021-04-25T16:46:26Z</time>
      </trkpt>
      <trkpt lat="46.52494" lon="0.34105">
        <ele>134</ele>
        <time>2021-04-25T16:46:30Z</time>
      </trkpt>
      <trkpt lat="46.52489" lon="0.34117">
        <ele>135</ele>
        <time>2021-04-25T16:46:36Z</time>
      </trkpt>
      <trkpt lat="46.52482" lon="0.34129">
        <ele>136</ele>
        <time>2021-04-25T16:46:42Z</time>
      </trkpt>
      <trkpt lat="46.5248" lon="0.34134">
        <ele>136.8</ele>
        <time>2021-04-25T16:46:45Z</time>
      </trkpt>
      <trkpt lat="46.52479" lon="0.34136">
        <ele>137.2</ele>
        <time>2021-04-25T16:46:46Z</time>
      </trkpt>
      <trkpt lat="46.52476" lon="0.34142">
        <ele>138.2</ele>
        <time>2021-04-25T16:46:49Z</time>
      </trkpt>
      <trkpt lat="46.52472" lon="0.34148">
        <ele>138.8</ele>
        <time>2021-04-25T16:46:52Z</time>
      </trkpt>
      <trkpt lat="46.52469" lon="0.34154">
        <ele>139.4</ele>
        <time>2021-04-25T16:46:55Z</time>
      </trkpt>
      <trkpt lat="46.52464" lon="0.34163">
        <ele>140.4</ele>
        <time>2021-04-25T16:47:00Z</time>
      </trkpt>
      <trkpt lat="46.52463" lon="0.34165">
        <ele>140.6</ele>
        <time>2021-04-25T16:47:01Z</time>
      </trkpt>
      <trkpt lat="46.52453" lon="0.34179">
        <ele>141.4</ele>
        <time>2021-04-25T16:47:09Z</time>
      </trkpt>
      <trkpt lat="46.52448" lon="0.34197">
        <ele>142.4</ele>
        <time>2021-04-25T16:47:16Z</time>
      </trkpt>
      <trkpt lat="46.52447" lon="0.342">
        <ele>142.6</ele>
        <time>2021-04-25T16:47:17Z</time>
      </trkpt>
      <trkpt lat="46.52442" lon="0.34215">
        <ele>143</ele>
        <time>2021-04-25T16:47:24Z</time>
      </trkpt>
      <trkpt lat="46.52436" lon="0.34237">
        <ele>143.6</ele>
        <time>2021-04-25T16:47:32Z</time>
      </trkpt>
      <trkpt lat="46.52434" lon="0.3425">
        <ele>143.8</ele>
        <time>2021-04-25T16:47:38Z</time>
      </trkpt>
      <trkpt lat="46.52432" lon="0.34256">
        <ele>144</ele>
        <time>2021-04-25T16:47:41Z</time>
      </trkpt>
      <trkpt lat="46.52429" lon="0.34259">
        <ele>144</ele>
        <time>2021-04-25T16:47:43Z</time>
      </trkpt>
      <trkpt lat="46.52416" lon="0.34265">
        <ele>143.8</ele>
        <time>2021-04-25T16:47:48Z</time>
      </trkpt>
      <trkpt lat="46.52412" lon="0.34267">
        <ele>143.6</ele>
        <time>2021-04-25T16:47:49Z</time>
      </trkpt>
      <trkpt lat="46.52403" lon="0.34272">
        <ele>142.6</ele>
        <time>2021-04-25T16:47:51Z</time>
      </trkpt>
      <trkpt lat="46.52395" lon="0.34276">
        <ele>140.8</ele>
        <time>2021-04-25T16:47:53Z</time>
      </trkpt>
      <trkpt lat="46.52386" lon="0.3428">
        <ele>139.8</ele>
        <time>2021-04-25T16:47:55Z</time>
      </trkpt>
      <trkpt lat="46.52375" lon="0.34287">
        <ele>138.6</ele>
        <time>2021-04-25T16:47:57Z</time>
      </trkpt>
      <trkpt lat="46.5237" lon="0.3429">
        <ele>137.8</ele>
        <time>2021-04-25T16:47:58Z</time>
      </trkpt>
      <trkpt lat="46.52363" lon="0.34292">
        <ele>137.4</ele>
        <time>2021-04-25T16:47:59Z</time>
      </trkpt>
      <trkpt lat="46.52356" lon="0.34294">
        <ele>137</ele>
        <time>2021-04-25T16:48:00Z</time>
      </trkpt>
      <trkpt lat="46.52348" lon="0.34295">
        <ele>136.4</ele>
        <time>2021-04-25T16:48:01Z</time>
      </trkpt>
      <trkpt lat="46.5234" lon="0.34295">
        <ele>135.8</ele>
        <time>2021-04-25T16:48:02Z</time>
      </trkpt>
      <trkpt lat="46.52326" lon="0.34294">
        <ele>134.6</ele>
        <time>2021-04-25T16:48:04Z</time>
      </trkpt>
      <trkpt lat="46.52323" lon="0.34296">
        <ele>134.6</ele>
        <time>2021-04-25T16:48:05Z</time>
      </trkpt>
      <trkpt lat="46.52316" lon="0.34304">
        <ele>133.2</ele>
        <time>2021-04-25T16:48:07Z</time>
      </trkpt>
      <trkpt lat="46.52308" lon="0.34314">
        <ele>131</ele>
        <time>2021-04-25T16:48:09Z</time>
      </trkpt>
      <trkpt lat="46.52296" lon="0.34327">
        <ele>129.6</ele>
        <time>2021-04-25T16:48:11Z</time>
      </trkpt>
      <trkpt lat="46.52281" lon="0.34337">
        <ele>129.2</ele>
        <time>2021-04-25T16:48:13Z</time>
      </trkpt>
      <trkpt lat="46.52274" lon="0.34341">
        <ele>128.8</ele>
        <time>2021-04-25T16:48:14Z</time>
      </trkpt>
      <trkpt lat="46.52268" lon="0.34342">
        <ele>128.4</ele>
        <time>2021-04-25T16:48:15Z</time>
      </trkpt>
      <trkpt lat="46.52261" lon="0.34343">
        <ele>127.6</ele>
        <time>2021-04-25T16:48:16Z</time>
      </trkpt>
      <trkpt lat="46.52255" lon="0.34344">
        <ele>127.2</ele>
        <time>2021-04-25T16:48:17Z</time>
      </trkpt>
      <trkpt lat="46.52249" lon="0.34344">
        <ele>127</ele>
        <time>2021-04-25T16:48:18Z</time>
      </trkpt>
      <trkpt lat="46.52236" lon="0.34343">
        <ele>126.4</ele>
        <time>2021-04-25T16:48:20Z</time>
      </trkpt>
      <trkpt lat="46.5223" lon="0.34341">
        <ele>126.2</ele>
        <time>2021-04-25T16:48:21Z</time>
      </trkpt>
      <trkpt lat="46.52203" lon="0.34334">
        <ele>125.4</ele>
        <time>2021-04-25T16:48:26Z</time>
      </trkpt>
      <trkpt lat="46.52189" lon="0.3433">
        <ele>125</ele>
        <time>2021-04-25T16:48:29Z</time>
      </trkpt>
      <trkpt lat="46.52178" lon="0.34324">
        <ele>125</ele>
        <time>2021-04-25T16:48:31Z</time>
      </trkpt>
      <trkpt lat="46.52161" lon="0.34313">
        <ele>124.2</ele>
        <time>2021-04-25T16:48:34Z</time>
      </trkpt>
      <trkpt lat="46.52156" lon="0.34311">
        <ele>124</ele>
        <time>2021-04-25T16:48:35Z</time>
      </trkpt>
      <trkpt lat="46.52152" lon="0.3431">
        <ele>124.2</ele>
        <time>2021-04-25T16:48:36Z</time>
      </trkpt>
      <trkpt lat="46.52145" lon="0.3431">
        <ele>124.4</ele>
        <time>2021-04-25T16:48:38Z</time>
      </trkpt>
      <trkpt lat="46.52139" lon="0.34311">
        <ele>125.6</ele>
        <time>2021-04-25T16:48:40Z</time>
      </trkpt>
      <trkpt lat="46.52131" lon="0.34312">
        <ele>126.8</ele>
        <time>2021-04-25T16:48:43Z</time>
      </trkpt>
      <trkpt lat="46.52119" lon="0.34311">
        <ele>127</ele>
        <time>2021-04-25T16:48:47Z</time>
      </trkpt>
      <trkpt lat="46.521" lon="0.34316">
        <ele>127</ele>
        <time>2021-04-25T16:48:52Z</time>
      </trkpt>
      <trkpt lat="46.52073" lon="0.34319">
        <ele>125.6</ele>
        <time>2021-04-25T16:48:57Z</time>
      </trkpt>
      <trkpt lat="46.52067" lon="0.34321">
        <ele>125.4</ele>
        <time>2021-04-25T16:48:58Z</time>
      </trkpt>
      <trkpt lat="46.52054" lon="0.34325">
        <ele>124.6</ele>
        <time>2021-04-25T16:49:00Z</time>
      </trkpt>
      <trkpt lat="46.52038" lon="0.34329">
        <ele>123.4</ele>
        <time>2021-04-25T16:49:02Z</time>
      </trkpt>
      <trkpt lat="46.52031" lon="0.34332">
        <ele>122.8</ele>
        <time>2021-04-25T16:49:03Z</time>
      </trkpt>
      <trkpt lat="46.52012" lon="0.34343">
        <ele>122.4</ele>
        <time>2021-04-25T16:49:06Z</time>
      </trkpt>
      <trkpt lat="46.52007" lon="0.34345">
        <ele>122.4</ele>
        <time>2021-04-25T16:49:07Z</time>
      </trkpt>
      <trkpt lat="46.51995" lon="0.34354">
        <ele>123.4</ele>
        <time>2021-04-25T16:49:10Z</time>
      </trkpt>
      <trkpt lat="46.51992" lon="0.34356">
        <ele>123.8</ele>
        <time>2021-04-25T16:49:11Z</time>
      </trkpt>
      <trkpt lat="46.5199" lon="0.34358">
        <ele>124.6</ele>
        <time>2021-04-25T16:49:12Z</time>
      </trkpt>
      <trkpt lat="46.51982" lon="0.34364">
        <ele>125.6</ele>
        <time>2021-04-25T16:49:15Z</time>
      </trkpt>
      <trkpt lat="46.51974" lon="0.34366">
        <ele>126.8</ele>
        <time>2021-04-25T16:49:18Z</time>
      </trkpt>
      <trkpt lat="46.51969" lon="0.3437">
        <ele>128</ele>
        <time>2021-04-25T16:49:21Z</time>
      </trkpt>
      <trkpt lat="46.51962" lon="0.34374">
        <ele>129.2</ele>
        <time>2021-04-25T16:49:24Z</time>
      </trkpt>
      <trkpt lat="46.51954" lon="0.3438">
        <ele>130.4</ele>
        <time>2021-04-25T16:49:27Z</time>
      </trkpt>
      <trkpt lat="46.51944" lon="0.34388">
        <ele>131.2</ele>
        <time>2021-04-25T16:49:31Z</time>
      </trkpt>
      <trkpt lat="46.5194" lon="0.34393">
        <ele>131.4</ele>
        <time>2021-04-25T16:49:33Z</time>
      </trkpt>
      <trkpt lat="46.5193" lon="0.34402">
        <ele>132.6</ele>
        <time>2021-04-25T16:49:38Z</time>
      </trkpt>
      <trkpt lat="46.5192" lon="0.34412">
        <ele>133.6</ele>
        <time>2021-04-25T16:49:44Z</time>
      </trkpt>
      <trkpt lat="46.51915" lon="0.34416">
        <ele>134.2</ele>
        <time>2021-04-25T16:49:47Z</time>
      </trkpt>
      <trkpt lat="46.51914" lon="0.34418">
        <ele>134.6</ele>
        <time>2021-04-25T16:49:48Z</time>
      </trkpt>
      <trkpt lat="46.51905" lon="0.34424">
        <ele>135.8</ele>
        <time>2021-04-25T16:49:54Z</time>
      </trkpt>
      <trkpt lat="46.51902" lon="0.34426">
        <ele>136</ele>
        <time>2021-04-25T16:49:56Z</time>
      </trkpt>
      <trkpt lat="46.51898" lon="0.34429">
        <ele>136.8</ele>
        <time>2021-04-25T16:49:59Z</time>
      </trkpt>
      <trkpt lat="46.51891" lon="0.34435">
        <ele>137.6</ele>
        <time>2021-04-25T16:50:04Z</time>
      </trkpt>
      <trkpt lat="46.5189" lon="0.34435">
        <ele>137.8</ele>
        <time>2021-04-25T16:50:05Z</time>
      </trkpt>
      <trkpt lat="46.51882" lon="0.34439">
        <ele>138.8</ele>
        <time>2021-04-25T16:50:11Z</time>
      </trkpt>
      <trkpt lat="46.51881" lon="0.34441">
        <ele>139</ele>
        <time>2021-04-25T16:50:12Z</time>
      </trkpt>
      <trkpt lat="46.51873" lon="0.34447">
        <ele>140.2</ele>
        <time>2021-04-25T16:50:18Z</time>
      </trkpt>
      <trkpt lat="46.51872" lon="0.34448">
        <ele>140.4</ele>
        <time>2021-04-25T16:50:19Z</time>
      </trkpt>
      <trkpt lat="46.51866" lon="0.34455">
        <ele>141.2</ele>
        <time>2021-04-25T16:50:24Z</time>
      </trkpt>
      <trkpt lat="46.51864" lon="0.34456">
        <ele>141.4</ele>
        <time>2021-04-25T16:50:25Z</time>
      </trkpt>
      <trkpt lat="46.51858" lon="0.34462">
        <ele>142.6</ele>
        <time>2021-04-25T16:50:30Z</time>
      </trkpt>
      <trkpt lat="46.51856" lon="0.34464">
        <ele>142.8</ele>
        <time>2021-04-25T16:50:32Z</time>
      </trkpt>
      <trkpt lat="46.51851" lon="0.34471">
        <ele>143.6</ele>
        <time>2021-04-25T16:50:36Z</time>
      </trkpt>
      <trkpt lat="46.51848" lon="0.34475">
        <ele>144</ele>
        <time>2021-04-25T16:50:39Z</time>
      </trkpt>
      <trkpt lat="46.51842" lon="0.3448">
        <ele>144.8</ele>
        <time>2021-04-25T16:50:43Z</time>
      </trkpt>
      <trkpt lat="46.51839" lon="0.34485">
        <ele>145.6</ele>
        <time>2021-04-25T16:50:46Z</time>
      </trkpt>
      <trkpt lat="46.51835" lon="0.34489">
        <ele>145.8</ele>
        <time>2021-04-25T16:50:49Z</time>
      </trkpt>
      <trkpt lat="46.51831" lon="0.34493">
        <ele>146</ele>
        <time>2021-04-25T16:50:52Z</time>
      </trkpt>
      <trkpt lat="46.51827" lon="0.34498">
        <ele>147</ele>
        <time>2021-04-25T16:50:55Z</time>
      </trkpt>
      <trkpt lat="46.51821" lon="0.34503">
        <ele>147.6</ele>
        <time>2021-04-25T16:50:59Z</time>
      </trkpt>
      <trkpt lat="46.51815" lon="0.34509">
        <ele>148</ele>
        <time>2021-04-25T16:51:03Z</time>
      </trkpt>
      <trkpt lat="46.51809" lon="0.34515">
        <ele>149.2</ele>
        <time>2021-04-25T16:51:07Z</time>
      </trkpt>
      <trkpt lat="46.51807" lon="0.34516">
        <ele>149.2</ele>
        <time>2021-04-25T16:51:08Z</time>
      </trkpt>
      <trkpt lat="46.51795" lon="0.34526">
        <ele>149.8</ele>
        <time>2021-04-25T16:51:15Z</time>
      </trkpt>
      <trkpt lat="46.51784" lon="0.34531">
        <ele>150.2</ele>
        <time>2021-04-25T16:51:21Z</time>
      </trkpt>
      <trkpt lat="46.51781" lon="0.34533">
        <ele>150.6</ele>
        <time>2021-04-25T16:51:23Z</time>
      </trkpt>
      <trkpt lat="46.51775" lon="0.34539">
        <ele>151.4</ele>
        <time>2021-04-25T16:51:27Z</time>
      </trkpt>
      <trkpt lat="46.51768" lon="0.34544">
        <ele>152</ele>
        <time>2021-04-25T16:51:31Z</time>
      </trkpt>
      <trkpt lat="46.51762" lon="0.34548">
        <ele>152.4</ele>
        <time>2021-04-25T16:51:35Z</time>
      </trkpt>
      <trkpt lat="46.51756" lon="0.34554">
        <ele>153</ele>
        <time>2021-04-25T16:51:39Z</time>
      </trkpt>
      <trkpt lat="46.51749" lon="0.34561">
        <ele>153.6</ele>
        <time>2021-04-25T16:51:43Z</time>
      </trkpt>
      <trkpt lat="46.51741" lon="0.34568">
        <ele>153.8</ele>
        <time>2021-04-25T16:51:47Z</time>
      </trkpt>
      <trkpt lat="46.51722" lon="0.34581">
        <ele>154.2</ele>
        <time>2021-04-25T16:51:55Z</time>
      </trkpt>
      <trkpt lat="46.51716" lon="0.34586">
        <ele>154.6</ele>
        <time>2021-04-25T16:51:57Z</time>
      </trkpt>
      <trkpt lat="46.51694" lon="0.34604">
        <ele>154.8</ele>
        <time>2021-04-25T16:52:05Z</time>
      </trkpt>
      <trkpt lat="46.51674" lon="0.3462">
        <ele>154</ele>
        <time>2021-04-25T16:52:12Z</time>
      </trkpt>
      <trkpt lat="46.51658" lon="0.34633">
        <ele>153.6</ele>
        <time>2021-04-25T16:52:17Z</time>
      </trkpt>
      <trkpt lat="46.51652" lon="0.34639">
        <ele>153.4</ele>
        <time>2021-04-25T16:52:19Z</time>
      </trkpt>
      <trkpt lat="46.51649" lon="0.34642">
        <ele>153.4</ele>
        <time>2021-04-25T16:52:20Z</time>
      </trkpt>
      <trkpt lat="46.51628" lon="0.34666">
        <ele>153.2</ele>
        <time>2021-04-25T16:52:27Z</time>
      </trkpt>
      <trkpt lat="46.5161" lon="0.34694">
        <ele>153</ele>
        <time>2021-04-25T16:52:33Z</time>
      </trkpt>
      <trkpt lat="46.51593" lon="0.34718">
        <ele>153</ele>
        <time>2021-04-25T16:52:39Z</time>
      </trkpt>
      <trkpt lat="46.51575" lon="0.34741">
        <ele>153.2</ele>
        <time>2021-04-25T16:52:46Z</time>
      </trkpt>
      <trkpt lat="46.51558" lon="0.34763">
        <ele>154.2</ele>
        <time>2021-04-25T16:52:53Z</time>
      </trkpt>
      <trkpt lat="46.51546" lon="0.34781">
        <ele>154.6</ele>
        <time>2021-04-25T16:52:58Z</time>
      </trkpt>
      <trkpt lat="46.51544" lon="0.34785">
        <ele>154.8</ele>
        <time>2021-04-25T16:52:59Z</time>
      </trkpt>
      <trkpt lat="46.51529" lon="0.34813">
        <ele>155.2</ele>
        <time>2021-04-25T16:53:06Z</time>
      </trkpt>
      <trkpt lat="46.51513" lon="0.34841">
        <ele>154.4</ele>
        <time>2021-04-25T16:53:12Z</time>
      </trkpt>
      <trkpt lat="46.51501" lon="0.34859">
        <ele>153.4</ele>
        <time>2021-04-25T16:53:15Z</time>
      </trkpt>
      <trkpt lat="46.51489" lon="0.34877">
        <ele>153</ele>
        <time>2021-04-25T16:53:18Z</time>
      </trkpt>
      <trkpt lat="46.51481" lon="0.34888">
        <ele>152.8</ele>
        <time>2021-04-25T16:53:20Z</time>
      </trkpt>
      <trkpt lat="46.5147" lon="0.34903">
        <ele>152.2</ele>
        <time>2021-04-25T16:53:23Z</time>
      </trkpt>
      <trkpt lat="46.51466" lon="0.34907">
        <ele>152.2</ele>
        <time>2021-04-25T16:53:24Z</time>
      </trkpt>
      <trkpt lat="46.51443" lon="0.34932">
        <ele>152</ele>
        <time>2021-04-25T16:53:31Z</time>
      </trkpt>
      <trkpt lat="46.51432" lon="0.34946">
        <ele>151</ele>
        <time>2021-04-25T16:53:35Z</time>
      </trkpt>
      <trkpt lat="46.51427" lon="0.34953">
        <ele>150.8</ele>
        <time>2021-04-25T16:53:37Z</time>
      </trkpt>
      <trkpt lat="46.51422" lon="0.3496">
        <ele>150</ele>
        <time>2021-04-25T16:53:39Z</time>
      </trkpt>
      <trkpt lat="46.51417" lon="0.34969">
        <ele>149</ele>
        <time>2021-04-25T16:53:42Z</time>
      </trkpt>
      <trkpt lat="46.51409" lon="0.34979">
        <ele>147.8</ele>
        <time>2021-04-25T16:53:47Z</time>
      </trkpt>
      <trkpt lat="46.51407" lon="0.34981">
        <ele>147.8</ele>
        <time>2021-04-25T16:53:48Z</time>
      </trkpt>
      <trkpt lat="46.51391" lon="0.35005">
        <ele>148.4</ele>
        <time>2021-04-25T16:53:56Z</time>
      </trkpt>
      <trkpt lat="46.51386" lon="0.3501">
        <ele>149</ele>
        <time>2021-04-25T16:53:58Z</time>
      </trkpt>
      <trkpt lat="46.51378" lon="0.35015">
        <ele>150.2</ele>
        <time>2021-04-25T16:54:01Z</time>
      </trkpt>
      <trkpt lat="46.51365" lon="0.3502">
        <ele>151.2</ele>
        <time>2021-04-25T16:54:06Z</time>
      </trkpt>
      <trkpt lat="46.5136" lon="0.35023">
        <ele>151.6</ele>
        <time>2021-04-25T16:54:08Z</time>
      </trkpt>
      <trkpt lat="46.51353" lon="0.35028">
        <ele>152.6</ele>
        <time>2021-04-25T16:54:11Z</time>
      </trkpt>
      <trkpt lat="46.51347" lon="0.35032">
        <ele>153.2</ele>
        <time>2021-04-25T16:54:14Z</time>
      </trkpt>
      <trkpt lat="46.51341" lon="0.35036">
        <ele>153.6</ele>
        <time>2021-04-25T16:54:17Z</time>
      </trkpt>
      <trkpt lat="46.51338" lon="0.35039">
        <ele>153.8</ele>
        <time>2021-04-25T16:54:19Z</time>
      </trkpt>
      <trkpt lat="46.51336" lon="0.35039">
        <ele>154</ele>
        <time>2021-04-25T16:54:20Z</time>
      </trkpt>
      <trkpt lat="46.51324" lon="0.35035">
        <ele>154</ele>
        <time>2021-04-25T16:54:27Z</time>
      </trkpt>
      <trkpt lat="46.51314" lon="0.35036">
        <ele>153.8</ele>
        <time>2021-04-25T16:54:32Z</time>
      </trkpt>
      <trkpt lat="46.51297" lon="0.35037">
        <ele>152.8</ele>
        <time>2021-04-25T16:54:37Z</time>
      </trkpt>
      <trkpt lat="46.51292" lon="0.35037">
        <ele>152.4</ele>
        <time>2021-04-25T16:54:38Z</time>
      </trkpt>
      <trkpt lat="46.51289" lon="0.35035">
        <ele>152.2</ele>
        <time>2021-04-25T16:54:39Z</time>
      </trkpt>
      <trkpt lat="46.51279" lon="0.35027">
        <ele>151.6</ele>
        <time>2021-04-25T16:54:41Z</time>
      </trkpt>
      <trkpt lat="46.51263" lon="0.35022">
        <ele>151.4</ele>
        <time>2021-04-25T16:54:43Z</time>
      </trkpt>
      <trkpt lat="46.51257" lon="0.35023">
        <ele>150.8</ele>
        <time>2021-04-25T16:54:44Z</time>
      </trkpt>
      <trkpt lat="46.51246" lon="0.35025">
        <ele>150</ele>
        <time>2021-04-25T16:54:46Z</time>
      </trkpt>
      <trkpt lat="46.51228" lon="0.35024">
        <ele>149.6</ele>
        <time>2021-04-25T16:54:49Z</time>
      </trkpt>
      <trkpt lat="46.5119" lon="0.35021">
        <ele>149.8</ele>
        <time>2021-04-25T16:54:57Z</time>
      </trkpt>
      <trkpt lat="46.51157" lon="0.35016">
        <ele>150.2</ele>
        <time>2021-04-25T16:55:04Z</time>
      </trkpt>
      <trkpt lat="46.51125" lon="0.35009">
        <ele>150.4</ele>
        <time>2021-04-25T16:55:11Z</time>
      </trkpt>
      <trkpt lat="46.511" lon="0.35006">
        <ele>151</ele>
        <time>2021-04-25T16:55:17Z</time>
      </trkpt>
      <trkpt lat="46.51095" lon="0.35008">
        <ele>151.2</ele>
        <time>2021-04-25T16:55:18Z</time>
      </trkpt>
      <trkpt lat="46.51087" lon="0.35018">
        <ele>151.4</ele>
        <time>2021-04-25T16:55:21Z</time>
      </trkpt>
      <trkpt lat="46.51083" lon="0.35032">
        <ele>152.2</ele>
        <time>2021-04-25T16:55:24Z</time>
      </trkpt>
      <trkpt lat="46.51078" lon="0.35058">
        <ele>153.6</ele>
        <time>2021-04-25T16:55:29Z</time>
      </trkpt>
      <trkpt lat="46.51072" lon="0.35077">
        <ele>155</ele>
        <time>2021-04-25T16:55:33Z</time>
      </trkpt>
      <trkpt lat="46.5107" lon="0.35086">
        <ele>155.4</ele>
        <time>2021-04-25T16:55:35Z</time>
      </trkpt>
      <trkpt lat="46.51069" lon="0.35093">
        <ele>156.2</ele>
        <time>2021-04-25T16:55:37Z</time>
      </trkpt>
      <trkpt lat="46.51066" lon="0.35107">
        <ele>157.4</ele>
        <time>2021-04-25T16:55:41Z</time>
      </trkpt>
      <trkpt lat="46.51064" lon="0.35133">
        <ele>158.4</ele>
        <time>2021-04-25T16:55:48Z</time>
      </trkpt>
      <trkpt lat="46.51061" lon="0.35156">
        <ele>159.2</ele>
        <time>2021-04-25T16:55:54Z</time>
      </trkpt>
      <trkpt lat="46.5106" lon="0.35168">
        <ele>159.6</ele>
        <time>2021-04-25T16:55:57Z</time>
      </trkpt>
      <trkpt lat="46.51061" lon="0.35179">
        <ele>160.2</ele>
        <time>2021-04-25T16:56:00Z</time>
      </trkpt>
      <trkpt lat="46.51061" lon="0.35191">
        <ele>160.8</ele>
        <time>2021-04-25T16:56:03Z</time>
      </trkpt>
      <trkpt lat="46.51059" lon="0.35218">
        <ele>161.4</ele>
        <time>2021-04-25T16:56:09Z</time>
      </trkpt>
      <trkpt lat="46.51057" lon="0.35226">
        <ele>161.8</ele>
        <time>2021-04-25T16:56:11Z</time>
      </trkpt>
      <trkpt lat="46.51052" lon="0.35265">
        <ele>162.8</ele>
        <time>2021-04-25T16:56:19Z</time>
      </trkpt>
      <trkpt lat="46.51047" lon="0.35299">
        <ele>163.8</ele>
        <time>2021-04-25T16:56:26Z</time>
      </trkpt>
      <trkpt lat="46.51046" lon="0.35303">
        <ele>164</ele>
        <time>2021-04-25T16:56:27Z</time>
      </trkpt>
      <trkpt lat="46.51039" lon="0.35328">
        <ele>164.6</ele>
        <time>2021-04-25T16:56:33Z</time>
      </trkpt>
      <trkpt lat="46.51034" lon="0.35354">
        <ele>165</ele>
        <time>2021-04-25T16:56:39Z</time>
      </trkpt>
      <trkpt lat="46.51032" lon="0.35364">
        <ele>165</ele>
        <time>2021-04-25T16:56:41Z</time>
      </trkpt>
      <trkpt lat="46.51027" lon="0.35378">
        <ele>165.4</ele>
        <time>2021-04-25T16:56:44Z</time>
      </trkpt>
      <trkpt lat="46.5102" lon="0.35407">
        <ele>165.4</ele>
        <time>2021-04-25T16:56:50Z</time>
      </trkpt>
      <trkpt lat="46.51004" lon="0.35431">
        <ele>165.4</ele>
        <time>2021-04-25T16:56:56Z</time>
      </trkpt>
      <trkpt lat="46.50982" lon="0.35468">
        <ele>165.6</ele>
        <time>2021-04-25T16:57:04Z</time>
      </trkpt>
      <trkpt lat="46.50981" lon="0.35473">
        <ele>165.6</ele>
        <time>2021-04-25T16:57:05Z</time>
      </trkpt>
      <trkpt lat="46.50976" lon="0.35483">
        <ele>165.8</ele>
        <time>2021-04-25T16:57:07Z</time>
      </trkpt>
      <trkpt lat="46.50968" lon="0.35496">
        <ele>166</ele>
        <time>2021-04-25T16:57:10Z</time>
      </trkpt>
      <trkpt lat="46.50962" lon="0.35506">
        <ele>166.2</ele>
        <time>2021-04-25T16:57:12Z</time>
      </trkpt>
      <trkpt lat="46.5096" lon="0.35511">
        <ele>166.2</ele>
        <time>2021-04-25T16:57:13Z</time>
      </trkpt>
      <trkpt lat="46.50954" lon="0.35525">
        <ele>166.8</ele>
        <time>2021-04-25T16:57:16Z</time>
      </trkpt>
      <trkpt lat="46.50947" lon="0.35537">
        <ele>167.4</ele>
        <time>2021-04-25T16:57:19Z</time>
      </trkpt>
      <trkpt lat="46.5094" lon="0.3555">
        <ele>167.6</ele>
        <time>2021-04-25T16:57:22Z</time>
      </trkpt>
      <trkpt lat="46.50918" lon="0.35587">
        <ele>168.2</ele>
        <time>2021-04-25T16:57:30Z</time>
      </trkpt>
      <trkpt lat="46.50911" lon="0.356">
        <ele>168.4</ele>
        <time>2021-04-25T16:57:33Z</time>
      </trkpt>
      <trkpt lat="46.50901" lon="0.35617">
        <ele>168.4</ele>
        <time>2021-04-25T16:57:37Z</time>
      </trkpt>
      <trkpt lat="46.5089" lon="0.35634">
        <ele>169.6</ele>
        <time>2021-04-25T16:57:41Z</time>
      </trkpt>
      <trkpt lat="46.50883" lon="0.35642">
        <ele>170</ele>
        <time>2021-04-25T16:57:43Z</time>
      </trkpt>
      <trkpt lat="46.50859" lon="0.35676">
        <ele>170.4</ele>
        <time>2021-04-25T16:57:51Z</time>
      </trkpt>
      <trkpt lat="46.50855" lon="0.3568">
        <ele>170.6</ele>
        <time>2021-04-25T16:57:52Z</time>
      </trkpt>
      <trkpt lat="46.50846" lon="0.35688">
        <ele>170.6</ele>
        <time>2021-04-25T16:57:54Z</time>
      </trkpt>
      <trkpt lat="46.5084" lon="0.35698">
        <ele>170.6</ele>
        <time>2021-04-25T16:57:56Z</time>
      </trkpt>
      <trkpt lat="46.50828" lon="0.35726">
        <ele>170.6</ele>
        <time>2021-04-25T16:58:01Z</time>
      </trkpt>
      <trkpt lat="46.50826" lon="0.3573">
        <ele>170.6</ele>
        <time>2021-04-25T16:58:02Z</time>
      </trkpt>
      <trkpt lat="46.50822" lon="0.35733">
        <ele>170.6</ele>
        <time>2021-04-25T16:58:03Z</time>
      </trkpt>
      <trkpt lat="46.50816" lon="0.3574">
        <ele>170.6</ele>
        <time>2021-04-25T16:58:05Z</time>
      </trkpt>
      <trkpt lat="46.5081" lon="0.35748">
        <ele>170.8</ele>
        <time>2021-04-25T16:58:07Z</time>
      </trkpt>
      <trkpt lat="46.50806" lon="0.35752">
        <ele>170.6</ele>
        <time>2021-04-25T16:58:08Z</time>
      </trkpt>
      <trkpt lat="46.50799" lon="0.35762">
        <ele>170.8</ele>
        <time>2021-04-25T16:58:10Z</time>
      </trkpt>
      <trkpt lat="46.50791" lon="0.35772">
        <ele>171</ele>
        <time>2021-04-25T16:58:12Z</time>
      </trkpt>
      <trkpt lat="46.5077" lon="0.35813">
        <ele>171.4</ele>
        <time>2021-04-25T16:58:19Z</time>
      </trkpt>
      <trkpt lat="46.50757" lon="0.35858">
        <ele>171.2</ele>
        <time>2021-04-25T16:58:26Z</time>
      </trkpt>
      <trkpt lat="46.50761" lon="0.35879">
        <ele>171</ele>
        <time>2021-04-25T16:58:29Z</time>
      </trkpt>
      <trkpt lat="46.50772" lon="0.35925">
        <ele>170</ele>
        <time>2021-04-25T16:58:35Z</time>
      </trkpt>
      <trkpt lat="46.50776" lon="0.35958">
        <ele>169.6</ele>
        <time>2021-04-25T16:58:39Z</time>
      </trkpt>
      <trkpt lat="46.50778" lon="0.35982">
        <ele>168.8</ele>
        <time>2021-04-25T16:58:42Z</time>
      </trkpt>
      <trkpt lat="46.50778" lon="0.36007">
        <ele>168.4</ele>
        <time>2021-04-25T16:58:45Z</time>
      </trkpt>
      <trkpt lat="46.50779" lon="0.36031">
        <ele>167.2</ele>
        <time>2021-04-25T16:58:48Z</time>
      </trkpt>
      <trkpt lat="46.50779" lon="0.36039">
        <ele>166.8</ele>
        <time>2021-04-25T16:58:49Z</time>
      </trkpt>
      <trkpt lat="46.5078" lon="0.36056">
        <ele>166</ele>
        <time>2021-04-25T16:58:51Z</time>
      </trkpt>
      <trkpt lat="46.5078" lon="0.36081">
        <ele>165</ele>
        <time>2021-04-25T16:58:54Z</time>
      </trkpt>
      <trkpt lat="46.50779" lon="0.36091">
        <ele>164.4</ele>
        <time>2021-04-25T16:58:55Z</time>
      </trkpt>
      <trkpt lat="46.50774" lon="0.36107">
        <ele>164.2</ele>
        <time>2021-04-25T16:58:57Z</time>
      </trkpt>
      <trkpt lat="46.50764" lon="0.36126">
        <ele>164.6</ele>
        <time>2021-04-25T16:59:01Z</time>
      </trkpt>
      <trkpt lat="46.50757" lon="0.36141">
        <ele>164.8</ele>
        <time>2021-04-25T16:59:04Z</time>
      </trkpt>
      <trkpt lat="46.50756" lon="0.36147">
        <ele>165</ele>
        <time>2021-04-25T16:59:05Z</time>
      </trkpt>
      <trkpt lat="46.5075" lon="0.3618">
        <ele>165.4</ele>
        <time>2021-04-25T16:59:10Z</time>
      </trkpt>
      <trkpt lat="46.50747" lon="0.362">
        <ele>165.2</ele>
        <time>2021-04-25T16:59:13Z</time>
      </trkpt>
      <trkpt lat="46.50739" lon="0.36251">
        <ele>164.2</ele>
        <time>2021-04-25T16:59:21Z</time>
      </trkpt>
      <trkpt lat="46.50736" lon="0.36272">
        <ele>163.8</ele>
        <time>2021-04-25T16:59:24Z</time>
      </trkpt>
      <trkpt lat="46.50731" lon="0.36306">
        <ele>163.4</ele>
        <time>2021-04-25T16:59:29Z</time>
      </trkpt>
      <trkpt lat="46.5073" lon="0.36319">
        <ele>162.6</ele>
        <time>2021-04-25T16:59:31Z</time>
      </trkpt>
      <trkpt lat="46.50724" lon="0.36361">
        <ele>161.6</ele>
        <time>2021-04-25T16:59:37Z</time>
      </trkpt>
      <trkpt lat="46.50718" lon="0.36398">
        <ele>160.6</ele>
        <time>2021-04-25T16:59:42Z</time>
      </trkpt>
      <trkpt lat="46.50717" lon="0.36414">
        <ele>159.8</ele>
        <time>2021-04-25T16:59:44Z</time>
      </trkpt>
      <trkpt lat="46.50716" lon="0.36422">
        <ele>159.6</ele>
        <time>2021-04-25T16:59:45Z</time>
      </trkpt>
      <trkpt lat="46.50715" lon="0.36431">
        <ele>159.4</ele>
        <time>2021-04-25T16:59:46Z</time>
      </trkpt>
      <trkpt lat="46.50712" lon="0.36448">
        <ele>159.2</ele>
        <time>2021-04-25T16:59:48Z</time>
      </trkpt>
      <trkpt lat="46.50711" lon="0.36457">
        <ele>159</ele>
        <time>2021-04-25T16:59:49Z</time>
      </trkpt>
      <trkpt lat="46.50708" lon="0.36484">
        <ele>158.2</ele>
        <time>2021-04-25T16:59:52Z</time>
      </trkpt>
      <trkpt lat="46.50706" lon="0.36494">
        <ele>158</ele>
        <time>2021-04-25T16:59:53Z</time>
      </trkpt>
      <trkpt lat="46.50699" lon="0.36542">
        <ele>157.2</ele>
        <time>2021-04-25T16:59:58Z</time>
      </trkpt>
      <trkpt lat="46.50695" lon="0.3656">
        <ele>156.6</ele>
        <time>2021-04-25T17:00:00Z</time>
      </trkpt>
      <trkpt lat="46.50688" lon="0.36582">
        <ele>156.8</ele>
        <time>2021-04-25T17:00:03Z</time>
      </trkpt>
      <trkpt lat="46.50682" lon="0.36593">
        <ele>157</ele>
        <time>2021-04-25T17:00:05Z</time>
      </trkpt>
      <trkpt lat="46.50665" lon="0.36611">
        <ele>158.2</ele>
        <time>2021-04-25T17:00:10Z</time>
      </trkpt>
      <trkpt lat="46.50662" lon="0.36615">
        <ele>158.6</ele>
        <time>2021-04-25T17:00:11Z</time>
      </trkpt>
      <trkpt lat="46.50654" lon="0.36628">
        <ele>159.2</ele>
        <time>2021-04-25T17:00:14Z</time>
      </trkpt>
      <trkpt lat="46.50652" lon="0.36636">
        <ele>159.6</ele>
        <time>2021-04-25T17:00:16Z</time>
      </trkpt>
      <trkpt lat="46.50649" lon="0.36648">
        <ele>160.4</ele>
        <time>2021-04-25T17:00:19Z</time>
      </trkpt>
      <trkpt lat="46.50648" lon="0.36662">
        <ele>161.4</ele>
        <time>2021-04-25T17:00:23Z</time>
      </trkpt>
      <trkpt lat="46.50645" lon="0.36681">
        <ele>162.6</ele>
        <time>2021-04-25T17:00:28Z</time>
      </trkpt>
      <trkpt lat="46.50643" lon="0.36693">
        <ele>163.2</ele>
        <time>2021-04-25T17:00:31Z</time>
      </trkpt>
      <trkpt lat="46.50641" lon="0.36706">
        <ele>163.8</ele>
        <time>2021-04-25T17:00:35Z</time>
      </trkpt>
      <trkpt lat="46.50641" lon="0.36723">
        <ele>164.4</ele>
        <time>2021-04-25T17:00:40Z</time>
      </trkpt>
      <trkpt lat="46.50643" lon="0.36731">
        <ele>164.8</ele>
        <time>2021-04-25T17:00:42Z</time>
      </trkpt>
      <trkpt lat="46.50647" lon="0.36744">
        <ele>165.4</ele>
        <time>2021-04-25T17:00:46Z</time>
      </trkpt>
      <trkpt lat="46.5065" lon="0.36761">
        <ele>165.8</ele>
        <time>2021-04-25T17:00:51Z</time>
      </trkpt>
      <trkpt lat="46.50651" lon="0.36764">
        <ele>165.8</ele>
        <time>2021-04-25T17:00:52Z</time>
      </trkpt>
      <trkpt lat="46.50649" lon="0.36782">
        <ele>166.6</ele>
        <time>2021-04-25T17:00:57Z</time>
      </trkpt>
      <trkpt lat="46.50644" lon="0.36803">
        <ele>167</ele>
        <time>2021-04-25T17:01:02Z</time>
      </trkpt>
      <trkpt lat="46.50638" lon="0.36826">
        <ele>167.4</ele>
        <time>2021-04-25T17:01:08Z</time>
      </trkpt>
      <trkpt lat="46.50636" lon="0.36839">
        <ele>168</ele>
        <time>2021-04-25T17:01:14Z</time>
      </trkpt>
      <trkpt lat="46.50636" lon="0.36842">
        <ele>167.8</ele>
        <time>2021-04-25T17:01:17Z</time>
      </trkpt>
    </trkseg>
  </trk>
</gpx>